<?xml version="1.0" encoding="utf-8"?>
<gpx xmlns:xsi="http://www.w3.org/2001/XMLSchema-instance" xmlns:xsd="http://www.w3.org/2001/XMLSchema" version="1.1" creator="Shapelink.com" xmlns="http://www.topografix.com/GPX/1/1" xmlns:gpxtpx="http://www.garmin.com/xmlschemas/TrackPointExtension/v1">
  <metadata>
    <name>Walking 1.57 km, 2011-11-05</name>
    <desc></desc>
    <author><name>Alexander Engvall</name></author> 
    <time>2011-11-05T14:06:33Z</time>
  </metadata>
  <trk>
    <name>Walking 1.57 km, 2011-11-05</name>
    <trkseg>
      <trkpt lat="62.8371199407" lon="14.4188649952">
        <ele>572</ele>
        <time>2011-11-05T14:06:33Z</time>
      </trkpt>
      <trkpt lat="62.8371199407" lon="14.4188649952">
        <ele>572</ele>
        <time>2011-11-05T14:06:34Z</time>
      </trkpt>
      <trkpt lat="62.8371199407" lon="14.4188649952">
        <ele>572</ele>
        <time>2011-11-05T14:06:35Z</time>
      </trkpt>
      <trkpt lat="62.8371199407" lon="14.4188649952">
        <ele>572</ele>
        <time>2011-11-05T14:06:36Z</time>
      </trkpt>
      <trkpt lat="62.8371199407" lon="14.4188649952">
        <ele>572</ele>
        <time>2011-11-05T14:06:37Z</time>
      </trkpt>
      <trkpt lat="62.8371199407" lon="14.4188649952">
        <ele>572</ele>
        <time>2011-11-05T14:06:38Z</time>
      </trkpt>
      <trkpt lat="62.8371199407" lon="14.4188649952">
        <ele>572</ele>
        <time>2011-11-05T14:06:39Z</time>
      </trkpt>
      <trkpt lat="62.8371199407" lon="14.4188649952">
        <ele>572</ele>
        <time>2011-11-05T14:06:40Z</time>
      </trkpt>
      <trkpt lat="62.8371199407" lon="14.4188649952">
        <ele>572</ele>
        <time>2011-11-05T14:06:41Z</time>
      </trkpt>
      <trkpt lat="62.8371649515" lon="14.4189789891">
        <ele>524</ele>
        <time>2011-11-05T14:06:42Z</time>
      </trkpt>
      <trkpt lat="62.8371649515" lon="14.4189789891">
        <ele>524</ele>
        <time>2011-11-05T14:06:43Z</time>
      </trkpt>
      <trkpt lat="62.8371649515" lon="14.4189789891">
        <ele>524</ele>
        <time>2011-11-05T14:06:44Z</time>
      </trkpt>
      <trkpt lat="62.8371649515" lon="14.4189789891">
        <ele>524</ele>
        <time>2011-11-05T14:06:45Z</time>
      </trkpt>
      <trkpt lat="62.8371649515" lon="14.4189789891">
        <ele>524</ele>
        <time>2011-11-05T14:06:46Z</time>
      </trkpt>
      <trkpt lat="62.8371649515" lon="14.4189789891">
        <ele>524</ele>
        <time>2011-11-05T14:06:47Z</time>
      </trkpt>
      <trkpt lat="62.8372089565" lon="14.4190129358">
        <ele>521</ele>
        <time>2011-11-05T14:06:48Z</time>
      </trkpt>
      <trkpt lat="62.8372089565" lon="14.4190129358">
        <ele>521</ele>
        <time>2011-11-05T14:06:49Z</time>
      </trkpt>
      <trkpt lat="62.8372089565" lon="14.4190129358">
        <ele>521</ele>
        <time>2011-11-05T14:06:50Z</time>
      </trkpt>
      <trkpt lat="62.8372089565" lon="14.4190129358">
        <ele>521</ele>
        <time>2011-11-05T14:06:51Z</time>
      </trkpt>
      <trkpt lat="62.8372089565" lon="14.4190129358">
        <ele>521</ele>
        <time>2011-11-05T14:06:52Z</time>
      </trkpt>
      <trkpt lat="62.8372089565" lon="14.4190129358">
        <ele>521</ele>
        <time>2011-11-05T14:06:53Z</time>
      </trkpt>
      <trkpt lat="62.8372089565" lon="14.4190129358">
        <ele>521</ele>
        <time>2011-11-05T14:06:54Z</time>
      </trkpt>
      <trkpt lat="62.8372089565" lon="14.4190129358">
        <ele>521</ele>
        <time>2011-11-05T14:06:55Z</time>
      </trkpt>
      <trkpt lat="62.8372089565" lon="14.4190129358">
        <ele>521</ele>
        <time>2011-11-05T14:06:56Z</time>
      </trkpt>
      <trkpt lat="62.8372539673" lon="14.4190329686">
        <ele>529</ele>
        <time>2011-11-05T14:06:57Z</time>
      </trkpt>
      <trkpt lat="62.8372539673" lon="14.4190329686">
        <ele>529</ele>
        <time>2011-11-05T14:06:58Z</time>
      </trkpt>
      <trkpt lat="62.8372539673" lon="14.4190329686">
        <ele>529</ele>
        <time>2011-11-05T14:06:59Z</time>
      </trkpt>
      <trkpt lat="62.8372539673" lon="14.4190329686">
        <ele>529</ele>
        <time>2011-11-05T14:07:00Z</time>
      </trkpt>
      <trkpt lat="62.8372539673" lon="14.4190329686">
        <ele>529</ele>
        <time>2011-11-05T14:07:01Z</time>
      </trkpt>
      <trkpt lat="62.8372819629" lon="14.419048978">
        <ele>527</ele>
        <time>2011-11-05T14:07:02Z</time>
      </trkpt>
      <trkpt lat="62.8372879978" lon="14.4190609641">
        <ele>528</ele>
        <time>2011-11-05T14:07:03Z</time>
      </trkpt>
      <trkpt lat="62.8372919373" lon="14.4190759677">
        <ele>527</ele>
        <time>2011-11-05T14:07:04Z</time>
      </trkpt>
      <trkpt lat="62.8372909315" lon="14.4190919772">
        <ele>527</ele>
        <time>2011-11-05T14:07:05Z</time>
      </trkpt>
      <trkpt lat="62.8372919373" lon="14.4191179611">
        <ele>523</ele>
        <time>2011-11-05T14:07:06Z</time>
      </trkpt>
      <trkpt lat="62.837293949" lon="14.4191249181">
        <ele>519</ele>
        <time>2011-11-05T14:07:07Z</time>
      </trkpt>
      <trkpt lat="62.837293949" lon="14.4191249181">
        <ele>519</ele>
        <time>2011-11-05T14:07:08Z</time>
      </trkpt>
      <trkpt lat="62.8372949548" lon="14.4191259239">
        <ele>523</ele>
        <time>2011-11-05T14:07:09Z</time>
      </trkpt>
      <trkpt lat="62.8372949548" lon="14.4191259239">
        <ele>529</ele>
        <time>2011-11-05T14:07:10Z</time>
      </trkpt>
      <trkpt lat="62.8372949548" lon="14.4191259239">
        <ele>530</ele>
        <time>2011-11-05T14:07:11Z</time>
      </trkpt>
      <trkpt lat="62.8372949548" lon="14.4191319589">
        <ele>529</ele>
        <time>2011-11-05T14:07:12Z</time>
      </trkpt>
      <trkpt lat="62.8372979723" lon="14.4191469625">
        <ele>529</ele>
        <time>2011-11-05T14:07:13Z</time>
      </trkpt>
      <trkpt lat="62.8372979723" lon="14.4191549253">
        <ele>526</ele>
        <time>2011-11-05T14:07:14Z</time>
      </trkpt>
      <trkpt lat="62.8372999839" lon="14.4191609602">
        <ele>525</ele>
        <time>2011-11-05T14:07:15Z</time>
      </trkpt>
      <trkpt lat="62.8372999839" lon="14.4191609602">
        <ele>528</ele>
        <time>2011-11-05T14:07:16Z</time>
      </trkpt>
      <trkpt lat="62.8372999839" lon="14.4191609602">
        <ele>529</ele>
        <time>2011-11-05T14:07:17Z</time>
      </trkpt>
      <trkpt lat="62.8372989781" lon="14.4191609602">
        <ele>527</ele>
        <time>2011-11-05T14:07:18Z</time>
      </trkpt>
      <trkpt lat="62.8372909315" lon="14.4191609602">
        <ele>528</ele>
        <time>2011-11-05T14:07:19Z</time>
      </trkpt>
      <trkpt lat="62.8372899257" lon="14.4191669952">
        <ele>530</ele>
        <time>2011-11-05T14:07:20Z</time>
      </trkpt>
      <trkpt lat="62.8372929431" lon="14.4191779755">
        <ele>528</ele>
        <time>2011-11-05T14:07:21Z</time>
      </trkpt>
      <trkpt lat="62.8372929431" lon="14.4191889558">
        <ele>529</ele>
        <time>2011-11-05T14:07:22Z</time>
      </trkpt>
      <trkpt lat="62.8372929431" lon="14.4191989303">
        <ele>532</ele>
        <time>2011-11-05T14:07:23Z</time>
      </trkpt>
      <trkpt lat="62.8372949548" lon="14.4192079827">
        <ele>534</ele>
        <time>2011-11-05T14:07:24Z</time>
      </trkpt>
      <trkpt lat="62.8372949548" lon="14.4192239922">
        <ele>537</ele>
        <time>2011-11-05T14:07:25Z</time>
      </trkpt>
      <trkpt lat="62.8372929431" lon="14.4192359783">
        <ele>536</ele>
        <time>2011-11-05T14:07:26Z</time>
      </trkpt>
      <trkpt lat="62.8372889198" lon="14.4192489702">
        <ele>533</ele>
        <time>2011-11-05T14:07:27Z</time>
      </trkpt>
      <trkpt lat="62.8372849803" lon="14.4192619622">
        <ele>531</ele>
        <time>2011-11-05T14:07:28Z</time>
      </trkpt>
      <trkpt lat="62.8372799512" lon="14.4192819949">
        <ele>532</ele>
        <time>2011-11-05T14:07:29Z</time>
      </trkpt>
      <trkpt lat="62.8372739162" lon="14.4192969985">
        <ele>530</ele>
        <time>2011-11-05T14:07:30Z</time>
      </trkpt>
      <trkpt lat="62.8372679651" lon="14.4193149358">
        <ele>529</ele>
        <time>2011-11-05T14:07:31Z</time>
      </trkpt>
      <trkpt lat="62.8372619301" lon="14.4193329569">
        <ele>529</ele>
        <time>2011-11-05T14:07:32Z</time>
      </trkpt>
      <trkpt lat="62.8372549731" lon="14.4193459488">
        <ele>530</ele>
        <time>2011-11-05T14:07:33Z</time>
      </trkpt>
      <trkpt lat="62.8372459207" lon="14.4193589408">
        <ele>529</ele>
        <time>2011-11-05T14:07:34Z</time>
      </trkpt>
      <trkpt lat="62.8372389637" lon="14.4193699211">
        <ele>531</ele>
        <time>2011-11-05T14:07:35Z</time>
      </trkpt>
      <trkpt lat="62.8372319229" lon="14.4193799794">
        <ele>532</ele>
        <time>2011-11-05T14:07:36Z</time>
      </trkpt>
      <trkpt lat="62.8372239601" lon="14.4193909597">
        <ele>530</ele>
        <time>2011-11-05T14:07:37Z</time>
      </trkpt>
      <trkpt lat="62.8372149915" lon="14.4194009341">
        <ele>529</ele>
        <time>2011-11-05T14:07:38Z</time>
      </trkpt>
      <trkpt lat="62.8372039273" lon="14.4194089808">
        <ele>529</ele>
        <time>2011-11-05T14:07:39Z</time>
      </trkpt>
      <trkpt lat="62.8371949587" lon="14.4194119982">
        <ele>529</ele>
        <time>2011-11-05T14:07:40Z</time>
      </trkpt>
      <trkpt lat="62.8371949587" lon="14.4194119982">
        <ele>533</ele>
        <time>2011-11-05T14:07:41Z</time>
      </trkpt>
      <trkpt lat="62.8371949587" lon="14.4194119982">
        <ele>535</ele>
        <time>2011-11-05T14:07:42Z</time>
      </trkpt>
      <trkpt lat="62.8371939529" lon="14.4194229785">
        <ele>532</ele>
        <time>2011-11-05T14:07:43Z</time>
      </trkpt>
      <trkpt lat="62.8371889237" lon="14.4194309413">
        <ele>534</ele>
        <time>2011-11-05T14:07:44Z</time>
      </trkpt>
      <trkpt lat="62.8371829726" lon="14.4194419216">
        <ele>537</ele>
        <time>2011-11-05T14:07:45Z</time>
      </trkpt>
      <trkpt lat="62.8371759318" lon="14.4194459449">
        <ele>535</ele>
        <time>2011-11-05T14:07:46Z</time>
      </trkpt>
      <trkpt lat="62.837174926" lon="14.4194459449">
        <ele>538</ele>
        <time>2011-11-05T14:07:47Z</time>
      </trkpt>
      <trkpt lat="62.837174926" lon="14.4194459449">
        <ele>535</ele>
        <time>2011-11-05T14:07:48Z</time>
      </trkpt>
      <trkpt lat="62.837174926" lon="14.4194459449">
        <ele>532</ele>
        <time>2011-11-05T14:07:49Z</time>
      </trkpt>
      <trkpt lat="62.8371739201" lon="14.4194429275">
        <ele>532</ele>
        <time>2011-11-05T14:07:50Z</time>
      </trkpt>
      <trkpt lat="62.8371729981" lon="14.4194479566">
        <ele>533</ele>
        <time>2011-11-05T14:07:51Z</time>
      </trkpt>
      <trkpt lat="62.8371699806" lon="14.4194459449">
        <ele>535</ele>
        <time>2011-11-05T14:07:52Z</time>
      </trkpt>
      <trkpt lat="62.8371659573" lon="14.4194429275">
        <ele>538</ele>
        <time>2011-11-05T14:07:53Z</time>
      </trkpt>
      <trkpt lat="62.8371609282" lon="14.4194379821">
        <ele>536</ele>
        <time>2011-11-05T14:07:54Z</time>
      </trkpt>
      <trkpt lat="62.837154977" lon="14.419425996">
        <ele>535</ele>
        <time>2011-11-05T14:07:55Z</time>
      </trkpt>
      <trkpt lat="62.8371499479" lon="14.4194209669">
        <ele>535</ele>
        <time>2011-11-05T14:07:56Z</time>
      </trkpt>
      <trkpt lat="62.8371439967" lon="14.4194149319">
        <ele>535</ele>
        <time>2011-11-05T14:07:57Z</time>
      </trkpt>
      <trkpt lat="62.8371369559" lon="14.4194109924">
        <ele>534</ele>
        <time>2011-11-05T14:07:58Z</time>
      </trkpt>
      <trkpt lat="62.8371369559" lon="14.4194109924">
        <ele>537</ele>
        <time>2011-11-05T14:07:59Z</time>
      </trkpt>
      <trkpt lat="62.8371359501" lon="14.4194139261">
        <ele>537</ele>
        <time>2011-11-05T14:08:00Z</time>
      </trkpt>
      <trkpt lat="62.8371339384" lon="14.4194139261">
        <ele>537</ele>
        <time>2011-11-05T14:08:01Z</time>
      </trkpt>
      <trkpt lat="62.8371339384" lon="14.4194139261">
        <ele>536</ele>
        <time>2011-11-05T14:08:02Z</time>
      </trkpt>
      <trkpt lat="62.8371339384" lon="14.4194139261">
        <ele>534</ele>
        <time>2011-11-05T14:08:03Z</time>
      </trkpt>
      <trkpt lat="62.8371339384" lon="14.4194139261">
        <ele>530</ele>
        <time>2011-11-05T14:08:04Z</time>
      </trkpt>
      <trkpt lat="62.8371339384" lon="14.4194139261">
        <ele>528</ele>
        <time>2011-11-05T14:08:05Z</time>
      </trkpt>
      <trkpt lat="62.8371339384" lon="14.4194139261">
        <ele>526</ele>
        <time>2011-11-05T14:08:06Z</time>
      </trkpt>
      <trkpt lat="62.837130921" lon="14.4194139261">
        <ele>526</ele>
        <time>2011-11-05T14:08:07Z</time>
      </trkpt>
      <trkpt lat="62.837130921" lon="14.4194139261">
        <ele>527</ele>
        <time>2011-11-05T14:08:08Z</time>
      </trkpt>
      <trkpt lat="62.8371279873" lon="14.4194099866">
        <ele>526</ele>
        <time>2011-11-05T14:08:09Z</time>
      </trkpt>
      <trkpt lat="62.8371279873" lon="14.4194099866">
        <ele>527</ele>
        <time>2011-11-05T14:08:10Z</time>
      </trkpt>
      <trkpt lat="62.8371279873" lon="14.4194099866">
        <ele>526</ele>
        <time>2011-11-05T14:08:11Z</time>
      </trkpt>
      <trkpt lat="62.837123964" lon="14.4194149319">
        <ele>526</ele>
        <time>2011-11-05T14:08:12Z</time>
      </trkpt>
      <trkpt lat="62.8371199407" lon="14.4194159377">
        <ele>523</ele>
        <time>2011-11-05T14:08:13Z</time>
      </trkpt>
      <trkpt lat="62.8371199407" lon="14.4194159377">
        <ele>524</ele>
        <time>2011-11-05T14:08:14Z</time>
      </trkpt>
      <trkpt lat="62.8371199407" lon="14.4194159377">
        <ele>527</ele>
        <time>2011-11-05T14:08:15Z</time>
      </trkpt>
      <trkpt lat="62.8371199407" lon="14.4194159377">
        <ele>531</ele>
        <time>2011-11-05T14:08:16Z</time>
      </trkpt>
      <trkpt lat="62.8371199407" lon="14.4194159377">
        <ele>536</ele>
        <time>2011-11-05T14:08:17Z</time>
      </trkpt>
      <trkpt lat="62.8371199407" lon="14.4194159377">
        <ele>532</ele>
        <time>2011-11-05T14:08:18Z</time>
      </trkpt>
      <trkpt lat="62.8371189348" lon="14.4194149319">
        <ele>533</ele>
        <time>2011-11-05T14:08:19Z</time>
      </trkpt>
      <trkpt lat="62.837117929" lon="14.4194209669">
        <ele>536</ele>
        <time>2011-11-05T14:08:20Z</time>
      </trkpt>
      <trkpt lat="62.837117929" lon="14.4194209669">
        <ele>537</ele>
        <time>2011-11-05T14:08:21Z</time>
      </trkpt>
      <trkpt lat="62.8371199407" lon="14.4194289297">
        <ele>533</ele>
        <time>2011-11-05T14:08:22Z</time>
      </trkpt>
      <trkpt lat="62.8371199407" lon="14.4194289297">
        <ele>534</ele>
        <time>2011-11-05T14:08:23Z</time>
      </trkpt>
      <trkpt lat="62.8371199407" lon="14.4194289297">
        <ele>533</ele>
        <time>2011-11-05T14:08:24Z</time>
      </trkpt>
      <trkpt lat="62.8371199407" lon="14.4194359705">
        <ele>531</ele>
        <time>2011-11-05T14:08:25Z</time>
      </trkpt>
      <trkpt lat="62.837117929" lon="14.4194429275">
        <ele>535</ele>
        <time>2011-11-05T14:08:26Z</time>
      </trkpt>
      <trkpt lat="62.8371119779" lon="14.4194479566">
        <ele>537</ele>
        <time>2011-11-05T14:08:27Z</time>
      </trkpt>
      <trkpt lat="62.8371119779" lon="14.4194479566">
        <ele>538</ele>
        <time>2011-11-05T14:08:28Z</time>
      </trkpt>
      <trkpt lat="62.8371119779" lon="14.4194479566">
        <ele>536</ele>
        <time>2011-11-05T14:08:29Z</time>
      </trkpt>
      <trkpt lat="62.8371089604" lon="14.4194589369">
        <ele>541</ele>
        <time>2011-11-05T14:08:30Z</time>
      </trkpt>
      <trkpt lat="62.8371029254" lon="14.4194689952">
        <ele>539</ele>
        <time>2011-11-05T14:08:31Z</time>
      </trkpt>
      <trkpt lat="62.8371029254" lon="14.4194689952">
        <ele>540</ele>
        <time>2011-11-05T14:08:32Z</time>
      </trkpt>
      <trkpt lat="62.8371029254" lon="14.4194689952">
        <ele>541</ele>
        <time>2011-11-05T14:08:33Z</time>
      </trkpt>
      <trkpt lat="62.8371029254" lon="14.4194689952">
        <ele>540</ele>
        <time>2011-11-05T14:08:34Z</time>
      </trkpt>
      <trkpt lat="62.8370989859" lon="14.4194779638">
        <ele>540</ele>
        <time>2011-11-05T14:08:35Z</time>
      </trkpt>
      <trkpt lat="62.8370989859" lon="14.4194779638">
        <ele>539</ele>
        <time>2011-11-05T14:08:36Z</time>
      </trkpt>
      <trkpt lat="62.8370989859" lon="14.4194779638">
        <ele>540</ele>
        <time>2011-11-05T14:08:37Z</time>
      </trkpt>
      <trkpt lat="62.8370889276" lon="14.4194919616">
        <ele>542</ele>
        <time>2011-11-05T14:08:38Z</time>
      </trkpt>
      <trkpt lat="62.8370779473" lon="14.4195049535">
        <ele>540</ele>
        <time>2011-11-05T14:08:39Z</time>
      </trkpt>
      <trkpt lat="62.8370609321" lon="14.4195179455">
        <ele>539</ele>
        <time>2011-11-05T14:08:40Z</time>
      </trkpt>
      <trkpt lat="62.8370439168" lon="14.4195249863">
        <ele>538</ele>
        <time>2011-11-05T14:08:41Z</time>
      </trkpt>
      <trkpt lat="62.8370439168" lon="14.4195249863">
        <ele>540</ele>
        <time>2011-11-05T14:08:42Z</time>
      </trkpt>
      <trkpt lat="62.8370439168" lon="14.4195249863">
        <ele>541</ele>
        <time>2011-11-05T14:08:43Z</time>
      </trkpt>
      <trkpt lat="62.8370389715" lon="14.4195339549">
        <ele>536</ele>
        <time>2011-11-05T14:08:44Z</time>
      </trkpt>
      <trkpt lat="62.8370259795" lon="14.4195429236">
        <ele>537</ele>
        <time>2011-11-05T14:08:45Z</time>
      </trkpt>
      <trkpt lat="62.8370129876" lon="14.4195489585">
        <ele>536</ele>
        <time>2011-11-05T14:08:46Z</time>
      </trkpt>
      <trkpt lat="62.8369999956" lon="14.4195509702">
        <ele>535</ele>
        <time>2011-11-05T14:08:47Z</time>
      </trkpt>
      <trkpt lat="62.8369939607" lon="14.4195509702">
        <ele>536</ele>
        <time>2011-11-05T14:08:48Z</time>
      </trkpt>
      <trkpt lat="62.8369859979" lon="14.4195609447">
        <ele>538</ele>
        <time>2011-11-05T14:08:49Z</time>
      </trkpt>
      <trkpt lat="62.8369769454" lon="14.4195749424">
        <ele>540</ele>
        <time>2011-11-05T14:08:50Z</time>
      </trkpt>
      <trkpt lat="62.8369679768" lon="14.4195839949">
        <ele>542</ele>
        <time>2011-11-05T14:08:51Z</time>
      </trkpt>
      <trkpt lat="62.8369569965" lon="14.4195869286">
        <ele>546</ele>
        <time>2011-11-05T14:08:52Z</time>
      </trkpt>
      <trkpt lat="62.8369569965" lon="14.4195869286">
        <ele>543</ele>
        <time>2011-11-05T14:08:53Z</time>
      </trkpt>
      <trkpt lat="62.8369569965" lon="14.4195869286">
        <ele>544</ele>
        <time>2011-11-05T14:08:54Z</time>
      </trkpt>
      <trkpt lat="62.8369549848" lon="14.4195949752">
        <ele>543</ele>
        <time>2011-11-05T14:08:55Z</time>
      </trkpt>
      <trkpt lat="62.8369499557" lon="14.419602938">
        <ele>540</ele>
        <time>2011-11-05T14:08:56Z</time>
      </trkpt>
      <trkpt lat="62.836940987" lon="14.4196109846">
        <ele>540</ele>
        <time>2011-11-05T14:08:57Z</time>
      </trkpt>
      <trkpt lat="62.8369299229" lon="14.4196199533">
        <ele>538</ele>
        <time>2011-11-05T14:08:58Z</time>
      </trkpt>
      <trkpt lat="62.8369179368" lon="14.4196259882">
        <ele>536</ele>
        <time>2011-11-05T14:08:59Z</time>
      </trkpt>
      <trkpt lat="62.836909974" lon="14.4196309336">
        <ele>535</ele>
        <time>2011-11-05T14:09:00Z</time>
      </trkpt>
      <trkpt lat="62.8369049449" lon="14.4196349569">
        <ele>534</ele>
        <time>2011-11-05T14:09:01Z</time>
      </trkpt>
      <trkpt lat="62.8369009215" lon="14.4196389802">
        <ele>536</ele>
        <time>2011-11-05T14:09:02Z</time>
      </trkpt>
      <trkpt lat="62.8368959762" lon="14.419639986">
        <ele>539</ele>
        <time>2011-11-05T14:09:03Z</time>
      </trkpt>
      <trkpt lat="62.8368959762" lon="14.419639986">
        <ele>539</ele>
        <time>2011-11-05T14:09:04Z</time>
      </trkpt>
      <trkpt lat="62.8368979879" lon="14.4196489546">
        <ele>541</ele>
        <time>2011-11-05T14:09:05Z</time>
      </trkpt>
      <trkpt lat="62.8368979879" lon="14.4196569175">
        <ele>540</ele>
        <time>2011-11-05T14:09:06Z</time>
      </trkpt>
      <trkpt lat="62.8368959762" lon="14.4196659699">
        <ele>541</ele>
        <time>2011-11-05T14:09:07Z</time>
      </trkpt>
      <trkpt lat="62.8368929587" lon="14.4196699932">
        <ele>544</ele>
        <time>2011-11-05T14:09:08Z</time>
      </trkpt>
      <trkpt lat="62.8368889354" lon="14.4196749385">
        <ele>544</ele>
        <time>2011-11-05T14:09:09Z</time>
      </trkpt>
      <trkpt lat="62.8368829843" lon="14.4196789619">
        <ele>545</ele>
        <time>2011-11-05T14:09:10Z</time>
      </trkpt>
      <trkpt lat="62.8368829843" lon="14.4196789619">
        <ele>542</ele>
        <time>2011-11-05T14:09:11Z</time>
      </trkpt>
      <trkpt lat="62.8368829843" lon="14.4196789619">
        <ele>541</ele>
        <time>2011-11-05T14:09:12Z</time>
      </trkpt>
      <trkpt lat="62.8368819784" lon="14.4196859188">
        <ele>539</ele>
        <time>2011-11-05T14:09:13Z</time>
      </trkpt>
      <trkpt lat="62.8368809726" lon="14.4196949713">
        <ele>537</ele>
        <time>2011-11-05T14:09:14Z</time>
      </trkpt>
      <trkpt lat="62.8368769493" lon="14.4197019283">
        <ele>537</ele>
        <time>2011-11-05T14:09:15Z</time>
      </trkpt>
      <trkpt lat="62.8368749376" lon="14.4197069574">
        <ele>533</ele>
        <time>2011-11-05T14:09:16Z</time>
      </trkpt>
      <trkpt lat="62.8368749376" lon="14.4197069574">
        <ele>533</ele>
        <time>2011-11-05T14:09:17Z</time>
      </trkpt>
      <trkpt lat="62.8368749376" lon="14.4197129924">
        <ele>532</ele>
        <time>2011-11-05T14:09:18Z</time>
      </trkpt>
      <trkpt lat="62.8368749376" lon="14.4197129924">
        <ele>533</ele>
        <time>2011-11-05T14:09:19Z</time>
      </trkpt>
      <trkpt lat="62.836872926" lon="14.4197129924">
        <ele>533</ele>
        <time>2011-11-05T14:09:20Z</time>
      </trkpt>
      <trkpt lat="62.8368719202" lon="14.4197169319">
        <ele>534</ele>
        <time>2011-11-05T14:09:21Z</time>
      </trkpt>
      <trkpt lat="62.8368699923" lon="14.4197159261">
        <ele>537</ele>
        <time>2011-11-05T14:09:22Z</time>
      </trkpt>
      <trkpt lat="62.8368679807" lon="14.4197079632">
        <ele>538</ele>
        <time>2011-11-05T14:09:23Z</time>
      </trkpt>
      <trkpt lat="62.8368679807" lon="14.4197079632">
        <ele>541</ele>
        <time>2011-11-05T14:09:24Z</time>
      </trkpt>
      <trkpt lat="62.8368679807" lon="14.4197079632">
        <ele>540</ele>
        <time>2011-11-05T14:09:25Z</time>
      </trkpt>
      <trkpt lat="62.8368679807" lon="14.4197079632">
        <ele>538</ele>
        <time>2011-11-05T14:09:26Z</time>
      </trkpt>
      <trkpt lat="62.8368649632" lon="14.4197049458">
        <ele>536</ele>
        <time>2011-11-05T14:09:27Z</time>
      </trkpt>
      <trkpt lat="62.8368649632" lon="14.4197049458">
        <ele>535</ele>
        <time>2011-11-05T14:09:28Z</time>
      </trkpt>
      <trkpt lat="62.8368629515" lon="14.4197059516">
        <ele>534</ele>
        <time>2011-11-05T14:09:29Z</time>
      </trkpt>
      <trkpt lat="62.8368629515" lon="14.4197059516">
        <ele>533</ele>
        <time>2011-11-05T14:09:30Z</time>
      </trkpt>
      <trkpt lat="62.8368629515" lon="14.4197059516">
        <ele>532</ele>
        <time>2011-11-05T14:09:31Z</time>
      </trkpt>
      <trkpt lat="62.8368629515" lon="14.4197059516">
        <ele>531</ele>
        <time>2011-11-05T14:09:32Z</time>
      </trkpt>
      <trkpt lat="62.8368629515" lon="14.4197059516">
        <ele>531</ele>
        <time>2011-11-05T14:09:33Z</time>
      </trkpt>
      <trkpt lat="62.8368619457" lon="14.4197079632">
        <ele>531</ele>
        <time>2011-11-05T14:09:34Z</time>
      </trkpt>
      <trkpt lat="62.8368589282" lon="14.4197049458">
        <ele>531</ele>
        <time>2011-11-05T14:09:35Z</time>
      </trkpt>
      <trkpt lat="62.8368589282" lon="14.4197049458">
        <ele>531</ele>
        <time>2011-11-05T14:09:36Z</time>
      </trkpt>
      <trkpt lat="62.8368589282" lon="14.4197049458">
        <ele>532</ele>
        <time>2011-11-05T14:09:37Z</time>
      </trkpt>
      <trkpt lat="62.8368589282" lon="14.4197049458">
        <ele>531</ele>
        <time>2011-11-05T14:09:38Z</time>
      </trkpt>
      <trkpt lat="62.8368589282" lon="14.4197049458">
        <ele>534</ele>
        <time>2011-11-05T14:09:39Z</time>
      </trkpt>
      <trkpt lat="62.8368569165" lon="14.4197019283">
        <ele>533</ele>
        <time>2011-11-05T14:09:40Z</time>
      </trkpt>
      <trkpt lat="62.8368539829" lon="14.4197009224">
        <ele>533</ele>
        <time>2011-11-05T14:09:41Z</time>
      </trkpt>
      <trkpt lat="62.8368539829" lon="14.4197009224">
        <ele>531</ele>
        <time>2011-11-05T14:09:42Z</time>
      </trkpt>
      <trkpt lat="62.8368539829" lon="14.4197009224">
        <ele>530</ele>
        <time>2011-11-05T14:09:43Z</time>
      </trkpt>
      <trkpt lat="62.8368539829" lon="14.4197009224">
        <ele>530</ele>
        <time>2011-11-05T14:09:44Z</time>
      </trkpt>
      <trkpt lat="62.8368539829" lon="14.4197009224">
        <ele>529</ele>
        <time>2011-11-05T14:09:45Z</time>
      </trkpt>
      <trkpt lat="62.8368539829" lon="14.4197009224">
        <ele>528</ele>
        <time>2011-11-05T14:09:46Z</time>
      </trkpt>
      <trkpt lat="62.8368529771" lon="14.4196969829">
        <ele>529</ele>
        <time>2011-11-05T14:09:47Z</time>
      </trkpt>
      <trkpt lat="62.8368529771" lon="14.4196969829">
        <ele>530</ele>
        <time>2011-11-05T14:09:48Z</time>
      </trkpt>
      <trkpt lat="62.8368529771" lon="14.4196969829">
        <ele>531</ele>
        <time>2011-11-05T14:09:49Z</time>
      </trkpt>
      <trkpt lat="62.8368519712" lon="14.4196939655">
        <ele>533</ele>
        <time>2011-11-05T14:09:50Z</time>
      </trkpt>
      <trkpt lat="62.8368519712" lon="14.4196939655">
        <ele>533</ele>
        <time>2011-11-05T14:09:51Z</time>
      </trkpt>
      <trkpt lat="62.8368519712" lon="14.4196939655">
        <ele>532</ele>
        <time>2011-11-05T14:09:52Z</time>
      </trkpt>
      <trkpt lat="62.8368519712" lon="14.4196939655">
        <ele>532</ele>
        <time>2011-11-05T14:09:53Z</time>
      </trkpt>
      <trkpt lat="62.8368519712" lon="14.4196959771">
        <ele>533</ele>
        <time>2011-11-05T14:09:54Z</time>
      </trkpt>
      <trkpt lat="62.8368519712" lon="14.4196959771">
        <ele>534</ele>
        <time>2011-11-05T14:09:55Z</time>
      </trkpt>
      <trkpt lat="62.8368519712" lon="14.4196959771">
        <ele>535</ele>
        <time>2011-11-05T14:09:56Z</time>
      </trkpt>
      <trkpt lat="62.8368519712" lon="14.4196959771">
        <ele>535</ele>
        <time>2011-11-05T14:09:57Z</time>
      </trkpt>
      <trkpt lat="62.8368519712" lon="14.4196959771">
        <ele>536</ele>
        <time>2011-11-05T14:09:58Z</time>
      </trkpt>
      <trkpt lat="62.8368529771" lon="14.4196979888">
        <ele>537</ele>
        <time>2011-11-05T14:09:59Z</time>
      </trkpt>
      <trkpt lat="62.8368529771" lon="14.4196979888">
        <ele>536</ele>
        <time>2011-11-05T14:10:00Z</time>
      </trkpt>
      <trkpt lat="62.8368529771" lon="14.4196979888">
        <ele>537</ele>
        <time>2011-11-05T14:10:01Z</time>
      </trkpt>
      <trkpt lat="62.8368529771" lon="14.4196979888">
        <ele>540</ele>
        <time>2011-11-05T14:10:02Z</time>
      </trkpt>
      <trkpt lat="62.8368529771" lon="14.4196979888">
        <ele>540</ele>
        <time>2011-11-05T14:10:03Z</time>
      </trkpt>
      <trkpt lat="62.8368529771" lon="14.4196979888">
        <ele>540</ele>
        <time>2011-11-05T14:10:04Z</time>
      </trkpt>
      <trkpt lat="62.8368529771" lon="14.4196979888">
        <ele>539</ele>
        <time>2011-11-05T14:10:05Z</time>
      </trkpt>
      <trkpt lat="62.8368529771" lon="14.4196979888">
        <ele>541</ele>
        <time>2011-11-05T14:10:06Z</time>
      </trkpt>
      <trkpt lat="62.8368529771" lon="14.4196979888">
        <ele>539</ele>
        <time>2011-11-05T14:10:07Z</time>
      </trkpt>
      <trkpt lat="62.8368529771" lon="14.4196979888">
        <ele>539</ele>
        <time>2011-11-05T14:10:08Z</time>
      </trkpt>
      <trkpt lat="62.8368529771" lon="14.4196979888">
        <ele>540</ele>
        <time>2011-11-05T14:10:09Z</time>
      </trkpt>
      <trkpt lat="62.8368529771" lon="14.4196979888">
        <ele>540</ele>
        <time>2011-11-05T14:10:10Z</time>
      </trkpt>
      <trkpt lat="62.8368529771" lon="14.4196979888">
        <ele>541</ele>
        <time>2011-11-05T14:10:11Z</time>
      </trkpt>
      <trkpt lat="62.8368529771" lon="14.4196979888">
        <ele>540</ele>
        <time>2011-11-05T14:10:12Z</time>
      </trkpt>
      <trkpt lat="62.8368529771" lon="14.4196979888">
        <ele>539</ele>
        <time>2011-11-05T14:10:13Z</time>
      </trkpt>
      <trkpt lat="62.8368529771" lon="14.4196979888">
        <ele>540</ele>
        <time>2011-11-05T14:10:14Z</time>
      </trkpt>
      <trkpt lat="62.8368529771" lon="14.4196979888">
        <ele>542</ele>
        <time>2011-11-05T14:10:15Z</time>
      </trkpt>
      <trkpt lat="62.8368529771" lon="14.4196979888">
        <ele>545</ele>
        <time>2011-11-05T14:10:16Z</time>
      </trkpt>
      <trkpt lat="62.8368529771" lon="14.4196979888">
        <ele>546</ele>
        <time>2011-11-05T14:10:17Z</time>
      </trkpt>
      <trkpt lat="62.8368529771" lon="14.4196979888">
        <ele>546</ele>
        <time>2011-11-05T14:10:18Z</time>
      </trkpt>
      <trkpt lat="62.8368529771" lon="14.4196979888">
        <ele>546</ele>
        <time>2011-11-05T14:10:19Z</time>
      </trkpt>
      <trkpt lat="62.8368529771" lon="14.4196979888">
        <ele>546</ele>
        <time>2011-11-05T14:10:20Z</time>
      </trkpt>
      <trkpt lat="62.8368529771" lon="14.4196979888">
        <ele>547</ele>
        <time>2011-11-05T14:10:21Z</time>
      </trkpt>
      <trkpt lat="62.8368529771" lon="14.4196979888">
        <ele>547</ele>
        <time>2011-11-05T14:10:22Z</time>
      </trkpt>
      <trkpt lat="62.8368529771" lon="14.4196979888">
        <ele>547</ele>
        <time>2011-11-05T14:10:23Z</time>
      </trkpt>
      <trkpt lat="62.8368529771" lon="14.4196979888">
        <ele>546</ele>
        <time>2011-11-05T14:10:24Z</time>
      </trkpt>
      <trkpt lat="62.8368529771" lon="14.4196979888">
        <ele>546</ele>
        <time>2011-11-05T14:10:25Z</time>
      </trkpt>
      <trkpt lat="62.8368529771" lon="14.4196979888">
        <ele>546</ele>
        <time>2011-11-05T14:10:26Z</time>
      </trkpt>
      <trkpt lat="62.8368529771" lon="14.4196979888">
        <ele>547</ele>
        <time>2011-11-05T14:10:27Z</time>
      </trkpt>
      <trkpt lat="62.8368529771" lon="14.4196979888">
        <ele>547</ele>
        <time>2011-11-05T14:10:28Z</time>
      </trkpt>
      <trkpt lat="62.8368529771" lon="14.4196979888">
        <ele>546</ele>
        <time>2011-11-05T14:10:29Z</time>
      </trkpt>
      <trkpt lat="62.8368529771" lon="14.4196979888">
        <ele>545</ele>
        <time>2011-11-05T14:10:30Z</time>
      </trkpt>
      <trkpt lat="62.8368529771" lon="14.4196979888">
        <ele>544</ele>
        <time>2011-11-05T14:10:31Z</time>
      </trkpt>
      <trkpt lat="62.8368529771" lon="14.4196979888">
        <ele>545</ele>
        <time>2011-11-05T14:10:32Z</time>
      </trkpt>
      <trkpt lat="62.8368529771" lon="14.4196979888">
        <ele>546</ele>
        <time>2011-11-05T14:10:33Z</time>
      </trkpt>
      <trkpt lat="62.8368529771" lon="14.4196979888">
        <ele>544</ele>
        <time>2011-11-05T14:10:34Z</time>
      </trkpt>
      <trkpt lat="62.8368529771" lon="14.4196979888">
        <ele>544</ele>
        <time>2011-11-05T14:10:35Z</time>
      </trkpt>
      <trkpt lat="62.8368529771" lon="14.4196979888">
        <ele>543</ele>
        <time>2011-11-05T14:10:36Z</time>
      </trkpt>
      <trkpt lat="62.8368529771" lon="14.4196979888">
        <ele>544</ele>
        <time>2011-11-05T14:10:37Z</time>
      </trkpt>
      <trkpt lat="62.8368529771" lon="14.4196979888">
        <ele>544</ele>
        <time>2011-11-05T14:10:38Z</time>
      </trkpt>
      <trkpt lat="62.8368529771" lon="14.4196979888">
        <ele>544</ele>
        <time>2011-11-05T14:10:39Z</time>
      </trkpt>
      <trkpt lat="62.8368529771" lon="14.4196979888">
        <ele>543</ele>
        <time>2011-11-05T14:10:40Z</time>
      </trkpt>
      <trkpt lat="62.8368529771" lon="14.4196979888">
        <ele>544</ele>
        <time>2011-11-05T14:10:41Z</time>
      </trkpt>
      <trkpt lat="62.8368529771" lon="14.4196979888">
        <ele>544</ele>
        <time>2011-11-05T14:10:42Z</time>
      </trkpt>
      <trkpt lat="62.8368529771" lon="14.4196979888">
        <ele>544</ele>
        <time>2011-11-05T14:10:43Z</time>
      </trkpt>
      <trkpt lat="62.8368529771" lon="14.4196979888">
        <ele>544</ele>
        <time>2011-11-05T14:10:44Z</time>
      </trkpt>
      <trkpt lat="62.8368529771" lon="14.4196979888">
        <ele>544</ele>
        <time>2011-11-05T14:10:45Z</time>
      </trkpt>
      <trkpt lat="62.8368529771" lon="14.4196979888">
        <ele>544</ele>
        <time>2011-11-05T14:10:46Z</time>
      </trkpt>
      <trkpt lat="62.8368529771" lon="14.4196979888">
        <ele>544</ele>
        <time>2011-11-05T14:10:47Z</time>
      </trkpt>
      <trkpt lat="62.8368529771" lon="14.4196979888">
        <ele>544</ele>
        <time>2011-11-05T14:10:48Z</time>
      </trkpt>
      <trkpt lat="62.8368529771" lon="14.4196979888">
        <ele>544</ele>
        <time>2011-11-05T14:10:49Z</time>
      </trkpt>
      <trkpt lat="62.8368529771" lon="14.4196979888">
        <ele>544</ele>
        <time>2011-11-05T14:10:50Z</time>
      </trkpt>
      <trkpt lat="62.8368529771" lon="14.4196979888">
        <ele>544</ele>
        <time>2011-11-05T14:10:51Z</time>
      </trkpt>
      <trkpt lat="62.8368529771" lon="14.4196979888">
        <ele>545</ele>
        <time>2011-11-05T14:10:52Z</time>
      </trkpt>
      <trkpt lat="62.8368529771" lon="14.4196979888">
        <ele>545</ele>
        <time>2011-11-05T14:10:53Z</time>
      </trkpt>
      <trkpt lat="62.8368529771" lon="14.4196979888">
        <ele>545</ele>
        <time>2011-11-05T14:10:54Z</time>
      </trkpt>
      <trkpt lat="62.8368529771" lon="14.4196979888">
        <ele>545</ele>
        <time>2011-11-05T14:10:55Z</time>
      </trkpt>
      <trkpt lat="62.8368529771" lon="14.4196979888">
        <ele>545</ele>
        <time>2011-11-05T14:10:56Z</time>
      </trkpt>
      <trkpt lat="62.8368529771" lon="14.4196979888">
        <ele>545</ele>
        <time>2011-11-05T14:10:57Z</time>
      </trkpt>
      <trkpt lat="62.8368529771" lon="14.4196979888">
        <ele>545</ele>
        <time>2011-11-05T14:10:58Z</time>
      </trkpt>
      <trkpt lat="62.8368529771" lon="14.4196979888">
        <ele>545</ele>
        <time>2011-11-05T14:10:59Z</time>
      </trkpt>
      <trkpt lat="62.8368529771" lon="14.4196979888">
        <ele>544</ele>
        <time>2011-11-05T14:11:00Z</time>
      </trkpt>
      <trkpt lat="62.8368529771" lon="14.4196979888">
        <ele>543</ele>
        <time>2011-11-05T14:11:01Z</time>
      </trkpt>
      <trkpt lat="62.8368529771" lon="14.4196979888">
        <ele>542</ele>
        <time>2011-11-05T14:11:02Z</time>
      </trkpt>
      <trkpt lat="62.8368529771" lon="14.4196979888">
        <ele>541</ele>
        <time>2011-11-05T14:11:03Z</time>
      </trkpt>
      <trkpt lat="62.8368529771" lon="14.4196979888">
        <ele>542</ele>
        <time>2011-11-05T14:11:04Z</time>
      </trkpt>
      <trkpt lat="62.8368529771" lon="14.4196979888">
        <ele>543</ele>
        <time>2011-11-05T14:11:05Z</time>
      </trkpt>
      <trkpt lat="62.8368529771" lon="14.4196979888">
        <ele>542</ele>
        <time>2011-11-05T14:11:06Z</time>
      </trkpt>
      <trkpt lat="62.8368529771" lon="14.4196979888">
        <ele>541</ele>
        <time>2011-11-05T14:11:07Z</time>
      </trkpt>
      <trkpt lat="62.8368529771" lon="14.4196979888">
        <ele>540</ele>
        <time>2011-11-05T14:11:08Z</time>
      </trkpt>
      <trkpt lat="62.8368529771" lon="14.4196979888">
        <ele>539</ele>
        <time>2011-11-05T14:11:09Z</time>
      </trkpt>
      <trkpt lat="62.8368529771" lon="14.4196979888">
        <ele>541</ele>
        <time>2011-11-05T14:11:10Z</time>
      </trkpt>
      <trkpt lat="62.8368529771" lon="14.4196979888">
        <ele>541</ele>
        <time>2011-11-05T14:11:11Z</time>
      </trkpt>
      <trkpt lat="62.8368529771" lon="14.4196979888">
        <ele>539</ele>
        <time>2011-11-05T14:11:12Z</time>
      </trkpt>
      <trkpt lat="62.8368529771" lon="14.4196979888">
        <ele>538</ele>
        <time>2011-11-05T14:11:13Z</time>
      </trkpt>
      <trkpt lat="62.8368529771" lon="14.4196979888">
        <ele>536</ele>
        <time>2011-11-05T14:11:14Z</time>
      </trkpt>
      <trkpt lat="62.8368529771" lon="14.4196979888">
        <ele>534</ele>
        <time>2011-11-05T14:11:15Z</time>
      </trkpt>
      <trkpt lat="62.8368529771" lon="14.4196979888">
        <ele>532</ele>
        <time>2011-11-05T14:11:16Z</time>
      </trkpt>
      <trkpt lat="62.8368529771" lon="14.4196979888">
        <ele>532</ele>
        <time>2011-11-05T14:11:17Z</time>
      </trkpt>
      <trkpt lat="62.8368529771" lon="14.4196979888">
        <ele>531</ele>
        <time>2011-11-05T14:11:18Z</time>
      </trkpt>
      <trkpt lat="62.8368529771" lon="14.4196979888">
        <ele>532</ele>
        <time>2011-11-05T14:11:19Z</time>
      </trkpt>
      <trkpt lat="62.8368529771" lon="14.4196979888">
        <ele>531</ele>
        <time>2011-11-05T14:11:20Z</time>
      </trkpt>
      <trkpt lat="62.8368529771" lon="14.4196979888">
        <ele>532</ele>
        <time>2011-11-05T14:11:21Z</time>
      </trkpt>
      <trkpt lat="62.8368529771" lon="14.4196979888">
        <ele>532</ele>
        <time>2011-11-05T14:11:22Z</time>
      </trkpt>
      <trkpt lat="62.8368529771" lon="14.4196979888">
        <ele>533</ele>
        <time>2011-11-05T14:11:23Z</time>
      </trkpt>
      <trkpt lat="62.8368529771" lon="14.4196979888">
        <ele>533</ele>
        <time>2011-11-05T14:11:24Z</time>
      </trkpt>
      <trkpt lat="62.8368529771" lon="14.4196979888">
        <ele>533</ele>
        <time>2011-11-05T14:11:25Z</time>
      </trkpt>
      <trkpt lat="62.8368529771" lon="14.4196979888">
        <ele>534</ele>
        <time>2011-11-05T14:11:26Z</time>
      </trkpt>
      <trkpt lat="62.8368529771" lon="14.4196979888">
        <ele>535</ele>
        <time>2011-11-05T14:11:27Z</time>
      </trkpt>
      <trkpt lat="62.8368529771" lon="14.4196979888">
        <ele>537</ele>
        <time>2011-11-05T14:11:28Z</time>
      </trkpt>
      <trkpt lat="62.8368529771" lon="14.4196979888">
        <ele>538</ele>
        <time>2011-11-05T14:11:29Z</time>
      </trkpt>
      <trkpt lat="62.8368529771" lon="14.4196979888">
        <ele>539</ele>
        <time>2011-11-05T14:11:30Z</time>
      </trkpt>
      <trkpt lat="62.8368529771" lon="14.4196979888">
        <ele>539</ele>
        <time>2011-11-05T14:11:31Z</time>
      </trkpt>
      <trkpt lat="62.8368529771" lon="14.4196979888">
        <ele>539</ele>
        <time>2011-11-05T14:11:32Z</time>
      </trkpt>
      <trkpt lat="62.8368529771" lon="14.4196979888">
        <ele>540</ele>
        <time>2011-11-05T14:11:33Z</time>
      </trkpt>
      <trkpt lat="62.8368529771" lon="14.4196979888">
        <ele>542</ele>
        <time>2011-11-05T14:11:34Z</time>
      </trkpt>
      <trkpt lat="62.8368529771" lon="14.4196979888">
        <ele>545</ele>
        <time>2011-11-05T14:11:35Z</time>
      </trkpt>
      <trkpt lat="62.8368529771" lon="14.4196979888">
        <ele>545</ele>
        <time>2011-11-05T14:11:36Z</time>
      </trkpt>
      <trkpt lat="62.8368529771" lon="14.4196979888">
        <ele>545</ele>
        <time>2011-11-05T14:11:37Z</time>
      </trkpt>
      <trkpt lat="62.8368529771" lon="14.4196979888">
        <ele>547</ele>
        <time>2011-11-05T14:11:38Z</time>
      </trkpt>
      <trkpt lat="62.8368529771" lon="14.4196979888">
        <ele>548</ele>
        <time>2011-11-05T14:11:39Z</time>
      </trkpt>
      <trkpt lat="62.8368529771" lon="14.4196979888">
        <ele>549</ele>
        <time>2011-11-05T14:11:40Z</time>
      </trkpt>
      <trkpt lat="62.8368529771" lon="14.4196979888">
        <ele>549</ele>
        <time>2011-11-05T14:11:41Z</time>
      </trkpt>
      <trkpt lat="62.8368529771" lon="14.4196979888">
        <ele>550</ele>
        <time>2011-11-05T14:11:42Z</time>
      </trkpt>
      <trkpt lat="62.8368529771" lon="14.4196979888">
        <ele>550</ele>
        <time>2011-11-05T14:11:43Z</time>
      </trkpt>
      <trkpt lat="62.8368529771" lon="14.4196979888">
        <ele>550</ele>
        <time>2011-11-05T14:11:44Z</time>
      </trkpt>
      <trkpt lat="62.8368529771" lon="14.4196979888">
        <ele>550</ele>
        <time>2011-11-05T14:11:45Z</time>
      </trkpt>
      <trkpt lat="62.8368529771" lon="14.4196979888">
        <ele>549</ele>
        <time>2011-11-05T14:11:46Z</time>
      </trkpt>
      <trkpt lat="62.8368529771" lon="14.4196979888">
        <ele>549</ele>
        <time>2011-11-05T14:11:47Z</time>
      </trkpt>
      <trkpt lat="62.8368529771" lon="14.4196979888">
        <ele>548</ele>
        <time>2011-11-05T14:11:48Z</time>
      </trkpt>
      <trkpt lat="62.8368529771" lon="14.4196979888">
        <ele>548</ele>
        <time>2011-11-05T14:11:49Z</time>
      </trkpt>
      <trkpt lat="62.8368529771" lon="14.4196979888">
        <ele>546</ele>
        <time>2011-11-05T14:11:50Z</time>
      </trkpt>
      <trkpt lat="62.8368529771" lon="14.4196979888">
        <ele>546</ele>
        <time>2011-11-05T14:11:51Z</time>
      </trkpt>
      <trkpt lat="62.8368529771" lon="14.4196979888">
        <ele>546</ele>
        <time>2011-11-05T14:11:52Z</time>
      </trkpt>
      <trkpt lat="62.8368529771" lon="14.4196979888">
        <ele>545</ele>
        <time>2011-11-05T14:11:53Z</time>
      </trkpt>
      <trkpt lat="62.8368529771" lon="14.4196979888">
        <ele>545</ele>
        <time>2011-11-05T14:11:54Z</time>
      </trkpt>
      <trkpt lat="62.8368529771" lon="14.4196979888">
        <ele>544</ele>
        <time>2011-11-05T14:11:55Z</time>
      </trkpt>
      <trkpt lat="62.8368529771" lon="14.4196979888">
        <ele>544</ele>
        <time>2011-11-05T14:11:56Z</time>
      </trkpt>
      <trkpt lat="62.8368529771" lon="14.4196979888">
        <ele>544</ele>
        <time>2011-11-05T14:11:57Z</time>
      </trkpt>
      <trkpt lat="62.8368529771" lon="14.4196979888">
        <ele>544</ele>
        <time>2011-11-05T14:11:58Z</time>
      </trkpt>
      <trkpt lat="62.8368529771" lon="14.4196979888">
        <ele>544</ele>
        <time>2011-11-05T14:11:59Z</time>
      </trkpt>
      <trkpt lat="62.8368529771" lon="14.4196979888">
        <ele>544</ele>
        <time>2011-11-05T14:12:00Z</time>
      </trkpt>
      <trkpt lat="62.8368529771" lon="14.4196979888">
        <ele>543</ele>
        <time>2011-11-05T14:12:01Z</time>
      </trkpt>
      <trkpt lat="62.8368529771" lon="14.4196979888">
        <ele>543</ele>
        <time>2011-11-05T14:12:02Z</time>
      </trkpt>
      <trkpt lat="62.8368529771" lon="14.4196979888">
        <ele>544</ele>
        <time>2011-11-05T14:12:03Z</time>
      </trkpt>
      <trkpt lat="62.8368529771" lon="14.4196979888">
        <ele>544</ele>
        <time>2011-11-05T14:12:04Z</time>
      </trkpt>
      <trkpt lat="62.8368529771" lon="14.4196979888">
        <ele>543</ele>
        <time>2011-11-05T14:12:05Z</time>
      </trkpt>
      <trkpt lat="62.8368529771" lon="14.4196979888">
        <ele>542</ele>
        <time>2011-11-05T14:12:06Z</time>
      </trkpt>
      <trkpt lat="62.8368529771" lon="14.4196979888">
        <ele>540</ele>
        <time>2011-11-05T14:12:07Z</time>
      </trkpt>
      <trkpt lat="62.8368529771" lon="14.4196979888">
        <ele>540</ele>
        <time>2011-11-05T14:12:08Z</time>
      </trkpt>
      <trkpt lat="62.8368529771" lon="14.4196979888">
        <ele>542</ele>
        <time>2011-11-05T14:12:09Z</time>
      </trkpt>
      <trkpt lat="62.8368529771" lon="14.4196979888">
        <ele>542</ele>
        <time>2011-11-05T14:12:10Z</time>
      </trkpt>
      <trkpt lat="62.8368529771" lon="14.4196979888">
        <ele>543</ele>
        <time>2011-11-05T14:12:11Z</time>
      </trkpt>
      <trkpt lat="62.8368529771" lon="14.4196979888">
        <ele>542</ele>
        <time>2011-11-05T14:12:12Z</time>
      </trkpt>
      <trkpt lat="62.8368529771" lon="14.4196979888">
        <ele>541</ele>
        <time>2011-11-05T14:12:13Z</time>
      </trkpt>
      <trkpt lat="62.8368529771" lon="14.4196979888">
        <ele>542</ele>
        <time>2011-11-05T14:12:14Z</time>
      </trkpt>
      <trkpt lat="62.8368529771" lon="14.4196979888">
        <ele>543</ele>
        <time>2011-11-05T14:12:15Z</time>
      </trkpt>
      <trkpt lat="62.8368529771" lon="14.4196979888">
        <ele>543</ele>
        <time>2011-11-05T14:12:16Z</time>
      </trkpt>
      <trkpt lat="62.8368529771" lon="14.4196979888">
        <ele>543</ele>
        <time>2011-11-05T14:12:17Z</time>
      </trkpt>
      <trkpt lat="62.8368529771" lon="14.4196979888">
        <ele>544</ele>
        <time>2011-11-05T14:12:18Z</time>
      </trkpt>
      <trkpt lat="62.8368529771" lon="14.4196979888">
        <ele>544</ele>
        <time>2011-11-05T14:12:19Z</time>
      </trkpt>
      <trkpt lat="62.8368529771" lon="14.4196979888">
        <ele>544</ele>
        <time>2011-11-05T14:12:20Z</time>
      </trkpt>
      <trkpt lat="62.8368529771" lon="14.4196979888">
        <ele>544</ele>
        <time>2011-11-05T14:12:21Z</time>
      </trkpt>
      <trkpt lat="62.8368529771" lon="14.4196979888">
        <ele>544</ele>
        <time>2011-11-05T14:12:22Z</time>
      </trkpt>
      <trkpt lat="62.8368529771" lon="14.4196979888">
        <ele>544</ele>
        <time>2011-11-05T14:12:23Z</time>
      </trkpt>
      <trkpt lat="62.8368529771" lon="14.4196979888">
        <ele>544</ele>
        <time>2011-11-05T14:12:24Z</time>
      </trkpt>
      <trkpt lat="62.8368529771" lon="14.4196979888">
        <ele>544</ele>
        <time>2011-11-05T14:12:25Z</time>
      </trkpt>
      <trkpt lat="62.8368529771" lon="14.4196979888">
        <ele>544</ele>
        <time>2011-11-05T14:12:26Z</time>
      </trkpt>
      <trkpt lat="62.8368529771" lon="14.4196979888">
        <ele>544</ele>
        <time>2011-11-05T14:12:27Z</time>
      </trkpt>
      <trkpt lat="62.8368529771" lon="14.4196979888">
        <ele>544</ele>
        <time>2011-11-05T14:12:28Z</time>
      </trkpt>
      <trkpt lat="62.8368529771" lon="14.4196979888">
        <ele>544</ele>
        <time>2011-11-05T14:12:29Z</time>
      </trkpt>
      <trkpt lat="62.8368529771" lon="14.4196979888">
        <ele>544</ele>
        <time>2011-11-05T14:12:30Z</time>
      </trkpt>
      <trkpt lat="62.8368529771" lon="14.4196979888">
        <ele>545</ele>
        <time>2011-11-05T14:12:31Z</time>
      </trkpt>
      <trkpt lat="62.8368529771" lon="14.4196979888">
        <ele>545</ele>
        <time>2011-11-05T14:12:32Z</time>
      </trkpt>
      <trkpt lat="62.8368529771" lon="14.4196979888">
        <ele>545</ele>
        <time>2011-11-05T14:12:33Z</time>
      </trkpt>
      <trkpt lat="62.8368529771" lon="14.4196979888">
        <ele>545</ele>
        <time>2011-11-05T14:12:34Z</time>
      </trkpt>
      <trkpt lat="62.8368529771" lon="14.4196979888">
        <ele>545</ele>
        <time>2011-11-05T14:12:35Z</time>
      </trkpt>
      <trkpt lat="62.8368529771" lon="14.4196979888">
        <ele>545</ele>
        <time>2011-11-05T14:12:36Z</time>
      </trkpt>
      <trkpt lat="62.8368529771" lon="14.4196979888">
        <ele>543</ele>
        <time>2011-11-05T14:12:37Z</time>
      </trkpt>
      <trkpt lat="62.8368529771" lon="14.4196979888">
        <ele>541</ele>
        <time>2011-11-05T14:12:38Z</time>
      </trkpt>
      <trkpt lat="62.8368529771" lon="14.4196979888">
        <ele>540</ele>
        <time>2011-11-05T14:12:39Z</time>
      </trkpt>
      <trkpt lat="62.8368529771" lon="14.4196979888">
        <ele>541</ele>
        <time>2011-11-05T14:12:40Z</time>
      </trkpt>
      <trkpt lat="62.8368529771" lon="14.4196979888">
        <ele>540</ele>
        <time>2011-11-05T14:12:41Z</time>
      </trkpt>
      <trkpt lat="62.8368529771" lon="14.4196979888">
        <ele>540</ele>
        <time>2011-11-05T14:12:42Z</time>
      </trkpt>
      <trkpt lat="62.8368529771" lon="14.4196979888">
        <ele>540</ele>
        <time>2011-11-05T14:12:43Z</time>
      </trkpt>
      <trkpt lat="62.8368529771" lon="14.4196979888">
        <ele>540</ele>
        <time>2011-11-05T14:12:44Z</time>
      </trkpt>
      <trkpt lat="62.8368529771" lon="14.4196979888">
        <ele>540</ele>
        <time>2011-11-05T14:12:45Z</time>
      </trkpt>
      <trkpt lat="62.8368499596" lon="14.4197099749">
        <ele>540</ele>
        <time>2011-11-05T14:12:46Z</time>
      </trkpt>
      <trkpt lat="62.8368499596" lon="14.4197099749">
        <ele>540</ele>
        <time>2011-11-05T14:12:47Z</time>
      </trkpt>
      <trkpt lat="62.8368499596" lon="14.4197099749">
        <ele>540</ele>
        <time>2011-11-05T14:12:48Z</time>
      </trkpt>
      <trkpt lat="62.8368499596" lon="14.4197099749">
        <ele>540</ele>
        <time>2011-11-05T14:12:49Z</time>
      </trkpt>
      <trkpt lat="62.8368499596" lon="14.4197099749">
        <ele>540</ele>
        <time>2011-11-05T14:12:50Z</time>
      </trkpt>
      <trkpt lat="62.8368499596" lon="14.4197099749">
        <ele>540</ele>
        <time>2011-11-05T14:12:51Z</time>
      </trkpt>
      <trkpt lat="62.8368499596" lon="14.4197099749">
        <ele>540</ele>
        <time>2011-11-05T14:12:52Z</time>
      </trkpt>
      <trkpt lat="62.8368499596" lon="14.4197099749">
        <ele>540</ele>
        <time>2011-11-05T14:12:53Z</time>
      </trkpt>
      <trkpt lat="62.8368499596" lon="14.4197099749">
        <ele>540</ele>
        <time>2011-11-05T14:12:54Z</time>
      </trkpt>
      <trkpt lat="62.8368499596" lon="14.4197099749">
        <ele>540</ele>
        <time>2011-11-05T14:12:55Z</time>
      </trkpt>
      <trkpt lat="62.8368499596" lon="14.4197099749">
        <ele>541</ele>
        <time>2011-11-05T14:12:56Z</time>
      </trkpt>
      <trkpt lat="62.8368499596" lon="14.4197099749">
        <ele>541</ele>
        <time>2011-11-05T14:12:57Z</time>
      </trkpt>
      <trkpt lat="62.8368499596" lon="14.4197099749">
        <ele>541</ele>
        <time>2011-11-05T14:12:58Z</time>
      </trkpt>
      <trkpt lat="62.8368499596" lon="14.4197099749">
        <ele>541</ele>
        <time>2011-11-05T14:12:59Z</time>
      </trkpt>
      <trkpt lat="62.8368499596" lon="14.4197099749">
        <ele>541</ele>
        <time>2011-11-05T14:13:00Z</time>
      </trkpt>
      <trkpt lat="62.8368499596" lon="14.4197099749">
        <ele>541</ele>
        <time>2011-11-05T14:13:01Z</time>
      </trkpt>
      <trkpt lat="62.8368499596" lon="14.4197099749">
        <ele>541</ele>
        <time>2011-11-05T14:13:02Z</time>
      </trkpt>
      <trkpt lat="62.8368499596" lon="14.4197099749">
        <ele>541</ele>
        <time>2011-11-05T14:13:03Z</time>
      </trkpt>
      <trkpt lat="62.8368499596" lon="14.4197099749">
        <ele>540</ele>
        <time>2011-11-05T14:13:04Z</time>
      </trkpt>
      <trkpt lat="62.8368499596" lon="14.4197099749">
        <ele>540</ele>
        <time>2011-11-05T14:13:05Z</time>
      </trkpt>
      <trkpt lat="62.8368499596" lon="14.4197099749">
        <ele>540</ele>
        <time>2011-11-05T14:13:06Z</time>
      </trkpt>
      <trkpt lat="62.8368499596" lon="14.4197099749">
        <ele>539</ele>
        <time>2011-11-05T14:13:07Z</time>
      </trkpt>
      <trkpt lat="62.8368499596" lon="14.4197099749">
        <ele>538</ele>
        <time>2011-11-05T14:13:08Z</time>
      </trkpt>
      <trkpt lat="62.8368499596" lon="14.4197099749">
        <ele>538</ele>
        <time>2011-11-05T14:13:09Z</time>
      </trkpt>
      <trkpt lat="62.8368499596" lon="14.4197099749">
        <ele>537</ele>
        <time>2011-11-05T14:13:10Z</time>
      </trkpt>
      <trkpt lat="62.8368499596" lon="14.4197099749">
        <ele>537</ele>
        <time>2011-11-05T14:13:11Z</time>
      </trkpt>
      <trkpt lat="62.8368499596" lon="14.4197099749">
        <ele>536</ele>
        <time>2011-11-05T14:13:12Z</time>
      </trkpt>
      <trkpt lat="62.8368499596" lon="14.4197099749">
        <ele>537</ele>
        <time>2011-11-05T14:13:13Z</time>
      </trkpt>
      <trkpt lat="62.8368499596" lon="14.4197099749">
        <ele>537</ele>
        <time>2011-11-05T14:13:14Z</time>
      </trkpt>
      <trkpt lat="62.8368479479" lon="14.4197109807">
        <ele>537</ele>
        <time>2011-11-05T14:13:15Z</time>
      </trkpt>
      <trkpt lat="62.8368479479" lon="14.4197109807">
        <ele>537</ele>
        <time>2011-11-05T14:13:16Z</time>
      </trkpt>
      <trkpt lat="62.8368479479" lon="14.4197109807">
        <ele>536</ele>
        <time>2011-11-05T14:13:17Z</time>
      </trkpt>
      <trkpt lat="62.8368479479" lon="14.4197109807">
        <ele>535</ele>
        <time>2011-11-05T14:13:18Z</time>
      </trkpt>
      <trkpt lat="62.8368479479" lon="14.4197109807">
        <ele>534</ele>
        <time>2011-11-05T14:13:19Z</time>
      </trkpt>
      <trkpt lat="62.8368479479" lon="14.4197109807">
        <ele>534</ele>
        <time>2011-11-05T14:13:20Z</time>
      </trkpt>
      <trkpt lat="62.8368479479" lon="14.4197109807">
        <ele>535</ele>
        <time>2011-11-05T14:13:21Z</time>
      </trkpt>
      <trkpt lat="62.8368479479" lon="14.4197109807">
        <ele>537</ele>
        <time>2011-11-05T14:13:22Z</time>
      </trkpt>
      <trkpt lat="62.8368479479" lon="14.4197109807">
        <ele>539</ele>
        <time>2011-11-05T14:13:23Z</time>
      </trkpt>
      <trkpt lat="62.8368479479" lon="14.4197109807">
        <ele>539</ele>
        <time>2011-11-05T14:13:24Z</time>
      </trkpt>
      <trkpt lat="62.8368479479" lon="14.4197109807">
        <ele>539</ele>
        <time>2011-11-05T14:13:25Z</time>
      </trkpt>
      <trkpt lat="62.8368479479" lon="14.4197109807">
        <ele>539</ele>
        <time>2011-11-05T14:13:26Z</time>
      </trkpt>
      <trkpt lat="62.8368479479" lon="14.4197109807">
        <ele>539</ele>
        <time>2011-11-05T14:13:27Z</time>
      </trkpt>
      <trkpt lat="62.8368459363" lon="14.4197159261">
        <ele>539</ele>
        <time>2011-11-05T14:13:28Z</time>
      </trkpt>
      <trkpt lat="62.8368409909" lon="14.4197239727">
        <ele>540</ele>
        <time>2011-11-05T14:13:29Z</time>
      </trkpt>
      <trkpt lat="62.836834956" lon="14.4197259843">
        <ele>541</ele>
        <time>2011-11-05T14:13:30Z</time>
      </trkpt>
      <trkpt lat="62.8368299268" lon="14.419728918">
        <ele>541</ele>
        <time>2011-11-05T14:13:31Z</time>
      </trkpt>
      <trkpt lat="62.8368249815" lon="14.4197399821">
        <ele>543</ele>
        <time>2011-11-05T14:13:32Z</time>
      </trkpt>
      <trkpt lat="62.836821964" lon="14.4197459333">
        <ele>546</ele>
        <time>2011-11-05T14:13:33Z</time>
      </trkpt>
      <trkpt lat="62.8368189465" lon="14.4197529741">
        <ele>545</ele>
        <time>2011-11-05T14:13:34Z</time>
      </trkpt>
      <trkpt lat="62.8368139174" lon="14.4197559915">
        <ele>544</ele>
        <time>2011-11-05T14:13:35Z</time>
      </trkpt>
      <trkpt lat="62.8368099779" lon="14.4197609369">
        <ele>542</ele>
        <time>2011-11-05T14:13:36Z</time>
      </trkpt>
      <trkpt lat="62.8368079662" lon="14.4197619427">
        <ele>540</ele>
        <time>2011-11-05T14:13:37Z</time>
      </trkpt>
      <trkpt lat="62.8367889393" lon="14.4197529741">
        <ele>540</ele>
        <time>2011-11-05T14:13:38Z</time>
      </trkpt>
      <trkpt lat="62.8367809765" lon="14.4197459333">
        <ele>540</ele>
        <time>2011-11-05T14:13:39Z</time>
      </trkpt>
      <trkpt lat="62.8367729299" lon="14.419759931">
        <ele>539</ele>
        <time>2011-11-05T14:13:40Z</time>
      </trkpt>
      <trkpt lat="62.8367689904" lon="14.419765966">
        <ele>538</ele>
        <time>2011-11-05T14:13:41Z</time>
      </trkpt>
      <trkpt lat="62.8367629554" lon="14.4197739288">
        <ele>538</ele>
        <time>2011-11-05T14:13:42Z</time>
      </trkpt>
      <trkpt lat="62.8367599379" lon="14.4197829813">
        <ele>539</ele>
        <time>2011-11-05T14:13:43Z</time>
      </trkpt>
      <trkpt lat="62.8367559984" lon="14.4197919499">
        <ele>540</ele>
        <time>2011-11-05T14:13:44Z</time>
      </trkpt>
      <trkpt lat="62.8367479518" lon="14.4197999965">
        <ele>540</ele>
        <time>2011-11-05T14:13:45Z</time>
      </trkpt>
      <trkpt lat="62.8367349599" lon="14.419803936">
        <ele>540</ele>
        <time>2011-11-05T14:13:46Z</time>
      </trkpt>
      <trkpt lat="62.8367279191" lon="14.4198069535">
        <ele>540</ele>
        <time>2011-11-05T14:13:47Z</time>
      </trkpt>
      <trkpt lat="62.8367189504" lon="14.4198179338">
        <ele>537</ele>
        <time>2011-11-05T14:13:48Z</time>
      </trkpt>
      <trkpt lat="62.8367129993" lon="14.4198199455">
        <ele>539</ele>
        <time>2011-11-05T14:13:49Z</time>
      </trkpt>
      <trkpt lat="62.8367069643" lon="14.4198239688">
        <ele>541</ele>
        <time>2011-11-05T14:13:50Z</time>
      </trkpt>
      <trkpt lat="62.8366989177" lon="14.4198329374">
        <ele>540</ele>
        <time>2011-11-05T14:13:51Z</time>
      </trkpt>
      <trkpt lat="62.8366909549" lon="14.4198469352">
        <ele>539</ele>
        <time>2011-11-05T14:13:52Z</time>
      </trkpt>
      <trkpt lat="62.8366879374" lon="14.4198579993">
        <ele>537</ele>
        <time>2011-11-05T14:13:53Z</time>
      </trkpt>
      <trkpt lat="62.8366849199" lon="14.4198649563">
        <ele>533</ele>
        <time>2011-11-05T14:13:54Z</time>
      </trkpt>
      <trkpt lat="62.8366819862" lon="14.4198719971">
        <ele>533</ele>
        <time>2011-11-05T14:13:55Z</time>
      </trkpt>
      <trkpt lat="62.8366769571" lon="14.419884989">
        <ele>534</ele>
        <time>2011-11-05T14:13:56Z</time>
      </trkpt>
      <trkpt lat="62.8366709221" lon="14.4198989868">
        <ele>539</ele>
        <time>2011-11-05T14:13:57Z</time>
      </trkpt>
      <trkpt lat="62.8366679884" lon="14.4199089613">
        <ele>542</ele>
        <time>2011-11-05T14:13:58Z</time>
      </trkpt>
      <trkpt lat="62.8366619535" lon="14.4199219532">
        <ele>541</ele>
        <time>2011-11-05T14:13:59Z</time>
      </trkpt>
      <trkpt lat="62.8366599418" lon="14.419935951">
        <ele>540</ele>
        <time>2011-11-05T14:14:00Z</time>
      </trkpt>
      <trkpt lat="62.8366559185" lon="14.4199649524">
        <ele>541</ele>
        <time>2011-11-05T14:14:01Z</time>
      </trkpt>
      <trkpt lat="62.836651979" lon="14.4199889246">
        <ele>540</ele>
        <time>2011-11-05T14:14:02Z</time>
      </trkpt>
      <trkpt lat="62.8366429266" lon="14.4200229552">
        <ele>536</ele>
        <time>2011-11-05T14:14:03Z</time>
      </trkpt>
      <trkpt lat="62.8366289288" lon="14.4200499449">
        <ele>534</ele>
        <time>2011-11-05T14:14:04Z</time>
      </trkpt>
      <trkpt lat="62.8366189543" lon="14.420067966">
        <ele>536</ele>
        <time>2011-11-05T14:14:05Z</time>
      </trkpt>
      <trkpt lat="62.8366069682" lon="14.4200909324">
        <ele>536</ele>
        <time>2011-11-05T14:14:06Z</time>
      </trkpt>
      <trkpt lat="62.8365919646" lon="14.4201019965">
        <ele>536</ele>
        <time>2011-11-05T14:14:07Z</time>
      </trkpt>
      <trkpt lat="62.836582996" lon="14.4201139826">
        <ele>536</ele>
        <time>2011-11-05T14:14:08Z</time>
      </trkpt>
      <trkpt lat="62.8365689982" lon="14.4201239571">
        <ele>538</ele>
        <time>2011-11-05T14:14:09Z</time>
      </trkpt>
      <trkpt lat="62.8365549166" lon="14.4201379549">
        <ele>539</ele>
        <time>2011-11-05T14:14:10Z</time>
      </trkpt>
      <trkpt lat="62.8365429305" lon="14.4201469235">
        <ele>539</ele>
        <time>2011-11-05T14:14:11Z</time>
      </trkpt>
      <trkpt lat="62.8365289327" lon="14.4201619271">
        <ele>536</ele>
        <time>2011-11-05T14:14:12Z</time>
      </trkpt>
      <trkpt lat="62.836519964" lon="14.4201819599">
        <ele>536</ele>
        <time>2011-11-05T14:14:13Z</time>
      </trkpt>
      <trkpt lat="62.8365139291" lon="14.4201969635">
        <ele>535</ele>
        <time>2011-11-05T14:14:14Z</time>
      </trkpt>
      <trkpt lat="62.8365079779" lon="14.4202099554">
        <ele>534</ele>
        <time>2011-11-05T14:14:15Z</time>
      </trkpt>
      <trkpt lat="62.8365049604" lon="14.4202239532">
        <ele>534</ele>
        <time>2011-11-05T14:14:16Z</time>
      </trkpt>
      <trkpt lat="62.8364999313" lon="14.420237951">
        <ele>534</ele>
        <time>2011-11-05T14:14:17Z</time>
      </trkpt>
      <trkpt lat="62.8364919685" lon="14.4202529546">
        <ele>536</ele>
        <time>2011-11-05T14:14:18Z</time>
      </trkpt>
      <trkpt lat="62.8364839219" lon="14.4202649407">
        <ele>535</ele>
        <time>2011-11-05T14:14:19Z</time>
      </trkpt>
      <trkpt lat="62.8364809882" lon="14.4202799443">
        <ele>534</ele>
        <time>2011-11-05T14:14:20Z</time>
      </trkpt>
      <trkpt lat="62.8364749532" lon="14.4202899188">
        <ele>537</ele>
        <time>2011-11-05T14:14:21Z</time>
      </trkpt>
      <trkpt lat="62.8364649788" lon="14.4202979654">
        <ele>535</ele>
        <time>2011-11-05T14:14:22Z</time>
      </trkpt>
      <trkpt lat="62.8364539985" lon="14.4203049224">
        <ele>536</ele>
        <time>2011-11-05T14:14:23Z</time>
      </trkpt>
      <trkpt lat="62.8364459518" lon="14.4203179982">
        <ele>538</ele>
        <time>2011-11-05T14:14:24Z</time>
      </trkpt>
      <trkpt lat="62.8364389949" lon="14.4203299843">
        <ele>539</ele>
        <time>2011-11-05T14:14:25Z</time>
      </trkpt>
      <trkpt lat="62.8364329599" lon="14.4203409646">
        <ele>541</ele>
        <time>2011-11-05T14:14:26Z</time>
      </trkpt>
      <trkpt lat="62.8364299424" lon="14.4203529507">
        <ele>537</ele>
        <time>2011-11-05T14:14:27Z</time>
      </trkpt>
      <trkpt lat="62.8364259191" lon="14.420363931">
        <ele>539</ele>
        <time>2011-11-05T14:14:28Z</time>
      </trkpt>
      <trkpt lat="62.8364229854" lon="14.4203759171">
        <ele>537</ele>
        <time>2011-11-05T14:14:29Z</time>
      </trkpt>
      <trkpt lat="62.8364199679" lon="14.4203909207">
        <ele>532</ele>
        <time>2011-11-05T14:14:30Z</time>
      </trkpt>
      <trkpt lat="62.8364189621" lon="14.4204049185">
        <ele>531</ele>
        <time>2011-11-05T14:14:31Z</time>
      </trkpt>
      <trkpt lat="62.8364149388" lon="14.4204169884">
        <ele>534</ele>
        <time>2011-11-05T14:14:32Z</time>
      </trkpt>
      <trkpt lat="62.8364079818" lon="14.4204309862">
        <ele>533</ele>
        <time>2011-11-05T14:14:33Z</time>
      </trkpt>
      <trkpt lat="62.8364039585" lon="14.4204409607">
        <ele>535</ele>
        <time>2011-11-05T14:14:34Z</time>
      </trkpt>
      <trkpt lat="62.8363979235" lon="14.4204469956">
        <ele>533</ele>
        <time>2011-11-05T14:14:35Z</time>
      </trkpt>
      <trkpt lat="62.8363949899" lon="14.4204569701">
        <ele>534</ele>
        <time>2011-11-05T14:14:36Z</time>
      </trkpt>
      <trkpt lat="62.8363949899" lon="14.4204569701">
        <ele>538</ele>
        <time>2011-11-05T14:14:37Z</time>
      </trkpt>
      <trkpt lat="62.8363949899" lon="14.4204569701">
        <ele>536</ele>
        <time>2011-11-05T14:14:38Z</time>
      </trkpt>
      <trkpt lat="62.8363949899" lon="14.4204569701">
        <ele>534</ele>
        <time>2011-11-05T14:14:39Z</time>
      </trkpt>
      <trkpt lat="62.8363949899" lon="14.4204569701">
        <ele>534</ele>
        <time>2011-11-05T14:14:40Z</time>
      </trkpt>
      <trkpt lat="62.8363949899" lon="14.4204569701">
        <ele>535</ele>
        <time>2011-11-05T14:14:41Z</time>
      </trkpt>
      <trkpt lat="62.8363949899" lon="14.4204569701">
        <ele>532</ele>
        <time>2011-11-05T14:14:42Z</time>
      </trkpt>
      <trkpt lat="62.836393984" lon="14.420475997">
        <ele>535</ele>
        <time>2011-11-05T14:14:43Z</time>
      </trkpt>
      <trkpt lat="62.8363879491" lon="14.4204899948">
        <ele>535</ele>
        <time>2011-11-05T14:14:44Z</time>
      </trkpt>
      <trkpt lat="62.8363709338" lon="14.4205129612">
        <ele>536</ele>
        <time>2011-11-05T14:14:45Z</time>
      </trkpt>
      <trkpt lat="62.836356936" lon="14.4205279648">
        <ele>538</ele>
        <time>2011-11-05T14:14:46Z</time>
      </trkpt>
      <trkpt lat="62.8363399208" lon="14.4205499254">
        <ele>537</ele>
        <time>2011-11-05T14:14:47Z</time>
      </trkpt>
      <trkpt lat="62.836331958" lon="14.420564929">
        <ele>535</ele>
        <time>2011-11-05T14:14:48Z</time>
      </trkpt>
      <trkpt lat="62.836318966" lon="14.4205799326">
        <ele>535</ele>
        <time>2011-11-05T14:14:49Z</time>
      </trkpt>
      <trkpt lat="62.8363059741" lon="14.4205959421">
        <ele>536</ele>
        <time>2011-11-05T14:14:50Z</time>
      </trkpt>
      <trkpt lat="62.8362959996" lon="14.4206119515">
        <ele>536</ele>
        <time>2011-11-05T14:14:51Z</time>
      </trkpt>
      <trkpt lat="62.8362859413" lon="14.4206229318">
        <ele>536</ele>
        <time>2011-11-05T14:14:52Z</time>
      </trkpt>
      <trkpt lat="62.8362839296" lon="14.4206249435">
        <ele>536</ele>
        <time>2011-11-05T14:14:53Z</time>
      </trkpt>
      <trkpt lat="62.8362779785" lon="14.4206279609">
        <ele>534</ele>
        <time>2011-11-05T14:14:54Z</time>
      </trkpt>
      <trkpt lat="62.8362729494" lon="14.4206319842">
        <ele>534</ele>
        <time>2011-11-05T14:14:55Z</time>
      </trkpt>
      <trkpt lat="62.8362699319" lon="14.4206349179">
        <ele>533</ele>
        <time>2011-11-05T14:14:56Z</time>
      </trkpt>
      <trkpt lat="62.8362659924" lon="14.4206349179">
        <ele>536</ele>
        <time>2011-11-05T14:14:57Z</time>
      </trkpt>
      <trkpt lat="62.8362659924" lon="14.4206349179">
        <ele>533</ele>
        <time>2011-11-05T14:14:58Z</time>
      </trkpt>
      <trkpt lat="62.8362659924" lon="14.4206349179">
        <ele>535</ele>
        <time>2011-11-05T14:14:59Z</time>
      </trkpt>
      <trkpt lat="62.8362629749" lon="14.4206389412">
        <ele>535</ele>
        <time>2011-11-05T14:15:00Z</time>
      </trkpt>
      <trkpt lat="62.8362589516" lon="14.4206409529">
        <ele>537</ele>
        <time>2011-11-05T14:15:01Z</time>
      </trkpt>
      <trkpt lat="62.8362519946" lon="14.4206509273">
        <ele>536</ele>
        <time>2011-11-05T14:15:02Z</time>
      </trkpt>
      <trkpt lat="62.8362429421" lon="14.4206629973">
        <ele>539</ele>
        <time>2011-11-05T14:15:03Z</time>
      </trkpt>
      <trkpt lat="62.8362339735" lon="14.4206699543">
        <ele>537</ele>
        <time>2011-11-05T14:15:04Z</time>
      </trkpt>
      <trkpt lat="62.8362259269" lon="14.4206779171">
        <ele>536</ele>
        <time>2011-11-05T14:15:05Z</time>
      </trkpt>
      <trkpt lat="62.8362199757" lon="14.4206829462">
        <ele>538</ele>
        <time>2011-11-05T14:15:06Z</time>
      </trkpt>
      <trkpt lat="62.8362109233" lon="14.4206909928">
        <ele>539</ele>
        <time>2011-11-05T14:15:07Z</time>
      </trkpt>
      <trkpt lat="62.8362039663" lon="14.4207039848">
        <ele>538</ele>
        <time>2011-11-05T14:15:08Z</time>
      </trkpt>
      <trkpt lat="62.836199943" lon="14.4207139593">
        <ele>536</ele>
        <time>2011-11-05T14:15:09Z</time>
      </trkpt>
      <trkpt lat="62.8361949977" lon="14.4207259454">
        <ele>535</ele>
        <time>2011-11-05T14:15:10Z</time>
      </trkpt>
      <trkpt lat="62.8361909743" lon="14.4207349978">
        <ele>536</ele>
        <time>2011-11-05T14:15:11Z</time>
      </trkpt>
      <trkpt lat="62.8361849394" lon="14.4207389373">
        <ele>541</ele>
        <time>2011-11-05T14:15:12Z</time>
      </trkpt>
      <trkpt lat="62.8361849394" lon="14.4207389373">
        <ele>538</ele>
        <time>2011-11-05T14:15:13Z</time>
      </trkpt>
      <trkpt lat="62.8361839335" lon="14.4207399432">
        <ele>534</ele>
        <time>2011-11-05T14:15:14Z</time>
      </trkpt>
      <trkpt lat="62.8361839335" lon="14.4207399432">
        <ele>529</ele>
        <time>2011-11-05T14:15:15Z</time>
      </trkpt>
      <trkpt lat="62.8361839335" lon="14.4207399432">
        <ele>526</ele>
        <time>2011-11-05T14:15:16Z</time>
      </trkpt>
      <trkpt lat="62.8361839335" lon="14.4207399432">
        <ele>525</ele>
        <time>2011-11-05T14:15:17Z</time>
      </trkpt>
      <trkpt lat="62.8361839335" lon="14.4207399432">
        <ele>523</ele>
        <time>2011-11-05T14:15:18Z</time>
      </trkpt>
      <trkpt lat="62.8361839335" lon="14.4207399432">
        <ele>524</ele>
        <time>2011-11-05T14:15:19Z</time>
      </trkpt>
      <trkpt lat="62.8361839335" lon="14.4207399432">
        <ele>526</ele>
        <time>2011-11-05T14:15:20Z</time>
      </trkpt>
      <trkpt lat="62.8361769766" lon="14.4207459781">
        <ele>527</ele>
        <time>2011-11-05T14:15:21Z</time>
      </trkpt>
      <trkpt lat="62.8361659963" lon="14.4207529351">
        <ele>529</ele>
        <time>2011-11-05T14:15:22Z</time>
      </trkpt>
      <trkpt lat="62.836155938" lon="14.4207549468">
        <ele>529</ele>
        <time>2011-11-05T14:15:23Z</time>
      </trkpt>
      <trkpt lat="62.8361469693" lon="14.4207589701">
        <ele>532</ele>
        <time>2011-11-05T14:15:24Z</time>
      </trkpt>
      <trkpt lat="62.8361369949" lon="14.4207679387">
        <ele>530</ele>
        <time>2011-11-05T14:15:25Z</time>
      </trkpt>
      <trkpt lat="62.8361299541" lon="14.4207749795">
        <ele>529</ele>
        <time>2011-11-05T14:15:26Z</time>
      </trkpt>
      <trkpt lat="62.8361239191" lon="14.4207879715">
        <ele>528</ele>
        <time>2011-11-05T14:15:27Z</time>
      </trkpt>
      <trkpt lat="62.8361149505" lon="14.4207979459">
        <ele>529</ele>
        <time>2011-11-05T14:15:28Z</time>
      </trkpt>
      <trkpt lat="62.8361099213" lon="14.4208009634">
        <ele>529</ele>
        <time>2011-11-05T14:15:29Z</time>
      </trkpt>
      <trkpt lat="62.8361059818" lon="14.4208069984">
        <ele>528</ele>
        <time>2011-11-05T14:15:30Z</time>
      </trkpt>
      <trkpt lat="62.8360999469" lon="14.4208139554">
        <ele>528</ele>
        <time>2011-11-05T14:15:31Z</time>
      </trkpt>
      <trkpt lat="62.8360969294" lon="14.420815967">
        <ele>527</ele>
        <time>2011-11-05T14:15:32Z</time>
      </trkpt>
      <trkpt lat="62.8360919841" lon="14.4208199903">
        <ele>527</ele>
        <time>2011-11-05T14:15:33Z</time>
      </trkpt>
      <trkpt lat="62.8360889666" lon="14.4208179787">
        <ele>530</ele>
        <time>2011-11-05T14:15:34Z</time>
      </trkpt>
      <trkpt lat="62.8360909782" lon="14.4208259415">
        <ele>531</ele>
        <time>2011-11-05T14:15:35Z</time>
      </trkpt>
      <trkpt lat="62.8360899724" lon="14.4208339881">
        <ele>533</ele>
        <time>2011-11-05T14:15:36Z</time>
      </trkpt>
      <trkpt lat="62.8360859491" lon="14.4208559487">
        <ele>532</ele>
        <time>2011-11-05T14:15:37Z</time>
      </trkpt>
      <trkpt lat="62.8360859491" lon="14.4208709523">
        <ele>534</ele>
        <time>2011-11-05T14:15:38Z</time>
      </trkpt>
      <trkpt lat="62.8360799979" lon="14.4208879676">
        <ele>532</ele>
        <time>2011-11-05T14:15:39Z</time>
      </trkpt>
      <trkpt lat="62.8360729571" lon="14.4208989479">
        <ele>530</ele>
        <time>2011-11-05T14:15:40Z</time>
      </trkpt>
      <trkpt lat="62.8360719513" lon="14.4209129456">
        <ele>530</ele>
        <time>2011-11-05T14:15:41Z</time>
      </trkpt>
      <trkpt lat="62.8360689338" lon="14.4209329784">
        <ele>531</ele>
        <time>2011-11-05T14:15:42Z</time>
      </trkpt>
      <trkpt lat="62.8360649943" lon="14.4209439587">
        <ele>533</ele>
        <time>2011-11-05T14:15:43Z</time>
      </trkpt>
      <trkpt lat="62.8360629827" lon="14.4209509995">
        <ele>532</ele>
        <time>2011-11-05T14:15:44Z</time>
      </trkpt>
      <trkpt lat="62.836060971" lon="14.4209619798">
        <ele>532</ele>
        <time>2011-11-05T14:15:45Z</time>
      </trkpt>
      <trkpt lat="62.8360599652" lon="14.4209669251">
        <ele>534</ele>
        <time>2011-11-05T14:15:46Z</time>
      </trkpt>
      <trkpt lat="62.8360599652" lon="14.4209669251">
        <ele>534</ele>
        <time>2011-11-05T14:15:47Z</time>
      </trkpt>
      <trkpt lat="62.8360569477" lon="14.4209699426">
        <ele>533</ele>
        <time>2011-11-05T14:15:48Z</time>
      </trkpt>
      <trkpt lat="62.8360529244" lon="14.4209779892">
        <ele>533</ele>
        <time>2011-11-05T14:15:49Z</time>
      </trkpt>
      <trkpt lat="62.8360529244" lon="14.4209779892">
        <ele>531</ele>
        <time>2011-11-05T14:15:50Z</time>
      </trkpt>
      <trkpt lat="62.8360509966" lon="14.420991987">
        <ele>534</ele>
        <time>2011-11-05T14:15:51Z</time>
      </trkpt>
      <trkpt lat="62.8360499907" lon="14.4210039731">
        <ele>533</ele>
        <time>2011-11-05T14:15:52Z</time>
      </trkpt>
      <trkpt lat="62.8360499907" lon="14.4210149534">
        <ele>535</ele>
        <time>2011-11-05T14:15:53Z</time>
      </trkpt>
      <trkpt lat="62.8360429499" lon="14.4210229162">
        <ele>536</ele>
        <time>2011-11-05T14:15:54Z</time>
      </trkpt>
      <trkpt lat="62.8360389266" lon="14.4210309628">
        <ele>538</ele>
        <time>2011-11-05T14:15:55Z</time>
      </trkpt>
      <trkpt lat="62.8360349871" lon="14.421035992">
        <ele>534</ele>
        <time>2011-11-05T14:15:56Z</time>
      </trkpt>
      <trkpt lat="62.8360259347" lon="14.4210419431">
        <ele>535</ele>
        <time>2011-11-05T14:15:57Z</time>
      </trkpt>
      <trkpt lat="62.8360199835" lon="14.4210579526">
        <ele>536</ele>
        <time>2011-11-05T14:15:58Z</time>
      </trkpt>
      <trkpt lat="62.8360159602" lon="14.4210719503">
        <ele>534</ele>
        <time>2011-11-05T14:15:59Z</time>
      </trkpt>
      <trkpt lat="62.8360089194" lon="14.4210909773">
        <ele>532</ele>
        <time>2011-11-05T14:16:00Z</time>
      </trkpt>
      <trkpt lat="62.8359989449" lon="14.4210969284">
        <ele>531</ele>
        <time>2011-11-05T14:16:01Z</time>
      </trkpt>
      <trkpt lat="62.8359989449" lon="14.4210969284">
        <ele>534</ele>
        <time>2011-11-05T14:16:02Z</time>
      </trkpt>
      <trkpt lat="62.8359989449" lon="14.4210969284">
        <ele>533</ele>
        <time>2011-11-05T14:16:03Z</time>
      </trkpt>
      <trkpt lat="62.8360039741" lon="14.4211059809">
        <ele>530</ele>
        <time>2011-11-05T14:16:04Z</time>
      </trkpt>
      <trkpt lat="62.8360039741" lon="14.4211059809">
        <ele>527</ele>
        <time>2011-11-05T14:16:05Z</time>
      </trkpt>
      <trkpt lat="62.8360039741" lon="14.4211059809">
        <ele>525</ele>
        <time>2011-11-05T14:16:06Z</time>
      </trkpt>
      <trkpt lat="62.8360039741" lon="14.4211059809">
        <ele>526</ele>
        <time>2011-11-05T14:16:07Z</time>
      </trkpt>
      <trkpt lat="62.8360039741" lon="14.4211059809">
        <ele>528</ele>
        <time>2011-11-05T14:16:08Z</time>
      </trkpt>
      <trkpt lat="62.8360039741" lon="14.4211059809">
        <ele>526</ele>
        <time>2011-11-05T14:16:09Z</time>
      </trkpt>
      <trkpt lat="62.8359959275" lon="14.421111932">
        <ele>527</ele>
        <time>2011-11-05T14:16:10Z</time>
      </trkpt>
      <trkpt lat="62.8359589633" lon="14.421124924">
        <ele>528</ele>
        <time>2011-11-05T14:16:11Z</time>
      </trkpt>
      <trkpt lat="62.835941948" lon="14.4211349823">
        <ele>526</ele>
        <time>2011-11-05T14:16:12Z</time>
      </trkpt>
      <trkpt lat="62.8359319735" lon="14.4211389218">
        <ele>521</ele>
        <time>2011-11-05T14:16:13Z</time>
      </trkpt>
      <trkpt lat="62.8359299619" lon="14.4211369939">
        <ele>521</ele>
        <time>2011-11-05T14:16:14Z</time>
      </trkpt>
      <trkpt lat="62.8359279502" lon="14.4211399276">
        <ele>517</ele>
        <time>2011-11-05T14:16:15Z</time>
      </trkpt>
      <trkpt lat="62.8359319735" lon="14.4211379997">
        <ele>514</ele>
        <time>2011-11-05T14:16:16Z</time>
      </trkpt>
      <trkpt lat="62.8359389305" lon="14.4211259298">
        <ele>514</ele>
        <time>2011-11-05T14:16:17Z</time>
      </trkpt>
      <trkpt lat="62.8359459713" lon="14.4211109262">
        <ele>516</ele>
        <time>2011-11-05T14:16:18Z</time>
      </trkpt>
      <trkpt lat="62.8359499946" lon="14.4211029634">
        <ele>516</ele>
        <time>2011-11-05T14:16:19Z</time>
      </trkpt>
      <trkpt lat="62.8359549399" lon="14.4210979342">
        <ele>520</ele>
        <time>2011-11-05T14:16:20Z</time>
      </trkpt>
      <trkpt lat="62.8359649982" lon="14.4210789911">
        <ele>520</ele>
        <time>2011-11-05T14:16:21Z</time>
      </trkpt>
      <trkpt lat="62.8359689377" lon="14.4210669212">
        <ele>522</ele>
        <time>2011-11-05T14:16:22Z</time>
      </trkpt>
      <trkpt lat="62.8359639924" lon="14.4210499898">
        <ele>521</ele>
        <time>2011-11-05T14:16:23Z</time>
      </trkpt>
      <trkpt lat="62.8359589633" lon="14.4210439548">
        <ele>521</ele>
        <time>2011-11-05T14:16:24Z</time>
      </trkpt>
      <trkpt lat="62.8359549399" lon="14.4210469723">
        <ele>520</ele>
        <time>2011-11-05T14:16:25Z</time>
      </trkpt>
      <trkpt lat="62.8359549399" lon="14.4210469723">
        <ele>520</ele>
        <time>2011-11-05T14:16:26Z</time>
      </trkpt>
      <trkpt lat="62.8359499946" lon="14.4210509956">
        <ele>516</ele>
        <time>2011-11-05T14:16:27Z</time>
      </trkpt>
      <trkpt lat="62.8359499946" lon="14.4210509956">
        <ele>517</ele>
        <time>2011-11-05T14:16:28Z</time>
      </trkpt>
      <trkpt lat="62.8359439597" lon="14.4210579526">
        <ele>516</ele>
        <time>2011-11-05T14:16:29Z</time>
      </trkpt>
      <trkpt lat="62.8359399363" lon="14.4210619759">
        <ele>515</ele>
        <time>2011-11-05T14:16:30Z</time>
      </trkpt>
      <trkpt lat="62.835928956" lon="14.4210709445">
        <ele>515</ele>
        <time>2011-11-05T14:16:31Z</time>
      </trkpt>
      <trkpt lat="62.8359209932" lon="14.421080919">
        <ele>516</ele>
        <time>2011-11-05T14:16:32Z</time>
      </trkpt>
      <trkpt lat="62.8359139524" lon="14.4210859481">
        <ele>520</ele>
        <time>2011-11-05T14:16:33Z</time>
      </trkpt>
      <trkpt lat="62.8359059896" lon="14.421086954">
        <ele>518</ele>
        <time>2011-11-05T14:16:34Z</time>
      </trkpt>
      <trkpt lat="62.8358929977" lon="14.4210859481">
        <ele>512</ele>
        <time>2011-11-05T14:16:35Z</time>
      </trkpt>
      <trkpt lat="62.8358869627" lon="14.421086954">
        <ele>512</ele>
        <time>2011-11-05T14:16:36Z</time>
      </trkpt>
      <trkpt lat="62.8358769882" lon="14.4210879598">
        <ele>513</ele>
        <time>2011-11-05T14:16:37Z</time>
      </trkpt>
      <trkpt lat="62.8358759824" lon="14.4210779853">
        <ele>513</ele>
        <time>2011-11-05T14:16:38Z</time>
      </trkpt>
      <trkpt lat="62.8358759824" lon="14.4210779853">
        <ele>515</ele>
        <time>2011-11-05T14:16:39Z</time>
      </trkpt>
      <trkpt lat="62.8358699474" lon="14.421079997">
        <ele>515</ele>
        <time>2011-11-05T14:16:40Z</time>
      </trkpt>
      <trkpt lat="62.8358629905" lon="14.4210749678">
        <ele>517</ele>
        <time>2011-11-05T14:16:41Z</time>
      </trkpt>
      <trkpt lat="62.835853938" lon="14.4210769795">
        <ele>516</ele>
        <time>2011-11-05T14:16:42Z</time>
      </trkpt>
      <trkpt lat="62.8358499985" lon="14.4210859481">
        <ele>512</ele>
        <time>2011-11-05T14:16:43Z</time>
      </trkpt>
      <trkpt lat="62.8358419519" lon="14.4210939948">
        <ele>515</ele>
        <time>2011-11-05T14:16:44Z</time>
      </trkpt>
      <trkpt lat="62.8358329833" lon="14.4210949168">
        <ele>513</ele>
        <time>2011-11-05T14:16:45Z</time>
      </trkpt>
      <trkpt lat="62.8358239308" lon="14.4211009517">
        <ele>515</ele>
        <time>2011-11-05T14:16:46Z</time>
      </trkpt>
      <trkpt lat="62.8358129505" lon="14.4211039692">
        <ele>515</ele>
        <time>2011-11-05T14:16:47Z</time>
      </trkpt>
      <trkpt lat="62.8357949294" lon="14.4211079925">
        <ele>515</ele>
        <time>2011-11-05T14:16:48Z</time>
      </trkpt>
      <trkpt lat="62.835784955" lon="14.4211099204">
        <ele>517</ele>
        <time>2011-11-05T14:16:49Z</time>
      </trkpt>
      <trkpt lat="62.8357769921" lon="14.4211129379">
        <ele>516</ele>
        <time>2011-11-05T14:16:50Z</time>
      </trkpt>
      <trkpt lat="62.8357639164" lon="14.4211129379">
        <ele>514</ele>
        <time>2011-11-05T14:16:51Z</time>
      </trkpt>
      <trkpt lat="62.8357569594" lon="14.4211139437">
        <ele>516</ele>
        <time>2011-11-05T14:16:52Z</time>
      </trkpt>
      <trkpt lat="62.8357479908" lon="14.4211069867">
        <ele>518</ele>
        <time>2011-11-05T14:16:53Z</time>
      </trkpt>
      <trkpt lat="62.8357379325" lon="14.4211059809">
        <ele>516</ele>
        <time>2011-11-05T14:16:54Z</time>
      </trkpt>
      <trkpt lat="62.8357359208" lon="14.4211039692">
        <ele>515</ele>
        <time>2011-11-05T14:16:55Z</time>
      </trkpt>
      <trkpt lat="62.8357359208" lon="14.4211039692">
        <ele>512</ele>
        <time>2011-11-05T14:16:56Z</time>
      </trkpt>
      <trkpt lat="62.8357359208" lon="14.4211039692">
        <ele>511</ele>
        <time>2011-11-05T14:16:57Z</time>
      </trkpt>
      <trkpt lat="62.8357349988" lon="14.4211029634">
        <ele>510</ele>
        <time>2011-11-05T14:16:58Z</time>
      </trkpt>
      <trkpt lat="62.8357329872" lon="14.4211009517">
        <ele>511</ele>
        <time>2011-11-05T14:16:59Z</time>
      </trkpt>
      <trkpt lat="62.8357329872" lon="14.4211009517">
        <ele>511</ele>
        <time>2011-11-05T14:17:00Z</time>
      </trkpt>
      <trkpt lat="62.8357329872" lon="14.4210999459">
        <ele>510</ele>
        <time>2011-11-05T14:17:01Z</time>
      </trkpt>
      <trkpt lat="62.8357329872" lon="14.4210999459">
        <ele>511</ele>
        <time>2011-11-05T14:17:02Z</time>
      </trkpt>
      <trkpt lat="62.8357329872" lon="14.4210999459">
        <ele>510</ele>
        <time>2011-11-05T14:17:03Z</time>
      </trkpt>
      <trkpt lat="62.8357369266" lon="14.4210929889">
        <ele>511</ele>
        <time>2011-11-05T14:17:04Z</time>
      </trkpt>
      <trkpt lat="62.835733993" lon="14.4210939948">
        <ele>511</ele>
        <time>2011-11-05T14:17:05Z</time>
      </trkpt>
      <trkpt lat="62.8357359208" lon="14.4210939948">
        <ele>510</ele>
        <time>2011-11-05T14:17:06Z</time>
      </trkpt>
      <trkpt lat="62.8357399441" lon="14.4210899714">
        <ele>509</ele>
        <time>2011-11-05T14:17:07Z</time>
      </trkpt>
      <trkpt lat="62.83574095" lon="14.421073962">
        <ele>511</ele>
        <time>2011-11-05T14:17:08Z</time>
      </trkpt>
      <trkpt lat="62.83574095" lon="14.4210569467">
        <ele>513</ele>
        <time>2011-11-05T14:17:09Z</time>
      </trkpt>
      <trkpt lat="62.83574095" lon="14.4210569467">
        <ele>513</ele>
        <time>2011-11-05T14:17:10Z</time>
      </trkpt>
      <trkpt lat="62.8357439674" lon="14.4210469723">
        <ele>514</ele>
        <time>2011-11-05T14:17:11Z</time>
      </trkpt>
      <trkpt lat="62.8357529361" lon="14.4210339803">
        <ele>513</ele>
        <time>2011-11-05T14:17:12Z</time>
      </trkpt>
      <trkpt lat="62.8357599769" lon="14.4210289512">
        <ele>512</ele>
        <time>2011-11-05T14:17:13Z</time>
      </trkpt>
      <trkpt lat="62.835765928" lon="14.4210219942">
        <ele>514</ele>
        <time>2011-11-05T14:17:14Z</time>
      </trkpt>
      <trkpt lat="62.8357709572" lon="14.4210189767">
        <ele>513</ele>
        <time>2011-11-05T14:17:15Z</time>
      </trkpt>
      <trkpt lat="62.8357709572" lon="14.4210189767">
        <ele>511</ele>
        <time>2011-11-05T14:17:16Z</time>
      </trkpt>
      <trkpt lat="62.8357709572" lon="14.4210189767">
        <ele>511</ele>
        <time>2011-11-05T14:17:17Z</time>
      </trkpt>
      <trkpt lat="62.8357709572" lon="14.4210169651">
        <ele>511</ele>
        <time>2011-11-05T14:17:18Z</time>
      </trkpt>
      <trkpt lat="62.8357699513" lon="14.4210129417">
        <ele>512</ele>
        <time>2011-11-05T14:17:19Z</time>
      </trkpt>
      <trkpt lat="62.8357699513" lon="14.4210129417">
        <ele>514</ele>
        <time>2011-11-05T14:17:20Z</time>
      </trkpt>
      <trkpt lat="62.8357689455" lon="14.4210209884">
        <ele>514</ele>
        <time>2011-11-05T14:17:21Z</time>
      </trkpt>
      <trkpt lat="62.8357609827" lon="14.4210169651">
        <ele>513</ele>
        <time>2011-11-05T14:17:22Z</time>
      </trkpt>
      <trkpt lat="62.8357559536" lon="14.4210109301">
        <ele>515</ele>
        <time>2011-11-05T14:17:23Z</time>
      </trkpt>
      <trkpt lat="62.8357559536" lon="14.4209999498">
        <ele>517</ele>
        <time>2011-11-05T14:17:24Z</time>
      </trkpt>
      <trkpt lat="62.8357509244" lon="14.420991987">
        <ele>516</ele>
        <time>2011-11-05T14:17:25Z</time>
      </trkpt>
      <trkpt lat="62.8357509244" lon="14.420991987">
        <ele>516</ele>
        <time>2011-11-05T14:17:26Z</time>
      </trkpt>
      <trkpt lat="62.8357509244" lon="14.420991987">
        <ele>516</ele>
        <time>2011-11-05T14:17:27Z</time>
      </trkpt>
      <trkpt lat="62.8357499186" lon="14.4209839404">
        <ele>518</ele>
        <time>2011-11-05T14:17:28Z</time>
      </trkpt>
      <trkpt lat="62.8357459791" lon="14.4209759776">
        <ele>518</ele>
        <time>2011-11-05T14:17:29Z</time>
      </trkpt>
      <trkpt lat="62.8357359208" lon="14.4209469762">
        <ele>517</ele>
        <time>2011-11-05T14:17:30Z</time>
      </trkpt>
      <trkpt lat="62.8357289638" lon="14.4209259376">
        <ele>513</ele>
        <time>2011-11-05T14:17:31Z</time>
      </trkpt>
      <trkpt lat="62.8357209172" lon="14.4209009595">
        <ele>510</ele>
        <time>2011-11-05T14:17:32Z</time>
      </trkpt>
      <trkpt lat="62.8357209172" lon="14.4209009595">
        <ele>508</ele>
        <time>2011-11-05T14:17:33Z</time>
      </trkpt>
      <trkpt lat="62.8357229289" lon="14.4208939187">
        <ele>508</ele>
        <time>2011-11-05T14:17:34Z</time>
      </trkpt>
      <trkpt lat="62.8357229289" lon="14.4208939187">
        <ele>510</ele>
        <time>2011-11-05T14:17:35Z</time>
      </trkpt>
      <trkpt lat="62.8357229289" lon="14.4208939187">
        <ele>509</ele>
        <time>2011-11-05T14:17:36Z</time>
      </trkpt>
      <trkpt lat="62.8357229289" lon="14.4208939187">
        <ele>508</ele>
        <time>2011-11-05T14:17:37Z</time>
      </trkpt>
      <trkpt lat="62.835721923" lon="14.4208929967">
        <ele>508</ele>
        <time>2011-11-05T14:17:38Z</time>
      </trkpt>
      <trkpt lat="62.835721923" lon="14.4208929967">
        <ele>508</ele>
        <time>2011-11-05T14:17:39Z</time>
      </trkpt>
      <trkpt lat="62.835721923" lon="14.4208929967">
        <ele>509</ele>
        <time>2011-11-05T14:17:40Z</time>
      </trkpt>
      <trkpt lat="62.8357269522" lon="14.4209009595">
        <ele>509</ele>
        <time>2011-11-05T14:17:41Z</time>
      </trkpt>
      <trkpt lat="62.8357289638" lon="14.420903977">
        <ele>510</ele>
        <time>2011-11-05T14:17:42Z</time>
      </trkpt>
      <trkpt lat="62.8357289638" lon="14.420903977">
        <ele>511</ele>
        <time>2011-11-05T14:17:43Z</time>
      </trkpt>
      <trkpt lat="62.8357289638" lon="14.420903977">
        <ele>509</ele>
        <time>2011-11-05T14:17:44Z</time>
      </trkpt>
      <trkpt lat="62.8357289638" lon="14.420903977">
        <ele>507</ele>
        <time>2011-11-05T14:17:45Z</time>
      </trkpt>
      <trkpt lat="62.8357239347" lon="14.4209019653">
        <ele>506</ele>
        <time>2011-11-05T14:17:46Z</time>
      </trkpt>
      <trkpt lat="62.835721923" lon="14.4209009595">
        <ele>507</ele>
        <time>2011-11-05T14:17:47Z</time>
      </trkpt>
      <trkpt lat="62.8357269522" lon="14.4208959304">
        <ele>504</ele>
        <time>2011-11-05T14:17:48Z</time>
      </trkpt>
      <trkpt lat="62.8357259464" lon="14.4209019653">
        <ele>506</ele>
        <time>2011-11-05T14:17:49Z</time>
      </trkpt>
      <trkpt lat="62.8357289638" lon="14.4209079165">
        <ele>507</ele>
        <time>2011-11-05T14:17:50Z</time>
      </trkpt>
      <trkpt lat="62.835733993" lon="14.420916969">
        <ele>505</ele>
        <time>2011-11-05T14:17:51Z</time>
      </trkpt>
      <trkpt lat="62.8357389383" lon="14.420916969">
        <ele>504</ele>
        <time>2011-11-05T14:17:52Z</time>
      </trkpt>
      <trkpt lat="62.8357429616" lon="14.4209249318">
        <ele>506</ele>
        <time>2011-11-05T14:17:53Z</time>
      </trkpt>
      <trkpt lat="62.8357449733" lon="14.4209279492">
        <ele>501</ele>
        <time>2011-11-05T14:17:54Z</time>
      </trkpt>
      <trkpt lat="62.8357469849" lon="14.4209309667">
        <ele>503</ele>
        <time>2011-11-05T14:17:55Z</time>
      </trkpt>
      <trkpt lat="62.8357489966" lon="14.4209339842">
        <ele>503</ele>
        <time>2011-11-05T14:17:56Z</time>
      </trkpt>
      <trkpt lat="62.8357509244" lon="14.4209359959">
        <ele>505</ele>
        <time>2011-11-05T14:17:57Z</time>
      </trkpt>
      <trkpt lat="62.8357509244" lon="14.42093499">
        <ele>505</ele>
        <time>2011-11-05T14:17:58Z</time>
      </trkpt>
      <trkpt lat="62.8357529361" lon="14.4209429529">
        <ele>504</ele>
        <time>2011-11-05T14:17:59Z</time>
      </trkpt>
      <trkpt lat="62.8357559536" lon="14.4209579565">
        <ele>503</ele>
        <time>2011-11-05T14:18:00Z</time>
      </trkpt>
      <trkpt lat="62.8357559536" lon="14.4209719542">
        <ele>504</ele>
        <time>2011-11-05T14:18:01Z</time>
      </trkpt>
      <trkpt lat="62.8357559536" lon="14.4209819287">
        <ele>505</ele>
        <time>2011-11-05T14:18:02Z</time>
      </trkpt>
      <trkpt lat="62.8357519303" lon="14.4209849462">
        <ele>498</ele>
        <time>2011-11-05T14:18:03Z</time>
      </trkpt>
      <trkpt lat="62.8357479908" lon="14.4209939986">
        <ele>501</ele>
        <time>2011-11-05T14:18:04Z</time>
      </trkpt>
      <trkpt lat="62.8357469849" lon="14.4210009556">
        <ele>502</ele>
        <time>2011-11-05T14:18:05Z</time>
      </trkpt>
      <trkpt lat="62.8357499186" lon="14.4210119359">
        <ele>503</ele>
        <time>2011-11-05T14:18:06Z</time>
      </trkpt>
      <trkpt lat="62.8357569594" lon="14.4210219942">
        <ele>503</ele>
        <time>2011-11-05T14:18:07Z</time>
      </trkpt>
      <trkpt lat="62.8357689455" lon="14.4210289512">
        <ele>499</ele>
        <time>2011-11-05T14:18:08Z</time>
      </trkpt>
      <trkpt lat="62.8357809316" lon="14.4210269395">
        <ele>502</ele>
        <time>2011-11-05T14:18:09Z</time>
      </trkpt>
      <trkpt lat="62.8357929178" lon="14.421029957">
        <ele>506</ele>
        <time>2011-11-05T14:18:10Z</time>
      </trkpt>
      <trkpt lat="62.8358009644" lon="14.4210279454">
        <ele>504</ele>
        <time>2011-11-05T14:18:11Z</time>
      </trkpt>
      <trkpt lat="62.8358079214" lon="14.4210209884">
        <ele>505</ele>
        <time>2011-11-05T14:18:12Z</time>
      </trkpt>
      <trkpt lat="62.8358009644" lon="14.4210099243">
        <ele>504</ele>
        <time>2011-11-05T14:18:13Z</time>
      </trkpt>
      <trkpt lat="62.8357899841" lon="14.4209759776">
        <ele>504</ele>
        <time>2011-11-05T14:18:14Z</time>
      </trkpt>
      <trkpt lat="62.8357819375" lon="14.4209449645">
        <ele>504</ele>
        <time>2011-11-05T14:18:15Z</time>
      </trkpt>
      <trkpt lat="62.8357799258" lon="14.4209399354">
        <ele>504</ele>
        <time>2011-11-05T14:18:16Z</time>
      </trkpt>
      <trkpt lat="62.8357759863" lon="14.4209269434">
        <ele>504</ele>
        <time>2011-11-05T14:18:17Z</time>
      </trkpt>
      <trkpt lat="62.8357769921" lon="14.4209259376">
        <ele>504</ele>
        <time>2011-11-05T14:18:18Z</time>
      </trkpt>
      <trkpt lat="62.8357769921" lon="14.4209269434">
        <ele>503</ele>
        <time>2011-11-05T14:18:19Z</time>
      </trkpt>
      <trkpt lat="62.835777998" lon="14.4209289551">
        <ele>503</ele>
        <time>2011-11-05T14:18:20Z</time>
      </trkpt>
      <trkpt lat="62.8357769921" lon="14.4209269434">
        <ele>504</ele>
        <time>2011-11-05T14:18:21Z</time>
      </trkpt>
      <trkpt lat="62.83577892" lon="14.4209249318">
        <ele>504</ele>
        <time>2011-11-05T14:18:22Z</time>
      </trkpt>
      <trkpt lat="62.8357809316" lon="14.4209229201">
        <ele>502</ele>
        <time>2011-11-05T14:18:23Z</time>
      </trkpt>
      <trkpt lat="62.8357809316" lon="14.4209229201">
        <ele>503</ele>
        <time>2011-11-05T14:18:24Z</time>
      </trkpt>
      <trkpt lat="62.8357809316" lon="14.4209259376">
        <ele>503</ele>
        <time>2011-11-05T14:18:25Z</time>
      </trkpt>
      <trkpt lat="62.8357809316" lon="14.4209319726">
        <ele>504</ele>
        <time>2011-11-05T14:18:26Z</time>
      </trkpt>
      <trkpt lat="62.8357809316" lon="14.4209319726">
        <ele>506</ele>
        <time>2011-11-05T14:18:27Z</time>
      </trkpt>
      <trkpt lat="62.8357809316" lon="14.4209369179">
        <ele>505</ele>
        <time>2011-11-05T14:18:28Z</time>
      </trkpt>
      <trkpt lat="62.8357799258" lon="14.4209699426">
        <ele>511</ele>
        <time>2011-11-05T14:18:29Z</time>
      </trkpt>
      <trkpt lat="62.8357799258" lon="14.4209699426">
        <ele>514</ele>
        <time>2011-11-05T14:18:30Z</time>
      </trkpt>
      <trkpt lat="62.8357799258" lon="14.4209739659">
        <ele>511</ele>
        <time>2011-11-05T14:18:31Z</time>
      </trkpt>
      <trkpt lat="62.8357769921" lon="14.4209879637">
        <ele>511</ele>
        <time>2011-11-05T14:18:32Z</time>
      </trkpt>
      <trkpt lat="62.8357769921" lon="14.4209879637">
        <ele>512</ele>
        <time>2011-11-05T14:18:33Z</time>
      </trkpt>
      <trkpt lat="62.8357759863" lon="14.4209939986">
        <ele>512</ele>
        <time>2011-11-05T14:18:34Z</time>
      </trkpt>
      <trkpt lat="62.8357759863" lon="14.4209939986">
        <ele>513</ele>
        <time>2011-11-05T14:18:35Z</time>
      </trkpt>
      <trkpt lat="62.8357759863" lon="14.4209939986">
        <ele>515</ele>
        <time>2011-11-05T14:18:36Z</time>
      </trkpt>
      <trkpt lat="62.8357759863" lon="14.4209939986">
        <ele>516</ele>
        <time>2011-11-05T14:18:37Z</time>
      </trkpt>
      <trkpt lat="62.8357759863" lon="14.4209939986">
        <ele>517</ele>
        <time>2011-11-05T14:18:38Z</time>
      </trkpt>
      <trkpt lat="62.8357759863" lon="14.4209939986">
        <ele>515</ele>
        <time>2011-11-05T14:18:39Z</time>
      </trkpt>
      <trkpt lat="62.8357759863" lon="14.4209939986">
        <ele>517</ele>
        <time>2011-11-05T14:18:40Z</time>
      </trkpt>
      <trkpt lat="62.8357759863" lon="14.4209939986">
        <ele>517</ele>
        <time>2011-11-05T14:18:41Z</time>
      </trkpt>
      <trkpt lat="62.8357759863" lon="14.4209939986">
        <ele>516</ele>
        <time>2011-11-05T14:18:42Z</time>
      </trkpt>
      <trkpt lat="62.8357759863" lon="14.4209939986">
        <ele>519</ele>
        <time>2011-11-05T14:18:43Z</time>
      </trkpt>
      <trkpt lat="62.8357759863" lon="14.4209939986">
        <ele>518</ele>
        <time>2011-11-05T14:18:44Z</time>
      </trkpt>
      <trkpt lat="62.8357759863" lon="14.4209939986">
        <ele>517</ele>
        <time>2011-11-05T14:18:45Z</time>
      </trkpt>
      <trkpt lat="62.8357759863" lon="14.4209939986">
        <ele>515</ele>
        <time>2011-11-05T14:18:46Z</time>
      </trkpt>
      <trkpt lat="62.8357759863" lon="14.4209939986">
        <ele>517</ele>
        <time>2011-11-05T14:18:47Z</time>
      </trkpt>
      <trkpt lat="62.8357759863" lon="14.4209939986">
        <ele>515</ele>
        <time>2011-11-05T14:18:48Z</time>
      </trkpt>
      <trkpt lat="62.8357759863" lon="14.4209939986">
        <ele>516</ele>
        <time>2011-11-05T14:18:49Z</time>
      </trkpt>
      <trkpt lat="62.8357759863" lon="14.4209939986">
        <ele>523</ele>
        <time>2011-11-05T14:18:50Z</time>
      </trkpt>
      <trkpt lat="62.8357759863" lon="14.4209969323">
        <ele>521</ele>
        <time>2011-11-05T14:18:51Z</time>
      </trkpt>
      <trkpt lat="62.8357859608" lon="14.4210999459">
        <ele>515</ele>
        <time>2011-11-05T14:18:55Z</time>
      </trkpt>
      <trkpt lat="62.8357859608" lon="14.421124924">
        <ele>513</ele>
        <time>2011-11-05T14:18:56Z</time>
      </trkpt>
      <trkpt lat="62.8357859608" lon="14.421124924">
        <ele>513</ele>
        <time>2011-11-05T14:18:57Z</time>
      </trkpt>
      <trkpt lat="62.835784955" lon="14.4211549312">
        <ele>511</ele>
        <time>2011-11-05T14:18:58Z</time>
      </trkpt>
      <trkpt lat="62.835784955" lon="14.4211659953">
        <ele>514</ele>
        <time>2011-11-05T14:18:59Z</time>
      </trkpt>
      <trkpt lat="62.8357859608" lon="14.4211739581">
        <ele>516</ele>
        <time>2011-11-05T14:19:00Z</time>
      </trkpt>
      <trkpt lat="62.8357879724" lon="14.4211819209">
        <ele>515</ele>
        <time>2011-11-05T14:19:01Z</time>
      </trkpt>
      <trkpt lat="62.8357909899" lon="14.4211889617">
        <ele>513</ele>
        <time>2011-11-05T14:19:02Z</time>
      </trkpt>
      <trkpt lat="62.8357999586" lon="14.4212159514">
        <ele>512</ele>
        <time>2011-11-05T14:19:03Z</time>
      </trkpt>
      <trkpt lat="62.8358279541" lon="14.421287952">
        <ele>509</ele>
        <time>2011-11-05T14:19:05Z</time>
      </trkpt>
      <trkpt lat="62.8358409461" lon="14.4213159475">
        <ele>510</ele>
        <time>2011-11-05T14:19:06Z</time>
      </trkpt>
      <trkpt lat="62.8358579613" lon="14.4213459548">
        <ele>508</ele>
        <time>2011-11-05T14:19:07Z</time>
      </trkpt>
      <trkpt lat="62.8358579613" lon="14.4213459548">
        <ele>508</ele>
        <time>2011-11-05T14:19:08Z</time>
      </trkpt>
      <trkpt lat="62.8358869627" lon="14.4213969167">
        <ele>508</ele>
        <time>2011-11-05T14:19:09Z</time>
      </trkpt>
      <trkpt lat="62.8358989488" lon="14.4214209728">
        <ele>508</ele>
        <time>2011-11-05T14:19:10Z</time>
      </trkpt>
      <trkpt lat="62.8359149583" lon="14.4214429334">
        <ele>507</ele>
        <time>2011-11-05T14:19:11Z</time>
      </trkpt>
      <trkpt lat="62.8359319735" lon="14.4214699231">
        <ele>504</ele>
        <time>2011-11-05T14:19:12Z</time>
      </trkpt>
      <trkpt lat="62.8359489888" lon="14.4214979187">
        <ele>504</ele>
        <time>2011-11-05T14:19:13Z</time>
      </trkpt>
      <trkpt lat="62.8359489888" lon="14.4214919675">
        <ele>504</ele>
        <time>2011-11-05T14:19:14Z</time>
      </trkpt>
      <trkpt lat="62.8359489888" lon="14.4214939792">
        <ele>504</ele>
        <time>2011-11-05T14:19:15Z</time>
      </trkpt>
      <trkpt lat="62.8359489888" lon="14.4214969967">
        <ele>502</ele>
        <time>2011-11-05T14:19:16Z</time>
      </trkpt>
      <trkpt lat="62.8359489888" lon="14.4214969967">
        <ele>501</ele>
        <time>2011-11-05T14:19:17Z</time>
      </trkpt>
      <trkpt lat="62.8359489888" lon="14.4214969967">
        <ele>502</ele>
        <time>2011-11-05T14:19:18Z</time>
      </trkpt>
      <trkpt lat="62.8359489888" lon="14.4214969967">
        <ele>503</ele>
        <time>2011-11-05T14:19:19Z</time>
      </trkpt>
      <trkpt lat="62.8359489888" lon="14.4214969967">
        <ele>505</ele>
        <time>2011-11-05T14:19:20Z</time>
      </trkpt>
      <trkpt lat="62.8359499946" lon="14.4214929733">
        <ele>506</ele>
        <time>2011-11-05T14:19:21Z</time>
      </trkpt>
      <trkpt lat="62.8359539341" lon="14.4214849267">
        <ele>507</ele>
        <time>2011-11-05T14:19:22Z</time>
      </trkpt>
      <trkpt lat="62.8359579574" lon="14.4214719348">
        <ele>506</ele>
        <time>2011-11-05T14:19:23Z</time>
      </trkpt>
      <trkpt lat="62.8359639924" lon="14.4214549195">
        <ele>506</ele>
        <time>2011-11-05T14:19:24Z</time>
      </trkpt>
      <trkpt lat="62.8359739669" lon="14.4214149378">
        <ele>509</ele>
        <time>2011-11-05T14:19:25Z</time>
      </trkpt>
      <trkpt lat="62.8359739669" lon="14.4213179592">
        <ele>511</ele>
        <time>2011-11-05T14:19:26Z</time>
      </trkpt>
      <trkpt lat="62.8359669261" lon="14.4212449528">
        <ele>511</ele>
        <time>2011-11-05T14:19:27Z</time>
      </trkpt>
      <trkpt lat="62.8359579574" lon="14.4212119281">
        <ele>505</ele>
        <time>2011-11-05T14:19:28Z</time>
      </trkpt>
      <trkpt lat="62.8359509166" lon="14.4211899675">
        <ele>505</ele>
        <time>2011-11-05T14:19:29Z</time>
      </trkpt>
      <trkpt lat="62.8359449655" lon="14.4211649895">
        <ele>509</ele>
        <time>2011-11-05T14:19:30Z</time>
      </trkpt>
      <trkpt lat="62.8359379247" lon="14.4211399276">
        <ele>512</ele>
        <time>2011-11-05T14:19:31Z</time>
      </trkpt>
      <trkpt lat="62.8359259386" lon="14.4210989401">
        <ele>514</ele>
        <time>2011-11-05T14:19:32Z</time>
      </trkpt>
      <trkpt lat="62.8359259386" lon="14.4210989401">
        <ele>514</ele>
        <time>2011-11-05T14:19:33Z</time>
      </trkpt>
      <trkpt lat="62.835910935" lon="14.4210559409">
        <ele>517</ele>
        <time>2011-11-05T14:19:34Z</time>
      </trkpt>
      <trkpt lat="62.8359059896" lon="14.4210479781">
        <ele>519</ele>
        <time>2011-11-05T14:19:35Z</time>
      </trkpt>
      <trkpt lat="62.8358969372" lon="14.4210419431">
        <ele>520</ele>
        <time>2011-11-05T14:19:36Z</time>
      </trkpt>
      <trkpt lat="62.8358889744" lon="14.4210389256">
        <ele>520</ele>
        <time>2011-11-05T14:19:37Z</time>
      </trkpt>
      <trkpt lat="62.8358829394" lon="14.4210369978">
        <ele>521</ele>
        <time>2011-11-05T14:19:38Z</time>
      </trkpt>
      <trkpt lat="62.8358789999" lon="14.4210279454">
        <ele>522</ele>
        <time>2011-11-05T14:19:39Z</time>
      </trkpt>
      <trkpt lat="62.8358779941" lon="14.4210219942">
        <ele>523</ele>
        <time>2011-11-05T14:19:40Z</time>
      </trkpt>
      <trkpt lat="62.8358789999" lon="14.4210109301">
        <ele>522</ele>
        <time>2011-11-05T14:19:41Z</time>
      </trkpt>
      <trkpt lat="62.8358809277" lon="14.4209999498">
        <ele>523</ele>
        <time>2011-11-05T14:19:42Z</time>
      </trkpt>
      <trkpt lat="62.8358809277" lon="14.4209999498">
        <ele>524</ele>
        <time>2011-11-05T14:19:43Z</time>
      </trkpt>
      <trkpt lat="62.8358809277" lon="14.420998944">
        <ele>526</ele>
        <time>2011-11-05T14:19:44Z</time>
      </trkpt>
      <trkpt lat="62.8358809277" lon="14.420998944">
        <ele>527</ele>
        <time>2011-11-05T14:19:45Z</time>
      </trkpt>
      <trkpt lat="62.8358809277" lon="14.420998944">
        <ele>518</ele>
        <time>2011-11-05T14:19:46Z</time>
      </trkpt>
      <trkpt lat="62.8358749766" lon="14.4209849462">
        <ele>518</ele>
        <time>2011-11-05T14:19:47Z</time>
      </trkpt>
      <trkpt lat="62.8358619846" lon="14.4209599681">
        <ele>519</ele>
        <time>2011-11-05T14:19:48Z</time>
      </trkpt>
      <trkpt lat="62.8358609788" lon="14.4209599681">
        <ele>520</ele>
        <time>2011-11-05T14:19:49Z</time>
      </trkpt>
      <trkpt lat="62.8358609788" lon="14.4209599681">
        <ele>522</ele>
        <time>2011-11-05T14:19:50Z</time>
      </trkpt>
      <trkpt lat="62.8358609788" lon="14.4209599681">
        <ele>522</ele>
        <time>2011-11-05T14:19:51Z</time>
      </trkpt>
      <trkpt lat="62.8358609788" lon="14.4209599681">
        <ele>523</ele>
        <time>2011-11-05T14:19:52Z</time>
      </trkpt>
      <trkpt lat="62.8358609788" lon="14.4209599681">
        <ele>527</ele>
        <time>2011-11-05T14:19:53Z</time>
      </trkpt>
      <trkpt lat="62.835853938" lon="14.4209569506">
        <ele>523</ele>
        <time>2011-11-05T14:19:54Z</time>
      </trkpt>
      <trkpt lat="62.8358269483" lon="14.4209219981">
        <ele>522</ele>
        <time>2011-11-05T14:19:55Z</time>
      </trkpt>
      <trkpt lat="62.8358269483" lon="14.4209219981">
        <ele>519</ele>
        <time>2011-11-05T14:19:56Z</time>
      </trkpt>
      <trkpt lat="62.8358269483" lon="14.4209219981">
        <ele>515</ele>
        <time>2011-11-05T14:19:57Z</time>
      </trkpt>
      <trkpt lat="62.8358269483" lon="14.4209219981">
        <ele>514</ele>
        <time>2011-11-05T14:19:58Z</time>
      </trkpt>
      <trkpt lat="62.8358209971" lon="14.4209229201">
        <ele>510</ele>
        <time>2011-11-05T14:19:59Z</time>
      </trkpt>
      <trkpt lat="62.8357939236" lon="14.4209199864">
        <ele>510</ele>
        <time>2011-11-05T14:20:00Z</time>
      </trkpt>
      <trkpt lat="62.8357929178" lon="14.4209199864">
        <ele>512</ele>
        <time>2011-11-05T14:20:01Z</time>
      </trkpt>
      <trkpt lat="62.8357929178" lon="14.4209189806">
        <ele>510</ele>
        <time>2011-11-05T14:20:02Z</time>
      </trkpt>
      <trkpt lat="62.8357879724" lon="14.4209129456">
        <ele>512</ele>
        <time>2011-11-05T14:20:03Z</time>
      </trkpt>
      <trkpt lat="62.8357799258" lon="14.4208869617">
        <ele>516</ele>
        <time>2011-11-05T14:20:04Z</time>
      </trkpt>
      <trkpt lat="62.8357569594" lon="14.420872964">
        <ele>520</ele>
        <time>2011-11-05T14:20:05Z</time>
      </trkpt>
      <trkpt lat="62.8357569594" lon="14.420872964">
        <ele>520</ele>
        <time>2011-11-05T14:20:06Z</time>
      </trkpt>
      <trkpt lat="62.8357569594" lon="14.420872964">
        <ele>518</ele>
        <time>2011-11-05T14:20:07Z</time>
      </trkpt>
      <trkpt lat="62.8357569594" lon="14.420872964">
        <ele>515</ele>
        <time>2011-11-05T14:20:08Z</time>
      </trkpt>
      <trkpt lat="62.8357569594" lon="14.420872964">
        <ele>516</ele>
        <time>2011-11-05T14:20:09Z</time>
      </trkpt>
      <trkpt lat="62.8357569594" lon="14.420872964">
        <ele>522</ele>
        <time>2011-11-05T14:20:10Z</time>
      </trkpt>
      <trkpt lat="62.8357569594" lon="14.420872964">
        <ele>524</ele>
        <time>2011-11-05T14:20:11Z</time>
      </trkpt>
      <trkpt lat="62.8357519303" lon="14.420866929">
        <ele>524</ele>
        <time>2011-11-05T14:20:12Z</time>
      </trkpt>
      <trkpt lat="62.8357439674" lon="14.4208499976">
        <ele>524</ele>
        <time>2011-11-05T14:20:13Z</time>
      </trkpt>
      <trkpt lat="62.8357439674" lon="14.4208499976">
        <ele>523</ele>
        <time>2011-11-05T14:20:14Z</time>
      </trkpt>
      <trkpt lat="62.8357439674" lon="14.4208499976">
        <ele>520</ele>
        <time>2011-11-05T14:20:15Z</time>
      </trkpt>
      <trkpt lat="62.8357439674" lon="14.4208499976">
        <ele>521</ele>
        <time>2011-11-05T14:20:16Z</time>
      </trkpt>
      <trkpt lat="62.8357439674" lon="14.4208499976">
        <ele>520</ele>
        <time>2011-11-05T14:20:17Z</time>
      </trkpt>
      <trkpt lat="62.8357439674" lon="14.4208499976">
        <ele>517</ele>
        <time>2011-11-05T14:20:18Z</time>
      </trkpt>
      <trkpt lat="62.8357379325" lon="14.4208329823">
        <ele>518</ele>
        <time>2011-11-05T14:20:19Z</time>
      </trkpt>
      <trkpt lat="62.8357369266" lon="14.420778919">
        <ele>519</ele>
        <time>2011-11-05T14:20:20Z</time>
      </trkpt>
      <trkpt lat="62.8357399441" lon="14.4207529351">
        <ele>523</ele>
        <time>2011-11-05T14:20:21Z</time>
      </trkpt>
      <trkpt lat="62.8357399441" lon="14.4207519293">
        <ele>518</ele>
        <time>2011-11-05T14:20:22Z</time>
      </trkpt>
      <trkpt lat="62.8357439674" lon="14.4207149651">
        <ele>520</ele>
        <time>2011-11-05T14:20:23Z</time>
      </trkpt>
      <trkpt lat="62.8357519303" lon="14.420665931">
        <ele>519</ele>
        <time>2011-11-05T14:20:24Z</time>
      </trkpt>
      <trkpt lat="62.8357519303" lon="14.420665931">
        <ele>520</ele>
        <time>2011-11-05T14:20:25Z</time>
      </trkpt>
      <trkpt lat="62.8357519303" lon="14.420665931">
        <ele>517</ele>
        <time>2011-11-05T14:20:26Z</time>
      </trkpt>
      <trkpt lat="62.8357519303" lon="14.420665931">
        <ele>522</ele>
        <time>2011-11-05T14:20:27Z</time>
      </trkpt>
      <trkpt lat="62.8357559536" lon="14.4206499215">
        <ele>517</ele>
        <time>2011-11-05T14:20:28Z</time>
      </trkpt>
      <trkpt lat="62.8357649222" lon="14.4206519332">
        <ele>516</ele>
        <time>2011-11-05T14:20:29Z</time>
      </trkpt>
      <trkpt lat="62.8357879724" lon="14.4206609856">
        <ele>515</ele>
        <time>2011-11-05T14:20:30Z</time>
      </trkpt>
      <trkpt lat="62.8358069994" lon="14.4206919987">
        <ele>515</ele>
        <time>2011-11-05T14:20:31Z</time>
      </trkpt>
      <trkpt lat="62.8358069994" lon="14.4206919987">
        <ele>514</ele>
        <time>2011-11-05T14:20:32Z</time>
      </trkpt>
      <trkpt lat="62.8358069994" lon="14.4206919987">
        <ele>514</ele>
        <time>2011-11-05T14:20:33Z</time>
      </trkpt>
      <trkpt lat="62.8358069994" lon="14.4206919987">
        <ele>513</ele>
        <time>2011-11-05T14:20:34Z</time>
      </trkpt>
      <trkpt lat="62.8358149622" lon="14.4207019731">
        <ele>513</ele>
        <time>2011-11-05T14:20:35Z</time>
      </trkpt>
      <trkpt lat="62.8358289599" lon="14.4207199942">
        <ele>513</ele>
        <time>2011-11-05T14:20:36Z</time>
      </trkpt>
      <trkpt lat="62.8358439635" lon="14.4207399432">
        <ele>513</ele>
        <time>2011-11-05T14:20:37Z</time>
      </trkpt>
      <trkpt lat="62.8358579613" lon="14.4207699504">
        <ele>515</ele>
        <time>2011-11-05T14:20:38Z</time>
      </trkpt>
      <trkpt lat="62.8358659241" lon="14.4207879715">
        <ele>511</ele>
        <time>2011-11-05T14:20:39Z</time>
      </trkpt>
      <trkpt lat="62.8358789999" lon="14.4207959343">
        <ele>513</ele>
        <time>2011-11-05T14:20:40Z</time>
      </trkpt>
      <trkpt lat="62.8358789999" lon="14.4207959343">
        <ele>516</ele>
        <time>2011-11-05T14:20:41Z</time>
      </trkpt>
      <trkpt lat="62.8358789999" lon="14.4207959343">
        <ele>515</ele>
        <time>2011-11-05T14:20:42Z</time>
      </trkpt>
      <trkpt lat="62.8358789999" lon="14.4207959343">
        <ele>517</ele>
        <time>2011-11-05T14:20:43Z</time>
      </trkpt>
      <trkpt lat="62.8358789999" lon="14.4207959343">
        <ele>518</ele>
        <time>2011-11-05T14:20:44Z</time>
      </trkpt>
      <trkpt lat="62.8358789999" lon="14.4207959343">
        <ele>517</ele>
        <time>2011-11-05T14:20:45Z</time>
      </trkpt>
      <trkpt lat="62.8358789999" lon="14.4207959343">
        <ele>509</ele>
        <time>2011-11-05T14:20:46Z</time>
      </trkpt>
      <trkpt lat="62.8358789999" lon="14.4207959343">
        <ele>506</ele>
        <time>2011-11-05T14:20:47Z</time>
      </trkpt>
      <trkpt lat="62.8358779941" lon="14.4207979459">
        <ele>504</ele>
        <time>2011-11-05T14:20:48Z</time>
      </trkpt>
      <trkpt lat="62.8358779941" lon="14.4207979459">
        <ele>505</ele>
        <time>2011-11-05T14:20:49Z</time>
      </trkpt>
      <trkpt lat="62.8358709533" lon="14.4208099321">
        <ele>508</ele>
        <time>2011-11-05T14:20:50Z</time>
      </trkpt>
      <trkpt lat="62.8358629905" lon="14.4208149612">
        <ele>507</ele>
        <time>2011-11-05T14:20:51Z</time>
      </trkpt>
      <trkpt lat="62.8358629905" lon="14.4208149612">
        <ele>505</ele>
        <time>2011-11-05T14:20:52Z</time>
      </trkpt>
      <trkpt lat="62.8358629905" lon="14.4208149612">
        <ele>507</ele>
        <time>2011-11-05T14:20:53Z</time>
      </trkpt>
      <trkpt lat="62.8358629905" lon="14.4208149612">
        <ele>509</ele>
        <time>2011-11-05T14:20:54Z</time>
      </trkpt>
      <trkpt lat="62.8358629905" lon="14.4208149612">
        <ele>509</ele>
        <time>2011-11-05T14:20:55Z</time>
      </trkpt>
      <trkpt lat="62.8358629905" lon="14.4208149612">
        <ele>510</ele>
        <time>2011-11-05T14:20:56Z</time>
      </trkpt>
      <trkpt lat="62.8358629905" lon="14.4208149612">
        <ele>511</ele>
        <time>2011-11-05T14:20:57Z</time>
      </trkpt>
      <trkpt lat="62.8358629905" lon="14.4208149612">
        <ele>513</ele>
        <time>2011-11-05T14:20:58Z</time>
      </trkpt>
      <trkpt lat="62.8358629905" lon="14.4208149612">
        <ele>513</ele>
        <time>2011-11-05T14:20:59Z</time>
      </trkpt>
      <trkpt lat="62.8358509205" lon="14.420815967">
        <ele>515</ele>
        <time>2011-11-05T14:21:00Z</time>
      </trkpt>
      <trkpt lat="62.8358509205" lon="14.420815967">
        <ele>515</ele>
        <time>2011-11-05T14:21:01Z</time>
      </trkpt>
      <trkpt lat="62.8358509205" lon="14.420815967">
        <ele>515</ele>
        <time>2011-11-05T14:21:02Z</time>
      </trkpt>
      <trkpt lat="62.8358509205" lon="14.420815967">
        <ele>514</ele>
        <time>2011-11-05T14:21:03Z</time>
      </trkpt>
      <trkpt lat="62.8358509205" lon="14.420815967">
        <ele>512</ele>
        <time>2011-11-05T14:21:04Z</time>
      </trkpt>
      <trkpt lat="62.8358509205" lon="14.420815967">
        <ele>514</ele>
        <time>2011-11-05T14:21:05Z</time>
      </trkpt>
      <trkpt lat="62.8358509205" lon="14.420815967">
        <ele>511</ele>
        <time>2011-11-05T14:21:06Z</time>
      </trkpt>
      <trkpt lat="62.8358439635" lon="14.4208249357">
        <ele>512</ele>
        <time>2011-11-05T14:21:07Z</time>
      </trkpt>
      <trkpt lat="62.8358439635" lon="14.4208249357">
        <ele>511</ele>
        <time>2011-11-05T14:21:08Z</time>
      </trkpt>
      <trkpt lat="62.8358439635" lon="14.4208249357">
        <ele>517</ele>
        <time>2011-11-05T14:21:09Z</time>
      </trkpt>
      <trkpt lat="62.8358439635" lon="14.4208249357">
        <ele>521</ele>
        <time>2011-11-05T14:21:10Z</time>
      </trkpt>
      <trkpt lat="62.8358439635" lon="14.4208249357">
        <ele>521</ele>
        <time>2011-11-05T14:21:11Z</time>
      </trkpt>
      <trkpt lat="62.8358439635" lon="14.4208249357">
        <ele>519</ele>
        <time>2011-11-05T14:21:12Z</time>
      </trkpt>
      <trkpt lat="62.8358439635" lon="14.4208249357">
        <ele>520</ele>
        <time>2011-11-05T14:21:13Z</time>
      </trkpt>
      <trkpt lat="62.8358439635" lon="14.4208249357">
        <ele>520</ele>
        <time>2011-11-05T14:21:14Z</time>
      </trkpt>
      <trkpt lat="62.8358439635" lon="14.4208249357">
        <ele>522</ele>
        <time>2011-11-05T14:21:15Z</time>
      </trkpt>
      <trkpt lat="62.8358449694" lon="14.4208359998">
        <ele>518</ele>
        <time>2011-11-05T14:21:16Z</time>
      </trkpt>
      <trkpt lat="62.8358449694" lon="14.4208359998">
        <ele>518</ele>
        <time>2011-11-05T14:21:17Z</time>
      </trkpt>
      <trkpt lat="62.8358449694" lon="14.4208359998">
        <ele>516</ele>
        <time>2011-11-05T14:21:18Z</time>
      </trkpt>
      <trkpt lat="62.8358449694" lon="14.4208359998">
        <ele>516</ele>
        <time>2011-11-05T14:21:19Z</time>
      </trkpt>
      <trkpt lat="62.8358449694" lon="14.4208359998">
        <ele>515</ele>
        <time>2011-11-05T14:21:20Z</time>
      </trkpt>
      <trkpt lat="62.8358459752" lon="14.4208489917">
        <ele>515</ele>
        <time>2011-11-05T14:21:21Z</time>
      </trkpt>
      <trkpt lat="62.8358429577" lon="14.420859972">
        <ele>513</ele>
        <time>2011-11-05T14:21:22Z</time>
      </trkpt>
      <trkpt lat="62.8358429577" lon="14.420859972">
        <ele>512</ele>
        <time>2011-11-05T14:21:23Z</time>
      </trkpt>
      <trkpt lat="62.8358429577" lon="14.420859972">
        <ele>512</ele>
        <time>2011-11-05T14:21:24Z</time>
      </trkpt>
      <trkpt lat="62.8358419519" lon="14.420872964">
        <ele>512</ele>
        <time>2011-11-05T14:21:25Z</time>
      </trkpt>
      <trkpt lat="62.8358389344" lon="14.420897942">
        <ele>514</ele>
        <time>2011-11-05T14:21:26Z</time>
      </trkpt>
      <trkpt lat="62.8358299658" lon="14.4209199864">
        <ele>513</ele>
        <time>2011-11-05T14:21:27Z</time>
      </trkpt>
      <trkpt lat="62.8358149622" lon="14.4209449645">
        <ele>511</ele>
        <time>2011-11-05T14:21:28Z</time>
      </trkpt>
      <trkpt lat="62.835802976" lon="14.4209689368">
        <ele>508</ele>
        <time>2011-11-05T14:21:29Z</time>
      </trkpt>
      <trkpt lat="62.835802976" lon="14.4209689368">
        <ele>512</ele>
        <time>2011-11-05T14:21:30Z</time>
      </trkpt>
      <trkpt lat="62.835802976" lon="14.4209689368">
        <ele>512</ele>
        <time>2011-11-05T14:21:31Z</time>
      </trkpt>
      <trkpt lat="62.835802976" lon="14.4209689368">
        <ele>517</ele>
        <time>2011-11-05T14:21:32Z</time>
      </trkpt>
      <trkpt lat="62.835802976" lon="14.4209689368">
        <ele>519</ele>
        <time>2011-11-05T14:21:33Z</time>
      </trkpt>
      <trkpt lat="62.8357969411" lon="14.4209829345">
        <ele>519</ele>
        <time>2011-11-05T14:21:34Z</time>
      </trkpt>
      <trkpt lat="62.8357929178" lon="14.4209899753">
        <ele>520</ele>
        <time>2011-11-05T14:21:35Z</time>
      </trkpt>
      <trkpt lat="62.8357929178" lon="14.4209899753">
        <ele>520</ele>
        <time>2011-11-05T14:21:36Z</time>
      </trkpt>
      <trkpt lat="62.8357929178" lon="14.4209899753">
        <ele>520</ele>
        <time>2011-11-05T14:21:37Z</time>
      </trkpt>
      <trkpt lat="62.8357929178" lon="14.4209899753">
        <ele>515</ele>
        <time>2011-11-05T14:21:38Z</time>
      </trkpt>
      <trkpt lat="62.8357929178" lon="14.4209899753">
        <ele>512</ele>
        <time>2011-11-05T14:21:39Z</time>
      </trkpt>
      <trkpt lat="62.8357929178" lon="14.4209899753">
        <ele>517</ele>
        <time>2011-11-05T14:21:40Z</time>
      </trkpt>
      <trkpt lat="62.8357899841" lon="14.4209929928">
        <ele>515</ele>
        <time>2011-11-05T14:21:41Z</time>
      </trkpt>
      <trkpt lat="62.8357899841" lon="14.4209929928">
        <ele>517</ele>
        <time>2011-11-05T14:21:42Z</time>
      </trkpt>
      <trkpt lat="62.8357899841" lon="14.4209929928">
        <ele>515</ele>
        <time>2011-11-05T14:21:43Z</time>
      </trkpt>
      <trkpt lat="62.8357899841" lon="14.4209929928">
        <ele>512</ele>
        <time>2011-11-05T14:21:44Z</time>
      </trkpt>
      <trkpt lat="62.8357899841" lon="14.4209929928">
        <ele>510</ele>
        <time>2011-11-05T14:21:45Z</time>
      </trkpt>
      <trkpt lat="62.8357899841" lon="14.4209929928">
        <ele>512</ele>
        <time>2011-11-05T14:21:46Z</time>
      </trkpt>
      <trkpt lat="62.8357899841" lon="14.4209929928">
        <ele>516</ele>
        <time>2011-11-05T14:21:47Z</time>
      </trkpt>
      <trkpt lat="62.8357899841" lon="14.4209929928">
        <ele>519</ele>
        <time>2011-11-05T14:21:48Z</time>
      </trkpt>
      <trkpt lat="62.8357069194" lon="14.420985952">
        <ele>521</ele>
        <time>2011-11-05T14:21:49Z</time>
      </trkpt>
      <trkpt lat="62.8356829472" lon="14.4209909812">
        <ele>523</ele>
        <time>2011-11-05T14:21:50Z</time>
      </trkpt>
      <trkpt lat="62.8356699552" lon="14.420998944">
        <ele>522</ele>
        <time>2011-11-05T14:21:51Z</time>
      </trkpt>
      <trkpt lat="62.8356539458" lon="14.4210059848">
        <ele>523</ele>
        <time>2011-11-05T14:21:52Z</time>
      </trkpt>
      <trkpt lat="62.8356409539" lon="14.4210179709">
        <ele>525</ele>
        <time>2011-11-05T14:21:53Z</time>
      </trkpt>
      <trkpt lat="62.8356319852" lon="14.421029957">
        <ele>528</ele>
        <time>2011-11-05T14:21:54Z</time>
      </trkpt>
      <trkpt lat="62.8356319852" lon="14.421029957">
        <ele>529</ele>
        <time>2011-11-05T14:21:55Z</time>
      </trkpt>
      <trkpt lat="62.8356319852" lon="14.421029957">
        <ele>534</ele>
        <time>2011-11-05T14:21:56Z</time>
      </trkpt>
      <trkpt lat="62.8356319852" lon="14.421029957">
        <ele>529</ele>
        <time>2011-11-05T14:21:57Z</time>
      </trkpt>
      <trkpt lat="62.8356319852" lon="14.421029957">
        <ele>527</ele>
        <time>2011-11-05T14:21:58Z</time>
      </trkpt>
      <trkpt lat="62.8356259502" lon="14.4210319687">
        <ele>527</ele>
        <time>2011-11-05T14:21:59Z</time>
      </trkpt>
      <trkpt lat="62.8356259502" lon="14.4210319687">
        <ele>529</ele>
        <time>2011-11-05T14:22:00Z</time>
      </trkpt>
      <trkpt lat="62.8356259502" lon="14.4210319687">
        <ele>528</ele>
        <time>2011-11-05T14:22:01Z</time>
      </trkpt>
      <trkpt lat="62.8356259502" lon="14.4210319687">
        <ele>529</ele>
        <time>2011-11-05T14:22:02Z</time>
      </trkpt>
      <trkpt lat="62.8356199991" lon="14.421035992">
        <ele>530</ele>
        <time>2011-11-05T14:22:03Z</time>
      </trkpt>
      <trkpt lat="62.8356109466" lon="14.4210479781">
        <ele>529</ele>
        <time>2011-11-05T14:22:04Z</time>
      </trkpt>
      <trkpt lat="62.8356039897" lon="14.4210519176">
        <ele>529</ele>
        <time>2011-11-05T14:22:05Z</time>
      </trkpt>
      <trkpt lat="62.8355949372" lon="14.4210559409">
        <ele>529</ele>
        <time>2011-11-05T14:22:06Z</time>
      </trkpt>
      <trkpt lat="62.8355839569" lon="14.4210589584">
        <ele>529</ele>
        <time>2011-11-05T14:22:07Z</time>
      </trkpt>
      <trkpt lat="62.8355719708" lon="14.4210609701">
        <ele>527</ele>
        <time>2011-11-05T14:22:08Z</time>
      </trkpt>
      <trkpt lat="62.8355719708" lon="14.4210609701">
        <ele>526</ele>
        <time>2011-11-05T14:22:09Z</time>
      </trkpt>
      <trkpt lat="62.8355719708" lon="14.4210609701">
        <ele>523</ele>
        <time>2011-11-05T14:22:10Z</time>
      </trkpt>
      <trkpt lat="62.83556493" lon="14.4210469723">
        <ele>527</ele>
        <time>2011-11-05T14:22:11Z</time>
      </trkpt>
      <trkpt lat="62.8355549555" lon="14.4210369978">
        <ele>524</ele>
        <time>2011-11-05T14:22:12Z</time>
      </trkpt>
      <trkpt lat="62.8355249483" lon="14.4210049789">
        <ele>522</ele>
        <time>2011-11-05T14:22:13Z</time>
      </trkpt>
      <trkpt lat="62.8355029877" lon="14.4209849462">
        <ele>519</ele>
        <time>2011-11-05T14:22:14Z</time>
      </trkpt>
      <trkpt lat="62.8354889899" lon="14.4209729601">
        <ele>519</ele>
        <time>2011-11-05T14:22:15Z</time>
      </trkpt>
      <trkpt lat="62.8354889899" lon="14.4209729601">
        <ele>517</ele>
        <time>2011-11-05T14:22:16Z</time>
      </trkpt>
      <trkpt lat="62.8354889899" lon="14.4209729601">
        <ele>518</ele>
        <time>2011-11-05T14:22:17Z</time>
      </trkpt>
      <trkpt lat="62.8354889899" lon="14.4209729601">
        <ele>518</ele>
        <time>2011-11-05T14:22:18Z</time>
      </trkpt>
      <trkpt lat="62.8354889899" lon="14.4209729601">
        <ele>520</ele>
        <time>2011-11-05T14:22:19Z</time>
      </trkpt>
      <trkpt lat="62.8354889899" lon="14.4209729601">
        <ele>519</ele>
        <time>2011-11-05T14:22:20Z</time>
      </trkpt>
      <trkpt lat="62.8354889899" lon="14.4209729601">
        <ele>516</ele>
        <time>2011-11-05T14:22:21Z</time>
      </trkpt>
      <trkpt lat="62.8354889899" lon="14.4209729601">
        <ele>512</ele>
        <time>2011-11-05T14:22:22Z</time>
      </trkpt>
      <trkpt lat="62.8354889899" lon="14.4209729601">
        <ele>510</ele>
        <time>2011-11-05T14:22:23Z</time>
      </trkpt>
      <trkpt lat="62.8354889899" lon="14.4209729601">
        <ele>508</ele>
        <time>2011-11-05T14:22:24Z</time>
      </trkpt>
      <trkpt lat="62.8354889899" lon="14.4209729601">
        <ele>510</ele>
        <time>2011-11-05T14:22:25Z</time>
      </trkpt>
      <trkpt lat="62.8354889899" lon="14.4209729601">
        <ele>509</ele>
        <time>2011-11-05T14:22:26Z</time>
      </trkpt>
      <trkpt lat="62.8354889899" lon="14.4209729601">
        <ele>508</ele>
        <time>2011-11-05T14:22:27Z</time>
      </trkpt>
      <trkpt lat="62.8354889899" lon="14.4209729601">
        <ele>508</ele>
        <time>2011-11-05T14:22:28Z</time>
      </trkpt>
      <trkpt lat="62.8354889899" lon="14.4209729601">
        <ele>506</ele>
        <time>2011-11-05T14:22:29Z</time>
      </trkpt>
      <trkpt lat="62.835475998" lon="14.420954939">
        <ele>506</ele>
        <time>2011-11-05T14:22:30Z</time>
      </trkpt>
      <trkpt lat="62.835475998" lon="14.4209539331">
        <ele>506</ele>
        <time>2011-11-05T14:22:31Z</time>
      </trkpt>
      <trkpt lat="62.835475998" lon="14.4209539331">
        <ele>508</ele>
        <time>2011-11-05T14:22:32Z</time>
      </trkpt>
      <trkpt lat="62.835475998" lon="14.4209539331">
        <ele>512</ele>
        <time>2011-11-05T14:22:33Z</time>
      </trkpt>
      <trkpt lat="62.835475998" lon="14.4209539331">
        <ele>512</ele>
        <time>2011-11-05T14:22:34Z</time>
      </trkpt>
      <trkpt lat="62.8354719747" lon="14.4209569506">
        <ele>510</ele>
        <time>2011-11-05T14:22:35Z</time>
      </trkpt>
      <trkpt lat="62.8354719747" lon="14.4209569506">
        <ele>507</ele>
        <time>2011-11-05T14:22:36Z</time>
      </trkpt>
      <trkpt lat="62.8354689572" lon="14.4209599681">
        <ele>508</ele>
        <time>2011-11-05T14:22:37Z</time>
      </trkpt>
      <trkpt lat="62.8354609944" lon="14.4209629856">
        <ele>507</ele>
        <time>2011-11-05T14:22:38Z</time>
      </trkpt>
      <trkpt lat="62.8354499303" lon="14.4209699426">
        <ele>512</ele>
        <time>2011-11-05T14:22:39Z</time>
      </trkpt>
      <trkpt lat="62.8354399558" lon="14.4209669251">
        <ele>514</ele>
        <time>2011-11-05T14:22:40Z</time>
      </trkpt>
      <trkpt lat="62.835431993" lon="14.4209619798">
        <ele>511</ele>
        <time>2011-11-05T14:22:41Z</time>
      </trkpt>
      <trkpt lat="62.835431993" lon="14.4209619798">
        <ele>512</ele>
        <time>2011-11-05T14:22:42Z</time>
      </trkpt>
      <trkpt lat="62.8354229406" lon="14.4209599681">
        <ele>511</ele>
        <time>2011-11-05T14:22:43Z</time>
      </trkpt>
      <trkpt lat="62.8353989683" lon="14.4209469762">
        <ele>513</ele>
        <time>2011-11-05T14:22:44Z</time>
      </trkpt>
      <trkpt lat="62.8353989683" lon="14.4209469762">
        <ele>512</ele>
        <time>2011-11-05T14:22:45Z</time>
      </trkpt>
      <trkpt lat="62.8353989683" lon="14.4209469762">
        <ele>513</ele>
        <time>2011-11-05T14:22:46Z</time>
      </trkpt>
      <trkpt lat="62.8353909217" lon="14.4209499937">
        <ele>511</ele>
        <time>2011-11-05T14:22:47Z</time>
      </trkpt>
      <trkpt lat="62.8353839647" lon="14.4209499937">
        <ele>509</ele>
        <time>2011-11-05T14:22:48Z</time>
      </trkpt>
      <trkpt lat="62.8353749961" lon="14.4209499937">
        <ele>511</ele>
        <time>2011-11-05T14:22:49Z</time>
      </trkpt>
      <trkpt lat="62.8353649378" lon="14.4209519215">
        <ele>512</ele>
        <time>2011-11-05T14:22:50Z</time>
      </trkpt>
      <trkpt lat="62.8353469167" lon="14.4209539331">
        <ele>512</ele>
        <time>2011-11-05T14:22:51Z</time>
      </trkpt>
      <trkpt lat="62.8353319969" lon="14.4209629856">
        <ele>509</ele>
        <time>2011-11-05T14:22:52Z</time>
      </trkpt>
      <trkpt lat="62.8353259619" lon="14.4209679309">
        <ele>511</ele>
        <time>2011-11-05T14:22:53Z</time>
      </trkpt>
      <trkpt lat="62.8353099525" lon="14.4209899753">
        <ele>512</ele>
        <time>2011-11-05T14:22:54Z</time>
      </trkpt>
      <trkpt lat="62.8353009839" lon="14.4209999498">
        <ele>510</ele>
        <time>2011-11-05T14:22:55Z</time>
      </trkpt>
      <trkpt lat="62.8352909256" lon="14.4210129417">
        <ele>508</ele>
        <time>2011-11-05T14:22:56Z</time>
      </trkpt>
      <trkpt lat="62.8352849744" lon="14.4210259337">
        <ele>508</ele>
        <time>2011-11-05T14:22:57Z</time>
      </trkpt>
      <trkpt lat="62.835275922" lon="14.4210319687">
        <ele>511</ele>
        <time>2011-11-05T14:22:58Z</time>
      </trkpt>
      <trkpt lat="62.835268965" lon="14.4210349862">
        <ele>508</ele>
        <time>2011-11-05T14:22:59Z</time>
      </trkpt>
      <trkpt lat="62.8352619242" lon="14.4210249279">
        <ele>505</ele>
        <time>2011-11-05T14:23:00Z</time>
      </trkpt>
      <trkpt lat="62.8352579847" lon="14.4209869578">
        <ele>506</ele>
        <time>2011-11-05T14:23:01Z</time>
      </trkpt>
      <trkpt lat="62.835255973" lon="14.4209649973">
        <ele>508</ele>
        <time>2011-11-05T14:23:02Z</time>
      </trkpt>
      <trkpt lat="62.835255973" lon="14.4209439587">
        <ele>506</ele>
        <time>2011-11-05T14:23:03Z</time>
      </trkpt>
      <trkpt lat="62.835255973" lon="14.4209439587">
        <ele>506</ele>
        <time>2011-11-05T14:23:04Z</time>
      </trkpt>
      <trkpt lat="62.8352529556" lon="14.4209259376">
        <ele>509</ele>
        <time>2011-11-05T14:23:05Z</time>
      </trkpt>
      <trkpt lat="62.8352519497" lon="14.4209129456">
        <ele>508</ele>
        <time>2011-11-05T14:23:06Z</time>
      </trkpt>
      <trkpt lat="62.8352519497" lon="14.4209029712">
        <ele>507</ele>
        <time>2011-11-05T14:23:07Z</time>
      </trkpt>
      <trkpt lat="62.8352539614" lon="14.4208589662">
        <ele>505</ele>
        <time>2011-11-05T14:23:08Z</time>
      </trkpt>
      <trkpt lat="62.8352539614" lon="14.4208299648">
        <ele>506</ele>
        <time>2011-11-05T14:23:09Z</time>
      </trkpt>
      <trkpt lat="62.8352489322" lon="14.4208099321">
        <ele>505</ele>
        <time>2011-11-05T14:23:10Z</time>
      </trkpt>
      <trkpt lat="62.8352489322" lon="14.4207969401">
        <ele>506</ele>
        <time>2011-11-05T14:23:11Z</time>
      </trkpt>
      <trkpt lat="62.8352509439" lon="14.4207799248">
        <ele>508</ele>
        <time>2011-11-05T14:23:12Z</time>
      </trkpt>
      <trkpt lat="62.8352519497" lon="14.4207659271">
        <ele>506</ele>
        <time>2011-11-05T14:23:13Z</time>
      </trkpt>
      <trkpt lat="62.8352479264" lon="14.4207519293">
        <ele>506</ele>
        <time>2011-11-05T14:23:14Z</time>
      </trkpt>
      <trkpt lat="62.8352469206" lon="14.4207379315">
        <ele>501</ele>
        <time>2011-11-05T14:23:15Z</time>
      </trkpt>
      <trkpt lat="62.8352409694" lon="14.4207239337">
        <ele>502</ele>
        <time>2011-11-05T14:23:16Z</time>
      </trkpt>
      <trkpt lat="62.8352409694" lon="14.4207179826">
        <ele>501</ele>
        <time>2011-11-05T14:23:17Z</time>
      </trkpt>
      <trkpt lat="62.8352409694" lon="14.4207179826">
        <ele>504</ele>
        <time>2011-11-05T14:23:18Z</time>
      </trkpt>
      <trkpt lat="62.8352409694" lon="14.4207179826">
        <ele>505</ele>
        <time>2011-11-05T14:23:19Z</time>
      </trkpt>
      <trkpt lat="62.8352409694" lon="14.4207179826">
        <ele>504</ele>
        <time>2011-11-05T14:23:20Z</time>
      </trkpt>
      <trkpt lat="62.8352409694" lon="14.4207179826">
        <ele>507</ele>
        <time>2011-11-05T14:23:21Z</time>
      </trkpt>
      <trkpt lat="62.8352409694" lon="14.4207179826">
        <ele>505</ele>
        <time>2011-11-05T14:23:22Z</time>
      </trkpt>
      <trkpt lat="62.8352399636" lon="14.4207169767">
        <ele>503</ele>
        <time>2011-11-05T14:23:23Z</time>
      </trkpt>
      <trkpt lat="62.8352389578" lon="14.4207179826">
        <ele>502</ele>
        <time>2011-11-05T14:23:24Z</time>
      </trkpt>
      <trkpt lat="62.8352359403" lon="14.4207209162">
        <ele>500</ele>
        <time>2011-11-05T14:23:25Z</time>
      </trkpt>
      <trkpt lat="62.8352359403" lon="14.4207209162">
        <ele>500</ele>
        <time>2011-11-05T14:23:26Z</time>
      </trkpt>
      <trkpt lat="62.8352359403" lon="14.4207209162">
        <ele>499</ele>
        <time>2011-11-05T14:23:27Z</time>
      </trkpt>
      <trkpt lat="62.8352299891" lon="14.4207149651">
        <ele>500</ele>
        <time>2011-11-05T14:23:28Z</time>
      </trkpt>
      <trkpt lat="62.83522496" lon="14.4207219221">
        <ele>501</ele>
        <time>2011-11-05T14:23:29Z</time>
      </trkpt>
      <trkpt lat="62.8352239542" lon="14.4207269512">
        <ele>505</ele>
        <time>2011-11-05T14:23:30Z</time>
      </trkpt>
      <trkpt lat="62.8352219425" lon="14.4207359198">
        <ele>506</ele>
        <time>2011-11-05T14:23:31Z</time>
      </trkpt>
      <trkpt lat="62.835218925" lon="14.4207439665">
        <ele>504</ele>
        <time>2011-11-05T14:23:32Z</time>
      </trkpt>
      <trkpt lat="62.835211968" lon="14.4207539409">
        <ele>504</ele>
        <time>2011-11-05T14:23:33Z</time>
      </trkpt>
      <trkpt lat="62.8352069389" lon="14.4207579643">
        <ele>505</ele>
        <time>2011-11-05T14:23:34Z</time>
      </trkpt>
      <trkpt lat="62.8352029994" lon="14.4207659271">
        <ele>506</ele>
        <time>2011-11-05T14:23:35Z</time>
      </trkpt>
      <trkpt lat="62.8352019936" lon="14.4207699504">
        <ele>508</ele>
        <time>2011-11-05T14:23:36Z</time>
      </trkpt>
      <trkpt lat="62.8352009878" lon="14.4207739737">
        <ele>504</ele>
        <time>2011-11-05T14:23:37Z</time>
      </trkpt>
      <trkpt lat="62.8351969644" lon="14.4207859598">
        <ele>503</ele>
        <time>2011-11-05T14:23:38Z</time>
      </trkpt>
      <trkpt lat="62.8351979703" lon="14.4207899831">
        <ele>503</ele>
        <time>2011-11-05T14:23:39Z</time>
      </trkpt>
      <trkpt lat="62.8351989761" lon="14.4207949284">
        <ele>503</ele>
        <time>2011-11-05T14:23:40Z</time>
      </trkpt>
      <trkpt lat="62.8351989761" lon="14.4207949284">
        <ele>500</ele>
        <time>2011-11-05T14:23:41Z</time>
      </trkpt>
      <trkpt lat="62.8351989761" lon="14.4207949284">
        <ele>499</ele>
        <time>2011-11-05T14:23:42Z</time>
      </trkpt>
      <trkpt lat="62.8352039214" lon="14.4207979459">
        <ele>495</ele>
        <time>2011-11-05T14:23:43Z</time>
      </trkpt>
      <trkpt lat="62.8352079447" lon="14.4207999576">
        <ele>496</ele>
        <time>2011-11-05T14:23:44Z</time>
      </trkpt>
      <trkpt lat="62.8352149855" lon="14.4207979459">
        <ele>496</ele>
        <time>2011-11-05T14:23:45Z</time>
      </trkpt>
      <trkpt lat="62.835218925" lon="14.420790989">
        <ele>499</ele>
        <time>2011-11-05T14:23:46Z</time>
      </trkpt>
      <trkpt lat="62.83522496" lon="14.4207829423">
        <ele>497</ele>
        <time>2011-11-05T14:23:47Z</time>
      </trkpt>
      <trkpt lat="62.8352279775" lon="14.4207769912">
        <ele>494</ele>
        <time>2011-11-05T14:23:48Z</time>
      </trkpt>
      <trkpt lat="62.8352289833" lon="14.4207809307">
        <ele>495</ele>
        <time>2011-11-05T14:23:49Z</time>
      </trkpt>
      <trkpt lat="62.8352349345" lon="14.4207819365">
        <ele>498</ele>
        <time>2011-11-05T14:23:50Z</time>
      </trkpt>
      <trkpt lat="62.8352369461" lon="14.420790989">
        <ele>499</ele>
        <time>2011-11-05T14:23:51Z</time>
      </trkpt>
      <trkpt lat="62.8352359403" lon="14.4207949284">
        <ele>500</ele>
        <time>2011-11-05T14:23:52Z</time>
      </trkpt>
      <trkpt lat="62.8352339286" lon="14.4208029751">
        <ele>500</ele>
        <time>2011-11-05T14:23:53Z</time>
      </trkpt>
      <trkpt lat="62.835231917" lon="14.4208089262">
        <ele>501</ele>
        <time>2011-11-05T14:23:54Z</time>
      </trkpt>
      <trkpt lat="62.835231917" lon="14.4208089262">
        <ele>505</ele>
        <time>2011-11-05T14:23:55Z</time>
      </trkpt>
      <trkpt lat="62.835230995" lon="14.4208089262">
        <ele>506</ele>
        <time>2011-11-05T14:23:56Z</time>
      </trkpt>
      <trkpt lat="62.8352259658" lon="14.4208089262">
        <ele>504</ele>
        <time>2011-11-05T14:23:57Z</time>
      </trkpt>
      <trkpt lat="62.8352259658" lon="14.4208089262">
        <ele>503</ele>
        <time>2011-11-05T14:23:58Z</time>
      </trkpt>
      <trkpt lat="62.835218925" lon="14.4208059926">
        <ele>503</ele>
        <time>2011-11-05T14:23:59Z</time>
      </trkpt>
      <trkpt lat="62.835218925" lon="14.4208059926">
        <ele>503</ele>
        <time>2011-11-05T14:24:00Z</time>
      </trkpt>
      <trkpt lat="62.835218925" lon="14.4208059926">
        <ele>504</ele>
        <time>2011-11-05T14:24:01Z</time>
      </trkpt>
      <trkpt lat="62.8352129739" lon="14.4208099321">
        <ele>503</ele>
        <time>2011-11-05T14:24:02Z</time>
      </trkpt>
      <trkpt lat="62.8351819608" lon="14.4207969401">
        <ele>504</ele>
        <time>2011-11-05T14:24:03Z</time>
      </trkpt>
      <trkpt lat="62.8351699747" lon="14.4207999576">
        <ele>505</ele>
        <time>2011-11-05T14:24:04Z</time>
      </trkpt>
      <trkpt lat="62.8351619281" lon="14.4208059926">
        <ele>509</ele>
        <time>2011-11-05T14:24:05Z</time>
      </trkpt>
      <trkpt lat="62.8351529595" lon="14.4208119437">
        <ele>507</ele>
        <time>2011-11-05T14:24:06Z</time>
      </trkpt>
      <trkpt lat="62.835142985" lon="14.4208199903">
        <ele>507</ele>
        <time>2011-11-05T14:24:07Z</time>
      </trkpt>
      <trkpt lat="62.8351359442" lon="14.420822924">
        <ele>509</ele>
        <time>2011-11-05T14:24:08Z</time>
      </trkpt>
      <trkpt lat="62.8351359442" lon="14.420822924">
        <ele>504</ele>
        <time>2011-11-05T14:24:09Z</time>
      </trkpt>
      <trkpt lat="62.8351399675" lon="14.4208349939">
        <ele>502</ele>
        <time>2011-11-05T14:24:10Z</time>
      </trkpt>
      <trkpt lat="62.8351439908" lon="14.4208419509">
        <ele>501</ele>
        <time>2011-11-05T14:24:11Z</time>
      </trkpt>
      <trkpt lat="62.8351379558" lon="14.4208399393">
        <ele>501</ele>
        <time>2011-11-05T14:24:12Z</time>
      </trkpt>
      <trkpt lat="62.8351309989" lon="14.4208429568">
        <ele>503</ele>
        <time>2011-11-05T14:24:13Z</time>
      </trkpt>
      <trkpt lat="62.8351269756" lon="14.4208419509">
        <ele>505</ele>
        <time>2011-11-05T14:24:14Z</time>
      </trkpt>
      <trkpt lat="62.8351249639" lon="14.4208399393">
        <ele>504</ele>
        <time>2011-11-05T14:24:15Z</time>
      </trkpt>
      <trkpt lat="62.8351249639" lon="14.4208399393">
        <ele>505</ele>
        <time>2011-11-05T14:24:16Z</time>
      </trkpt>
      <trkpt lat="62.8351219464" lon="14.4208429568">
        <ele>501</ele>
        <time>2011-11-05T14:24:17Z</time>
      </trkpt>
      <trkpt lat="62.8351219464" lon="14.4208429568">
        <ele>500</ele>
        <time>2011-11-05T14:24:18Z</time>
      </trkpt>
      <trkpt lat="62.8351249639" lon="14.4208399393">
        <ele>508</ele>
        <time>2011-11-05T14:24:19Z</time>
      </trkpt>
      <trkpt lat="62.8351289872" lon="14.4208349939">
        <ele>511</ele>
        <time>2011-11-05T14:24:20Z</time>
      </trkpt>
      <trkpt lat="62.8351289872" lon="14.4208349939">
        <ele>511</ele>
        <time>2011-11-05T14:24:21Z</time>
      </trkpt>
      <trkpt lat="62.8351289872" lon="14.4208349939">
        <ele>511</ele>
        <time>2011-11-05T14:24:22Z</time>
      </trkpt>
      <trkpt lat="62.8351289872" lon="14.4208349939">
        <ele>512</ele>
        <time>2011-11-05T14:24:23Z</time>
      </trkpt>
      <trkpt lat="62.8351289872" lon="14.4208339881">
        <ele>507</ele>
        <time>2011-11-05T14:24:24Z</time>
      </trkpt>
      <trkpt lat="62.8351289872" lon="14.4208339881">
        <ele>507</ele>
        <time>2011-11-05T14:24:25Z</time>
      </trkpt>
      <trkpt lat="62.8351289872" lon="14.4208339881">
        <ele>508</ele>
        <time>2011-11-05T14:24:26Z</time>
      </trkpt>
      <trkpt lat="62.8351309989" lon="14.4208309706">
        <ele>505</ele>
        <time>2011-11-05T14:24:27Z</time>
      </trkpt>
      <trkpt lat="62.8351339325" lon="14.4208359998">
        <ele>506</ele>
        <time>2011-11-05T14:24:28Z</time>
      </trkpt>
      <trkpt lat="62.8351399675" lon="14.4208359998">
        <ele>512</ele>
        <time>2011-11-05T14:24:29Z</time>
      </trkpt>
      <trkpt lat="62.8351399675" lon="14.4208359998">
        <ele>512</ele>
        <time>2011-11-05T14:24:30Z</time>
      </trkpt>
      <trkpt lat="62.8351399675" lon="14.4208359998">
        <ele>513</ele>
        <time>2011-11-05T14:24:31Z</time>
      </trkpt>
      <trkpt lat="62.8351419792" lon="14.4208369218">
        <ele>509</ele>
        <time>2011-11-05T14:24:32Z</time>
      </trkpt>
      <trkpt lat="62.8351469245" lon="14.4208449684">
        <ele>506</ele>
        <time>2011-11-05T14:24:33Z</time>
      </trkpt>
      <trkpt lat="62.8351459187" lon="14.4208549429">
        <ele>507</ele>
        <time>2011-11-05T14:24:34Z</time>
      </trkpt>
      <trkpt lat="62.8351459187" lon="14.4208659232">
        <ele>505</ele>
        <time>2011-11-05T14:24:35Z</time>
      </trkpt>
      <trkpt lat="62.8351409733" lon="14.4208749756">
        <ele>506</ele>
        <time>2011-11-05T14:24:36Z</time>
      </trkpt>
      <trkpt lat="62.8351379558" lon="14.4208809268">
        <ele>505</ele>
        <time>2011-11-05T14:24:37Z</time>
      </trkpt>
      <trkpt lat="62.8351399675" lon="14.4208909851">
        <ele>504</ele>
        <time>2011-11-05T14:24:38Z</time>
      </trkpt>
      <trkpt lat="62.8351379558" lon="14.4209009595">
        <ele>502</ele>
        <time>2011-11-05T14:24:39Z</time>
      </trkpt>
      <trkpt lat="62.8351349384" lon="14.4209119398">
        <ele>503</ele>
        <time>2011-11-05T14:24:40Z</time>
      </trkpt>
      <trkpt lat="62.8351319209" lon="14.4209179748">
        <ele>505</ele>
        <time>2011-11-05T14:24:41Z</time>
      </trkpt>
      <trkpt lat="62.83513695" lon="14.4209489878">
        <ele>506</ele>
        <time>2011-11-05T14:24:42Z</time>
      </trkpt>
      <trkpt lat="62.8351389617" lon="14.4209579565">
        <ele>503</ele>
        <time>2011-11-05T14:24:43Z</time>
      </trkpt>
      <trkpt lat="62.8351379558" lon="14.4209609739">
        <ele>501</ele>
        <time>2011-11-05T14:24:44Z</time>
      </trkpt>
      <trkpt lat="62.8351409733" lon="14.4209679309">
        <ele>499</ele>
        <time>2011-11-05T14:24:45Z</time>
      </trkpt>
      <trkpt lat="62.8351419792" lon="14.4209749717">
        <ele>499</ele>
        <time>2011-11-05T14:24:46Z</time>
      </trkpt>
      <trkpt lat="62.8351419792" lon="14.4209829345">
        <ele>498</ele>
        <time>2011-11-05T14:24:47Z</time>
      </trkpt>
      <trkpt lat="62.8351409733" lon="14.4209899753">
        <ele>498</ele>
        <time>2011-11-05T14:24:48Z</time>
      </trkpt>
      <trkpt lat="62.8351399675" lon="14.4209979381">
        <ele>500</ele>
        <time>2011-11-05T14:24:49Z</time>
      </trkpt>
      <trkpt lat="62.8351409733" lon="14.4210049789">
        <ele>502</ele>
        <time>2011-11-05T14:24:50Z</time>
      </trkpt>
      <trkpt lat="62.8351359442" lon="14.4210199825">
        <ele>499</ele>
        <time>2011-11-05T14:24:51Z</time>
      </trkpt>
      <trkpt lat="62.8351359442" lon="14.4210199825">
        <ele>500</ele>
        <time>2011-11-05T14:24:52Z</time>
      </trkpt>
      <trkpt lat="62.8351359442" lon="14.4210209884">
        <ele>500</ele>
        <time>2011-11-05T14:24:53Z</time>
      </trkpt>
      <trkpt lat="62.8351289872" lon="14.4210219942">
        <ele>505</ele>
        <time>2011-11-05T14:24:54Z</time>
      </trkpt>
      <trkpt lat="62.8351209406" lon="14.421023922">
        <ele>505</ele>
        <time>2011-11-05T14:24:55Z</time>
      </trkpt>
      <trkpt lat="62.8351129778" lon="14.4210209884">
        <ele>503</ele>
        <time>2011-11-05T14:24:56Z</time>
      </trkpt>
      <trkpt lat="62.8351079486" lon="14.4210219942">
        <ele>503</ele>
        <time>2011-11-05T14:24:57Z</time>
      </trkpt>
      <trkpt lat="62.8351009917" lon="14.421023922">
        <ele>502</ele>
        <time>2011-11-05T14:24:58Z</time>
      </trkpt>
      <trkpt lat="62.835092945" lon="14.4210259337">
        <ele>501</ele>
        <time>2011-11-05T14:24:59Z</time>
      </trkpt>
      <trkpt lat="62.835085988" lon="14.4210319687">
        <ele>500</ele>
        <time>2011-11-05T14:25:00Z</time>
      </trkpt>
      <trkpt lat="62.8350779414" lon="14.4210409373">
        <ele>498</ele>
        <time>2011-11-05T14:25:01Z</time>
      </trkpt>
      <trkpt lat="62.8350659553" lon="14.4210519176">
        <ele>497</ele>
        <time>2011-11-05T14:25:02Z</time>
      </trkpt>
      <trkpt lat="62.8350529633" lon="14.4210669212">
        <ele>499</ele>
        <time>2011-11-05T14:25:03Z</time>
      </trkpt>
      <trkpt lat="62.8350529633" lon="14.4210669212">
        <ele>498</ele>
        <time>2011-11-05T14:25:04Z</time>
      </trkpt>
      <trkpt lat="62.8350529633" lon="14.4210669212">
        <ele>499</ele>
        <time>2011-11-05T14:25:05Z</time>
      </trkpt>
      <trkpt lat="62.8350339364" lon="14.4210839365">
        <ele>499</ele>
        <time>2011-11-05T14:25:06Z</time>
      </trkpt>
      <trkpt lat="62.8350309189" lon="14.4210859481">
        <ele>493</ele>
        <time>2011-11-05T14:25:07Z</time>
      </trkpt>
      <trkpt lat="62.835023962" lon="14.4210909773">
        <ele>494</ele>
        <time>2011-11-05T14:25:08Z</time>
      </trkpt>
      <trkpt lat="62.835023962" lon="14.4210919831">
        <ele>494</ele>
        <time>2011-11-05T14:25:09Z</time>
      </trkpt>
      <trkpt lat="62.8350219503" lon="14.4210989401">
        <ele>497</ele>
        <time>2011-11-05T14:25:10Z</time>
      </trkpt>
      <trkpt lat="62.8350219503" lon="14.4210989401">
        <ele>493</ele>
        <time>2011-11-05T14:25:11Z</time>
      </trkpt>
      <trkpt lat="62.8350219503" lon="14.4210989401">
        <ele>490</ele>
        <time>2011-11-05T14:25:12Z</time>
      </trkpt>
      <trkpt lat="62.8350149933" lon="14.4211019576">
        <ele>491</ele>
        <time>2011-11-05T14:25:13Z</time>
      </trkpt>
      <trkpt lat="62.8350149933" lon="14.4211019576">
        <ele>491</ele>
        <time>2011-11-05T14:25:14Z</time>
      </trkpt>
      <trkpt lat="62.8350119758" lon="14.4211019576">
        <ele>494</ele>
        <time>2011-11-05T14:25:15Z</time>
      </trkpt>
      <trkpt lat="62.8350099642" lon="14.4211079925">
        <ele>491</ele>
        <time>2011-11-05T14:25:16Z</time>
      </trkpt>
      <trkpt lat="62.8350079525" lon="14.4211129379">
        <ele>490</ele>
        <time>2011-11-05T14:25:17Z</time>
      </trkpt>
      <trkpt lat="62.8350039292" lon="14.4211229961">
        <ele>491</ele>
        <time>2011-11-05T14:25:18Z</time>
      </trkpt>
      <trkpt lat="62.8350009955" lon="14.4211299531">
        <ele>489</ele>
        <time>2011-11-05T14:25:19Z</time>
      </trkpt>
      <trkpt lat="62.8349899314" lon="14.4211519975">
        <ele>487</ele>
        <time>2011-11-05T14:25:20Z</time>
      </trkpt>
      <trkpt lat="62.8349869978" lon="14.4211649895">
        <ele>488</ele>
        <time>2011-11-05T14:25:21Z</time>
      </trkpt>
      <trkpt lat="62.8349839803" lon="14.4211699348">
        <ele>489</ele>
        <time>2011-11-05T14:25:22Z</time>
      </trkpt>
      <trkpt lat="62.8349839803" lon="14.4211769756">
        <ele>489</ele>
        <time>2011-11-05T14:25:23Z</time>
      </trkpt>
      <trkpt lat="62.834979957" lon="14.4211859442">
        <ele>490</ele>
        <time>2011-11-05T14:25:24Z</time>
      </trkpt>
      <trkpt lat="62.834979957" lon="14.4211879559">
        <ele>493</ele>
        <time>2011-11-05T14:25:25Z</time>
      </trkpt>
      <trkpt lat="62.8349769395" lon="14.4211849384">
        <ele>491</ele>
        <time>2011-11-05T14:25:26Z</time>
      </trkpt>
      <trkpt lat="62.8349699825" lon="14.4211879559">
        <ele>490</ele>
        <time>2011-11-05T14:25:27Z</time>
      </trkpt>
      <trkpt lat="62.8349659592" lon="14.4211869501">
        <ele>489</ele>
        <time>2011-11-05T14:25:28Z</time>
      </trkpt>
      <trkpt lat="62.8349579964" lon="14.4211909734">
        <ele>490</ele>
        <time>2011-11-05T14:25:29Z</time>
      </trkpt>
      <trkpt lat="62.8349489439" lon="14.4211979304">
        <ele>492</ele>
        <time>2011-11-05T14:25:30Z</time>
      </trkpt>
      <trkpt lat="62.8349409811" lon="14.4212079886">
        <ele>490</ele>
        <time>2011-11-05T14:25:31Z</time>
      </trkpt>
      <trkpt lat="62.8349399753" lon="14.4212159514">
        <ele>488</ele>
        <time>2011-11-05T14:25:32Z</time>
      </trkpt>
      <trkpt lat="62.8349379636" lon="14.4212229922">
        <ele>490</ele>
        <time>2011-11-05T14:25:33Z</time>
      </trkpt>
      <trkpt lat="62.8349319287" lon="14.4212389179">
        <ele>489</ele>
        <time>2011-11-05T14:25:34Z</time>
      </trkpt>
      <trkpt lat="62.8349329345" lon="14.4212629739">
        <ele>491</ele>
        <time>2011-11-05T14:25:35Z</time>
      </trkpt>
      <trkpt lat="62.8349329345" lon="14.42127496">
        <ele>492</ele>
        <time>2011-11-05T14:25:36Z</time>
      </trkpt>
      <trkpt lat="62.8349279892" lon="14.4212909695">
        <ele>491</ele>
        <time>2011-11-05T14:25:37Z</time>
      </trkpt>
      <trkpt lat="62.8349209484" lon="14.4213039614">
        <ele>493</ele>
        <time>2011-11-05T14:25:38Z</time>
      </trkpt>
      <trkpt lat="62.8349199425" lon="14.4213249162">
        <ele>491</ele>
        <time>2011-11-05T14:25:39Z</time>
      </trkpt>
      <trkpt lat="62.8349179309" lon="14.4213399198">
        <ele>493</ele>
        <time>2011-11-05T14:25:40Z</time>
      </trkpt>
      <trkpt lat="62.8349179309" lon="14.4213519897">
        <ele>491</ele>
        <time>2011-11-05T14:25:41Z</time>
      </trkpt>
      <trkpt lat="62.8349169251" lon="14.4213779736">
        <ele>492</ele>
        <time>2011-11-05T14:25:42Z</time>
      </trkpt>
      <trkpt lat="62.8349139914" lon="14.4213969167">
        <ele>494</ele>
        <time>2011-11-05T14:25:43Z</time>
      </trkpt>
      <trkpt lat="62.8349129856" lon="14.4214079808">
        <ele>492</ele>
        <time>2011-11-05T14:25:44Z</time>
      </trkpt>
      <trkpt lat="62.8349089622" lon="14.4214209728">
        <ele>491</ele>
        <time>2011-11-05T14:25:45Z</time>
      </trkpt>
      <trkpt lat="62.8349069506" lon="14.4214309473">
        <ele>490</ele>
        <time>2011-11-05T14:25:46Z</time>
      </trkpt>
      <trkpt lat="62.8349059448" lon="14.4214479625">
        <ele>492</ele>
        <time>2011-11-05T14:25:47Z</time>
      </trkpt>
      <trkpt lat="62.8349019215" lon="14.4214689173">
        <ele>492</ele>
        <time>2011-11-05T14:25:48Z</time>
      </trkpt>
      <trkpt lat="62.8348969761" lon="14.421481993">
        <ele>490</ele>
        <time>2011-11-05T14:25:49Z</time>
      </trkpt>
      <trkpt lat="62.834891947" lon="14.4214909617">
        <ele>494</ele>
        <time>2011-11-05T14:25:50Z</time>
      </trkpt>
      <trkpt lat="62.8348819725" lon="14.4215069711">
        <ele>491</ele>
        <time>2011-11-05T14:25:51Z</time>
      </trkpt>
      <trkpt lat="62.8348749317" lon="14.4215109944">
        <ele>489</ele>
        <time>2011-11-05T14:25:52Z</time>
      </trkpt>
      <trkpt lat="62.8348679747" lon="14.4215209689">
        <ele>490</ele>
        <time>2011-11-05T14:25:53Z</time>
      </trkpt>
      <trkpt lat="62.8348629456" lon="14.4215409178">
        <ele>490</ele>
        <time>2011-11-05T14:25:54Z</time>
      </trkpt>
      <trkpt lat="62.8348589223" lon="14.4215569273">
        <ele>490</ele>
        <time>2011-11-05T14:25:55Z</time>
      </trkpt>
      <trkpt lat="62.834853977" lon="14.4215669855">
        <ele>488</ele>
        <time>2011-11-05T14:25:56Z</time>
      </trkpt>
      <trkpt lat="62.834847942" lon="14.4215909578">
        <ele>488</ele>
        <time>2011-11-05T14:25:57Z</time>
      </trkpt>
      <trkpt lat="62.8348389734" lon="14.4216119964">
        <ele>487</ele>
        <time>2011-11-05T14:25:58Z</time>
      </trkpt>
      <trkpt lat="62.8348389734" lon="14.4216119964">
        <ele>489</ele>
        <time>2011-11-05T14:25:59Z</time>
      </trkpt>
      <trkpt lat="62.8348339442" lon="14.421620965">
        <ele>488</ele>
        <time>2011-11-05T14:26:00Z</time>
      </trkpt>
      <trkpt lat="62.8348309267" lon="14.421627">
        <ele>489</ele>
        <time>2011-11-05T14:26:01Z</time>
      </trkpt>
      <trkpt lat="62.8348219581" lon="14.4216369744">
        <ele>489</ele>
        <time>2011-11-05T14:26:02Z</time>
      </trkpt>
      <trkpt lat="62.834816929" lon="14.4216369744">
        <ele>487</ele>
        <time>2011-11-05T14:26:03Z</time>
      </trkpt>
      <trkpt lat="62.8348119836" lon="14.421627">
        <ele>487</ele>
        <time>2011-11-05T14:26:04Z</time>
      </trkpt>
      <trkpt lat="62.8348029312" lon="14.4216289278">
        <ele>488</ele>
        <time>2011-11-05T14:26:05Z</time>
      </trkpt>
      <trkpt lat="62.8348029312" lon="14.4216289278">
        <ele>480</ele>
        <time>2011-11-05T14:26:06Z</time>
      </trkpt>
      <trkpt lat="62.834803937" lon="14.4216349628">
        <ele>478</ele>
        <time>2011-11-05T14:26:07Z</time>
      </trkpt>
      <trkpt lat="62.834803937" lon="14.4216349628">
        <ele>477</ele>
        <time>2011-11-05T14:26:08Z</time>
      </trkpt>
      <trkpt lat="62.834803937" lon="14.4216349628">
        <ele>475</ele>
        <time>2011-11-05T14:26:09Z</time>
      </trkpt>
      <trkpt lat="62.834803937" lon="14.4216349628">
        <ele>474</ele>
        <time>2011-11-05T14:26:10Z</time>
      </trkpt>
      <trkpt lat="62.834803937" lon="14.4216349628">
        <ele>474</ele>
        <time>2011-11-05T14:26:11Z</time>
      </trkpt>
      <trkpt lat="62.8348019253" lon="14.4216309395">
        <ele>476</ele>
        <time>2011-11-05T14:26:12Z</time>
      </trkpt>
      <trkpt lat="62.8348019253" lon="14.4216309395">
        <ele>476</ele>
        <time>2011-11-05T14:26:13Z</time>
      </trkpt>
      <trkpt lat="62.8348019253" lon="14.4216309395">
        <ele>475</ele>
        <time>2011-11-05T14:26:14Z</time>
      </trkpt>
      <trkpt lat="62.8348019253" lon="14.4216309395">
        <ele>477</ele>
        <time>2011-11-05T14:26:15Z</time>
      </trkpt>
      <trkpt lat="62.8348019253" lon="14.4216309395">
        <ele>479</ele>
        <time>2011-11-05T14:26:16Z</time>
      </trkpt>
      <trkpt lat="62.8348019253" lon="14.4216309395">
        <ele>479</ele>
        <time>2011-11-05T14:26:17Z</time>
      </trkpt>
      <trkpt lat="62.8348019253" lon="14.4216309395">
        <ele>482</ele>
        <time>2011-11-05T14:26:18Z</time>
      </trkpt>
      <trkpt lat="62.8348019253" lon="14.4216309395">
        <ele>483</ele>
        <time>2011-11-05T14:26:19Z</time>
      </trkpt>
      <trkpt lat="62.8348019253" lon="14.4216309395">
        <ele>483</ele>
        <time>2011-11-05T14:26:20Z</time>
      </trkpt>
      <trkpt lat="62.8348019253" lon="14.4216309395">
        <ele>484</ele>
        <time>2011-11-05T14:26:21Z</time>
      </trkpt>
      <trkpt lat="62.8348019253" lon="14.4216309395">
        <ele>484</ele>
        <time>2011-11-05T14:26:22Z</time>
      </trkpt>
      <trkpt lat="62.8348019253" lon="14.4216309395">
        <ele>485</ele>
        <time>2011-11-05T14:26:23Z</time>
      </trkpt>
      <trkpt lat="62.8348019253" lon="14.4216309395">
        <ele>486</ele>
        <time>2011-11-05T14:26:24Z</time>
      </trkpt>
      <trkpt lat="62.8348019253" lon="14.4216309395">
        <ele>486</ele>
        <time>2011-11-05T14:26:25Z</time>
      </trkpt>
      <trkpt lat="62.8348019253" lon="14.4216309395">
        <ele>487</ele>
        <time>2011-11-05T14:26:26Z</time>
      </trkpt>
      <trkpt lat="62.8348019253" lon="14.4216309395">
        <ele>488</ele>
        <time>2011-11-05T14:26:27Z</time>
      </trkpt>
      <trkpt lat="62.8348019253" lon="14.4216309395">
        <ele>489</ele>
        <time>2011-11-05T14:26:28Z</time>
      </trkpt>
      <trkpt lat="62.8348019253" lon="14.4216309395">
        <ele>491</ele>
        <time>2011-11-05T14:26:29Z</time>
      </trkpt>
      <trkpt lat="62.8348019253" lon="14.4216309395">
        <ele>492</ele>
        <time>2011-11-05T14:26:30Z</time>
      </trkpt>
      <trkpt lat="62.8348019253" lon="14.4216309395">
        <ele>493</ele>
        <time>2011-11-05T14:26:31Z</time>
      </trkpt>
      <trkpt lat="62.8348019253" lon="14.4216309395">
        <ele>493</ele>
        <time>2011-11-05T14:26:32Z</time>
      </trkpt>
      <trkpt lat="62.8347949684" lon="14.4216169417">
        <ele>493</ele>
        <time>2011-11-05T14:26:33Z</time>
      </trkpt>
      <trkpt lat="62.8347859997" lon="14.4216059614">
        <ele>495</ele>
        <time>2011-11-05T14:26:34Z</time>
      </trkpt>
      <trkpt lat="62.8347709961" lon="14.4215909578">
        <ele>496</ele>
        <time>2011-11-05T14:26:35Z</time>
      </trkpt>
      <trkpt lat="62.8347699903" lon="14.4215909578">
        <ele>497</ele>
        <time>2011-11-05T14:26:36Z</time>
      </trkpt>
      <trkpt lat="62.8347699903" lon="14.4215909578">
        <ele>499</ele>
        <time>2011-11-05T14:26:37Z</time>
      </trkpt>
      <trkpt lat="62.8347699903" lon="14.4215909578">
        <ele>497</ele>
        <time>2011-11-05T14:26:38Z</time>
      </trkpt>
      <trkpt lat="62.8347699903" lon="14.4215909578">
        <ele>499</ele>
        <time>2011-11-05T14:26:39Z</time>
      </trkpt>
      <trkpt lat="62.8347699903" lon="14.4215909578">
        <ele>500</ele>
        <time>2011-11-05T14:26:40Z</time>
      </trkpt>
      <trkpt lat="62.8347629495" lon="14.42157696">
        <ele>501</ele>
        <time>2011-11-05T14:26:41Z</time>
      </trkpt>
      <trkpt lat="62.8347539809" lon="14.4215669855">
        <ele>505</ele>
        <time>2011-11-05T14:26:42Z</time>
      </trkpt>
      <trkpt lat="62.8347389773" lon="14.4215549994">
        <ele>505</ele>
        <time>2011-11-05T14:26:43Z</time>
      </trkpt>
      <trkpt lat="62.8347389773" lon="14.4215549994">
        <ele>502</ele>
        <time>2011-11-05T14:26:44Z</time>
      </trkpt>
      <trkpt lat="62.8347389773" lon="14.4215549994">
        <ele>498</ele>
        <time>2011-11-05T14:26:45Z</time>
      </trkpt>
      <trkpt lat="62.8347389773" lon="14.4215549994">
        <ele>497</ele>
        <time>2011-11-05T14:26:46Z</time>
      </trkpt>
      <trkpt lat="62.8347389773" lon="14.4215549994">
        <ele>499</ele>
        <time>2011-11-05T14:26:47Z</time>
      </trkpt>
      <trkpt lat="62.8347389773" lon="14.4215549994">
        <ele>500</ele>
        <time>2011-11-05T14:26:48Z</time>
      </trkpt>
      <trkpt lat="62.8347389773" lon="14.4215549994">
        <ele>501</ele>
        <time>2011-11-05T14:26:49Z</time>
      </trkpt>
      <trkpt lat="62.8347389773" lon="14.4215549994">
        <ele>502</ele>
        <time>2011-11-05T14:26:50Z</time>
      </trkpt>
      <trkpt lat="62.8347239736" lon="14.4215509761">
        <ele>503</ele>
        <time>2011-11-05T14:26:51Z</time>
      </trkpt>
      <trkpt lat="62.8347059526" lon="14.4215509761">
        <ele>505</ele>
        <time>2011-11-05T14:26:52Z</time>
      </trkpt>
      <trkpt lat="62.8347059526" lon="14.4215509761">
        <ele>508</ele>
        <time>2011-11-05T14:26:53Z</time>
      </trkpt>
      <trkpt lat="62.8346949723" lon="14.4215439353">
        <ele>510</ele>
        <time>2011-11-05T14:26:54Z</time>
      </trkpt>
      <trkpt lat="62.8346799687" lon="14.4215339608">
        <ele>509</ele>
        <time>2011-11-05T14:26:55Z</time>
      </trkpt>
      <trkpt lat="62.8346799687" lon="14.4215339608">
        <ele>509</ele>
        <time>2011-11-05T14:26:56Z</time>
      </trkpt>
      <trkpt lat="62.8346699942" lon="14.4215199631">
        <ele>511</ele>
        <time>2011-11-05T14:26:57Z</time>
      </trkpt>
      <trkpt lat="62.8346699942" lon="14.4215199631">
        <ele>512</ele>
        <time>2011-11-05T14:26:58Z</time>
      </trkpt>
      <trkpt lat="62.8346449323" lon="14.4214669894">
        <ele>514</ele>
        <time>2011-11-05T14:26:59Z</time>
      </trkpt>
      <trkpt lat="62.8346289229" lon="14.4214489684">
        <ele>509</ele>
        <time>2011-11-05T14:27:00Z</time>
      </trkpt>
      <trkpt lat="62.834627917" lon="14.4214489684">
        <ele>511</ele>
        <time>2011-11-05T14:27:01Z</time>
      </trkpt>
      <trkpt lat="62.834627917" lon="14.4214489684">
        <ele>510</ele>
        <time>2011-11-05T14:27:02Z</time>
      </trkpt>
      <trkpt lat="62.8346159309" lon="14.421419967">
        <ele>513</ele>
        <time>2011-11-05T14:27:03Z</time>
      </trkpt>
      <trkpt lat="62.8346119914" lon="14.4214149378">
        <ele>516</ele>
        <time>2011-11-05T14:27:04Z</time>
      </trkpt>
      <trkpt lat="62.8346089739" lon="14.4213949889">
        <ele>517</ele>
        <time>2011-11-05T14:27:05Z</time>
      </trkpt>
      <trkpt lat="62.8346089739" lon="14.4213949889">
        <ele>521</ele>
        <time>2011-11-05T14:27:06Z</time>
      </trkpt>
      <trkpt lat="62.8346089739" lon="14.4213949889">
        <ele>518</ele>
        <time>2011-11-05T14:27:07Z</time>
      </trkpt>
      <trkpt lat="62.8346069623" lon="14.4213849306">
        <ele>515</ele>
        <time>2011-11-05T14:27:08Z</time>
      </trkpt>
      <trkpt lat="62.8346069623" lon="14.4213849306">
        <ele>515</ele>
        <time>2011-11-05T14:27:09Z</time>
      </trkpt>
      <trkpt lat="62.8346069623" lon="14.4213849306">
        <ele>511</ele>
        <time>2011-11-05T14:27:10Z</time>
      </trkpt>
      <trkpt lat="62.8346069623" lon="14.4213849306">
        <ele>511</ele>
        <time>2011-11-05T14:27:11Z</time>
      </trkpt>
      <trkpt lat="62.8346069623" lon="14.4213849306">
        <ele>506</ele>
        <time>2011-11-05T14:27:12Z</time>
      </trkpt>
      <trkpt lat="62.8346069623" lon="14.4213849306">
        <ele>502</ele>
        <time>2011-11-05T14:27:13Z</time>
      </trkpt>
      <trkpt lat="62.8345979936" lon="14.4213809911">
        <ele>505</ele>
        <time>2011-11-05T14:27:14Z</time>
      </trkpt>
      <trkpt lat="62.8345759492" lon="14.4213679992">
        <ele>507</ele>
        <time>2011-11-05T14:27:15Z</time>
      </trkpt>
      <trkpt lat="62.8345759492" lon="14.4213679992">
        <ele>505</ele>
        <time>2011-11-05T14:27:16Z</time>
      </trkpt>
      <trkpt lat="62.8345759492" lon="14.4213679992">
        <ele>508</ele>
        <time>2011-11-05T14:27:17Z</time>
      </trkpt>
      <trkpt lat="62.8345759492" lon="14.4213679992">
        <ele>506</ele>
        <time>2011-11-05T14:27:18Z</time>
      </trkpt>
      <trkpt lat="62.8345769551" lon="14.4213509839">
        <ele>505</ele>
        <time>2011-11-05T14:27:19Z</time>
      </trkpt>
      <trkpt lat="62.8345769551" lon="14.4213509839">
        <ele>507</ele>
        <time>2011-11-05T14:27:20Z</time>
      </trkpt>
      <trkpt lat="62.8345769551" lon="14.4213509839">
        <ele>501</ele>
        <time>2011-11-05T14:27:21Z</time>
      </trkpt>
      <trkpt lat="62.8345769551" lon="14.4213509839">
        <ele>497</ele>
        <time>2011-11-05T14:27:22Z</time>
      </trkpt>
      <trkpt lat="62.8345769551" lon="14.4213509839">
        <ele>499</ele>
        <time>2011-11-05T14:27:23Z</time>
      </trkpt>
      <trkpt lat="62.8345749434" lon="14.4213369861">
        <ele>495</ele>
        <time>2011-11-05T14:27:24Z</time>
      </trkpt>
      <trkpt lat="62.8345709201" lon="14.4213339686">
        <ele>495</ele>
        <time>2011-11-05T14:27:25Z</time>
      </trkpt>
      <trkpt lat="62.8345709201" lon="14.4213339686">
        <ele>497</ele>
        <time>2011-11-05T14:27:26Z</time>
      </trkpt>
      <trkpt lat="62.8345609456" lon="14.4213219825">
        <ele>497</ele>
        <time>2011-11-05T14:27:27Z</time>
      </trkpt>
      <trkpt lat="62.8345609456" lon="14.4213209767">
        <ele>498</ele>
        <time>2011-11-05T14:27:28Z</time>
      </trkpt>
      <trkpt lat="62.8345329501" lon="14.421287952">
        <ele>499</ele>
        <time>2011-11-05T14:27:29Z</time>
      </trkpt>
      <trkpt lat="62.8345239814" lon="14.4212669972">
        <ele>499</ele>
        <time>2011-11-05T14:27:30Z</time>
      </trkpt>
      <trkpt lat="62.8345239814" lon="14.4212669972">
        <ele>501</ele>
        <time>2011-11-05T14:27:31Z</time>
      </trkpt>
      <trkpt lat="62.8345239814" lon="14.4212669972">
        <ele>504</ele>
        <time>2011-11-05T14:27:32Z</time>
      </trkpt>
      <trkpt lat="62.8345239814" lon="14.4212669972">
        <ele>506</ele>
        <time>2011-11-05T14:27:33Z</time>
      </trkpt>
      <trkpt lat="62.8345239814" lon="14.4212669972">
        <ele>505</ele>
        <time>2011-11-05T14:27:34Z</time>
      </trkpt>
      <trkpt lat="62.8345239814" lon="14.4212669972">
        <ele>507</ele>
        <time>2011-11-05T14:27:35Z</time>
      </trkpt>
      <trkpt lat="62.8345239814" lon="14.4212669972">
        <ele>504</ele>
        <time>2011-11-05T14:27:36Z</time>
      </trkpt>
      <trkpt lat="62.8345239814" lon="14.4212669972">
        <ele>504</ele>
        <time>2011-11-05T14:27:37Z</time>
      </trkpt>
      <trkpt lat="62.8345239814" lon="14.4212669972">
        <ele>503</ele>
        <time>2011-11-05T14:27:38Z</time>
      </trkpt>
      <trkpt lat="62.8345229756" lon="14.4212529995">
        <ele>502</ele>
        <time>2011-11-05T14:27:39Z</time>
      </trkpt>
      <trkpt lat="62.8345159348" lon="14.4212379958">
        <ele>503</ele>
        <time>2011-11-05T14:27:40Z</time>
      </trkpt>
      <trkpt lat="62.8344979975" lon="14.4212029595">
        <ele>501</ele>
        <time>2011-11-05T14:27:41Z</time>
      </trkpt>
      <trkpt lat="62.8344899509" lon="14.4211919792">
        <ele>502</ele>
        <time>2011-11-05T14:27:42Z</time>
      </trkpt>
      <trkpt lat="62.8344829939" lon="14.4211769756">
        <ele>500</ele>
        <time>2011-11-05T14:27:43Z</time>
      </trkpt>
      <trkpt lat="62.8344869334" lon="14.4211679231">
        <ele>500</ele>
        <time>2011-11-05T14:27:44Z</time>
      </trkpt>
      <trkpt lat="62.8344789706" lon="14.4211589545">
        <ele>498</ele>
        <time>2011-11-05T14:27:45Z</time>
      </trkpt>
      <trkpt lat="62.834470924" lon="14.4211449567">
        <ele>496</ele>
        <time>2011-11-05T14:27:46Z</time>
      </trkpt>
      <trkpt lat="62.8344659787" lon="14.4211389218">
        <ele>495</ele>
        <time>2011-11-05T14:27:47Z</time>
      </trkpt>
      <trkpt lat="62.8344609495" lon="14.4211319648">
        <ele>493</ele>
        <time>2011-11-05T14:27:48Z</time>
      </trkpt>
      <trkpt lat="62.8344549984" lon="14.4211289473">
        <ele>493</ele>
        <time>2011-11-05T14:27:49Z</time>
      </trkpt>
      <trkpt lat="62.8344509751" lon="14.4211339764">
        <ele>493</ele>
        <time>2011-11-05T14:27:50Z</time>
      </trkpt>
      <trkpt lat="62.8344489634" lon="14.4211349823">
        <ele>491</ele>
        <time>2011-11-05T14:27:51Z</time>
      </trkpt>
      <trkpt lat="62.8344419226" lon="14.4211299531">
        <ele>490</ele>
        <time>2011-11-05T14:27:52Z</time>
      </trkpt>
      <trkpt lat="62.8344419226" lon="14.4211299531">
        <ele>491</ele>
        <time>2011-11-05T14:27:53Z</time>
      </trkpt>
      <trkpt lat="62.8344359715" lon="14.421124924">
        <ele>491</ele>
        <time>2011-11-05T14:27:54Z</time>
      </trkpt>
      <trkpt lat="62.8344229795" lon="14.4210979342">
        <ele>490</ele>
        <time>2011-11-05T14:27:55Z</time>
      </trkpt>
      <trkpt lat="62.8344189562" lon="14.4210849423">
        <ele>492</ele>
        <time>2011-11-05T14:27:56Z</time>
      </trkpt>
      <trkpt lat="62.8344189562" lon="14.4210849423">
        <ele>495</ele>
        <time>2011-11-05T14:27:57Z</time>
      </trkpt>
      <trkpt lat="62.834419962" lon="14.4210729562">
        <ele>494</ele>
        <time>2011-11-05T14:27:58Z</time>
      </trkpt>
      <trkpt lat="62.8344179504" lon="14.4210649934">
        <ele>492</ele>
        <time>2011-11-05T14:27:59Z</time>
      </trkpt>
      <trkpt lat="62.8344169445" lon="14.4210459664">
        <ele>492</ele>
        <time>2011-11-05T14:28:00Z</time>
      </trkpt>
      <trkpt lat="62.8344159387" lon="14.421023922">
        <ele>492</ele>
        <time>2011-11-05T14:28:01Z</time>
      </trkpt>
      <trkpt lat="62.8344169445" lon="14.4210189767">
        <ele>492</ele>
        <time>2011-11-05T14:28:02Z</time>
      </trkpt>
      <trkpt lat="62.8344169445" lon="14.4210139476">
        <ele>490</ele>
        <time>2011-11-05T14:28:03Z</time>
      </trkpt>
      <trkpt lat="62.8344169445" lon="14.4210139476">
        <ele>489</ele>
        <time>2011-11-05T14:28:04Z</time>
      </trkpt>
      <trkpt lat="62.8344169445" lon="14.4210139476">
        <ele>489</ele>
        <time>2011-11-05T14:28:05Z</time>
      </trkpt>
      <trkpt lat="62.8344149329" lon="14.4210039731">
        <ele>488</ele>
        <time>2011-11-05T14:28:06Z</time>
      </trkpt>
      <trkpt lat="62.8344149329" lon="14.4210039731">
        <ele>490</ele>
        <time>2011-11-05T14:28:07Z</time>
      </trkpt>
      <trkpt lat="62.8344149329" lon="14.4210039731">
        <ele>488</ele>
        <time>2011-11-05T14:28:08Z</time>
      </trkpt>
      <trkpt lat="62.8344129212" lon="14.4209929928">
        <ele>489</ele>
        <time>2011-11-05T14:28:09Z</time>
      </trkpt>
      <trkpt lat="62.8344089817" lon="14.4209839404">
        <ele>491</ele>
        <time>2011-11-05T14:28:10Z</time>
      </trkpt>
      <trkpt lat="62.8344059642" lon="14.4209759776">
        <ele>490</ele>
        <time>2011-11-05T14:28:11Z</time>
      </trkpt>
      <trkpt lat="62.8344019409" lon="14.4209639914">
        <ele>490</ele>
        <time>2011-11-05T14:28:12Z</time>
      </trkpt>
      <trkpt lat="62.8344049584" lon="14.4209509995">
        <ele>489</ele>
        <time>2011-11-05T14:28:13Z</time>
      </trkpt>
      <trkpt lat="62.8344049584" lon="14.4209339842">
        <ele>488</ele>
        <time>2011-11-05T14:28:14Z</time>
      </trkpt>
      <trkpt lat="62.8344079759" lon="14.4209249318">
        <ele>487</ele>
        <time>2011-11-05T14:28:15Z</time>
      </trkpt>
      <trkpt lat="62.8344079759" lon="14.4209249318">
        <ele>488</ele>
        <time>2011-11-05T14:28:16Z</time>
      </trkpt>
      <trkpt lat="62.8344109934" lon="14.4209209923">
        <ele>488</ele>
        <time>2011-11-05T14:28:17Z</time>
      </trkpt>
      <trkpt lat="62.8344109934" lon="14.4209199864">
        <ele>491</ele>
        <time>2011-11-05T14:28:18Z</time>
      </trkpt>
      <trkpt lat="62.8344109934" lon="14.420916969">
        <ele>490</ele>
        <time>2011-11-05T14:28:19Z</time>
      </trkpt>
      <trkpt lat="62.8344109934" lon="14.4209139515">
        <ele>489</ele>
        <time>2011-11-05T14:28:20Z</time>
      </trkpt>
      <trkpt lat="62.8344099876" lon="14.420903977">
        <ele>488</ele>
        <time>2011-11-05T14:28:21Z</time>
      </trkpt>
      <trkpt lat="62.8344059642" lon="14.4208879676">
        <ele>487</ele>
        <time>2011-11-05T14:28:22Z</time>
      </trkpt>
      <trkpt lat="62.8344029468" lon="14.4208699465">
        <ele>486</ele>
        <time>2011-11-05T14:28:23Z</time>
      </trkpt>
      <trkpt lat="62.8343989234" lon="14.4208499976">
        <ele>485</ele>
        <time>2011-11-05T14:28:24Z</time>
      </trkpt>
      <trkpt lat="62.8343989234" lon="14.4208499976">
        <ele>483</ele>
        <time>2011-11-05T14:28:25Z</time>
      </trkpt>
      <trkpt lat="62.8343989234" lon="14.4208479859">
        <ele>483</ele>
        <time>2011-11-05T14:28:26Z</time>
      </trkpt>
      <trkpt lat="62.8344019409" lon="14.4208409451">
        <ele>479</ele>
        <time>2011-11-05T14:28:27Z</time>
      </trkpt>
      <trkpt lat="62.8344049584" lon="14.4208269473">
        <ele>477</ele>
        <time>2011-11-05T14:28:28Z</time>
      </trkpt>
      <trkpt lat="62.8344049584" lon="14.4208029751">
        <ele>477</ele>
        <time>2011-11-05T14:28:29Z</time>
      </trkpt>
      <trkpt lat="62.8344089817" lon="14.4207769912">
        <ele>477</ele>
        <time>2011-11-05T14:28:30Z</time>
      </trkpt>
      <trkpt lat="62.8344129212" lon="14.4207529351">
        <ele>475</ele>
        <time>2011-11-05T14:28:31Z</time>
      </trkpt>
      <trkpt lat="62.8344159387" lon="14.420727957">
        <ele>475</ele>
        <time>2011-11-05T14:28:32Z</time>
      </trkpt>
      <trkpt lat="62.8344149329" lon="14.4206999615">
        <ele>473</ele>
        <time>2011-11-05T14:28:33Z</time>
      </trkpt>
      <trkpt lat="62.8344119992" lon="14.4206779171">
        <ele>476</ele>
        <time>2011-11-05T14:28:34Z</time>
      </trkpt>
      <trkpt lat="62.8344119992" lon="14.4206769951">
        <ele>480</ele>
        <time>2011-11-05T14:28:35Z</time>
      </trkpt>
      <trkpt lat="62.8344129212" lon="14.4206649251">
        <ele>482</ele>
        <time>2011-11-05T14:28:36Z</time>
      </trkpt>
      <trkpt lat="62.8344129212" lon="14.4206649251">
        <ele>486</ele>
        <time>2011-11-05T14:28:37Z</time>
      </trkpt>
      <trkpt lat="62.834413927" lon="14.4206479937">
        <ele>486</ele>
        <time>2011-11-05T14:28:38Z</time>
      </trkpt>
      <trkpt lat="62.8344169445" lon="14.4206319842">
        <ele>486</ele>
        <time>2011-11-05T14:28:39Z</time>
      </trkpt>
      <trkpt lat="62.8344169445" lon="14.4206319842">
        <ele>487</ele>
        <time>2011-11-05T14:28:40Z</time>
      </trkpt>
      <trkpt lat="62.8344169445" lon="14.4206319842">
        <ele>490</ele>
        <time>2011-11-05T14:28:41Z</time>
      </trkpt>
      <trkpt lat="62.8344169445" lon="14.4206319842">
        <ele>491</ele>
        <time>2011-11-05T14:28:42Z</time>
      </trkpt>
      <trkpt lat="62.8344169445" lon="14.4206319842">
        <ele>495</ele>
        <time>2011-11-05T14:28:43Z</time>
      </trkpt>
      <trkpt lat="62.8344169445" lon="14.4206319842">
        <ele>494</ele>
        <time>2011-11-05T14:28:44Z</time>
      </trkpt>
      <trkpt lat="62.8344169445" lon="14.4206319842">
        <ele>495</ele>
        <time>2011-11-05T14:28:45Z</time>
      </trkpt>
      <trkpt lat="62.8344169445" lon="14.4206319842">
        <ele>496</ele>
        <time>2011-11-05T14:28:46Z</time>
      </trkpt>
      <trkpt lat="62.8344169445" lon="14.4206319842">
        <ele>498</ele>
        <time>2011-11-05T14:28:47Z</time>
      </trkpt>
      <trkpt lat="62.8344169445" lon="14.4206319842">
        <ele>494</ele>
        <time>2011-11-05T14:28:48Z</time>
      </trkpt>
      <trkpt lat="62.8344169445" lon="14.4206319842">
        <ele>492</ele>
        <time>2011-11-05T14:28:49Z</time>
      </trkpt>
      <trkpt lat="62.8344169445" lon="14.4206319842">
        <ele>490</ele>
        <time>2011-11-05T14:28:50Z</time>
      </trkpt>
      <trkpt lat="62.8344169445" lon="14.4206319842">
        <ele>490</ele>
        <time>2011-11-05T14:28:51Z</time>
      </trkpt>
      <trkpt lat="62.8344079759" lon="14.4206239376">
        <ele>489</ele>
        <time>2011-11-05T14:28:52Z</time>
      </trkpt>
      <trkpt lat="62.8344079759" lon="14.4206239376">
        <ele>487</ele>
        <time>2011-11-05T14:28:53Z</time>
      </trkpt>
      <trkpt lat="62.8344079759" lon="14.4206239376">
        <ele>483</ele>
        <time>2011-11-05T14:28:54Z</time>
      </trkpt>
      <trkpt lat="62.8344079759" lon="14.4206239376">
        <ele>487</ele>
        <time>2011-11-05T14:28:55Z</time>
      </trkpt>
      <trkpt lat="62.8344079759" lon="14.4206239376">
        <ele>490</ele>
        <time>2011-11-05T14:28:56Z</time>
      </trkpt>
      <trkpt lat="62.8344079759" lon="14.4206239376">
        <ele>487</ele>
        <time>2011-11-05T14:28:57Z</time>
      </trkpt>
      <trkpt lat="62.8343999293" lon="14.4206109457">
        <ele>482</ele>
        <time>2011-11-05T14:28:58Z</time>
      </trkpt>
      <trkpt lat="62.8343999293" lon="14.4206109457">
        <ele>478</ele>
        <time>2011-11-05T14:28:59Z</time>
      </trkpt>
      <trkpt lat="62.8343979176" lon="14.4206059165">
        <ele>477</ele>
        <time>2011-11-05T14:29:00Z</time>
      </trkpt>
      <trkpt lat="62.8343929723" lon="14.4205949362">
        <ele>478</ele>
        <time>2011-11-05T14:29:01Z</time>
      </trkpt>
      <trkpt lat="62.8343929723" lon="14.4205949362">
        <ele>480</ele>
        <time>2011-11-05T14:29:02Z</time>
      </trkpt>
      <trkpt lat="62.8343929723" lon="14.4205949362">
        <ele>476</ele>
        <time>2011-11-05T14:29:03Z</time>
      </trkpt>
      <trkpt lat="62.8343899548" lon="14.4205689523">
        <ele>474</ele>
        <time>2011-11-05T14:29:04Z</time>
      </trkpt>
      <trkpt lat="62.8343859315" lon="14.4205469918">
        <ele>474</ele>
        <time>2011-11-05T14:29:05Z</time>
      </trkpt>
      <trkpt lat="62.8343849257" lon="14.4205279648">
        <ele>474</ele>
        <time>2011-11-05T14:29:06Z</time>
      </trkpt>
      <trkpt lat="62.8343829978" lon="14.4205059204">
        <ele>476</ele>
        <time>2011-11-05T14:29:07Z</time>
      </trkpt>
      <trkpt lat="62.8343829978" lon="14.4205059204">
        <ele>475</ele>
        <time>2011-11-05T14:29:08Z</time>
      </trkpt>
      <trkpt lat="62.8343789745" lon="14.4204989634">
        <ele>475</ele>
        <time>2011-11-05T14:29:09Z</time>
      </trkpt>
      <trkpt lat="62.8343769629" lon="14.4204919226">
        <ele>475</ele>
        <time>2011-11-05T14:29:10Z</time>
      </trkpt>
      <trkpt lat="62.8343679942" lon="14.4204789307">
        <ele>472</ele>
        <time>2011-11-05T14:29:11Z</time>
      </trkpt>
      <trkpt lat="62.8343539964" lon="14.420444984">
        <ele>479</ele>
        <time>2011-11-05T14:29:12Z</time>
      </trkpt>
      <trkpt lat="62.8343459498" lon="14.4204299804">
        <ele>478</ele>
        <time>2011-11-05T14:29:13Z</time>
      </trkpt>
      <trkpt lat="62.834337987" lon="14.4204229396">
        <ele>476</ele>
        <time>2011-11-05T14:29:14Z</time>
      </trkpt>
      <trkpt lat="62.8343339637" lon="14.420407936">
        <ele>476</ele>
        <time>2011-11-05T14:29:15Z</time>
      </trkpt>
      <trkpt lat="62.834331952" lon="14.420394944">
        <ele>473</ele>
        <time>2011-11-05T14:29:16Z</time>
      </trkpt>
      <trkpt lat="62.8343329579" lon="14.4203789346">
        <ele>474</ele>
        <time>2011-11-05T14:29:17Z</time>
      </trkpt>
      <trkpt lat="62.8343329579" lon="14.4203789346">
        <ele>474</ele>
        <time>2011-11-05T14:29:18Z</time>
      </trkpt>
      <trkpt lat="62.834331952" lon="14.4203659426">
        <ele>473</ele>
        <time>2011-11-05T14:29:19Z</time>
      </trkpt>
      <trkpt lat="62.8343329579" lon="14.4203499332">
        <ele>473</ele>
        <time>2011-11-05T14:29:20Z</time>
      </trkpt>
      <trkpt lat="62.8343299404" lon="14.4203299843">
        <ele>474</ele>
        <time>2011-11-05T14:29:21Z</time>
      </trkpt>
      <trkpt lat="62.8343269229" lon="14.420319926">
        <ele>475</ele>
        <time>2011-11-05T14:29:22Z</time>
      </trkpt>
      <trkpt lat="62.8343229834" lon="14.4203099515">
        <ele>476</ele>
        <time>2011-11-05T14:29:23Z</time>
      </trkpt>
      <trkpt lat="62.8343159426" lon="14.420306934">
        <ele>475</ele>
        <time>2011-11-05T14:29:24Z</time>
      </trkpt>
      <trkpt lat="62.8343119193" lon="14.4203029945">
        <ele>472</ele>
        <time>2011-11-05T14:29:25Z</time>
      </trkpt>
      <trkpt lat="62.8343049623" lon="14.4203029945">
        <ele>472</ele>
        <time>2011-11-05T14:29:26Z</time>
      </trkpt>
      <trkpt lat="62.8343019448" lon="14.4202969596">
        <ele>470</ele>
        <time>2011-11-05T14:29:27Z</time>
      </trkpt>
      <trkpt lat="62.8343019448" lon="14.4202969596">
        <ele>473</ele>
        <time>2011-11-05T14:29:28Z</time>
      </trkpt>
      <trkpt lat="62.8343029507" lon="14.4202929363">
        <ele>472</ele>
        <time>2011-11-05T14:29:29Z</time>
      </trkpt>
      <trkpt lat="62.834300939" lon="14.4202829618">
        <ele>473</ele>
        <time>2011-11-05T14:29:30Z</time>
      </trkpt>
      <trkpt lat="62.8343029507" lon="14.4202809501">
        <ele>472</ele>
        <time>2011-11-05T14:29:31Z</time>
      </trkpt>
      <trkpt lat="62.8343029507" lon="14.4202809501">
        <ele>472</ele>
        <time>2011-11-05T14:29:32Z</time>
      </trkpt>
      <trkpt lat="62.8343029507" lon="14.4202809501">
        <ele>468</ele>
        <time>2011-11-05T14:29:33Z</time>
      </trkpt>
      <trkpt lat="62.8342959937" lon="14.4202879909">
        <ele>467</ele>
        <time>2011-11-05T14:29:34Z</time>
      </trkpt>
      <trkpt lat="62.8343049623" lon="14.4202529546">
        <ele>468</ele>
        <time>2011-11-05T14:29:35Z</time>
      </trkpt>
      <trkpt lat="62.834306974" lon="14.4202429801">
        <ele>467</ele>
        <time>2011-11-05T14:29:36Z</time>
      </trkpt>
      <trkpt lat="62.8343079798" lon="14.4202449918">
        <ele>467</ele>
        <time>2011-11-05T14:29:37Z</time>
      </trkpt>
      <trkpt lat="62.8343019448" lon="14.4202459976">
        <ele>467</ele>
        <time>2011-11-05T14:29:38Z</time>
      </trkpt>
      <trkpt lat="62.8343019448" lon="14.4202509429">
        <ele>468</ele>
        <time>2011-11-05T14:29:39Z</time>
      </trkpt>
      <trkpt lat="62.8342969995" lon="14.4202619232">
        <ele>469</ele>
        <time>2011-11-05T14:29:40Z</time>
      </trkpt>
      <trkpt lat="62.8342969995" lon="14.4202619232">
        <ele>466</ele>
        <time>2011-11-05T14:29:41Z</time>
      </trkpt>
      <trkpt lat="62.8342949878" lon="14.4202509429">
        <ele>467</ele>
        <time>2011-11-05T14:29:42Z</time>
      </trkpt>
      <trkpt lat="62.8342919704" lon="14.4202409685">
        <ele>465</ele>
        <time>2011-11-05T14:29:43Z</time>
      </trkpt>
      <trkpt lat="62.8342929762" lon="14.420230994">
        <ele>468</ele>
        <time>2011-11-05T14:29:44Z</time>
      </trkpt>
      <trkpt lat="62.834287947" lon="14.4202289823">
        <ele>470</ele>
        <time>2011-11-05T14:29:45Z</time>
      </trkpt>
      <trkpt lat="62.8342859354" lon="14.4202209357">
        <ele>472</ele>
        <time>2011-11-05T14:29:46Z</time>
      </trkpt>
      <trkpt lat="62.8342899587" lon="14.4202209357">
        <ele>473</ele>
        <time>2011-11-05T14:29:47Z</time>
      </trkpt>
      <trkpt lat="62.8342809901" lon="14.4202259649">
        <ele>472</ele>
        <time>2011-11-05T14:29:48Z</time>
      </trkpt>
      <trkpt lat="62.8342769668" lon="14.4202149846">
        <ele>471</ele>
        <time>2011-11-05T14:29:49Z</time>
      </trkpt>
      <trkpt lat="62.8342739493" lon="14.4202139787">
        <ele>471</ele>
        <time>2011-11-05T14:29:50Z</time>
      </trkpt>
      <trkpt lat="62.8342739493" lon="14.4202139787">
        <ele>471</ele>
        <time>2011-11-05T14:29:51Z</time>
      </trkpt>
      <trkpt lat="62.834269926" lon="14.4202079438">
        <ele>469</ele>
        <time>2011-11-05T14:29:52Z</time>
      </trkpt>
      <trkpt lat="62.8342639748" lon="14.4202089496">
        <ele>470</ele>
        <time>2011-11-05T14:29:53Z</time>
      </trkpt>
      <trkpt lat="62.8342599515" lon="14.4202169962">
        <ele>469</ele>
        <time>2011-11-05T14:29:54Z</time>
      </trkpt>
      <trkpt lat="62.8342539165" lon="14.4202149846">
        <ele>468</ele>
        <time>2011-11-05T14:29:55Z</time>
      </trkpt>
      <trkpt lat="62.8342479654" lon="14.4202009868">
        <ele>469</ele>
        <time>2011-11-05T14:29:56Z</time>
      </trkpt>
      <trkpt lat="62.8342439421" lon="14.420186989">
        <ele>470</ele>
        <time>2011-11-05T14:29:57Z</time>
      </trkpt>
      <trkpt lat="62.8342379909" lon="14.4201879948">
        <ele>467</ele>
        <time>2011-11-05T14:29:58Z</time>
      </trkpt>
      <trkpt lat="62.8342319559" lon="14.4201839715">
        <ele>466</ele>
        <time>2011-11-05T14:29:59Z</time>
      </trkpt>
      <trkpt lat="62.8342319559" lon="14.4201839715">
        <ele>469</ele>
        <time>2011-11-05T14:30:00Z</time>
      </trkpt>
      <trkpt lat="62.8342269268" lon="14.4201689679">
        <ele>471</ele>
        <time>2011-11-05T14:30:01Z</time>
      </trkpt>
      <trkpt lat="62.8342219815" lon="14.4201689679">
        <ele>468</ele>
        <time>2011-11-05T14:30:02Z</time>
      </trkpt>
      <trkpt lat="62.8342179582" lon="14.4201629329">
        <ele>468</ele>
        <time>2011-11-05T14:30:03Z</time>
      </trkpt>
      <trkpt lat="62.8342139348" lon="14.4201589935">
        <ele>468</ele>
        <time>2011-11-05T14:30:04Z</time>
      </trkpt>
      <trkpt lat="62.8342049662" lon="14.4201569818">
        <ele>466</ele>
        <time>2011-11-05T14:30:05Z</time>
      </trkpt>
      <trkpt lat="62.8341949917" lon="14.420155976">
        <ele>467</ele>
        <time>2011-11-05T14:30:06Z</time>
      </trkpt>
      <trkpt lat="62.8341889568" lon="14.4201579876">
        <ele>468</ele>
        <time>2011-11-05T14:30:07Z</time>
      </trkpt>
      <trkpt lat="62.8341799881" lon="14.420155976">
        <ele>468</ele>
        <time>2011-11-05T14:30:08Z</time>
      </trkpt>
      <trkpt lat="62.8341669962" lon="14.4201469235">
        <ele>466</ele>
        <time>2011-11-05T14:30:09Z</time>
      </trkpt>
      <trkpt lat="62.8341589496" lon="14.4201519527">
        <ele>466</ele>
        <time>2011-11-05T14:30:10Z</time>
      </trkpt>
      <trkpt lat="62.8341539204" lon="14.4201529585">
        <ele>468</ele>
        <time>2011-11-05T14:30:11Z</time>
      </trkpt>
      <trkpt lat="62.8341529984" lon="14.420149941">
        <ele>474</ele>
        <time>2011-11-05T14:30:12Z</time>
      </trkpt>
      <trkpt lat="62.8341449518" lon="14.4201409724">
        <ele>476</ele>
        <time>2011-11-05T14:30:13Z</time>
      </trkpt>
      <trkpt lat="62.8341409285" lon="14.4201319199">
        <ele>472</ele>
        <time>2011-11-05T14:30:14Z</time>
      </trkpt>
      <trkpt lat="62.8341379948" lon="14.4201279804">
        <ele>471</ele>
        <time>2011-11-05T14:30:15Z</time>
      </trkpt>
      <trkpt lat="62.8341379948" lon="14.4201279804">
        <ele>473</ele>
        <time>2011-11-05T14:30:16Z</time>
      </trkpt>
      <trkpt lat="62.8341379948" lon="14.4201269746">
        <ele>474</ele>
        <time>2011-11-05T14:30:17Z</time>
      </trkpt>
      <trkpt lat="62.8341319598" lon="14.4201259688">
        <ele>473</ele>
        <time>2011-11-05T14:30:18Z</time>
      </trkpt>
      <trkpt lat="62.8341319598" lon="14.4201259688">
        <ele>472</ele>
        <time>2011-11-05T14:30:19Z</time>
      </trkpt>
      <trkpt lat="62.8341289423" lon="14.4201159943">
        <ele>472</ele>
        <time>2011-11-05T14:30:20Z</time>
      </trkpt>
      <trkpt lat="62.8341279365" lon="14.4201129768">
        <ele>472</ele>
        <time>2011-11-05T14:30:21Z</time>
      </trkpt>
      <trkpt lat="62.8341279365" lon="14.4201099593">
        <ele>471</ele>
        <time>2011-11-05T14:30:22Z</time>
      </trkpt>
      <trkpt lat="62.8341289423" lon="14.4201049302">
        <ele>474</ele>
        <time>2011-11-05T14:30:23Z</time>
      </trkpt>
      <trkpt lat="62.8341279365" lon="14.420098979">
        <ele>474</ele>
        <time>2011-11-05T14:30:24Z</time>
      </trkpt>
      <trkpt lat="62.8341279365" lon="14.420098979">
        <ele>475</ele>
        <time>2011-11-05T14:30:25Z</time>
      </trkpt>
      <trkpt lat="62.8341289423" lon="14.420105936">
        <ele>475</ele>
        <time>2011-11-05T14:30:26Z</time>
      </trkpt>
      <trkpt lat="62.8341279365" lon="14.4200999849">
        <ele>476</ele>
        <time>2011-11-05T14:30:27Z</time>
      </trkpt>
      <trkpt lat="62.8341269307" lon="14.420105936">
        <ele>476</ele>
        <time>2011-11-05T14:30:28Z</time>
      </trkpt>
      <trkpt lat="62.8341289423" lon="14.4201109651">
        <ele>476</ele>
        <time>2011-11-05T14:30:29Z</time>
      </trkpt>
      <trkpt lat="62.8341289423" lon="14.4201109651">
        <ele>475</ele>
        <time>2011-11-05T14:30:30Z</time>
      </trkpt>
      <trkpt lat="62.8341299482" lon="14.4201199338">
        <ele>473</ele>
        <time>2011-11-05T14:30:31Z</time>
      </trkpt>
      <trkpt lat="62.8341349773" lon="14.4201329257">
        <ele>474</ele>
        <time>2011-11-05T14:30:32Z</time>
      </trkpt>
      <trkpt lat="62.8341299482" lon="14.4201399665">
        <ele>474</ele>
        <time>2011-11-05T14:30:33Z</time>
      </trkpt>
      <trkpt lat="62.8341289423" lon="14.4201329257">
        <ele>476</ele>
        <time>2011-11-05T14:30:34Z</time>
      </trkpt>
      <trkpt lat="62.834123997" lon="14.4201299921">
        <ele>474</ele>
        <time>2011-11-05T14:30:35Z</time>
      </trkpt>
      <trkpt lat="62.8341139387" lon="14.4201209396">
        <ele>474</ele>
        <time>2011-11-05T14:30:36Z</time>
      </trkpt>
      <trkpt lat="62.8341049701" lon="14.420118928">
        <ele>473</ele>
        <time>2011-11-05T14:30:37Z</time>
      </trkpt>
      <trkpt lat="62.8340979293" lon="14.420105936">
        <ele>474</ele>
        <time>2011-11-05T14:30:38Z</time>
      </trkpt>
      <trkpt lat="62.8340939898" lon="14.4200909324">
        <ele>473</ele>
        <time>2011-11-05T14:30:39Z</time>
      </trkpt>
      <trkpt lat="62.8340939898" lon="14.4200909324">
        <ele>474</ele>
        <time>2011-11-05T14:30:40Z</time>
      </trkpt>
      <trkpt lat="62.8340909723" lon="14.4200799521">
        <ele>475</ele>
        <time>2011-11-05T14:30:41Z</time>
      </trkpt>
      <trkpt lat="62.8340899665" lon="14.4200659543">
        <ele>472</ele>
        <time>2011-11-05T14:30:42Z</time>
      </trkpt>
      <trkpt lat="62.834092984" lon="14.4200539682">
        <ele>470</ele>
        <time>2011-11-05T14:30:43Z</time>
      </trkpt>
      <trkpt lat="62.8340879548" lon="14.4200439937">
        <ele>468</ele>
        <time>2011-11-05T14:30:44Z</time>
      </trkpt>
      <trkpt lat="62.8340819199" lon="14.4200429879">
        <ele>467</ele>
        <time>2011-11-05T14:30:45Z</time>
      </trkpt>
      <trkpt lat="62.8340749629" lon="14.4200389646">
        <ele>467</ele>
        <time>2011-11-05T14:30:46Z</time>
      </trkpt>
      <trkpt lat="62.8340669163" lon="14.4200369529">
        <ele>468</ele>
        <time>2011-11-05T14:30:47Z</time>
      </trkpt>
      <trkpt lat="62.8340579476" lon="14.4200339355">
        <ele>470</ele>
        <time>2011-11-05T14:30:48Z</time>
      </trkpt>
      <trkpt lat="62.8340519965" lon="14.4200359471">
        <ele>467</ele>
        <time>2011-11-05T14:30:49Z</time>
      </trkpt>
      <trkpt lat="62.8340439498" lon="14.4200399704">
        <ele>469</ele>
        <time>2011-11-05T14:30:50Z</time>
      </trkpt>
      <trkpt lat="62.8340409324" lon="14.4200439937">
        <ele>468</ele>
        <time>2011-11-05T14:30:51Z</time>
      </trkpt>
      <trkpt lat="62.834035987" lon="14.4200429879">
        <ele>469</ele>
        <time>2011-11-05T14:30:52Z</time>
      </trkpt>
      <trkpt lat="62.8340279404" lon="14.4200399704">
        <ele>470</ele>
        <time>2011-11-05T14:30:53Z</time>
      </trkpt>
      <trkpt lat="62.8340259288" lon="14.4200269785">
        <ele>471</ele>
        <time>2011-11-05T14:30:54Z</time>
      </trkpt>
      <trkpt lat="62.8340209834" lon="14.4200169202">
        <ele>471</ele>
        <time>2011-11-05T14:30:55Z</time>
      </trkpt>
      <trkpt lat="62.8340189718" lon="14.4200129807">
        <ele>473</ele>
        <time>2011-11-05T14:30:56Z</time>
      </trkpt>
      <trkpt lat="62.8340129368" lon="14.4200099632">
        <ele>471</ele>
        <time>2011-11-05T14:30:57Z</time>
      </trkpt>
      <trkpt lat="62.834011931" lon="14.4199889246">
        <ele>470</ele>
        <time>2011-11-05T14:30:58Z</time>
      </trkpt>
      <trkpt lat="62.8340069856" lon="14.4199819677">
        <ele>472</ele>
        <time>2011-11-05T14:30:59Z</time>
      </trkpt>
      <trkpt lat="62.8340069856" lon="14.4199809618">
        <ele>473</ele>
        <time>2011-11-05T14:31:00Z</time>
      </trkpt>
      <trkpt lat="62.8340069856" lon="14.4199809618">
        <ele>473</ele>
        <time>2011-11-05T14:31:01Z</time>
      </trkpt>
      <trkpt lat="62.8340089973" lon="14.4199709874">
        <ele>471</ele>
        <time>2011-11-05T14:31:02Z</time>
      </trkpt>
      <trkpt lat="62.8340089973" lon="14.4199709874">
        <ele>473</ele>
        <time>2011-11-05T14:31:03Z</time>
      </trkpt>
      <trkpt lat="62.8340089973" lon="14.4199699815">
        <ele>475</ele>
        <time>2011-11-05T14:31:04Z</time>
      </trkpt>
      <trkpt lat="62.8340079915" lon="14.4199679699">
        <ele>473</ele>
        <time>2011-11-05T14:31:05Z</time>
      </trkpt>
      <trkpt lat="62.8339979332" lon="14.4199629407">
        <ele>475</ele>
        <time>2011-11-05T14:31:06Z</time>
      </trkpt>
      <trkpt lat="62.8339979332" lon="14.4199629407">
        <ele>473</ele>
        <time>2011-11-05T14:31:07Z</time>
      </trkpt>
      <trkpt lat="62.833991982" lon="14.4199539721">
        <ele>473</ele>
        <time>2011-11-05T14:31:08Z</time>
      </trkpt>
      <trkpt lat="62.8339909762" lon="14.419941986">
        <ele>472</ele>
        <time>2011-11-05T14:31:09Z</time>
      </trkpt>
      <trkpt lat="62.8339869529" lon="14.4199319277">
        <ele>470</ele>
        <time>2011-11-05T14:31:10Z</time>
      </trkpt>
      <trkpt lat="62.8339759726" lon="14.4199029263">
        <ele>468</ele>
        <time>2011-11-05T14:31:11Z</time>
      </trkpt>
      <trkpt lat="62.833967926" lon="14.4198879227">
        <ele>470</ele>
        <time>2011-11-05T14:31:12Z</time>
      </trkpt>
      <trkpt lat="62.8339649923" lon="14.4198679738">
        <ele>466</ele>
        <time>2011-11-05T14:31:13Z</time>
      </trkpt>
      <trkpt lat="62.8339639865" lon="14.419847941">
        <ele>465</ele>
        <time>2011-11-05T14:31:14Z</time>
      </trkpt>
      <trkpt lat="62.833954934" lon="14.4198399782">
        <ele>462</ele>
        <time>2011-11-05T14:31:15Z</time>
      </trkpt>
      <trkpt lat="62.8339479771" lon="14.4198059477">
        <ele>460</ele>
        <time>2011-11-05T14:31:16Z</time>
      </trkpt>
      <trkpt lat="62.8339449596" lon="14.4197929557">
        <ele>461</ele>
        <time>2011-11-05T14:31:17Z</time>
      </trkpt>
      <trkpt lat="62.8339429479" lon="14.4197889324">
        <ele>462</ele>
        <time>2011-11-05T14:31:18Z</time>
      </trkpt>
      <trkpt lat="62.8339339793" lon="14.4197949674">
        <ele>462</ele>
        <time>2011-11-05T14:31:19Z</time>
      </trkpt>
      <trkpt lat="62.8339279443" lon="14.4197899383">
        <ele>461</ele>
        <time>2011-11-05T14:31:20Z</time>
      </trkpt>
      <trkpt lat="62.8339149524" lon="14.419778958">
        <ele>461</ele>
        <time>2011-11-05T14:31:21Z</time>
      </trkpt>
      <trkpt lat="62.8339059837" lon="14.419772923">
        <ele>461</ele>
        <time>2011-11-05T14:31:22Z</time>
      </trkpt>
      <trkpt lat="62.8338979371" lon="14.4197709952">
        <ele>464</ele>
        <time>2011-11-05T14:31:23Z</time>
      </trkpt>
      <trkpt lat="62.8338889685" lon="14.4197669718">
        <ele>463</ele>
        <time>2011-11-05T14:31:24Z</time>
      </trkpt>
      <trkpt lat="62.8338739648" lon="14.4197539799">
        <ele>463</ele>
        <time>2011-11-05T14:31:25Z</time>
      </trkpt>
      <trkpt lat="62.8338709474" lon="14.4197419938">
        <ele>465</ele>
        <time>2011-11-05T14:31:26Z</time>
      </trkpt>
      <trkpt lat="62.8338619787" lon="14.4197319355">
        <ele>462</ele>
        <time>2011-11-05T14:31:27Z</time>
      </trkpt>
      <trkpt lat="62.8338549379" lon="14.4197339471">
        <ele>460</ele>
        <time>2011-11-05T14:31:28Z</time>
      </trkpt>
      <trkpt lat="62.833841946" lon="14.4197369646">
        <ele>462</ele>
        <time>2011-11-05T14:31:29Z</time>
      </trkpt>
      <trkpt lat="62.8338319715" lon="14.419734953">
        <ele>460</ele>
        <time>2011-11-05T14:31:30Z</time>
      </trkpt>
      <trkpt lat="62.8338249307" lon="14.4197329413">
        <ele>465</ele>
        <time>2011-11-05T14:31:31Z</time>
      </trkpt>
      <trkpt lat="62.8338199854" lon="14.4197409879">
        <ele>463</ele>
        <time>2011-11-05T14:31:32Z</time>
      </trkpt>
      <trkpt lat="62.8338179737" lon="14.4197429996">
        <ele>465</ele>
        <time>2011-11-05T14:31:33Z</time>
      </trkpt>
      <trkpt lat="62.8338119388" lon="14.4197409879">
        <ele>466</ele>
        <time>2011-11-05T14:31:34Z</time>
      </trkpt>
      <trkpt lat="62.8338119388" lon="14.4197399821">
        <ele>470</ele>
        <time>2011-11-05T14:31:35Z</time>
      </trkpt>
      <trkpt lat="62.8338049818" lon="14.4197359588">
        <ele>469</ele>
        <time>2011-11-05T14:31:36Z</time>
      </trkpt>
      <trkpt lat="62.8338009585" lon="14.4197309297">
        <ele>470</ele>
        <time>2011-11-05T14:31:37Z</time>
      </trkpt>
      <trkpt lat="62.8337939177" lon="14.419721961">
        <ele>471</ele>
        <time>2011-11-05T14:31:38Z</time>
      </trkpt>
      <trkpt lat="62.8337919898" lon="14.4197189435">
        <ele>467</ele>
        <time>2011-11-05T14:31:39Z</time>
      </trkpt>
      <trkpt lat="62.8337859549" lon="14.4197189435">
        <ele>467</ele>
        <time>2011-11-05T14:31:40Z</time>
      </trkpt>
      <trkpt lat="62.8337809257" lon="14.4197159261">
        <ele>470</ele>
        <time>2011-11-05T14:31:41Z</time>
      </trkpt>
      <trkpt lat="62.8337729629" lon="14.4197129924">
        <ele>472</ele>
        <time>2011-11-05T14:31:42Z</time>
      </trkpt>
      <trkpt lat="62.8337699454" lon="14.4197109807">
        <ele>471</ele>
        <time>2011-11-05T14:31:43Z</time>
      </trkpt>
      <trkpt lat="62.8337659221" lon="14.4197189435">
        <ele>469</ele>
        <time>2011-11-05T14:31:44Z</time>
      </trkpt>
      <trkpt lat="62.8337629884" lon="14.419728918">
        <ele>465</ele>
        <time>2011-11-05T14:31:45Z</time>
      </trkpt>
      <trkpt lat="62.8337629884" lon="14.4197199494">
        <ele>461</ele>
        <time>2011-11-05T14:31:46Z</time>
      </trkpt>
      <trkpt lat="62.8337619826" lon="14.4197109807">
        <ele>460</ele>
        <time>2011-11-05T14:31:47Z</time>
      </trkpt>
      <trkpt lat="62.8337529302" lon="14.4197069574">
        <ele>458</ele>
        <time>2011-11-05T14:31:48Z</time>
      </trkpt>
      <trkpt lat="62.8337489907" lon="14.4197029341">
        <ele>456</ele>
        <time>2011-11-05T14:31:49Z</time>
      </trkpt>
      <trkpt lat="62.8337439615" lon="14.4196939655">
        <ele>453</ele>
        <time>2011-11-05T14:31:50Z</time>
      </trkpt>
      <trkpt lat="62.8337439615" lon="14.4196939655">
        <ele>458</ele>
        <time>2011-11-05T14:31:51Z</time>
      </trkpt>
      <trkpt lat="62.8337439615" lon="14.4196939655">
        <ele>459</ele>
        <time>2011-11-05T14:31:52Z</time>
      </trkpt>
      <trkpt lat="62.8337439615" lon="14.4196939655">
        <ele>459</ele>
        <time>2011-11-05T14:31:53Z</time>
      </trkpt>
      <trkpt lat="62.8337429557" lon="14.4196919538">
        <ele>459</ele>
        <time>2011-11-05T14:31:54Z</time>
      </trkpt>
      <trkpt lat="62.8337389324" lon="14.4196859188">
        <ele>459</ele>
        <time>2011-11-05T14:31:55Z</time>
      </trkpt>
      <trkpt lat="62.8337249346" lon="14.4196679816">
        <ele>459</ele>
        <time>2011-11-05T14:31:56Z</time>
      </trkpt>
      <trkpt lat="62.8337249346" lon="14.4196679816">
        <ele>456</ele>
        <time>2011-11-05T14:31:57Z</time>
      </trkpt>
      <trkpt lat="62.8337249346" lon="14.4196639583">
        <ele>459</ele>
        <time>2011-11-05T14:31:58Z</time>
      </trkpt>
      <trkpt lat="62.8337249346" lon="14.4196589291">
        <ele>463</ele>
        <time>2011-11-05T14:31:59Z</time>
      </trkpt>
      <trkpt lat="62.8337249346" lon="14.4196589291">
        <ele>462</ele>
        <time>2011-11-05T14:32:00Z</time>
      </trkpt>
      <trkpt lat="62.8337199893" lon="14.419639986">
        <ele>461</ele>
        <time>2011-11-05T14:32:01Z</time>
      </trkpt>
      <trkpt lat="62.8337259404" lon="14.4196219649">
        <ele>457</ele>
        <time>2011-11-05T14:32:02Z</time>
      </trkpt>
      <trkpt lat="62.8337329812" lon="14.4196069613">
        <ele>456</ele>
        <time>2011-11-05T14:32:03Z</time>
      </trkpt>
      <trkpt lat="62.8337349929" lon="14.4196009263">
        <ele>460</ele>
        <time>2011-11-05T14:32:04Z</time>
      </trkpt>
      <trkpt lat="62.8337319754" lon="14.4195869286">
        <ele>460</ele>
        <time>2011-11-05T14:32:05Z</time>
      </trkpt>
      <trkpt lat="62.8337279521" lon="14.4195419177">
        <ele>461</ele>
        <time>2011-11-05T14:32:06Z</time>
      </trkpt>
      <trkpt lat="62.8337249346" lon="14.419520963">
        <ele>457</ele>
        <time>2011-11-05T14:32:07Z</time>
      </trkpt>
      <trkpt lat="62.8337249346" lon="14.419520963">
        <ele>456</ele>
        <time>2011-11-05T14:32:08Z</time>
      </trkpt>
      <trkpt lat="62.8337249346" lon="14.419520963">
        <ele>455</ele>
        <time>2011-11-05T14:32:09Z</time>
      </trkpt>
      <trkpt lat="62.8337249346" lon="14.419520963">
        <ele>452</ele>
        <time>2011-11-05T14:32:10Z</time>
      </trkpt>
      <trkpt lat="62.8337249346" lon="14.419520963">
        <ele>452</ele>
        <time>2011-11-05T14:32:11Z</time>
      </trkpt>
      <trkpt lat="62.8337239288" lon="14.4195059594">
        <ele>452</ele>
        <time>2011-11-05T14:32:12Z</time>
      </trkpt>
      <trkpt lat="62.8337239288" lon="14.4194999244">
        <ele>450</ele>
        <time>2011-11-05T14:32:13Z</time>
      </trkpt>
      <trkpt lat="62.8337189835" lon="14.4194939733">
        <ele>450</ele>
        <time>2011-11-05T14:32:14Z</time>
      </trkpt>
      <trkpt lat="62.8337129485" lon="14.4194889441">
        <ele>449</ele>
        <time>2011-11-05T14:32:15Z</time>
      </trkpt>
      <trkpt lat="62.833709931" lon="14.4194779638">
        <ele>452</ele>
        <time>2011-11-05T14:32:16Z</time>
      </trkpt>
      <trkpt lat="62.8337059915" lon="14.4194679894">
        <ele>449</ele>
        <time>2011-11-05T14:32:17Z</time>
      </trkpt>
      <trkpt lat="62.8336999565" lon="14.4194559194">
        <ele>448</ele>
        <time>2011-11-05T14:32:18Z</time>
      </trkpt>
      <trkpt lat="62.8336989507" lon="14.4194559194">
        <ele>448</ele>
        <time>2011-11-05T14:32:19Z</time>
      </trkpt>
      <trkpt lat="62.8336959332" lon="14.4194409996">
        <ele>447</ele>
        <time>2011-11-05T14:32:20Z</time>
      </trkpt>
      <trkpt lat="62.8336949274" lon="14.419426918">
        <ele>447</ele>
        <time>2011-11-05T14:32:21Z</time>
      </trkpt>
      <trkpt lat="62.8336939216" lon="14.4194159377">
        <ele>447</ele>
        <time>2011-11-05T14:32:22Z</time>
      </trkpt>
      <trkpt lat="62.8336919937" lon="14.4194109924">
        <ele>448</ele>
        <time>2011-11-05T14:32:23Z</time>
      </trkpt>
      <trkpt lat="62.8336869646" lon="14.4194009341">
        <ele>450</ele>
        <time>2011-11-05T14:32:24Z</time>
      </trkpt>
      <trkpt lat="62.8336869646" lon="14.4194009341">
        <ele>448</ele>
        <time>2011-11-05T14:32:25Z</time>
      </trkpt>
      <trkpt lat="62.8336879704" lon="14.4193959888">
        <ele>448</ele>
        <time>2011-11-05T14:32:26Z</time>
      </trkpt>
      <trkpt lat="62.8336899821" lon="14.4193779677">
        <ele>449</ele>
        <time>2011-11-05T14:32:27Z</time>
      </trkpt>
      <trkpt lat="62.8336899821" lon="14.4193699211">
        <ele>449</ele>
        <time>2011-11-05T14:32:28Z</time>
      </trkpt>
      <trkpt lat="62.8336899821" lon="14.4193699211">
        <ele>452</ele>
        <time>2011-11-05T14:32:29Z</time>
      </trkpt>
      <trkpt lat="62.8336899821" lon="14.4193699211">
        <ele>448</ele>
        <time>2011-11-05T14:32:30Z</time>
      </trkpt>
      <trkpt lat="62.8336899821" lon="14.4193539955">
        <ele>448</ele>
        <time>2011-11-05T14:32:31Z</time>
      </trkpt>
      <trkpt lat="62.8336869646" lon="14.4193349686">
        <ele>446</ele>
        <time>2011-11-05T14:32:32Z</time>
      </trkpt>
      <trkpt lat="62.8336869646" lon="14.4193349686">
        <ele>445</ele>
        <time>2011-11-05T14:32:33Z</time>
      </trkpt>
      <trkpt lat="62.8336859588" lon="14.4193189591">
        <ele>446</ele>
        <time>2011-11-05T14:32:34Z</time>
      </trkpt>
      <trkpt lat="62.8336949274" lon="14.4193059672">
        <ele>445</ele>
        <time>2011-11-05T14:32:35Z</time>
      </trkpt>
      <trkpt lat="62.8336869646" lon="14.4192519877">
        <ele>447</ele>
        <time>2011-11-05T14:32:36Z</time>
      </trkpt>
      <trkpt lat="62.8336869646" lon="14.4192179572">
        <ele>449</ele>
        <time>2011-11-05T14:32:37Z</time>
      </trkpt>
      <trkpt lat="62.8336869646" lon="14.4191919733">
        <ele>445</ele>
        <time>2011-11-05T14:32:38Z</time>
      </trkpt>
      <trkpt lat="62.8336869646" lon="14.4191729464">
        <ele>446</ele>
        <time>2011-11-05T14:32:39Z</time>
      </trkpt>
      <trkpt lat="62.8336899821" lon="14.4191549253">
        <ele>446</ele>
        <time>2011-11-05T14:32:40Z</time>
      </trkpt>
      <trkpt lat="62.8336859588" lon="14.4191319589">
        <ele>445</ele>
        <time>2011-11-05T14:32:41Z</time>
      </trkpt>
      <trkpt lat="62.8336869646" lon="14.4191149436">
        <ele>445</ele>
        <time>2011-11-05T14:32:42Z</time>
      </trkpt>
      <trkpt lat="62.8336969391" lon="14.4190889597">
        <ele>449</ele>
        <time>2011-11-05T14:32:43Z</time>
      </trkpt>
      <trkpt lat="62.8337049857" lon="14.4190699328">
        <ele>447</ele>
        <time>2011-11-05T14:32:44Z</time>
      </trkpt>
      <trkpt lat="62.8337119427" lon="14.4190529175">
        <ele>442</ele>
        <time>2011-11-05T14:32:45Z</time>
      </trkpt>
      <trkpt lat="62.8337179776" lon="14.4190349802">
        <ele>443</ele>
        <time>2011-11-05T14:32:46Z</time>
      </trkpt>
      <trkpt lat="62.8337219171" lon="14.4190259278">
        <ele>442</ele>
        <time>2011-11-05T14:32:47Z</time>
      </trkpt>
      <trkpt lat="62.8337239288" lon="14.4190159533">
        <ele>442</ele>
        <time>2011-11-05T14:32:48Z</time>
      </trkpt>
      <trkpt lat="62.8337259404" lon="14.4190019555">
        <ele>442</ele>
        <time>2011-11-05T14:32:49Z</time>
      </trkpt>
      <trkpt lat="62.8337339871" lon="14.4189919811">
        <ele>442</ele>
        <time>2011-11-05T14:32:50Z</time>
      </trkpt>
      <trkpt lat="62.8337319754" lon="14.4189729542">
        <ele>439</ele>
        <time>2011-11-05T14:32:51Z</time>
      </trkpt>
      <trkpt lat="62.8337339871" lon="14.4189579505">
        <ele>441</ele>
        <time>2011-11-05T14:32:52Z</time>
      </trkpt>
      <trkpt lat="62.8337329812" lon="14.4189329725">
        <ele>440</ele>
        <time>2011-11-05T14:32:53Z</time>
      </trkpt>
      <trkpt lat="62.8337349929" lon="14.4189209864">
        <ele>440</ele>
        <time>2011-11-05T14:32:54Z</time>
      </trkpt>
      <trkpt lat="62.8337359987" lon="14.4189079944">
        <ele>439</ele>
        <time>2011-11-05T14:32:55Z</time>
      </trkpt>
      <trkpt lat="62.8337349929" lon="14.4188979361">
        <ele>438</ele>
        <time>2011-11-05T14:32:56Z</time>
      </trkpt>
      <trkpt lat="62.8337329812" lon="14.418891985">
        <ele>437</ele>
        <time>2011-11-05T14:32:57Z</time>
      </trkpt>
      <trkpt lat="62.8337319754" lon="14.4188839383">
        <ele>436</ele>
        <time>2011-11-05T14:32:58Z</time>
      </trkpt>
      <trkpt lat="62.8337309696" lon="14.4188739639">
        <ele>436</ele>
        <time>2011-11-05T14:32:59Z</time>
      </trkpt>
      <trkpt lat="62.8337279521" lon="14.4188659173">
        <ele>433</ele>
        <time>2011-11-05T14:33:00Z</time>
      </trkpt>
      <trkpt lat="62.8337249346" lon="14.4188559428">
        <ele>434</ele>
        <time>2011-11-05T14:33:01Z</time>
      </trkpt>
      <trkpt lat="62.8337179776" lon="14.4188409392">
        <ele>435</ele>
        <time>2011-11-05T14:33:02Z</time>
      </trkpt>
      <trkpt lat="62.8337129485" lon="14.4188389275">
        <ele>437</ele>
        <time>2011-11-05T14:33:03Z</time>
      </trkpt>
      <trkpt lat="62.8337089252" lon="14.4188399334">
        <ele>437</ele>
        <time>2011-11-05T14:33:04Z</time>
      </trkpt>
      <trkpt lat="62.8337069973" lon="14.4188369997">
        <ele>438</ele>
        <time>2011-11-05T14:33:05Z</time>
      </trkpt>
      <trkpt lat="62.8337059915" lon="14.4188309647">
        <ele>439</ele>
        <time>2011-11-05T14:33:06Z</time>
      </trkpt>
      <trkpt lat="62.8337059915" lon="14.4188309647">
        <ele>438</ele>
        <time>2011-11-05T14:33:07Z</time>
      </trkpt>
      <trkpt lat="62.8337059915" lon="14.4188309647">
        <ele>436</ele>
        <time>2011-11-05T14:33:08Z</time>
      </trkpt>
      <trkpt lat="62.8337059915" lon="14.4188309647">
        <ele>437</ele>
        <time>2011-11-05T14:33:09Z</time>
      </trkpt>
      <trkpt lat="62.8337049857" lon="14.4188399334">
        <ele>437</ele>
        <time>2011-11-05T14:33:10Z</time>
      </trkpt>
      <trkpt lat="62.8336999565" lon="14.4188359939">
        <ele>437</ele>
        <time>2011-11-05T14:33:11Z</time>
      </trkpt>
      <trkpt lat="62.8336959332" lon="14.4188269414">
        <ele>437</ele>
        <time>2011-11-05T14:33:12Z</time>
      </trkpt>
      <trkpt lat="62.8336909879" lon="14.4188279472">
        <ele>438</ele>
        <time>2011-11-05T14:33:13Z</time>
      </trkpt>
      <trkpt lat="62.8336919937" lon="14.4188259356">
        <ele>439</ele>
        <time>2011-11-05T14:33:14Z</time>
      </trkpt>
      <trkpt lat="62.8336909879" lon="14.4188289531">
        <ele>438</ele>
        <time>2011-11-05T14:33:15Z</time>
      </trkpt>
      <trkpt lat="62.8336869646" lon="14.4188309647">
        <ele>439</ele>
        <time>2011-11-05T14:33:16Z</time>
      </trkpt>
      <trkpt lat="62.8336829413" lon="14.4188399334">
        <ele>439</ele>
        <time>2011-11-05T14:33:17Z</time>
      </trkpt>
      <trkpt lat="62.833678918" lon="14.4188459683">
        <ele>437</ele>
        <time>2011-11-05T14:33:18Z</time>
      </trkpt>
      <trkpt lat="62.8336779959" lon="14.4188519195">
        <ele>438</ele>
        <time>2011-11-05T14:33:19Z</time>
      </trkpt>
      <trkpt lat="62.8336769901" lon="14.4188589603">
        <ele>440</ele>
        <time>2011-11-05T14:33:20Z</time>
      </trkpt>
      <trkpt lat="62.8336799238" lon="14.4188569486">
        <ele>439</ele>
        <time>2011-11-05T14:33:21Z</time>
      </trkpt>
      <trkpt lat="62.8336839471" lon="14.4188579544">
        <ele>439</ele>
        <time>2011-11-05T14:33:22Z</time>
      </trkpt>
      <trkpt lat="62.8336899821" lon="14.4188629836">
        <ele>440</ele>
        <time>2011-11-05T14:33:23Z</time>
      </trkpt>
      <trkpt lat="62.8336929996" lon="14.4188629836">
        <ele>438</ele>
        <time>2011-11-05T14:33:24Z</time>
      </trkpt>
      <trkpt lat="62.8336949274" lon="14.4188629836">
        <ele>438</ele>
        <time>2011-11-05T14:33:25Z</time>
      </trkpt>
      <trkpt lat="62.8336949274" lon="14.4188629836">
        <ele>437</ele>
        <time>2011-11-05T14:33:26Z</time>
      </trkpt>
      <trkpt lat="62.8336949274" lon="14.4188639894">
        <ele>436</ele>
        <time>2011-11-05T14:33:27Z</time>
      </trkpt>
      <trkpt lat="62.8336949274" lon="14.4188639894">
        <ele>435</ele>
        <time>2011-11-05T14:33:28Z</time>
      </trkpt>
      <trkpt lat="62.8336919937" lon="14.4188569486">
        <ele>436</ele>
        <time>2011-11-05T14:33:29Z</time>
      </trkpt>
      <trkpt lat="62.8336919937" lon="14.4188569486">
        <ele>434</ele>
        <time>2011-11-05T14:33:30Z</time>
      </trkpt>
      <trkpt lat="62.8336919937" lon="14.4188569486">
        <ele>435</ele>
        <time>2011-11-05T14:33:31Z</time>
      </trkpt>
      <trkpt lat="62.8336919937" lon="14.4188569486">
        <ele>438</ele>
        <time>2011-11-05T14:33:32Z</time>
      </trkpt>
      <trkpt lat="62.8336919937" lon="14.4188569486">
        <ele>438</ele>
        <time>2011-11-05T14:33:33Z</time>
      </trkpt>
      <trkpt lat="62.8336919937" lon="14.4188569486">
        <ele>437</ele>
        <time>2011-11-05T14:33:34Z</time>
      </trkpt>
      <trkpt lat="62.8336949274" lon="14.4188609719">
        <ele>435</ele>
        <time>2011-11-05T14:33:35Z</time>
      </trkpt>
      <trkpt lat="62.8336889762" lon="14.4188699406">
        <ele>435</ele>
        <time>2011-11-05T14:33:36Z</time>
      </trkpt>
      <trkpt lat="62.8336839471" lon="14.4188699406">
        <ele>432</ele>
        <time>2011-11-05T14:33:37Z</time>
      </trkpt>
      <trkpt lat="62.8336839471" lon="14.4188699406">
        <ele>434</ele>
        <time>2011-11-05T14:33:38Z</time>
      </trkpt>
      <trkpt lat="62.8336829413" lon="14.4188689347">
        <ele>436</ele>
        <time>2011-11-05T14:33:39Z</time>
      </trkpt>
      <trkpt lat="62.833678918" lon="14.4188719522">
        <ele>438</ele>
        <time>2011-11-05T14:33:40Z</time>
      </trkpt>
      <trkpt lat="62.8336749785" lon="14.4188799988">
        <ele>438</ele>
        <time>2011-11-05T14:33:41Z</time>
      </trkpt>
      <trkpt lat="62.8336749785" lon="14.4188799988">
        <ele>441</ele>
        <time>2011-11-05T14:33:42Z</time>
      </trkpt>
      <trkpt lat="62.8336689435" lon="14.4188909791">
        <ele>441</ele>
        <time>2011-11-05T14:33:43Z</time>
      </trkpt>
      <trkpt lat="62.8336669318" lon="14.4188949186">
        <ele>442</ele>
        <time>2011-11-05T14:33:44Z</time>
      </trkpt>
      <trkpt lat="62.8336629923" lon="14.4188969303">
        <ele>443</ele>
        <time>2011-11-05T14:33:45Z</time>
      </trkpt>
      <trkpt lat="62.8336599749" lon="14.4188929908">
        <ele>442</ele>
        <time>2011-11-05T14:33:46Z</time>
      </trkpt>
      <trkpt lat="62.833658969" lon="14.4188939966">
        <ele>441</ele>
        <time>2011-11-05T14:33:47Z</time>
      </trkpt>
      <trkpt lat="62.833658969" lon="14.4188939966">
        <ele>441</ele>
        <time>2011-11-05T14:33:48Z</time>
      </trkpt>
      <trkpt lat="62.833658969" lon="14.4188939966">
        <ele>442</ele>
        <time>2011-11-05T14:33:49Z</time>
      </trkpt>
      <trkpt lat="62.8336579632" lon="14.4188929908">
        <ele>441</ele>
        <time>2011-11-05T14:33:50Z</time>
      </trkpt>
      <trkpt lat="62.8336579632" lon="14.418891985">
        <ele>441</ele>
        <time>2011-11-05T14:33:51Z</time>
      </trkpt>
      <trkpt lat="62.8336579632" lon="14.4188909791">
        <ele>442</ele>
        <time>2011-11-05T14:33:52Z</time>
      </trkpt>
      <trkpt lat="62.8336569574" lon="14.4188889675">
        <ele>443</ele>
        <time>2011-11-05T14:33:53Z</time>
      </trkpt>
      <trkpt lat="62.8336539399" lon="14.4188869558">
        <ele>440</ele>
        <time>2011-11-05T14:33:54Z</time>
      </trkpt>
      <trkpt lat="62.8336449713" lon="14.4188869558">
        <ele>445</ele>
        <time>2011-11-05T14:33:55Z</time>
      </trkpt>
      <trkpt lat="62.8336359188" lon="14.4188869558">
        <ele>444</ele>
        <time>2011-11-05T14:33:56Z</time>
      </trkpt>
      <trkpt lat="62.833620999" lon="14.418878993">
        <ele>444</ele>
        <time>2011-11-05T14:33:57Z</time>
      </trkpt>
      <trkpt lat="62.8336139582" lon="14.4188759755">
        <ele>444</ele>
        <time>2011-11-05T14:33:58Z</time>
      </trkpt>
      <trkpt lat="62.8336139582" lon="14.4188759755">
        <ele>445</ele>
        <time>2011-11-05T14:33:59Z</time>
      </trkpt>
      <trkpt lat="62.8336139582" lon="14.4188759755">
        <ele>445</ele>
        <time>2011-11-05T14:34:00Z</time>
      </trkpt>
      <trkpt lat="62.8336139582" lon="14.4188759755">
        <ele>444</ele>
        <time>2011-11-05T14:34:01Z</time>
      </trkpt>
      <trkpt lat="62.8336139582" lon="14.4188759755">
        <ele>444</ele>
        <time>2011-11-05T14:34:02Z</time>
      </trkpt>
      <trkpt lat="62.8336069174" lon="14.418878993">
        <ele>441</ele>
        <time>2011-11-05T14:34:03Z</time>
      </trkpt>
      <trkpt lat="62.8336029779" lon="14.4188739639">
        <ele>444</ele>
        <time>2011-11-05T14:34:04Z</time>
      </trkpt>
      <trkpt lat="62.8336009663" lon="14.4188759755">
        <ele>445</ele>
        <time>2011-11-05T14:34:05Z</time>
      </trkpt>
      <trkpt lat="62.8335789219" lon="14.4188619778">
        <ele>445</ele>
        <time>2011-11-05T14:34:06Z</time>
      </trkpt>
      <trkpt lat="62.8335729707" lon="14.4188509975">
        <ele>444</ele>
        <time>2011-11-05T14:34:07Z</time>
      </trkpt>
      <trkpt lat="62.8335719649" lon="14.4188429508">
        <ele>445</ele>
        <time>2011-11-05T14:34:08Z</time>
      </trkpt>
      <trkpt lat="62.8335699532" lon="14.4188449625">
        <ele>449</ele>
        <time>2011-11-05T14:34:09Z</time>
      </trkpt>
      <trkpt lat="62.8335629962" lon="14.418841945">
        <ele>449</ele>
        <time>2011-11-05T14:34:10Z</time>
      </trkpt>
      <trkpt lat="62.8335519321" lon="14.418834988">
        <ele>449</ele>
        <time>2011-11-05T14:34:11Z</time>
      </trkpt>
      <trkpt lat="62.8335519321" lon="14.418834988">
        <ele>446</ele>
        <time>2011-11-05T14:34:12Z</time>
      </trkpt>
      <trkpt lat="62.8335519321" lon="14.418834988">
        <ele>445</ele>
        <time>2011-11-05T14:34:13Z</time>
      </trkpt>
      <trkpt lat="62.8335519321" lon="14.418834988">
        <ele>443</ele>
        <time>2011-11-05T14:34:14Z</time>
      </trkpt>
      <trkpt lat="62.8335509263" lon="14.4188359939">
        <ele>443</ele>
        <time>2011-11-05T14:34:15Z</time>
      </trkpt>
      <trkpt lat="62.8335499205" lon="14.4188389275">
        <ele>443</ele>
        <time>2011-11-05T14:34:16Z</time>
      </trkpt>
      <trkpt lat="62.833545981" lon="14.4188409392">
        <ele>445</ele>
        <time>2011-11-05T14:34:17Z</time>
      </trkpt>
      <trkpt lat="62.8335359227" lon="14.4188439567">
        <ele>442</ele>
        <time>2011-11-05T14:34:18Z</time>
      </trkpt>
      <trkpt lat="62.8335339949" lon="14.4188469741">
        <ele>442</ele>
        <time>2011-11-05T14:34:19Z</time>
      </trkpt>
      <trkpt lat="62.833532989" lon="14.4188509975">
        <ele>439</ele>
        <time>2011-11-05T14:34:20Z</time>
      </trkpt>
      <trkpt lat="62.8335319832" lon="14.4188519195">
        <ele>442</ele>
        <time>2011-11-05T14:34:21Z</time>
      </trkpt>
      <trkpt lat="62.8335309774" lon="14.4188539311">
        <ele>442</ele>
        <time>2011-11-05T14:34:22Z</time>
      </trkpt>
      <trkpt lat="62.8335289657" lon="14.4188649952">
        <ele>439</ele>
        <time>2011-11-05T14:34:23Z</time>
      </trkpt>
      <trkpt lat="62.8335279599" lon="14.4188749697">
        <ele>436</ele>
        <time>2011-11-05T14:34:24Z</time>
      </trkpt>
      <trkpt lat="62.8335269541" lon="14.418878993">
        <ele>439</ele>
        <time>2011-11-05T14:34:25Z</time>
      </trkpt>
      <trkpt lat="62.8335269541" lon="14.418878993">
        <ele>442</ele>
        <time>2011-11-05T14:34:26Z</time>
      </trkpt>
      <trkpt lat="62.8335259482" lon="14.418878993">
        <ele>442</ele>
        <time>2011-11-05T14:34:27Z</time>
      </trkpt>
      <trkpt lat="62.8335239366" lon="14.4188799988">
        <ele>439</ele>
        <time>2011-11-05T14:34:28Z</time>
      </trkpt>
      <trkpt lat="62.8335219249" lon="14.4188799988">
        <ele>438</ele>
        <time>2011-11-05T14:34:29Z</time>
      </trkpt>
      <trkpt lat="62.8335179854" lon="14.418878993">
        <ele>438</ele>
        <time>2011-11-05T14:34:30Z</time>
      </trkpt>
      <trkpt lat="62.8335139621" lon="14.4188759755">
        <ele>436</ele>
        <time>2011-11-05T14:34:31Z</time>
      </trkpt>
      <trkpt lat="62.8335119504" lon="14.4188689347">
        <ele>434</ele>
        <time>2011-11-05T14:34:32Z</time>
      </trkpt>
      <trkpt lat="62.8335119504" lon="14.4188689347">
        <ele>432</ele>
        <time>2011-11-05T14:34:33Z</time>
      </trkpt>
      <trkpt lat="62.8335109446" lon="14.4188669231">
        <ele>434</ele>
        <time>2011-11-05T14:34:34Z</time>
      </trkpt>
      <trkpt lat="62.8335059993" lon="14.4188529253">
        <ele>436</ele>
        <time>2011-11-05T14:34:35Z</time>
      </trkpt>
      <trkpt lat="62.8335059993" lon="14.4188529253">
        <ele>437</ele>
        <time>2011-11-05T14:34:36Z</time>
      </trkpt>
      <trkpt lat="62.8335049935" lon="14.4188499916">
        <ele>436</ele>
        <time>2011-11-05T14:34:37Z</time>
      </trkpt>
      <trkpt lat="62.8334859665" lon="14.4188179728">
        <ele>435</ele>
        <time>2011-11-05T14:34:38Z</time>
      </trkpt>
      <trkpt lat="62.8334739804" lon="14.41879794">
        <ele>435</ele>
        <time>2011-11-05T14:34:39Z</time>
      </trkpt>
      <trkpt lat="62.8334699571" lon="14.418790983">
        <ele>434</ele>
        <time>2011-11-05T14:34:40Z</time>
      </trkpt>
      <trkpt lat="62.8334639221" lon="14.4187789969">
        <ele>438</ele>
        <time>2011-11-05T14:34:41Z</time>
      </trkpt>
      <trkpt lat="62.8334619943" lon="14.4187729619">
        <ele>440</ele>
        <time>2011-11-05T14:34:42Z</time>
      </trkpt>
      <trkpt lat="62.8334619943" lon="14.4187729619">
        <ele>441</ele>
        <time>2011-11-05T14:34:43Z</time>
      </trkpt>
      <trkpt lat="62.8334619943" lon="14.4187729619">
        <ele>442</ele>
        <time>2011-11-05T14:34:44Z</time>
      </trkpt>
      <trkpt lat="62.8334599826" lon="14.418766927">
        <ele>437</ele>
        <time>2011-11-05T14:34:45Z</time>
      </trkpt>
      <trkpt lat="62.833457971" lon="14.4187609758">
        <ele>435</ele>
        <time>2011-11-05T14:34:46Z</time>
      </trkpt>
      <trkpt lat="62.8334589768" lon="14.4187609758">
        <ele>435</ele>
        <time>2011-11-05T14:34:47Z</time>
      </trkpt>
      <trkpt lat="62.8334589768" lon="14.4187609758">
        <ele>433</ele>
        <time>2011-11-05T14:34:48Z</time>
      </trkpt>
      <trkpt lat="62.8334619943" lon="14.4187609758">
        <ele>434</ele>
        <time>2011-11-05T14:34:49Z</time>
      </trkpt>
      <trkpt lat="62.8334659338" lon="14.4187559467">
        <ele>430</ele>
        <time>2011-11-05T14:34:50Z</time>
      </trkpt>
      <trkpt lat="62.8334659338" lon="14.4187559467">
        <ele>429</ele>
        <time>2011-11-05T14:34:51Z</time>
      </trkpt>
      <trkpt lat="62.8334669396" lon="14.418753935">
        <ele>429</ele>
        <time>2011-11-05T14:34:52Z</time>
      </trkpt>
      <trkpt lat="62.8334719688" lon="14.4187499955">
        <ele>429</ele>
        <time>2011-11-05T14:34:53Z</time>
      </trkpt>
      <trkpt lat="62.8334799316" lon="14.4187479839">
        <ele>429</ele>
        <time>2011-11-05T14:34:54Z</time>
      </trkpt>
      <trkpt lat="62.8334799316" lon="14.4187479839">
        <ele>431</ele>
        <time>2011-11-05T14:34:55Z</time>
      </trkpt>
      <trkpt lat="62.8334829491" lon="14.4187519234">
        <ele>431</ele>
        <time>2011-11-05T14:34:56Z</time>
      </trkpt>
      <trkpt lat="62.8334839549" lon="14.4187529292">
        <ele>432</ele>
        <time>2011-11-05T14:34:57Z</time>
      </trkpt>
      <trkpt lat="62.8334859665" lon="14.4187459722">
        <ele>433</ele>
        <time>2011-11-05T14:34:58Z</time>
      </trkpt>
      <trkpt lat="62.8334899899" lon="14.4187369198">
        <ele>435</ele>
        <time>2011-11-05T14:34:59Z</time>
      </trkpt>
      <trkpt lat="62.8334909957" lon="14.4187339861">
        <ele>436</ele>
        <time>2011-11-05T14:35:00Z</time>
      </trkpt>
      <trkpt lat="62.8334919177" lon="14.4187349919">
        <ele>436</ele>
        <time>2011-11-05T14:35:01Z</time>
      </trkpt>
      <trkpt lat="62.8334879782" lon="14.4187309686">
        <ele>435</ele>
        <time>2011-11-05T14:35:02Z</time>
      </trkpt>
      <trkpt lat="62.8334859665" lon="14.4187269453">
        <ele>438</ele>
        <time>2011-11-05T14:35:03Z</time>
      </trkpt>
      <trkpt lat="62.8334809374" lon="14.418722">
        <ele>440</ele>
        <time>2011-11-05T14:35:04Z</time>
      </trkpt>
      <trkpt lat="62.8334809374" lon="14.418722">
        <ele>438</ele>
        <time>2011-11-05T14:35:05Z</time>
      </trkpt>
      <trkpt lat="62.8334759921" lon="14.4187179767">
        <ele>437</ele>
        <time>2011-11-05T14:35:06Z</time>
      </trkpt>
      <trkpt lat="62.8334759921" lon="14.4187169708">
        <ele>435</ele>
        <time>2011-11-05T14:35:07Z</time>
      </trkpt>
      <trkpt lat="62.8334759921" lon="14.4187169708">
        <ele>430</ele>
        <time>2011-11-05T14:35:08Z</time>
      </trkpt>
      <trkpt lat="62.8334749863" lon="14.41870993">
        <ele>430</ele>
        <time>2011-11-05T14:35:09Z</time>
      </trkpt>
      <trkpt lat="62.8334759921" lon="14.4186929986">
        <ele>430</ele>
        <time>2011-11-05T14:35:10Z</time>
      </trkpt>
      <trkpt lat="62.8334759921" lon="14.4186669309">
        <ele>430</ele>
        <time>2011-11-05T14:35:11Z</time>
      </trkpt>
      <trkpt lat="62.8334769979" lon="14.4186569564">
        <ele>429</ele>
        <time>2011-11-05T14:35:12Z</time>
      </trkpt>
      <trkpt lat="62.8334829491" lon="14.4186489936">
        <ele>431</ele>
        <time>2011-11-05T14:35:13Z</time>
      </trkpt>
      <trkpt lat="62.8334839549" lon="14.4186269492">
        <ele>431</ele>
        <time>2011-11-05T14:35:14Z</time>
      </trkpt>
      <trkpt lat="62.8334989585" lon="14.4186259434">
        <ele>428</ele>
        <time>2011-11-05T14:35:15Z</time>
      </trkpt>
      <trkpt lat="62.8335059993" lon="14.4186069164">
        <ele>427</ele>
        <time>2011-11-05T14:35:16Z</time>
      </trkpt>
      <trkpt lat="62.8335059993" lon="14.4186069164">
        <ele>426</ele>
        <time>2011-11-05T14:35:17Z</time>
      </trkpt>
      <trkpt lat="62.833508933" lon="14.4186019711">
        <ele>426</ele>
        <time>2011-11-05T14:35:18Z</time>
      </trkpt>
      <trkpt lat="62.8335129563" lon="14.4185879733">
        <ele>424</ele>
        <time>2011-11-05T14:35:19Z</time>
      </trkpt>
      <trkpt lat="62.8335129563" lon="14.4185879733">
        <ele>427</ele>
        <time>2011-11-05T14:35:20Z</time>
      </trkpt>
      <trkpt lat="62.8335169796" lon="14.4185789209">
        <ele>430</ele>
        <time>2011-11-05T14:35:21Z</time>
      </trkpt>
      <trkpt lat="62.8335279599" lon="14.4185379334">
        <ele>431</ele>
        <time>2011-11-05T14:35:22Z</time>
      </trkpt>
      <trkpt lat="62.8335309774" lon="14.4185299706">
        <ele>433</ele>
        <time>2011-11-05T14:35:23Z</time>
      </trkpt>
      <trkpt lat="62.8335309774" lon="14.4185229298">
        <ele>433</ele>
        <time>2011-11-05T14:35:24Z</time>
      </trkpt>
      <trkpt lat="62.8335299715" lon="14.4185159728">
        <ele>432</ele>
        <time>2011-11-05T14:35:25Z</time>
      </trkpt>
      <trkpt lat="62.8335299715" lon="14.4185179844">
        <ele>432</ele>
        <time>2011-11-05T14:35:26Z</time>
      </trkpt>
      <trkpt lat="62.8335299715" lon="14.4185179844">
        <ele>431</ele>
        <time>2011-11-05T14:35:27Z</time>
      </trkpt>
      <trkpt lat="62.8335289657" lon="14.4185129553">
        <ele>431</ele>
        <time>2011-11-05T14:35:28Z</time>
      </trkpt>
      <trkpt lat="62.8335289657" lon="14.4185129553">
        <ele>431</ele>
        <time>2011-11-05T14:35:29Z</time>
      </trkpt>
      <trkpt lat="62.8335279599" lon="14.418501975">
        <ele>431</ele>
        <time>2011-11-05T14:35:30Z</time>
      </trkpt>
      <trkpt lat="62.8335289657" lon="14.41849594">
        <ele>429</ele>
        <time>2011-11-05T14:35:31Z</time>
      </trkpt>
      <trkpt lat="62.8335249424" lon="14.4184809364">
        <ele>428</ele>
        <time>2011-11-05T14:35:32Z</time>
      </trkpt>
      <trkpt lat="62.8335289657" lon="14.4184759911">
        <ele>426</ele>
        <time>2011-11-05T14:35:33Z</time>
      </trkpt>
      <trkpt lat="62.8335289657" lon="14.4184759911">
        <ele>425</ele>
        <time>2011-11-05T14:35:34Z</time>
      </trkpt>
      <trkpt lat="62.8335279599" lon="14.4184629992">
        <ele>423</ele>
        <time>2011-11-05T14:35:35Z</time>
      </trkpt>
      <trkpt lat="62.8335279599" lon="14.4184629992">
        <ele>419</ele>
        <time>2011-11-05T14:35:36Z</time>
      </trkpt>
      <trkpt lat="62.8335279599" lon="14.4184629992">
        <ele>417</ele>
        <time>2011-11-05T14:35:37Z</time>
      </trkpt>
      <trkpt lat="62.8335289657" lon="14.4184549525">
        <ele>417</ele>
        <time>2011-11-05T14:35:38Z</time>
      </trkpt>
      <trkpt lat="62.8335289657" lon="14.4184549525">
        <ele>417</ele>
        <time>2011-11-05T14:35:39Z</time>
      </trkpt>
      <trkpt lat="62.8335289657" lon="14.4184549525">
        <ele>416</ele>
        <time>2011-11-05T14:35:40Z</time>
      </trkpt>
      <trkpt lat="62.8335289657" lon="14.4184549525">
        <ele>418</ele>
        <time>2011-11-05T14:35:41Z</time>
      </trkpt>
      <trkpt lat="62.8335289657" lon="14.4184459839">
        <ele>420</ele>
        <time>2011-11-05T14:35:42Z</time>
      </trkpt>
      <trkpt lat="62.8335129563" lon="14.4184099417">
        <ele>422</ele>
        <time>2011-11-05T14:35:43Z</time>
      </trkpt>
      <trkpt lat="62.8335129563" lon="14.4184089359">
        <ele>423</ele>
        <time>2011-11-05T14:35:44Z</time>
      </trkpt>
      <trkpt lat="62.8335129563" lon="14.4184089359">
        <ele>425</ele>
        <time>2011-11-05T14:35:45Z</time>
      </trkpt>
      <trkpt lat="62.8335119504" lon="14.4184089359">
        <ele>426</ele>
        <time>2011-11-05T14:35:46Z</time>
      </trkpt>
      <trkpt lat="62.8335039876" lon="14.4184019789">
        <ele>426</ele>
        <time>2011-11-05T14:35:47Z</time>
      </trkpt>
      <trkpt lat="62.833501976" lon="14.4183919206">
        <ele>425</ele>
        <time>2011-11-05T14:35:48Z</time>
      </trkpt>
      <trkpt lat="62.8335039876" lon="14.4183879811">
        <ele>425</ele>
        <time>2011-11-05T14:35:49Z</time>
      </trkpt>
      <trkpt lat="62.8335049935" lon="14.4183789287">
        <ele>423</ele>
        <time>2011-11-05T14:35:50Z</time>
      </trkpt>
      <trkpt lat="62.8335069213" lon="14.4183659367">
        <ele>424</ele>
        <time>2011-11-05T14:35:51Z</time>
      </trkpt>
      <trkpt lat="62.8335039876" lon="14.418344982">
        <ele>422</ele>
        <time>2011-11-05T14:35:52Z</time>
      </trkpt>
      <trkpt lat="62.8335029818" lon="14.4183299784">
        <ele>425</ele>
        <time>2011-11-05T14:35:53Z</time>
      </trkpt>
      <trkpt lat="62.8335039876" lon="14.41833199">
        <ele>425</ele>
        <time>2011-11-05T14:35:54Z</time>
      </trkpt>
      <trkpt lat="62.833501976" lon="14.4183189981">
        <ele>424</ele>
        <time>2011-11-05T14:35:55Z</time>
      </trkpt>
      <trkpt lat="62.8334979527" lon="14.4182959478">
        <ele>425</ele>
        <time>2011-11-05T14:35:56Z</time>
      </trkpt>
      <trkpt lat="62.8335009702" lon="14.4183059223">
        <ele>424</ele>
        <time>2011-11-05T14:35:57Z</time>
      </trkpt>
      <trkpt lat="62.833501976" lon="14.4183089398">
        <ele>423</ele>
        <time>2011-11-05T14:35:58Z</time>
      </trkpt>
      <trkpt lat="62.833501976" lon="14.4183089398">
        <ele>423</ele>
        <time>2011-11-05T14:35:59Z</time>
      </trkpt>
      <trkpt lat="62.833501976" lon="14.4183089398">
        <ele>425</ele>
        <time>2011-11-05T14:36:00Z</time>
      </trkpt>
      <trkpt lat="62.833501976" lon="14.4183089398">
        <ele>425</ele>
        <time>2011-11-05T14:36:01Z</time>
      </trkpt>
      <trkpt lat="62.8335029818" lon="14.4183099456">
        <ele>425</ele>
        <time>2011-11-05T14:36:02Z</time>
      </trkpt>
      <trkpt lat="62.8335029818" lon="14.4183109514">
        <ele>422</ele>
        <time>2011-11-05T14:36:03Z</time>
      </trkpt>
      <trkpt lat="62.833501976" lon="14.4183139689">
        <ele>420</ele>
        <time>2011-11-05T14:36:04Z</time>
      </trkpt>
      <trkpt lat="62.833501976" lon="14.4183269609">
        <ele>419</ele>
        <time>2011-11-05T14:36:05Z</time>
      </trkpt>
      <trkpt lat="62.833501976" lon="14.41833199">
        <ele>422</ele>
        <time>2011-11-05T14:36:06Z</time>
      </trkpt>
      <trkpt lat="62.8335029818" lon="14.4183349237">
        <ele>422</ele>
        <time>2011-11-05T14:36:07Z</time>
      </trkpt>
      <trkpt lat="62.8335029818" lon="14.4183349237">
        <ele>422</ele>
        <time>2011-11-05T14:36:08Z</time>
      </trkpt>
      <trkpt lat="62.8335029818" lon="14.4183359295">
        <ele>421</ele>
        <time>2011-11-05T14:36:09Z</time>
      </trkpt>
      <trkpt lat="62.8335029818" lon="14.4183359295">
        <ele>421</ele>
        <time>2011-11-05T14:36:10Z</time>
      </trkpt>
      <trkpt lat="62.8335029818" lon="14.4183359295">
        <ele>420</ele>
        <time>2011-11-05T14:36:11Z</time>
      </trkpt>
      <trkpt lat="62.8335029818" lon="14.4183359295">
        <ele>422</ele>
        <time>2011-11-05T14:36:12Z</time>
      </trkpt>
      <trkpt lat="62.8334969468" lon="14.4183339179">
        <ele>421</ele>
        <time>2011-11-05T14:36:13Z</time>
      </trkpt>
      <trkpt lat="62.8334969468" lon="14.4183339179">
        <ele>424</ele>
        <time>2011-11-05T14:36:14Z</time>
      </trkpt>
      <trkpt lat="62.8334969468" lon="14.4183339179">
        <ele>426</ele>
        <time>2011-11-05T14:36:15Z</time>
      </trkpt>
      <trkpt lat="62.8334979527" lon="14.4183339179">
        <ele>427</ele>
        <time>2011-11-05T14:36:16Z</time>
      </trkpt>
      <trkpt lat="62.833501976" lon="14.4183349237">
        <ele>427</ele>
        <time>2011-11-05T14:36:17Z</time>
      </trkpt>
      <trkpt lat="62.8335039876" lon="14.4183359295">
        <ele>429</ele>
        <time>2011-11-05T14:36:18Z</time>
      </trkpt>
      <trkpt lat="62.8335099388" lon="14.4183329958">
        <ele>431</ele>
        <time>2011-11-05T14:36:19Z</time>
      </trkpt>
      <trkpt lat="62.8335119504" lon="14.4183299784">
        <ele>432</ele>
        <time>2011-11-05T14:36:20Z</time>
      </trkpt>
      <trkpt lat="62.8335119504" lon="14.4183299784">
        <ele>434</ele>
        <time>2011-11-05T14:36:21Z</time>
      </trkpt>
      <trkpt lat="62.8335119504" lon="14.4183299784">
        <ele>435</ele>
        <time>2011-11-05T14:36:22Z</time>
      </trkpt>
      <trkpt lat="62.8335119504" lon="14.4183299784">
        <ele>436</ele>
        <time>2011-11-05T14:36:23Z</time>
      </trkpt>
      <trkpt lat="62.8335129563" lon="14.4183279667">
        <ele>433</ele>
        <time>2011-11-05T14:36:24Z</time>
      </trkpt>
      <trkpt lat="62.8335179854" lon="14.4183149748">
        <ele>426</ele>
        <time>2011-11-05T14:36:25Z</time>
      </trkpt>
      <trkpt lat="62.8335249424" lon="14.4182989653">
        <ele>427</ele>
        <time>2011-11-05T14:36:26Z</time>
      </trkpt>
      <trkpt lat="62.8335269541" lon="14.4183039945">
        <ele>424</ele>
        <time>2011-11-05T14:36:27Z</time>
      </trkpt>
      <trkpt lat="62.8335249424" lon="14.4183069281">
        <ele>422</ele>
        <time>2011-11-05T14:36:28Z</time>
      </trkpt>
      <trkpt lat="62.8335249424" lon="14.4183069281">
        <ele>423</ele>
        <time>2011-11-05T14:36:29Z</time>
      </trkpt>
      <trkpt lat="62.8335249424" lon="14.4183069281">
        <ele>419</ele>
        <time>2011-11-05T14:36:30Z</time>
      </trkpt>
      <trkpt lat="62.8335249424" lon="14.4183069281">
        <ele>417</ele>
        <time>2011-11-05T14:36:31Z</time>
      </trkpt>
      <trkpt lat="62.8335249424" lon="14.4183069281">
        <ele>423</ele>
        <time>2011-11-05T14:36:32Z</time>
      </trkpt>
      <trkpt lat="62.8335249424" lon="14.4183069281">
        <ele>422</ele>
        <time>2011-11-05T14:36:33Z</time>
      </trkpt>
      <trkpt lat="62.8335249424" lon="14.4183069281">
        <ele>426</ele>
        <time>2011-11-05T14:36:34Z</time>
      </trkpt>
      <trkpt lat="62.8335249424" lon="14.4183069281">
        <ele>424</ele>
        <time>2011-11-05T14:36:35Z</time>
      </trkpt>
      <trkpt lat="62.8335249424" lon="14.4183059223">
        <ele>425</ele>
        <time>2011-11-05T14:36:36Z</time>
      </trkpt>
      <trkpt lat="62.8335249424" lon="14.4183039945">
        <ele>425</ele>
        <time>2011-11-05T14:36:37Z</time>
      </trkpt>
      <trkpt lat="62.8335249424" lon="14.418300977">
        <ele>425</ele>
        <time>2011-11-05T14:36:38Z</time>
      </trkpt>
      <trkpt lat="62.8335239366" lon="14.4182959478">
        <ele>425</ele>
        <time>2011-11-05T14:36:39Z</time>
      </trkpt>
      <trkpt lat="62.8335199971" lon="14.4182829559">
        <ele>425</ele>
        <time>2011-11-05T14:36:40Z</time>
      </trkpt>
      <trkpt lat="62.8335159738" lon="14.4182779267">
        <ele>423</ele>
        <time>2011-11-05T14:36:41Z</time>
      </trkpt>
      <trkpt lat="62.8335069213" lon="14.4182719756">
        <ele>423</ele>
        <time>2011-11-05T14:36:42Z</time>
      </trkpt>
      <trkpt lat="62.8334929235" lon="14.418256972">
        <ele>423</ele>
        <time>2011-11-05T14:36:43Z</time>
      </trkpt>
      <trkpt lat="62.8334879782" lon="14.4182489254">
        <ele>419</ele>
        <time>2011-11-05T14:36:44Z</time>
      </trkpt>
      <trkpt lat="62.8334869724" lon="14.4182459917">
        <ele>417</ele>
        <time>2011-11-05T14:36:45Z</time>
      </trkpt>
      <trkpt lat="62.8334739804" lon="14.4182239473">
        <ele>422</ele>
        <time>2011-11-05T14:36:46Z</time>
      </trkpt>
      <trkpt lat="62.8334739804" lon="14.4182239473">
        <ele>426</ele>
        <time>2011-11-05T14:36:47Z</time>
      </trkpt>
      <trkpt lat="62.8334709629" lon="14.4182169903">
        <ele>431</ele>
        <time>2011-11-05T14:36:48Z</time>
      </trkpt>
      <trkpt lat="62.8334709629" lon="14.4182169903">
        <ele>425</ele>
        <time>2011-11-05T14:36:49Z</time>
      </trkpt>
      <trkpt lat="62.8334719688" lon="14.4182179961">
        <ele>424</ele>
        <time>2011-11-05T14:36:50Z</time>
      </trkpt>
      <trkpt lat="62.8334759921" lon="14.4182219356">
        <ele>425</ele>
        <time>2011-11-05T14:36:51Z</time>
      </trkpt>
      <trkpt lat="62.8334799316" lon="14.4182239473">
        <ele>425</ele>
        <time>2011-11-05T14:36:52Z</time>
      </trkpt>
      <trkpt lat="62.8334879782" lon="14.4182209298">
        <ele>423</ele>
        <time>2011-11-05T14:36:53Z</time>
      </trkpt>
      <trkpt lat="62.8334979527" lon="14.4182159845">
        <ele>418</ele>
        <time>2011-11-05T14:36:54Z</time>
      </trkpt>
      <trkpt lat="62.8335099388" lon="14.4182169903">
        <ele>418</ele>
        <time>2011-11-05T14:36:55Z</time>
      </trkpt>
      <trkpt lat="62.8335199971" lon="14.4182179961">
        <ele>419</ele>
        <time>2011-11-05T14:36:56Z</time>
      </trkpt>
      <trkpt lat="62.8335289657" lon="14.4182209298">
        <ele>421</ele>
        <time>2011-11-05T14:36:57Z</time>
      </trkpt>
      <trkpt lat="62.8335299715" lon="14.4182189181">
        <ele>420</ele>
        <time>2011-11-05T14:36:58Z</time>
      </trkpt>
      <trkpt lat="62.8335289657" lon="14.4182149787">
        <ele>422</ele>
        <time>2011-11-05T14:36:59Z</time>
      </trkpt>
      <trkpt lat="62.8335299715" lon="14.4182149787">
        <ele>422</ele>
        <time>2011-11-05T14:37:00Z</time>
      </trkpt>
      <trkpt lat="62.8335269541" lon="14.4182139728">
        <ele>423</ele>
        <time>2011-11-05T14:37:01Z</time>
      </trkpt>
      <trkpt lat="62.8335269541" lon="14.4182139728">
        <ele>423</ele>
        <time>2011-11-05T14:37:02Z</time>
      </trkpt>
      <trkpt lat="62.8335269541" lon="14.4182139728">
        <ele>422</ele>
        <time>2011-11-05T14:37:03Z</time>
      </trkpt>
      <trkpt lat="62.8335269541" lon="14.4182119612">
        <ele>423</ele>
        <time>2011-11-05T14:37:04Z</time>
      </trkpt>
      <trkpt lat="62.8335339949" lon="14.418212967">
        <ele>424</ele>
        <time>2011-11-05T14:37:05Z</time>
      </trkpt>
      <trkpt lat="62.8335379343" lon="14.4182149787">
        <ele>422</ele>
        <time>2011-11-05T14:37:06Z</time>
      </trkpt>
      <trkpt lat="62.8335379343" lon="14.4182149787">
        <ele>423</ele>
        <time>2011-11-05T14:37:07Z</time>
      </trkpt>
      <trkpt lat="62.833545981" lon="14.4182149787">
        <ele>420</ele>
        <time>2011-11-05T14:37:08Z</time>
      </trkpt>
      <trkpt lat="62.8335469868" lon="14.4181959517">
        <ele>422</ele>
        <time>2011-11-05T14:37:09Z</time>
      </trkpt>
      <trkpt lat="62.8335469868" lon="14.4181889948">
        <ele>421</ele>
        <time>2011-11-05T14:37:10Z</time>
      </trkpt>
      <trkpt lat="62.8335489985" lon="14.418181954">
        <ele>421</ele>
        <time>2011-11-05T14:37:11Z</time>
      </trkpt>
      <trkpt lat="62.8335489985" lon="14.4181789365">
        <ele>420</ele>
        <time>2011-11-05T14:37:12Z</time>
      </trkpt>
      <trkpt lat="62.8335489985" lon="14.418174997">
        <ele>422</ele>
        <time>2011-11-05T14:37:13Z</time>
      </trkpt>
      <trkpt lat="62.8335499205" lon="14.4181769248">
        <ele>421</ele>
        <time>2011-11-05T14:37:14Z</time>
      </trkpt>
      <trkpt lat="62.833552938" lon="14.4181709737">
        <ele>421</ele>
        <time>2011-11-05T14:37:15Z</time>
      </trkpt>
      <trkpt lat="62.8335509263" lon="14.418162927">
        <ele>417</ele>
        <time>2011-11-05T14:37:16Z</time>
      </trkpt>
      <trkpt lat="62.8335519321" lon="14.4181599934">
        <ele>415</ele>
        <time>2011-11-05T14:37:17Z</time>
      </trkpt>
      <trkpt lat="62.8335519321" lon="14.418137949">
        <ele>417</ele>
        <time>2011-11-05T14:37:18Z</time>
      </trkpt>
      <trkpt lat="62.8335509263" lon="14.418137949">
        <ele>414</ele>
        <time>2011-11-05T14:37:19Z</time>
      </trkpt>
      <trkpt lat="62.8335509263" lon="14.418137949">
        <ele>415</ele>
        <time>2011-11-05T14:37:20Z</time>
      </trkpt>
      <trkpt lat="62.8335509263" lon="14.4181369431">
        <ele>412</ele>
        <time>2011-11-05T14:37:21Z</time>
      </trkpt>
      <trkpt lat="62.8335479926" lon="14.4181229454">
        <ele>414</ele>
        <time>2011-11-05T14:37:22Z</time>
      </trkpt>
      <trkpt lat="62.833545981" lon="14.4181109592">
        <ele>415</ele>
        <time>2011-11-05T14:37:23Z</time>
      </trkpt>
      <trkpt lat="62.833545981" lon="14.4181109592">
        <ele>413</ele>
        <time>2011-11-05T14:37:24Z</time>
      </trkpt>
      <trkpt lat="62.8335439693" lon="14.4180949498">
        <ele>416</ele>
        <time>2011-11-05T14:37:25Z</time>
      </trkpt>
      <trkpt lat="62.8335439693" lon="14.4180839695">
        <ele>416</ele>
        <time>2011-11-05T14:37:26Z</time>
      </trkpt>
      <trkpt lat="62.8335439693" lon="14.4180839695">
        <ele>416</ele>
        <time>2011-11-05T14:37:27Z</time>
      </trkpt>
      <trkpt lat="62.8335479926" lon="14.418074917">
        <ele>418</ele>
        <time>2011-11-05T14:37:28Z</time>
      </trkpt>
      <trkpt lat="62.8335489985" lon="14.4180609193">
        <ele>420</ele>
        <time>2011-11-05T14:37:29Z</time>
      </trkpt>
      <trkpt lat="62.833545981" lon="14.4180489331">
        <ele>421</ele>
        <time>2011-11-05T14:37:30Z</time>
      </trkpt>
      <trkpt lat="62.833539946" lon="14.4180389587">
        <ele>421</ele>
        <time>2011-11-05T14:37:31Z</time>
      </trkpt>
      <trkpt lat="62.8335349169" lon="14.4180309959">
        <ele>420</ele>
        <time>2011-11-05T14:37:32Z</time>
      </trkpt>
      <trkpt lat="62.8335349169" lon="14.4180239551">
        <ele>421</ele>
        <time>2011-11-05T14:37:33Z</time>
      </trkpt>
      <trkpt lat="62.8335359227" lon="14.4180149864">
        <ele>422</ele>
        <time>2011-11-05T14:37:34Z</time>
      </trkpt>
      <trkpt lat="62.8335299715" lon="14.4180039223">
        <ele>423</ele>
        <time>2011-11-05T14:37:35Z</time>
      </trkpt>
      <trkpt lat="62.8335299715" lon="14.417992942">
        <ele>427</ele>
        <time>2011-11-05T14:37:36Z</time>
      </trkpt>
      <trkpt lat="62.8335289657" lon="14.4179699756">
        <ele>425</ele>
        <time>2011-11-05T14:37:37Z</time>
      </trkpt>
      <trkpt lat="62.8335289657" lon="14.4179529604">
        <ele>424</ele>
        <time>2011-11-05T14:37:38Z</time>
      </trkpt>
      <trkpt lat="62.8335289657" lon="14.4179529604">
        <ele>423</ele>
        <time>2011-11-05T14:37:39Z</time>
      </trkpt>
      <trkpt lat="62.8335289657" lon="14.4179529604">
        <ele>423</ele>
        <time>2011-11-05T14:37:40Z</time>
      </trkpt>
      <trkpt lat="62.8335289657" lon="14.4179459196">
        <ele>423</ele>
        <time>2011-11-05T14:37:41Z</time>
      </trkpt>
      <trkpt lat="62.8335299715" lon="14.4179449975">
        <ele>424</ele>
        <time>2011-11-05T14:37:42Z</time>
      </trkpt>
      <trkpt lat="62.8335299715" lon="14.4179449975">
        <ele>425</ele>
        <time>2011-11-05T14:37:43Z</time>
      </trkpt>
      <trkpt lat="62.8335309774" lon="14.4179459196">
        <ele>426</ele>
        <time>2011-11-05T14:37:44Z</time>
      </trkpt>
      <trkpt lat="62.8335369285" lon="14.4179379568">
        <ele>422</ele>
        <time>2011-11-05T14:37:45Z</time>
      </trkpt>
      <trkpt lat="62.8335369285" lon="14.4179379568">
        <ele>416</ele>
        <time>2011-11-05T14:37:46Z</time>
      </trkpt>
      <trkpt lat="62.833545981" lon="14.4179309998">
        <ele>416</ele>
        <time>2011-11-05T14:37:47Z</time>
      </trkpt>
      <trkpt lat="62.8335499205" lon="14.4179259706">
        <ele>417</ele>
        <time>2011-11-05T14:37:48Z</time>
      </trkpt>
      <trkpt lat="62.8335559554" lon="14.4179139845">
        <ele>417</ele>
        <time>2011-11-05T14:37:49Z</time>
      </trkpt>
      <trkpt lat="62.8335629962" lon="14.4179119729">
        <ele>414</ele>
        <time>2011-11-05T14:37:50Z</time>
      </trkpt>
      <trkpt lat="62.8335649241" lon="14.4179119729">
        <ele>413</ele>
        <time>2011-11-05T14:37:51Z</time>
      </trkpt>
      <trkpt lat="62.833570959" lon="14.4179129787">
        <ele>413</ele>
        <time>2011-11-05T14:37:52Z</time>
      </trkpt>
      <trkpt lat="62.833570959" lon="14.4179129787">
        <ele>415</ele>
        <time>2011-11-05T14:37:53Z</time>
      </trkpt>
      <trkpt lat="62.833570959" lon="14.4179129787">
        <ele>416</ele>
        <time>2011-11-05T14:37:54Z</time>
      </trkpt>
      <trkpt lat="62.833570959" lon="14.4179149903">
        <ele>417</ele>
        <time>2011-11-05T14:37:55Z</time>
      </trkpt>
      <trkpt lat="62.833570959" lon="14.4179149903">
        <ele>418</ele>
        <time>2011-11-05T14:37:56Z</time>
      </trkpt>
      <trkpt lat="62.833570959" lon="14.4179159962">
        <ele>418</ele>
        <time>2011-11-05T14:37:57Z</time>
      </trkpt>
      <trkpt lat="62.8335669357" lon="14.4179299939">
        <ele>420</ele>
        <time>2011-11-05T14:37:58Z</time>
      </trkpt>
      <trkpt lat="62.8335579671" lon="14.4179589953">
        <ele>421</ele>
        <time>2011-11-05T14:37:59Z</time>
      </trkpt>
      <trkpt lat="62.8335549496" lon="14.4179659523">
        <ele>421</ele>
        <time>2011-11-05T14:38:00Z</time>
      </trkpt>
      <trkpt lat="62.8335559554" lon="14.4179719873">
        <ele>420</ele>
        <time>2011-11-05T14:38:01Z</time>
      </trkpt>
      <trkpt lat="62.8335549496" lon="14.4179809559">
        <ele>419</ele>
        <time>2011-11-05T14:38:02Z</time>
      </trkpt>
      <trkpt lat="62.8335549496" lon="14.4179809559">
        <ele>420</ele>
        <time>2011-11-05T14:38:03Z</time>
      </trkpt>
      <trkpt lat="62.8335549496" lon="14.4179809559">
        <ele>421</ele>
        <time>2011-11-05T14:38:04Z</time>
      </trkpt>
      <trkpt lat="62.8335559554" lon="14.4179799501">
        <ele>423</ele>
        <time>2011-11-05T14:38:05Z</time>
      </trkpt>
      <trkpt lat="62.8335579671" lon="14.4179769326">
        <ele>426</ele>
        <time>2011-11-05T14:38:06Z</time>
      </trkpt>
      <trkpt lat="62.8335579671" lon="14.4179769326">
        <ele>426</ele>
        <time>2011-11-05T14:38:07Z</time>
      </trkpt>
      <trkpt lat="62.8335579671" lon="14.4179769326">
        <ele>428</ele>
        <time>2011-11-05T14:38:08Z</time>
      </trkpt>
      <trkpt lat="62.8335579671" lon="14.4179769326">
        <ele>430</ele>
        <time>2011-11-05T14:38:09Z</time>
      </trkpt>
      <trkpt lat="62.8335579671" lon="14.4179769326">
        <ele>430</ele>
        <time>2011-11-05T14:38:10Z</time>
      </trkpt>
      <trkpt lat="62.8335579671" lon="14.4179769326">
        <ele>431</ele>
        <time>2011-11-05T14:38:11Z</time>
      </trkpt>
      <trkpt lat="62.8335619904" lon="14.4179719873">
        <ele>430</ele>
        <time>2011-11-05T14:38:12Z</time>
      </trkpt>
      <trkpt lat="62.8335699532" lon="14.4179759268">
        <ele>431</ele>
        <time>2011-11-05T14:38:13Z</time>
      </trkpt>
      <trkpt lat="62.8335799277" lon="14.4179809559">
        <ele>426</ele>
        <time>2011-11-05T14:38:14Z</time>
      </trkpt>
      <trkpt lat="62.8335869685" lon="14.4179719873">
        <ele>419</ele>
        <time>2011-11-05T14:38:15Z</time>
      </trkpt>
      <trkpt lat="62.8335929196" lon="14.4179609232">
        <ele>418</ele>
        <time>2011-11-05T14:38:16Z</time>
      </trkpt>
      <trkpt lat="62.8335989546" lon="14.417948937">
        <ele>418</ele>
        <time>2011-11-05T14:38:17Z</time>
      </trkpt>
      <trkpt lat="62.8336059954" lon="14.4179329276">
        <ele>419</ele>
        <time>2011-11-05T14:38:18Z</time>
      </trkpt>
      <trkpt lat="62.8336129524" lon="14.4179289881">
        <ele>418</ele>
        <time>2011-11-05T14:38:19Z</time>
      </trkpt>
      <trkpt lat="62.8336129524" lon="14.417923959">
        <ele>422</ele>
        <time>2011-11-05T14:38:20Z</time>
      </trkpt>
      <trkpt lat="62.8336129524" lon="14.417923959">
        <ele>418</ele>
        <time>2011-11-05T14:38:21Z</time>
      </trkpt>
      <trkpt lat="62.8336109407" lon="14.4179159962">
        <ele>418</ele>
        <time>2011-11-05T14:38:22Z</time>
      </trkpt>
      <trkpt lat="62.8336099349" lon="14.4179099612">
        <ele>417</ele>
        <time>2011-11-05T14:38:23Z</time>
      </trkpt>
      <trkpt lat="62.8336089291" lon="14.4178979751">
        <ele>413</ele>
        <time>2011-11-05T14:38:24Z</time>
      </trkpt>
      <trkpt lat="62.8336089291" lon="14.4178979751">
        <ele>411</ele>
        <time>2011-11-05T14:38:25Z</time>
      </trkpt>
      <trkpt lat="62.8336089291" lon="14.4178969692">
        <ele>409</ele>
        <time>2011-11-05T14:38:26Z</time>
      </trkpt>
      <trkpt lat="62.8336089291" lon="14.4178969692">
        <ele>408</ele>
        <time>2011-11-05T14:38:27Z</time>
      </trkpt>
      <trkpt lat="62.8336089291" lon="14.4178969692">
        <ele>406</ele>
        <time>2011-11-05T14:38:28Z</time>
      </trkpt>
      <trkpt lat="62.8336089291" lon="14.4178969692">
        <ele>407</ele>
        <time>2011-11-05T14:38:29Z</time>
      </trkpt>
      <trkpt lat="62.8336089291" lon="14.4178979751">
        <ele>410</ele>
        <time>2011-11-05T14:38:30Z</time>
      </trkpt>
      <trkpt lat="62.8336089291" lon="14.4178999867">
        <ele>410</ele>
        <time>2011-11-05T14:38:31Z</time>
      </trkpt>
      <trkpt lat="62.8336089291" lon="14.4179019984">
        <ele>411</ele>
        <time>2011-11-05T14:38:32Z</time>
      </trkpt>
      <trkpt lat="62.8336089291" lon="14.4179019984">
        <ele>411</ele>
        <time>2011-11-05T14:38:33Z</time>
      </trkpt>
      <trkpt lat="62.8336089291" lon="14.4179029204">
        <ele>411</ele>
        <time>2011-11-05T14:38:34Z</time>
      </trkpt>
      <trkpt lat="62.8336089291" lon="14.4179039262">
        <ele>412</ele>
        <time>2011-11-05T14:38:35Z</time>
      </trkpt>
      <trkpt lat="62.8336189874" lon="14.4179139845">
        <ele>412</ele>
        <time>2011-11-05T14:38:36Z</time>
      </trkpt>
      <trkpt lat="62.8336189874" lon="14.4179139845">
        <ele>412</ele>
        <time>2011-11-05T14:38:37Z</time>
      </trkpt>
      <trkpt lat="62.833620999" lon="14.4179159962">
        <ele>414</ele>
        <time>2011-11-05T14:38:38Z</time>
      </trkpt>
      <trkpt lat="62.8336249385" lon="14.4179139845">
        <ele>416</ele>
        <time>2011-11-05T14:38:39Z</time>
      </trkpt>
      <trkpt lat="62.8336269502" lon="14.417910967">
        <ele>414</ele>
        <time>2011-11-05T14:38:40Z</time>
      </trkpt>
      <trkpt lat="62.8336289618" lon="14.4179059379">
        <ele>412</ele>
        <time>2011-11-05T14:38:41Z</time>
      </trkpt>
      <trkpt lat="62.8336269502" lon="14.4179019984">
        <ele>410</ele>
        <time>2011-11-05T14:38:42Z</time>
      </trkpt>
      <trkpt lat="62.8336229268" lon="14.4178819656">
        <ele>411</ele>
        <time>2011-11-05T14:38:43Z</time>
      </trkpt>
      <trkpt lat="62.833621921" lon="14.4178759307">
        <ele>411</ele>
        <time>2011-11-05T14:38:44Z</time>
      </trkpt>
      <trkpt lat="62.833620999" lon="14.4178649504">
        <ele>412</ele>
        <time>2011-11-05T14:38:45Z</time>
      </trkpt>
      <trkpt lat="62.8336169757" lon="14.4178489409">
        <ele>411</ele>
        <time>2011-11-05T14:38:46Z</time>
      </trkpt>
      <trkpt lat="62.8336189874" lon="14.4178409781">
        <ele>409</ele>
        <time>2011-11-05T14:38:47Z</time>
      </trkpt>
      <trkpt lat="62.8336139582" lon="14.4178249687">
        <ele>411</ele>
        <time>2011-11-05T14:38:48Z</time>
      </trkpt>
      <trkpt lat="62.833614964" lon="14.4178249687">
        <ele>403</ele>
        <time>2011-11-05T14:38:49Z</time>
      </trkpt>
      <trkpt lat="62.8336169757" lon="14.4178189337">
        <ele>396</ele>
        <time>2011-11-05T14:38:50Z</time>
      </trkpt>
      <trkpt lat="62.8336199932" lon="14.4178129826">
        <ele>393</ele>
        <time>2011-11-05T14:38:51Z</time>
      </trkpt>
      <trkpt lat="62.8336199932" lon="14.4178129826">
        <ele>392</ele>
        <time>2011-11-05T14:38:52Z</time>
      </trkpt>
      <trkpt lat="62.8336199932" lon="14.4178129826">
        <ele>394</ele>
        <time>2011-11-05T14:38:53Z</time>
      </trkpt>
      <trkpt lat="62.833620999" lon="14.4178119767">
        <ele>395</ele>
        <time>2011-11-05T14:38:54Z</time>
      </trkpt>
      <trkpt lat="62.833620999" lon="14.4178119767">
        <ele>396</ele>
        <time>2011-11-05T14:38:55Z</time>
      </trkpt>
      <trkpt lat="62.833620999" lon="14.4178119767">
        <ele>397</ele>
        <time>2011-11-05T14:38:56Z</time>
      </trkpt>
      <trkpt lat="62.833620999" lon="14.4178119767">
        <ele>399</ele>
        <time>2011-11-05T14:38:57Z</time>
      </trkpt>
      <trkpt lat="62.833620999" lon="14.4178119767">
        <ele>400</ele>
        <time>2011-11-05T14:38:58Z</time>
      </trkpt>
      <trkpt lat="62.833620999" lon="14.4178119767">
        <ele>401</ele>
        <time>2011-11-05T14:38:59Z</time>
      </trkpt>
      <trkpt lat="62.833621921" lon="14.4178119767">
        <ele>402</ele>
        <time>2011-11-05T14:39:00Z</time>
      </trkpt>
      <trkpt lat="62.833621921" lon="14.4178119767">
        <ele>402</ele>
        <time>2011-11-05T14:39:01Z</time>
      </trkpt>
      <trkpt lat="62.8336259443" lon="14.4178039301">
        <ele>401</ele>
        <time>2011-11-05T14:39:02Z</time>
      </trkpt>
      <trkpt lat="62.833633991" lon="14.4177969731">
        <ele>406</ele>
        <time>2011-11-05T14:39:03Z</time>
      </trkpt>
      <trkpt lat="62.8336379305" lon="14.4177799579">
        <ele>406</ele>
        <time>2011-11-05T14:39:04Z</time>
      </trkpt>
      <trkpt lat="62.8336369246" lon="14.4177469332">
        <ele>406</ele>
        <time>2011-11-05T14:39:05Z</time>
      </trkpt>
      <trkpt lat="62.8336369246" lon="14.4177469332">
        <ele>407</ele>
        <time>2011-11-05T14:39:06Z</time>
      </trkpt>
      <trkpt lat="62.8336389363" lon="14.4177349471">
        <ele>407</ele>
        <time>2011-11-05T14:39:07Z</time>
      </trkpt>
      <trkpt lat="62.8336389363" lon="14.4177349471">
        <ele>407</ele>
        <time>2011-11-05T14:39:08Z</time>
      </trkpt>
      <trkpt lat="62.8336469829" lon="14.4177239668">
        <ele>408</ele>
        <time>2011-11-05T14:39:09Z</time>
      </trkpt>
      <trkpt lat="62.8336529341" lon="14.4177119806">
        <ele>404</ele>
        <time>2011-11-05T14:39:10Z</time>
      </trkpt>
      <trkpt lat="62.8336579632" lon="14.417703934">
        <ele>403</ele>
        <time>2011-11-05T14:39:11Z</time>
      </trkpt>
      <trkpt lat="62.8336579632" lon="14.417703934">
        <ele>405</ele>
        <time>2011-11-05T14:39:12Z</time>
      </trkpt>
      <trkpt lat="62.8336569574" lon="14.4176909421">
        <ele>410</ele>
        <time>2011-11-05T14:39:13Z</time>
      </trkpt>
      <trkpt lat="62.833665926" lon="14.4176809676">
        <ele>408</ele>
        <time>2011-11-05T14:39:14Z</time>
      </trkpt>
      <trkpt lat="62.833665926" lon="14.4176809676">
        <ele>408</ele>
        <time>2011-11-05T14:39:15Z</time>
      </trkpt>
      <trkpt lat="62.8336929996" lon="14.4176569954">
        <ele>409</ele>
        <time>2011-11-05T14:39:16Z</time>
      </trkpt>
      <trkpt lat="62.833702974" lon="14.4176519662">
        <ele>407</ele>
        <time>2011-11-05T14:39:17Z</time>
      </trkpt>
      <trkpt lat="62.8337129485" lon="14.4176439196">
        <ele>406</ele>
        <time>2011-11-05T14:39:18Z</time>
      </trkpt>
      <trkpt lat="62.8337169718" lon="14.4176289998">
        <ele>406</ele>
        <time>2011-11-05T14:39:19Z</time>
      </trkpt>
      <trkpt lat="62.8337239288" lon="14.4176309276">
        <ele>403</ele>
        <time>2011-11-05T14:39:20Z</time>
      </trkpt>
      <trkpt lat="62.8337289579" lon="14.4176329393">
        <ele>403</ele>
        <time>2011-11-05T14:39:21Z</time>
      </trkpt>
      <trkpt lat="62.8337359987" lon="14.4176269881">
        <ele>402</ele>
        <time>2011-11-05T14:39:22Z</time>
      </trkpt>
      <trkpt lat="62.8337359987" lon="14.4176269881">
        <ele>402</ele>
        <time>2011-11-05T14:39:23Z</time>
      </trkpt>
      <trkpt lat="62.8337389324" lon="14.4176199473">
        <ele>403</ele>
        <time>2011-11-05T14:39:24Z</time>
      </trkpt>
      <trkpt lat="62.8337439615" lon="14.4176199473">
        <ele>402</ele>
        <time>2011-11-05T14:39:25Z</time>
      </trkpt>
      <trkpt lat="62.8337449674" lon="14.4176059496">
        <ele>404</ele>
        <time>2011-11-05T14:39:26Z</time>
      </trkpt>
      <trkpt lat="62.833746979" lon="14.4175859168">
        <ele>406</ele>
        <time>2011-11-05T14:39:27Z</time>
      </trkpt>
      <trkpt lat="62.8337459732" lon="14.4175749365">
        <ele>403</ele>
        <time>2011-11-05T14:39:28Z</time>
      </trkpt>
      <trkpt lat="62.8337459732" lon="14.4175619446">
        <ele>401</ele>
        <time>2011-11-05T14:39:29Z</time>
      </trkpt>
      <trkpt lat="62.8337449674" lon="14.4175519701">
        <ele>403</ele>
        <time>2011-11-05T14:39:30Z</time>
      </trkpt>
      <trkpt lat="62.8337459732" lon="14.4175409898">
        <ele>404</ele>
        <time>2011-11-05T14:39:31Z</time>
      </trkpt>
      <trkpt lat="62.8337509185" lon="14.4175359607">
        <ele>404</ele>
        <time>2011-11-05T14:39:32Z</time>
      </trkpt>
      <trkpt lat="62.8337579593" lon="14.4175259862">
        <ele>403</ele>
        <time>2011-11-05T14:39:33Z</time>
      </trkpt>
      <trkpt lat="62.833759971" lon="14.4175159279">
        <ele>404</ele>
        <time>2011-11-05T14:39:34Z</time>
      </trkpt>
      <trkpt lat="62.8337579593" lon="14.4175049476">
        <ele>403</ele>
        <time>2011-11-05T14:39:35Z</time>
      </trkpt>
      <trkpt lat="62.8337619826" lon="14.4174919557">
        <ele>402</ele>
        <time>2011-11-05T14:39:36Z</time>
      </trkpt>
      <trkpt lat="62.8337619826" lon="14.4174739346">
        <ele>398</ele>
        <time>2011-11-05T14:39:37Z</time>
      </trkpt>
      <trkpt lat="62.833759971" lon="14.4174539857">
        <ele>402</ele>
        <time>2011-11-05T14:39:38Z</time>
      </trkpt>
      <trkpt lat="62.8337629884" lon="14.4174379762">
        <ele>405</ele>
        <time>2011-11-05T14:39:39Z</time>
      </trkpt>
      <trkpt lat="62.8337669279" lon="14.4174229726">
        <ele>403</ele>
        <time>2011-11-05T14:39:40Z</time>
      </trkpt>
      <trkpt lat="62.8337759804" lon="14.417414926">
        <ele>399</ele>
        <time>2011-11-05T14:39:41Z</time>
      </trkpt>
      <trkpt lat="62.8337809257" lon="14.4174029399">
        <ele>398</ele>
        <time>2011-11-05T14:39:42Z</time>
      </trkpt>
      <trkpt lat="62.8337809257" lon="14.4174009282">
        <ele>400</ele>
        <time>2011-11-05T14:39:43Z</time>
      </trkpt>
      <trkpt lat="62.8337819315" lon="14.4174029399">
        <ele>399</ele>
        <time>2011-11-05T14:39:44Z</time>
      </trkpt>
      <trkpt lat="62.8337839432" lon="14.4174099807">
        <ele>397</ele>
        <time>2011-11-05T14:39:45Z</time>
      </trkpt>
      <trkpt lat="62.8337899782" lon="14.4174199551">
        <ele>397</ele>
        <time>2011-11-05T14:39:46Z</time>
      </trkpt>
      <trkpt lat="62.8337899782" lon="14.4174239784">
        <ele>399</ele>
        <time>2011-11-05T14:39:47Z</time>
      </trkpt>
      <trkpt lat="62.8337899782" lon="14.4174269959">
        <ele>398</ele>
        <time>2011-11-05T14:39:48Z</time>
      </trkpt>
      <trkpt lat="62.8337899782" lon="14.4174269959">
        <ele>399</ele>
        <time>2011-11-05T14:39:49Z</time>
      </trkpt>
      <trkpt lat="62.8337899782" lon="14.4174269959">
        <ele>401</ele>
        <time>2011-11-05T14:39:50Z</time>
      </trkpt>
      <trkpt lat="62.8337899782" lon="14.4174269959">
        <ele>403</ele>
        <time>2011-11-05T14:39:51Z</time>
      </trkpt>
      <trkpt lat="62.833790984" lon="14.4174269959">
        <ele>404</ele>
        <time>2011-11-05T14:39:52Z</time>
      </trkpt>
      <trkpt lat="62.8338049818" lon="14.4174319413">
        <ele>405</ele>
        <time>2011-11-05T14:39:53Z</time>
      </trkpt>
      <trkpt lat="62.8338089213" lon="14.4174349587">
        <ele>407</ele>
        <time>2011-11-05T14:39:54Z</time>
      </trkpt>
      <trkpt lat="62.833803976" lon="14.4174269959">
        <ele>407</ele>
        <time>2011-11-05T14:39:55Z</time>
      </trkpt>
      <trkpt lat="62.833803976" lon="14.4174269959">
        <ele>407</ele>
        <time>2011-11-05T14:39:56Z</time>
      </trkpt>
      <trkpt lat="62.833803976" lon="14.4174269959">
        <ele>407</ele>
        <time>2011-11-05T14:39:57Z</time>
      </trkpt>
      <trkpt lat="62.833803976" lon="14.417420961">
        <ele>408</ele>
        <time>2011-11-05T14:39:58Z</time>
      </trkpt>
      <trkpt lat="62.8338029701" lon="14.4174239784">
        <ele>406</ele>
        <time>2011-11-05T14:39:59Z</time>
      </trkpt>
      <trkpt lat="62.8338029701" lon="14.4174239784">
        <ele>405</ele>
        <time>2011-11-05T14:40:00Z</time>
      </trkpt>
      <trkpt lat="62.8337939177" lon="14.4174409937">
        <ele>404</ele>
        <time>2011-11-05T14:40:01Z</time>
      </trkpt>
      <trkpt lat="62.8337899782" lon="14.4174489565">
        <ele>403</ele>
        <time>2011-11-05T14:40:02Z</time>
      </trkpt>
      <trkpt lat="62.8337899782" lon="14.4174489565">
        <ele>404</ele>
        <time>2011-11-05T14:40:03Z</time>
      </trkpt>
      <trkpt lat="62.8337899782" lon="14.4174489565">
        <ele>404</ele>
        <time>2011-11-05T14:40:04Z</time>
      </trkpt>
      <trkpt lat="62.8337899782" lon="14.4174489565">
        <ele>407</ele>
        <time>2011-11-05T14:40:05Z</time>
      </trkpt>
      <trkpt lat="62.8337889723" lon="14.4174509682">
        <ele>407</ele>
        <time>2011-11-05T14:40:06Z</time>
      </trkpt>
      <trkpt lat="62.8337869607" lon="14.4174499623">
        <ele>408</ele>
        <time>2011-11-05T14:40:07Z</time>
      </trkpt>
      <trkpt lat="62.8337859549" lon="14.4174489565">
        <ele>406</ele>
        <time>2011-11-05T14:40:08Z</time>
      </trkpt>
      <trkpt lat="62.833784949" lon="14.4174489565">
        <ele>413</ele>
        <time>2011-11-05T14:40:09Z</time>
      </trkpt>
      <trkpt lat="62.8337829374" lon="14.4174479507">
        <ele>414</ele>
        <time>2011-11-05T14:40:10Z</time>
      </trkpt>
      <trkpt lat="62.8337719571" lon="14.4174339529">
        <ele>416</ele>
        <time>2011-11-05T14:40:11Z</time>
      </trkpt>
      <trkpt lat="62.8337669279" lon="14.4174219668">
        <ele>415</ele>
        <time>2011-11-05T14:40:12Z</time>
      </trkpt>
      <trkpt lat="62.8337669279" lon="14.417420961">
        <ele>417</ele>
        <time>2011-11-05T14:40:13Z</time>
      </trkpt>
      <trkpt lat="62.8337709513" lon="14.4174139202">
        <ele>417</ele>
        <time>2011-11-05T14:40:14Z</time>
      </trkpt>
      <trkpt lat="62.8337699454" lon="14.4174069632">
        <ele>418</ele>
        <time>2011-11-05T14:40:15Z</time>
      </trkpt>
      <trkpt lat="62.8337689396" lon="14.4173969887">
        <ele>419</ele>
        <time>2011-11-05T14:40:16Z</time>
      </trkpt>
      <trkpt lat="62.8337669279" lon="14.4173839968">
        <ele>418</ele>
        <time>2011-11-05T14:40:17Z</time>
      </trkpt>
      <trkpt lat="62.8337569535" lon="14.4173359685">
        <ele>415</ele>
        <time>2011-11-05T14:40:18Z</time>
      </trkpt>
      <trkpt lat="62.8337509185" lon="14.4173189532">
        <ele>408</ele>
        <time>2011-11-05T14:40:19Z</time>
      </trkpt>
      <trkpt lat="62.833746979" lon="14.4173149299">
        <ele>403</ele>
        <time>2011-11-05T14:40:20Z</time>
      </trkpt>
      <trkpt lat="62.8337499965" lon="14.4173219707">
        <ele>404</ele>
        <time>2011-11-05T14:40:21Z</time>
      </trkpt>
      <trkpt lat="62.8337499965" lon="14.4173219707">
        <ele>403</ele>
        <time>2011-11-05T14:40:22Z</time>
      </trkpt>
      <trkpt lat="62.8337499965" lon="14.4173219707">
        <ele>403</ele>
        <time>2011-11-05T14:40:23Z</time>
      </trkpt>
      <trkpt lat="62.8337499965" lon="14.4173219707">
        <ele>405</ele>
        <time>2011-11-05T14:40:24Z</time>
      </trkpt>
      <trkpt lat="62.8337509185" lon="14.4173179474">
        <ele>402</ele>
        <time>2011-11-05T14:40:25Z</time>
      </trkpt>
      <trkpt lat="62.8337529302" lon="14.4173209649">
        <ele>399</ele>
        <time>2011-11-05T14:40:26Z</time>
      </trkpt>
      <trkpt lat="62.8337529302" lon="14.4173119962">
        <ele>394</ele>
        <time>2011-11-05T14:40:27Z</time>
      </trkpt>
      <trkpt lat="62.833753936" lon="14.4173049554">
        <ele>395</ele>
        <time>2011-11-05T14:40:28Z</time>
      </trkpt>
      <trkpt lat="62.8337579593" lon="14.4172979984">
        <ele>396</ele>
        <time>2011-11-05T14:40:29Z</time>
      </trkpt>
      <trkpt lat="62.833759971" lon="14.4172899518">
        <ele>399</ele>
        <time>2011-11-05T14:40:30Z</time>
      </trkpt>
      <trkpt lat="62.8337639943" lon="14.4172789715">
        <ele>400</ele>
        <time>2011-11-05T14:40:31Z</time>
      </trkpt>
      <trkpt lat="62.8337729629" lon="14.4172639679">
        <ele>401</ele>
        <time>2011-11-05T14:40:32Z</time>
      </trkpt>
      <trkpt lat="62.8337869607" lon="14.4172409177">
        <ele>400</ele>
        <time>2011-11-05T14:40:33Z</time>
      </trkpt>
      <trkpt lat="62.8337869607" lon="14.4172409177">
        <ele>396</ele>
        <time>2011-11-05T14:40:34Z</time>
      </trkpt>
      <trkpt lat="62.8337859549" lon="14.4172359724">
        <ele>402</ele>
        <time>2011-11-05T14:40:35Z</time>
      </trkpt>
      <trkpt lat="62.8337859549" lon="14.4172359724">
        <ele>400</ele>
        <time>2011-11-05T14:40:36Z</time>
      </trkpt>
      <trkpt lat="62.8337859549" lon="14.4172359724">
        <ele>399</ele>
        <time>2011-11-05T14:40:37Z</time>
      </trkpt>
      <trkpt lat="62.8337869607" lon="14.4172269199">
        <ele>400</ele>
        <time>2011-11-05T14:40:38Z</time>
      </trkpt>
      <trkpt lat="62.833790984" lon="14.4172179513">
        <ele>400</ele>
        <time>2011-11-05T14:40:39Z</time>
      </trkpt>
      <trkpt lat="62.8337939177" lon="14.4172099885">
        <ele>401</ele>
        <time>2011-11-05T14:40:40Z</time>
      </trkpt>
      <trkpt lat="62.8337989468" lon="14.4171979185">
        <ele>401</ele>
        <time>2011-11-05T14:40:41Z</time>
      </trkpt>
      <trkpt lat="62.8337989468" lon="14.4171979185">
        <ele>399</ele>
        <time>2011-11-05T14:40:42Z</time>
      </trkpt>
      <trkpt lat="62.8337989468" lon="14.4171979185">
        <ele>399</ele>
        <time>2011-11-05T14:40:43Z</time>
      </trkpt>
      <trkpt lat="62.8338009585" lon="14.4171889499">
        <ele>396</ele>
        <time>2011-11-05T14:40:44Z</time>
      </trkpt>
      <trkpt lat="62.8338009585" lon="14.4171889499">
        <ele>399</ele>
        <time>2011-11-05T14:40:45Z</time>
      </trkpt>
      <trkpt lat="62.8338009585" lon="14.4171879441">
        <ele>396</ele>
        <time>2011-11-05T14:40:46Z</time>
      </trkpt>
      <trkpt lat="62.8338009585" lon="14.4171879441">
        <ele>395</ele>
        <time>2011-11-05T14:40:47Z</time>
      </trkpt>
      <trkpt lat="62.8338049818" lon="14.4171779696">
        <ele>395</ele>
        <time>2011-11-05T14:40:48Z</time>
      </trkpt>
      <trkpt lat="62.8338049818" lon="14.4171779696">
        <ele>394</ele>
        <time>2011-11-05T14:40:49Z</time>
      </trkpt>
      <trkpt lat="62.8338109329" lon="14.4171719346">
        <ele>395</ele>
        <time>2011-11-05T14:40:50Z</time>
      </trkpt>
      <trkpt lat="62.8338109329" lon="14.4171719346">
        <ele>393</ele>
        <time>2011-11-05T14:40:51Z</time>
      </trkpt>
      <trkpt lat="62.8338139504" lon="14.4171619602">
        <ele>396</ele>
        <time>2011-11-05T14:40:52Z</time>
      </trkpt>
      <trkpt lat="62.8338199854" lon="14.4171509799">
        <ele>395</ele>
        <time>2011-11-05T14:40:53Z</time>
      </trkpt>
      <trkpt lat="62.8338199854" lon="14.4171509799">
        <ele>393</ele>
        <time>2011-11-05T14:40:54Z</time>
      </trkpt>
      <trkpt lat="62.8338199854" lon="14.4171509799">
        <ele>395</ele>
        <time>2011-11-05T14:40:55Z</time>
      </trkpt>
      <trkpt lat="62.8338249307" lon="14.4171449449">
        <ele>394</ele>
        <time>2011-11-05T14:40:56Z</time>
      </trkpt>
      <trkpt lat="62.8338319715" lon="14.4171339646">
        <ele>395</ele>
        <time>2011-11-05T14:40:57Z</time>
      </trkpt>
      <trkpt lat="62.8338389285" lon="14.4171229843">
        <ele>396</ele>
        <time>2011-11-05T14:40:58Z</time>
      </trkpt>
      <trkpt lat="62.8338389285" lon="14.4171229843">
        <ele>396</ele>
        <time>2011-11-05T14:40:59Z</time>
      </trkpt>
      <trkpt lat="62.8338389285" lon="14.4171169493">
        <ele>396</ele>
        <time>2011-11-05T14:41:00Z</time>
      </trkpt>
      <trkpt lat="62.8338389285" lon="14.417105969">
        <ele>394</ele>
        <time>2011-11-05T14:41:01Z</time>
      </trkpt>
      <trkpt lat="62.8338379227" lon="14.4170959946">
        <ele>396</ele>
        <time>2011-11-05T14:41:02Z</time>
      </trkpt>
      <trkpt lat="62.8338399343" lon="14.4170909654">
        <ele>394</ele>
        <time>2011-11-05T14:41:03Z</time>
      </trkpt>
      <trkpt lat="62.8338409401" lon="14.4170909654">
        <ele>393</ele>
        <time>2011-11-05T14:41:04Z</time>
      </trkpt>
      <trkpt lat="62.8338409401" lon="14.4170909654">
        <ele>392</ele>
        <time>2011-11-05T14:41:05Z</time>
      </trkpt>
      <trkpt lat="62.8338439576" lon="14.4170789793">
        <ele>393</ele>
        <time>2011-11-05T14:41:06Z</time>
      </trkpt>
      <trkpt lat="62.8338479809" lon="14.4170709327">
        <ele>391</ele>
        <time>2011-11-05T14:41:07Z</time>
      </trkpt>
      <trkpt lat="62.8338539321" lon="14.4170669932">
        <ele>387</ele>
        <time>2011-11-05T14:41:08Z</time>
      </trkpt>
      <trkpt lat="62.8338589612" lon="14.4170539174">
        <ele>388</ele>
        <time>2011-11-05T14:41:09Z</time>
      </trkpt>
      <trkpt lat="62.8338649962" lon="14.4170429371">
        <ele>387</ele>
        <time>2011-11-05T14:41:10Z</time>
      </trkpt>
      <trkpt lat="62.8338709474" lon="14.4170339685">
        <ele>392</ele>
        <time>2011-11-05T14:41:11Z</time>
      </trkpt>
      <trkpt lat="62.8338769823" lon="14.4170279335">
        <ele>392</ele>
        <time>2011-11-05T14:41:12Z</time>
      </trkpt>
      <trkpt lat="62.8338819277" lon="14.4170159474">
        <ele>392</ele>
        <time>2011-11-05T14:41:13Z</time>
      </trkpt>
      <trkpt lat="62.8338849451" lon="14.4170009438">
        <ele>392</ele>
        <time>2011-11-05T14:41:14Z</time>
      </trkpt>
      <trkpt lat="62.8338879626" lon="14.4169899635">
        <ele>388</ele>
        <time>2011-11-05T14:41:15Z</time>
      </trkpt>
      <trkpt lat="62.8338919859" lon="14.4169789832">
        <ele>387</ele>
        <time>2011-11-05T14:41:16Z</time>
      </trkpt>
      <trkpt lat="62.8338959254" lon="14.4169619679">
        <ele>387</ele>
        <time>2011-11-05T14:41:17Z</time>
      </trkpt>
      <trkpt lat="62.8339039721" lon="14.4169599563">
        <ele>387</ele>
        <time>2011-11-05T14:41:18Z</time>
      </trkpt>
      <trkpt lat="62.8339099232" lon="14.416955933">
        <ele>386</ele>
        <time>2011-11-05T14:41:19Z</time>
      </trkpt>
      <trkpt lat="62.8339149524" lon="14.4169439469">
        <ele>383</ele>
        <time>2011-11-05T14:41:20Z</time>
      </trkpt>
      <trkpt lat="62.8339199815" lon="14.4169289432">
        <ele>386</ele>
        <time>2011-11-05T14:41:21Z</time>
      </trkpt>
      <trkpt lat="62.8339269385" lon="14.4169199746">
        <ele>385</ele>
        <time>2011-11-05T14:41:22Z</time>
      </trkpt>
      <trkpt lat="62.8339269385" lon="14.4169189688">
        <ele>385</ele>
        <time>2011-11-05T14:41:23Z</time>
      </trkpt>
      <trkpt lat="62.8339269385" lon="14.4169189688">
        <ele>387</ele>
        <time>2011-11-05T14:41:24Z</time>
      </trkpt>
      <trkpt lat="62.8339269385" lon="14.4169189688">
        <ele>388</ele>
        <time>2011-11-05T14:41:25Z</time>
      </trkpt>
      <trkpt lat="62.8339329734" lon="14.4169209804">
        <ele>389</ele>
        <time>2011-11-05T14:41:26Z</time>
      </trkpt>
      <trkpt lat="62.8339329734" lon="14.4169209804">
        <ele>389</ele>
        <time>2011-11-05T14:41:27Z</time>
      </trkpt>
      <trkpt lat="62.8339329734" lon="14.4169059768">
        <ele>389</ele>
        <time>2011-11-05T14:41:28Z</time>
      </trkpt>
      <trkpt lat="62.8339379188" lon="14.4168969244">
        <ele>390</ele>
        <time>2011-11-05T14:41:29Z</time>
      </trkpt>
      <trkpt lat="62.8339419421" lon="14.4168869499">
        <ele>387</ele>
        <time>2011-11-05T14:41:30Z</time>
      </trkpt>
      <trkpt lat="62.8339449596" lon="14.4168769754">
        <ele>389</ele>
        <time>2011-11-05T14:41:31Z</time>
      </trkpt>
      <trkpt lat="62.8339529224" lon="14.4168709405">
        <ele>383</ele>
        <time>2011-11-05T14:41:32Z</time>
      </trkpt>
      <trkpt lat="62.8339569457" lon="14.4168649893">
        <ele>388</ele>
        <time>2011-11-05T14:41:33Z</time>
      </trkpt>
      <trkpt lat="62.8339579515" lon="14.4168559369">
        <ele>387</ele>
        <time>2011-11-05T14:41:34Z</time>
      </trkpt>
      <trkpt lat="62.8339639865" lon="14.4168519974">
        <ele>389</ele>
        <time>2011-11-05T14:41:35Z</time>
      </trkpt>
      <trkpt lat="62.8339699376" lon="14.4168469682">
        <ele>389</ele>
        <time>2011-11-05T14:41:36Z</time>
      </trkpt>
      <trkpt lat="62.8339719493" lon="14.4168369938">
        <ele>388</ele>
        <time>2011-11-05T14:41:37Z</time>
      </trkpt>
      <trkpt lat="62.8339769784" lon="14.4168339763">
        <ele>388</ele>
        <time>2011-11-05T14:41:38Z</time>
      </trkpt>
      <trkpt lat="62.8339769784" lon="14.4168309588">
        <ele>387</ele>
        <time>2011-11-05T14:41:39Z</time>
      </trkpt>
      <trkpt lat="62.8339769784" lon="14.416822996">
        <ele>387</ele>
        <time>2011-11-05T14:41:40Z</time>
      </trkpt>
      <trkpt lat="62.8339769784" lon="14.416822996">
        <ele>388</ele>
        <time>2011-11-05T14:41:41Z</time>
      </trkpt>
      <trkpt lat="62.8339789901" lon="14.416816961">
        <ele>387</ele>
        <time>2011-11-05T14:41:42Z</time>
      </trkpt>
      <trkpt lat="62.8339789901" lon="14.416816961">
        <ele>389</ele>
        <time>2011-11-05T14:41:43Z</time>
      </trkpt>
      <trkpt lat="62.8339789901" lon="14.4168149494">
        <ele>389</ele>
        <time>2011-11-05T14:41:44Z</time>
      </trkpt>
      <trkpt lat="62.8339779843" lon="14.416810926">
        <ele>389</ele>
        <time>2011-11-05T14:41:45Z</time>
      </trkpt>
      <trkpt lat="62.8339769784" lon="14.4168069866">
        <ele>388</ele>
        <time>2011-11-05T14:41:46Z</time>
      </trkpt>
      <trkpt lat="62.8339789901" lon="14.4167949166">
        <ele>383</ele>
        <time>2011-11-05T14:41:47Z</time>
      </trkpt>
      <trkpt lat="62.8339789901" lon="14.4167949166">
        <ele>377</ele>
        <time>2011-11-05T14:41:48Z</time>
      </trkpt>
      <trkpt lat="62.8339839354" lon="14.4167879596">
        <ele>379</ele>
        <time>2011-11-05T14:41:49Z</time>
      </trkpt>
      <trkpt lat="62.8339839354" lon="14.4167879596">
        <ele>381</ele>
        <time>2011-11-05T14:41:50Z</time>
      </trkpt>
      <trkpt lat="62.8339849412" lon="14.4167779852">
        <ele>382</ele>
        <time>2011-11-05T14:41:51Z</time>
      </trkpt>
      <trkpt lat="62.8339869529" lon="14.4167689327">
        <ele>382</ele>
        <time>2011-11-05T14:41:52Z</time>
      </trkpt>
      <trkpt lat="62.8339909762" lon="14.4167569466">
        <ele>383</ele>
        <time>2011-11-05T14:41:53Z</time>
      </trkpt>
      <trkpt lat="62.8339929879" lon="14.416747978">
        <ele>385</ele>
        <time>2011-11-05T14:41:54Z</time>
      </trkpt>
      <trkpt lat="62.8339949995" lon="14.416734986">
        <ele>387</ele>
        <time>2011-11-05T14:41:55Z</time>
      </trkpt>
      <trkpt lat="62.833998939" lon="14.4167229999">
        <ele>384</ele>
        <time>2011-11-05T14:41:56Z</time>
      </trkpt>
      <trkpt lat="62.8340019565" lon="14.4167119358">
        <ele>385</ele>
        <time>2011-11-05T14:41:57Z</time>
      </trkpt>
      <trkpt lat="62.8340019565" lon="14.4167119358">
        <ele>384</ele>
        <time>2011-11-05T14:41:58Z</time>
      </trkpt>
      <trkpt lat="62.8340009507" lon="14.4166999497">
        <ele>382</ele>
        <time>2011-11-05T14:41:59Z</time>
      </trkpt>
      <trkpt lat="62.8340039682" lon="14.4166869577">
        <ele>381</ele>
        <time>2011-11-05T14:42:00Z</time>
      </trkpt>
      <trkpt lat="62.8340089973" lon="14.4166689366">
        <ele>383</ele>
        <time>2011-11-05T14:42:01Z</time>
      </trkpt>
      <trkpt lat="62.8340129368" lon="14.4166549388">
        <ele>381</ele>
        <time>2011-11-05T14:42:02Z</time>
      </trkpt>
      <trkpt lat="62.8340149485" lon="14.4166369177">
        <ele>380</ele>
        <time>2011-11-05T14:42:03Z</time>
      </trkpt>
      <trkpt lat="62.8340179659" lon="14.4166179746">
        <ele>381</ele>
        <time>2011-11-05T14:42:04Z</time>
      </trkpt>
      <trkpt lat="62.8340199776" lon="14.4165999535">
        <ele>380</ele>
        <time>2011-11-05T14:42:05Z</time>
      </trkpt>
      <trkpt lat="62.8340219893" lon="14.4165849499">
        <ele>379</ele>
        <time>2011-11-05T14:42:06Z</time>
      </trkpt>
      <trkpt lat="62.8340269346" lon="14.4165729638">
        <ele>380</ele>
        <time>2011-11-05T14:42:07Z</time>
      </trkpt>
      <trkpt lat="62.8340309579" lon="14.4165599719">
        <ele>381</ele>
        <time>2011-11-05T14:42:08Z</time>
      </trkpt>
      <trkpt lat="62.8340339754" lon="14.4165469799">
        <ele>382</ele>
        <time>2011-11-05T14:42:09Z</time>
      </trkpt>
      <trkpt lat="62.8340369929" lon="14.4165309705">
        <ele>382</ele>
        <time>2011-11-05T14:42:10Z</time>
      </trkpt>
      <trkpt lat="62.8340409324" lon="14.416514961">
        <ele>382</ele>
        <time>2011-11-05T14:42:11Z</time>
      </trkpt>
      <trkpt lat="62.834042944" lon="14.41649694">
        <ele>383</ele>
        <time>2011-11-05T14:42:12Z</time>
      </trkpt>
      <trkpt lat="62.8340459615" lon="14.4164819364">
        <ele>384</ele>
        <time>2011-11-05T14:42:13Z</time>
      </trkpt>
      <trkpt lat="62.8340459615" lon="14.4164819364">
        <ele>383</ele>
        <time>2011-11-05T14:42:14Z</time>
      </trkpt>
      <trkpt lat="62.8340449557" lon="14.4164709561">
        <ele>383</ele>
        <time>2011-11-05T14:42:15Z</time>
      </trkpt>
      <trkpt lat="62.8340439498" lon="14.4164649211">
        <ele>380</ele>
        <time>2011-11-05T14:42:16Z</time>
      </trkpt>
      <trkpt lat="62.8340459615" lon="14.4164549466">
        <ele>381</ele>
        <time>2011-11-05T14:42:17Z</time>
      </trkpt>
      <trkpt lat="62.8340459615" lon="14.4164389372">
        <ele>379</ele>
        <time>2011-11-05T14:42:18Z</time>
      </trkpt>
      <trkpt lat="62.8340499848" lon="14.4164159708">
        <ele>375</ele>
        <time>2011-11-05T14:42:19Z</time>
      </trkpt>
      <trkpt lat="62.8340499848" lon="14.4164159708">
        <ele>363</ele>
        <time>2011-11-05T14:42:20Z</time>
      </trkpt>
      <trkpt lat="62.8340499848" lon="14.4164159708">
        <ele>360</ele>
        <time>2011-11-05T14:42:21Z</time>
      </trkpt>
      <trkpt lat="62.8340499848" lon="14.4164159708">
        <ele>358</ele>
        <time>2011-11-05T14:42:22Z</time>
      </trkpt>
      <trkpt lat="62.8340499848" lon="14.4164159708">
        <ele>362</ele>
        <time>2011-11-05T14:42:23Z</time>
      </trkpt>
      <trkpt lat="62.8340509906" lon="14.4164139591">
        <ele>367</ele>
        <time>2011-11-05T14:42:24Z</time>
      </trkpt>
      <trkpt lat="62.8340529185" lon="14.4164119475">
        <ele>371</ele>
        <time>2011-11-05T14:42:25Z</time>
      </trkpt>
      <trkpt lat="62.8340509906" lon="14.4163969439">
        <ele>373</ele>
        <time>2011-11-05T14:42:26Z</time>
      </trkpt>
      <trkpt lat="62.8340509906" lon="14.4163969439">
        <ele>377</ele>
        <time>2011-11-05T14:42:27Z</time>
      </trkpt>
      <trkpt lat="62.8340539243" lon="14.4163909927">
        <ele>379</ele>
        <time>2011-11-05T14:42:28Z</time>
      </trkpt>
      <trkpt lat="62.8340539243" lon="14.4163909927">
        <ele>378</ele>
        <time>2011-11-05T14:42:29Z</time>
      </trkpt>
      <trkpt lat="62.8340569418" lon="14.4163749833">
        <ele>380</ele>
        <time>2011-11-05T14:42:30Z</time>
      </trkpt>
      <trkpt lat="62.8340619709" lon="14.4163619913">
        <ele>381</ele>
        <time>2011-11-05T14:42:31Z</time>
      </trkpt>
      <trkpt lat="62.8340629768" lon="14.4163439702">
        <ele>383</ele>
        <time>2011-11-05T14:42:32Z</time>
      </trkpt>
      <trkpt lat="62.8340639826" lon="14.4163339958">
        <ele>383</ele>
        <time>2011-11-05T14:42:33Z</time>
      </trkpt>
      <trkpt lat="62.8340709396" lon="14.41632092">
        <ele>383</ele>
        <time>2011-11-05T14:42:34Z</time>
      </trkpt>
      <trkpt lat="62.8340739571" lon="14.4163089339">
        <ele>382</ele>
        <time>2011-11-05T14:42:35Z</time>
      </trkpt>
      <trkpt lat="62.8340739571" lon="14.4163089339">
        <ele>383</ele>
        <time>2011-11-05T14:42:36Z</time>
      </trkpt>
      <trkpt lat="62.8340789862" lon="14.4163049944">
        <ele>383</ele>
        <time>2011-11-05T14:42:37Z</time>
      </trkpt>
      <trkpt lat="62.8340789862" lon="14.4163049944">
        <ele>382</ele>
        <time>2011-11-05T14:42:38Z</time>
      </trkpt>
      <trkpt lat="62.8340789862" lon="14.4163049944">
        <ele>376</ele>
        <time>2011-11-05T14:42:39Z</time>
      </trkpt>
      <trkpt lat="62.8340789862" lon="14.4163049944">
        <ele>376</ele>
        <time>2011-11-05T14:42:40Z</time>
      </trkpt>
      <trkpt lat="62.8340789862" lon="14.4163049944">
        <ele>379</ele>
        <time>2011-11-05T14:42:41Z</time>
      </trkpt>
      <trkpt lat="62.8340789862" lon="14.4163049944">
        <ele>378</ele>
        <time>2011-11-05T14:42:42Z</time>
      </trkpt>
      <trkpt lat="62.8340789862" lon="14.4163049944">
        <ele>376</ele>
        <time>2011-11-05T14:42:43Z</time>
      </trkpt>
      <trkpt lat="62.8340789862" lon="14.4163049944">
        <ele>374</ele>
        <time>2011-11-05T14:42:44Z</time>
      </trkpt>
      <trkpt lat="62.8340789862" lon="14.4163049944">
        <ele>374</ele>
        <time>2011-11-05T14:42:45Z</time>
      </trkpt>
      <trkpt lat="62.8340789862" lon="14.4163049944">
        <ele>377</ele>
        <time>2011-11-05T14:42:46Z</time>
      </trkpt>
      <trkpt lat="62.8340789862" lon="14.4163049944">
        <ele>377</ele>
        <time>2011-11-05T14:42:47Z</time>
      </trkpt>
      <trkpt lat="62.8340789862" lon="14.4163049944">
        <ele>378</ele>
        <time>2011-11-05T14:42:48Z</time>
      </trkpt>
      <trkpt lat="62.8340789862" lon="14.4163049944">
        <ele>377</ele>
        <time>2011-11-05T14:42:49Z</time>
      </trkpt>
      <trkpt lat="62.8340789862" lon="14.4163049944">
        <ele>376</ele>
        <time>2011-11-05T14:42:50Z</time>
      </trkpt>
      <trkpt lat="62.8340789862" lon="14.4163049944">
        <ele>369</ele>
        <time>2011-11-05T14:42:51Z</time>
      </trkpt>
      <trkpt lat="62.8340789862" lon="14.4163049944">
        <ele>372</ele>
        <time>2011-11-05T14:42:52Z</time>
      </trkpt>
      <trkpt lat="62.8340789862" lon="14.4163049944">
        <ele>373</ele>
        <time>2011-11-05T14:42:53Z</time>
      </trkpt>
      <trkpt lat="62.8340859432" lon="14.4162869733">
        <ele>378</ele>
        <time>2011-11-05T14:42:54Z</time>
      </trkpt>
      <trkpt lat="62.8340859432" lon="14.4162869733">
        <ele>379</ele>
        <time>2011-11-05T14:42:55Z</time>
      </trkpt>
      <trkpt lat="62.8340859432" lon="14.4162869733">
        <ele>379</ele>
        <time>2011-11-05T14:42:56Z</time>
      </trkpt>
      <trkpt lat="62.8340859432" lon="14.4162869733">
        <ele>377</ele>
        <time>2011-11-05T14:42:57Z</time>
      </trkpt>
      <trkpt lat="62.8340859432" lon="14.4162869733">
        <ele>375</ele>
        <time>2011-11-05T14:42:58Z</time>
      </trkpt>
      <trkpt lat="62.8340859432" lon="14.4162869733">
        <ele>374</ele>
        <time>2011-11-05T14:42:59Z</time>
      </trkpt>
      <trkpt lat="62.8340859432" lon="14.4162869733">
        <ele>372</ele>
        <time>2011-11-05T14:43:00Z</time>
      </trkpt>
      <trkpt lat="62.8340859432" lon="14.4162869733">
        <ele>370</ele>
        <time>2011-11-05T14:43:01Z</time>
      </trkpt>
      <trkpt lat="62.8340859432" lon="14.4162869733">
        <ele>371</ele>
        <time>2011-11-05T14:43:02Z</time>
      </trkpt>
      <trkpt lat="62.8340859432" lon="14.4162869733">
        <ele>375</ele>
        <time>2011-11-05T14:43:03Z</time>
      </trkpt>
      <trkpt lat="62.8340919781" lon="14.4162789267">
        <ele>381</ele>
        <time>2011-11-05T14:43:04Z</time>
      </trkpt>
      <trkpt lat="62.8340989351" lon="14.4162549544">
        <ele>386</ele>
        <time>2011-11-05T14:43:05Z</time>
      </trkpt>
      <trkpt lat="62.8341109212" lon="14.4162249472">
        <ele>386</ele>
        <time>2011-11-05T14:43:06Z</time>
      </trkpt>
      <trkpt lat="62.834124919" lon="14.4161909167">
        <ele>383</ele>
        <time>2011-11-05T14:43:07Z</time>
      </trkpt>
      <trkpt lat="62.8341299482" lon="14.4161469955">
        <ele>381</ele>
        <time>2011-11-05T14:43:08Z</time>
      </trkpt>
      <trkpt lat="62.8341339715" lon="14.4161119591">
        <ele>380</ele>
        <time>2011-11-05T14:43:09Z</time>
      </trkpt>
      <trkpt lat="62.834136989" lon="14.4160869811">
        <ele>384</ele>
        <time>2011-11-05T14:43:10Z</time>
      </trkpt>
      <trkpt lat="62.834136989" lon="14.4160579797">
        <ele>382</ele>
        <time>2011-11-05T14:43:11Z</time>
      </trkpt>
      <trkpt lat="62.8341379948" lon="14.4160329178">
        <ele>381</ele>
        <time>2011-11-05T14:43:12Z</time>
      </trkpt>
      <trkpt lat="62.8341379948" lon="14.4160329178">
        <ele>382</ele>
        <time>2011-11-05T14:43:13Z</time>
      </trkpt>
      <trkpt lat="62.8341379948" lon="14.4160329178">
        <ele>382</ele>
        <time>2011-11-05T14:43:14Z</time>
      </trkpt>
      <trkpt lat="62.834136989" lon="14.41601892">
        <ele>382</ele>
        <time>2011-11-05T14:43:15Z</time>
      </trkpt>
      <trkpt lat="62.8341389168" lon="14.4160099514">
        <ele>380</ele>
        <time>2011-11-05T14:43:16Z</time>
      </trkpt>
      <trkpt lat="62.8341399226" lon="14.4160039164">
        <ele>379</ele>
        <time>2011-11-05T14:43:17Z</time>
      </trkpt>
      <trkpt lat="62.8341389168" lon="14.4159889966">
        <ele>377</ele>
        <time>2011-11-05T14:43:18Z</time>
      </trkpt>
      <trkpt lat="62.8341429401" lon="14.4159719814">
        <ele>376</ele>
        <time>2011-11-05T14:43:19Z</time>
      </trkpt>
      <trkpt lat="62.8341459576" lon="14.4159579836">
        <ele>375</ele>
        <time>2011-11-05T14:43:20Z</time>
      </trkpt>
      <trkpt lat="62.8341459576" lon="14.4159579836">
        <ele>376</ele>
        <time>2011-11-05T14:43:21Z</time>
      </trkpt>
      <trkpt lat="62.8341459576" lon="14.4159569778">
        <ele>376</ele>
        <time>2011-11-05T14:43:22Z</time>
      </trkpt>
      <trkpt lat="62.8341449518" lon="14.4159409683">
        <ele>376</ele>
        <time>2011-11-05T14:43:23Z</time>
      </trkpt>
      <trkpt lat="62.8341419343" lon="14.4159239531">
        <ele>377</ele>
        <time>2011-11-05T14:43:24Z</time>
      </trkpt>
      <trkpt lat="62.8341399226" lon="14.4159079436">
        <ele>377</ele>
        <time>2011-11-05T14:43:25Z</time>
      </trkpt>
      <trkpt lat="62.8341399226" lon="14.4158969633">
        <ele>380</ele>
        <time>2011-11-05T14:43:26Z</time>
      </trkpt>
      <trkpt lat="62.8341399226" lon="14.4158769306">
        <ele>372</ele>
        <time>2011-11-05T14:43:27Z</time>
      </trkpt>
      <trkpt lat="62.8341399226" lon="14.4158769306">
        <ele>367</ele>
        <time>2011-11-05T14:43:28Z</time>
      </trkpt>
      <trkpt lat="62.8341389168" lon="14.4158659503">
        <ele>368</ele>
        <time>2011-11-05T14:43:29Z</time>
      </trkpt>
      <trkpt lat="62.8341439459" lon="14.41585497">
        <ele>369</ele>
        <time>2011-11-05T14:43:30Z</time>
      </trkpt>
      <trkpt lat="62.8341469634" lon="14.4158469234">
        <ele>371</ele>
        <time>2011-11-05T14:43:31Z</time>
      </trkpt>
      <trkpt lat="62.8341499809" lon="14.4158249628">
        <ele>371</ele>
        <time>2011-11-05T14:43:32Z</time>
      </trkpt>
      <trkpt lat="62.8341549262" lon="14.4158039242">
        <ele>370</ele>
        <time>2011-11-05T14:43:33Z</time>
      </trkpt>
      <trkpt lat="62.8341599554" lon="14.4157829694">
        <ele>372</ele>
        <time>2011-11-05T14:43:34Z</time>
      </trkpt>
      <trkpt lat="62.834161967" lon="14.4157629367">
        <ele>372</ele>
        <time>2011-11-05T14:43:35Z</time>
      </trkpt>
      <trkpt lat="62.834161967" lon="14.4157629367">
        <ele>370</ele>
        <time>2011-11-05T14:43:36Z</time>
      </trkpt>
      <trkpt lat="62.8341639787" lon="14.4157509506">
        <ele>371</ele>
        <time>2011-11-05T14:43:37Z</time>
      </trkpt>
      <trkpt lat="62.8341699298" lon="14.4157389645">
        <ele>371</ele>
        <time>2011-11-05T14:43:38Z</time>
      </trkpt>
      <trkpt lat="62.8341779765" lon="14.4157249667">
        <ele>373</ele>
        <time>2011-11-05T14:43:39Z</time>
      </trkpt>
      <trkpt lat="62.8341829218" lon="14.4157119747">
        <ele>374</ele>
        <time>2011-11-05T14:43:40Z</time>
      </trkpt>
      <trkpt lat="62.8341859393" lon="14.4156959653">
        <ele>370</ele>
        <time>2011-11-05T14:43:41Z</time>
      </trkpt>
      <trkpt lat="62.8341919743" lon="14.4156639464">
        <ele>370</ele>
        <time>2011-11-05T14:43:42Z</time>
      </trkpt>
      <trkpt lat="62.8341979254" lon="14.415653972">
        <ele>371</ele>
        <time>2011-11-05T14:43:43Z</time>
      </trkpt>
      <trkpt lat="62.8342039604" lon="14.4156459253">
        <ele>370</ele>
        <time>2011-11-05T14:43:44Z</time>
      </trkpt>
      <trkpt lat="62.8342019487" lon="14.41564098">
        <ele>371</ele>
        <time>2011-11-05T14:43:45Z</time>
      </trkpt>
      <trkpt lat="62.8342049662" lon="14.4156269822">
        <ele>366</ele>
        <time>2011-11-05T14:43:46Z</time>
      </trkpt>
      <trkpt lat="62.8342149407" lon="14.4156209473">
        <ele>365</ele>
        <time>2011-11-05T14:43:47Z</time>
      </trkpt>
      <trkpt lat="62.8342229873" lon="14.4156149961">
        <ele>370</ele>
        <time>2011-11-05T14:43:48Z</time>
      </trkpt>
      <trkpt lat="62.8342239931" lon="14.4156019203">
        <ele>372</ele>
        <time>2011-11-05T14:43:49Z</time>
      </trkpt>
      <trkpt lat="62.8342279326" lon="14.4155879226">
        <ele>376</ele>
        <time>2011-11-05T14:43:50Z</time>
      </trkpt>
      <trkpt lat="62.8342329618" lon="14.415572919">
        <ele>377</ele>
        <time>2011-11-05T14:43:51Z</time>
      </trkpt>
      <trkpt lat="62.8342369851" lon="14.4155619387">
        <ele>377</ele>
        <time>2011-11-05T14:43:52Z</time>
      </trkpt>
      <trkpt lat="62.8342399187" lon="14.4155549817">
        <ele>379</ele>
        <time>2011-11-05T14:43:53Z</time>
      </trkpt>
      <trkpt lat="62.8342419304" lon="14.4155509584">
        <ele>379</ele>
        <time>2011-11-05T14:43:54Z</time>
      </trkpt>
      <trkpt lat="62.8342389967" lon="14.4155439176">
        <ele>378</ele>
        <time>2011-11-05T14:43:55Z</time>
      </trkpt>
      <trkpt lat="62.8342369851" lon="14.4155329373">
        <ele>378</ele>
        <time>2011-11-05T14:43:56Z</time>
      </trkpt>
      <trkpt lat="62.8342379909" lon="14.4155149162">
        <ele>374</ele>
        <time>2011-11-05T14:43:57Z</time>
      </trkpt>
      <trkpt lat="62.8342419304" lon="14.4155119825">
        <ele>376</ele>
        <time>2011-11-05T14:43:58Z</time>
      </trkpt>
      <trkpt lat="62.8342449479" lon="14.4155069534">
        <ele>376</ele>
        <time>2011-11-05T14:43:59Z</time>
      </trkpt>
      <trkpt lat="62.8342459537" lon="14.4155029301">
        <ele>375</ele>
        <time>2011-11-05T14:44:00Z</time>
      </trkpt>
      <trkpt lat="62.8342469595" lon="14.4155079592">
        <ele>376</ele>
        <time>2011-11-05T14:44:01Z</time>
      </trkpt>
      <trkpt lat="62.8342489712" lon="14.4154999964">
        <ele>375</ele>
        <time>2011-11-05T14:44:02Z</time>
      </trkpt>
      <trkpt lat="62.8342489712" lon="14.4154999964">
        <ele>377</ele>
        <time>2011-11-05T14:44:03Z</time>
      </trkpt>
      <trkpt lat="62.8342479654" lon="14.4154919498">
        <ele>379</ele>
        <time>2011-11-05T14:44:04Z</time>
      </trkpt>
      <trkpt lat="62.8342479654" lon="14.4154829811">
        <ele>375</ele>
        <time>2011-11-05T14:44:05Z</time>
      </trkpt>
      <trkpt lat="62.8342479654" lon="14.4154729228">
        <ele>375</ele>
        <time>2011-11-05T14:44:06Z</time>
      </trkpt>
      <trkpt lat="62.8342509829" lon="14.4154589251">
        <ele>375</ele>
        <time>2011-11-05T14:44:07Z</time>
      </trkpt>
      <trkpt lat="62.8342529945" lon="14.4154479448">
        <ele>373</ele>
        <time>2011-11-05T14:44:08Z</time>
      </trkpt>
      <trkpt lat="62.8342609573" lon="14.4154379703">
        <ele>373</ele>
        <time>2011-11-05T14:44:09Z</time>
      </trkpt>
      <trkpt lat="62.8342669923" lon="14.4154229667">
        <ele>372</ele>
        <time>2011-11-05T14:44:10Z</time>
      </trkpt>
      <trkpt lat="62.8342709318" lon="14.4154069573">
        <ele>371</ele>
        <time>2011-11-05T14:44:11Z</time>
      </trkpt>
      <trkpt lat="62.8342739493" lon="14.4153979886">
        <ele>368</ele>
        <time>2011-11-05T14:44:12Z</time>
      </trkpt>
      <trkpt lat="62.8342779726" lon="14.4153909478">
        <ele>367</ele>
        <time>2011-11-05T14:44:13Z</time>
      </trkpt>
      <trkpt lat="62.834300939" lon="14.4153909478">
        <ele>370</ele>
        <time>2011-11-05T14:44:14Z</time>
      </trkpt>
      <trkpt lat="62.8343039565" lon="14.4153569173">
        <ele>375</ele>
        <time>2011-11-05T14:44:15Z</time>
      </trkpt>
      <trkpt lat="62.8343019448" lon="14.4153339509">
        <ele>376</ele>
        <time>2011-11-05T14:44:16Z</time>
      </trkpt>
      <trkpt lat="62.8343059681" lon="14.4153279997">
        <ele>376</ele>
        <time>2011-11-05T14:44:17Z</time>
      </trkpt>
      <trkpt lat="62.8343089856" lon="14.4153209589">
        <ele>375</ele>
        <time>2011-11-05T14:44:18Z</time>
      </trkpt>
      <trkpt lat="62.834306974" lon="14.4153179415">
        <ele>379</ele>
        <time>2011-11-05T14:44:19Z</time>
      </trkpt>
      <trkpt lat="62.834306974" lon="14.4153129961">
        <ele>379</ele>
        <time>2011-11-05T14:44:20Z</time>
      </trkpt>
      <trkpt lat="62.8343029507" lon="14.4153129961">
        <ele>378</ele>
        <time>2011-11-05T14:44:21Z</time>
      </trkpt>
      <trkpt lat="62.8342969995" lon="14.4153139181">
        <ele>378</ele>
        <time>2011-11-05T14:44:22Z</time>
      </trkpt>
      <trkpt lat="62.8342899587" lon="14.4153159298">
        <ele>379</ele>
        <time>2011-11-05T14:44:23Z</time>
      </trkpt>
      <trkpt lat="62.8342859354" lon="14.4153159298">
        <ele>378</ele>
        <time>2011-11-05T14:44:24Z</time>
      </trkpt>
      <trkpt lat="62.8342759609" lon="14.4153119903">
        <ele>379</ele>
        <time>2011-11-05T14:44:25Z</time>
      </trkpt>
      <trkpt lat="62.8342719376" lon="14.4153179415">
        <ele>380</ele>
        <time>2011-11-05T14:44:26Z</time>
      </trkpt>
      <trkpt lat="62.8342609573" lon="14.4153249823">
        <ele>380</ele>
        <time>2011-11-05T14:44:27Z</time>
      </trkpt>
      <trkpt lat="62.834256934" lon="14.4153319392">
        <ele>379</ele>
        <time>2011-11-05T14:44:28Z</time>
      </trkpt>
      <trkpt lat="62.8342469595" lon="14.4153479487">
        <ele>380</ele>
        <time>2011-11-05T14:44:29Z</time>
      </trkpt>
      <trkpt lat="62.8342419304" lon="14.415358929">
        <ele>380</ele>
        <time>2011-11-05T14:44:30Z</time>
      </trkpt>
      <trkpt lat="62.8342359792" lon="14.4153719209">
        <ele>377</ele>
        <time>2011-11-05T14:44:31Z</time>
      </trkpt>
      <trkpt lat="62.8342319559" lon="14.4153889362">
        <ele>378</ele>
        <time>2011-11-05T14:44:32Z</time>
      </trkpt>
      <trkpt lat="62.8342299443" lon="14.415389942">
        <ele>374</ele>
        <time>2011-11-05T14:44:33Z</time>
      </trkpt>
      <trkpt lat="62.8342309501" lon="14.4153919537">
        <ele>374</ele>
        <time>2011-11-05T14:44:34Z</time>
      </trkpt>
      <trkpt lat="62.8342319559" lon="14.4153909478">
        <ele>377</ele>
        <time>2011-11-05T14:44:35Z</time>
      </trkpt>
      <trkpt lat="62.8342309501" lon="14.4153919537">
        <ele>377</ele>
        <time>2011-11-05T14:44:36Z</time>
      </trkpt>
      <trkpt lat="62.834224999" lon="14.4153929595">
        <ele>378</ele>
        <time>2011-11-05T14:44:37Z</time>
      </trkpt>
      <trkpt lat="62.834218964" lon="14.4153999165">
        <ele>377</ele>
        <time>2011-11-05T14:44:38Z</time>
      </trkpt>
      <trkpt lat="62.8342099953" lon="14.4154009223">
        <ele>375</ele>
        <time>2011-11-05T14:44:39Z</time>
      </trkpt>
      <trkpt lat="62.834205972" lon="14.4154079631">
        <ele>374</ele>
        <time>2011-11-05T14:44:40Z</time>
      </trkpt>
      <trkpt lat="62.8341979254" lon="14.4154199492">
        <ele>373</ele>
        <time>2011-11-05T14:44:41Z</time>
      </trkpt>
      <trkpt lat="62.8341849335" lon="14.4154289179">
        <ele>374</ele>
        <time>2011-11-05T14:44:42Z</time>
      </trkpt>
      <trkpt lat="62.8341729473" lon="14.4154439215">
        <ele>374</ele>
        <time>2011-11-05T14:44:43Z</time>
      </trkpt>
      <trkpt lat="62.8341669962" lon="14.4154549856">
        <ele>373</ele>
        <time>2011-11-05T14:44:44Z</time>
      </trkpt>
      <trkpt lat="62.8341519926" lon="14.4154599309">
        <ele>370</ele>
        <time>2011-11-05T14:44:45Z</time>
      </trkpt>
      <trkpt lat="62.8341409285" lon="14.41546496">
        <ele>369</ele>
        <time>2011-11-05T14:44:46Z</time>
      </trkpt>
      <trkpt lat="62.8341289423" lon="14.415470995">
        <ele>370</ele>
        <time>2011-11-05T14:44:47Z</time>
      </trkpt>
      <trkpt lat="62.834117962" lon="14.4154769462">
        <ele>370</ele>
        <time>2011-11-05T14:44:48Z</time>
      </trkpt>
      <trkpt lat="62.8341139387" lon="14.4154829811">
        <ele>364</ele>
        <time>2011-11-05T14:44:49Z</time>
      </trkpt>
      <trkpt lat="62.8341079876" lon="14.4154879265">
        <ele>361</ele>
        <time>2011-11-05T14:44:50Z</time>
      </trkpt>
      <trkpt lat="62.8341049701" lon="14.4154889323">
        <ele>362</ele>
        <time>2011-11-05T14:44:51Z</time>
      </trkpt>
      <trkpt lat="62.834099941" lon="14.4154929556">
        <ele>361</ele>
        <time>2011-11-05T14:44:52Z</time>
      </trkpt>
      <trkpt lat="62.8340949956" lon="14.4154999964">
        <ele>364</ele>
        <time>2011-11-05T14:44:53Z</time>
      </trkpt>
      <trkpt lat="62.8340979293" lon="14.4155109767">
        <ele>364</ele>
        <time>2011-11-05T14:44:54Z</time>
      </trkpt>
      <trkpt lat="62.834099941" lon="14.4155289978">
        <ele>366</ele>
        <time>2011-11-05T14:44:55Z</time>
      </trkpt>
      <trkpt lat="62.8340989351" lon="14.4155369606">
        <ele>367</ele>
        <time>2011-11-05T14:44:56Z</time>
      </trkpt>
      <trkpt lat="62.8340989351" lon="14.4155449234">
        <ele>366</ele>
        <time>2011-11-05T14:44:57Z</time>
      </trkpt>
      <trkpt lat="62.8340979293" lon="14.4155469351">
        <ele>367</ele>
        <time>2011-11-05T14:44:58Z</time>
      </trkpt>
      <trkpt lat="62.8340979293" lon="14.4155469351">
        <ele>368</ele>
        <time>2011-11-05T14:44:59Z</time>
      </trkpt>
      <trkpt lat="62.8340979293" lon="14.4155689795">
        <ele>369</ele>
        <time>2011-11-05T14:45:00Z</time>
      </trkpt>
      <trkpt lat="62.8340969235" lon="14.4155829772">
        <ele>369</ele>
        <time>2011-11-05T14:45:01Z</time>
      </trkpt>
      <trkpt lat="62.8340949956" lon="14.4155879226">
        <ele>367</ele>
        <time>2011-11-05T14:45:02Z</time>
      </trkpt>
      <trkpt lat="62.8340889607" lon="14.4155929517">
        <ele>367</ele>
        <time>2011-11-05T14:45:03Z</time>
      </trkpt>
      <trkpt lat="62.8340809979" lon="14.4156019203">
        <ele>366</ele>
        <time>2011-11-05T14:45:04Z</time>
      </trkpt>
      <trkpt lat="62.8340749629" lon="14.4156159181">
        <ele>366</ele>
        <time>2011-11-05T14:45:05Z</time>
      </trkpt>
      <trkpt lat="62.8340729512" lon="14.4156219531">
        <ele>364</ele>
        <time>2011-11-05T14:45:06Z</time>
      </trkpt>
      <trkpt lat="62.8340729512" lon="14.4156309217">
        <ele>363</ele>
        <time>2011-11-05T14:45:07Z</time>
      </trkpt>
      <trkpt lat="62.8340649884" lon="14.41564098">
        <ele>364</ele>
        <time>2011-11-05T14:45:08Z</time>
      </trkpt>
      <trkpt lat="62.8340549301" lon="14.4156509545">
        <ele>364</ele>
        <time>2011-11-05T14:45:09Z</time>
      </trkpt>
      <trkpt lat="62.8340459615" lon="14.4156579953">
        <ele>363</ele>
        <time>2011-11-05T14:45:10Z</time>
      </trkpt>
      <trkpt lat="62.8340409324" lon="14.4156649522">
        <ele>362</ele>
        <time>2011-11-05T14:45:11Z</time>
      </trkpt>
      <trkpt lat="62.834035987" lon="14.4156729989">
        <ele>367</ele>
        <time>2011-11-05T14:45:12Z</time>
      </trkpt>
      <trkpt lat="62.8340329695" lon="14.4156799559">
        <ele>366</ele>
        <time>2011-11-05T14:45:13Z</time>
      </trkpt>
      <trkpt lat="62.8340249229" lon="14.4156929478">
        <ele>369</ele>
        <time>2011-11-05T14:45:14Z</time>
      </trkpt>
      <trkpt lat="62.8340199776" lon="14.4156999886">
        <ele>368</ele>
        <time>2011-11-05T14:45:15Z</time>
      </trkpt>
      <trkpt lat="62.8340029623" lon="14.415691942">
        <ele>365</ele>
        <time>2011-11-05T14:45:16Z</time>
      </trkpt>
      <trkpt lat="62.8339819238" lon="14.4156809617">
        <ele>363</ele>
        <time>2011-11-05T14:45:17Z</time>
      </trkpt>
      <trkpt lat="62.8339659981" lon="14.4156619348">
        <ele>362</ele>
        <time>2011-11-05T14:45:18Z</time>
      </trkpt>
      <trkpt lat="62.8339509945" lon="14.4156499486">
        <ele>362</ele>
        <time>2011-11-05T14:45:19Z</time>
      </trkpt>
      <trkpt lat="62.8339349851" lon="14.415634945">
        <ele>367</ele>
        <time>2011-11-05T14:45:20Z</time>
      </trkpt>
      <trkpt lat="62.8339139465" lon="14.4156159181">
        <ele>369</ele>
        <time>2011-11-05T14:45:21Z</time>
      </trkpt>
      <trkpt lat="62.8339029662" lon="14.4155989867">
        <ele>367</ele>
        <time>2011-11-05T14:45:22Z</time>
      </trkpt>
      <trkpt lat="62.8338989429" lon="14.4155789539">
        <ele>365</ele>
        <time>2011-11-05T14:45:23Z</time>
      </trkpt>
      <trkpt lat="62.8338979371" lon="14.4155819714">
        <ele>367</ele>
        <time>2011-11-05T14:45:24Z</time>
      </trkpt>
      <trkpt lat="62.8338809218" lon="14.415572919">
        <ele>362</ele>
        <time>2011-11-05T14:45:25Z</time>
      </trkpt>
      <trkpt lat="62.8338609729" lon="14.4155549817">
        <ele>361</ele>
        <time>2011-11-05T14:45:26Z</time>
      </trkpt>
      <trkpt lat="62.833841946" lon="14.4155519642">
        <ele>364</ele>
        <time>2011-11-05T14:45:27Z</time>
      </trkpt>
      <trkpt lat="62.8338269424" lon="14.4155509584">
        <ele>365</ele>
        <time>2011-11-05T14:45:28Z</time>
      </trkpt>
      <trkpt lat="62.8338149562" lon="14.4155569933">
        <ele>362</ele>
        <time>2011-11-05T14:45:29Z</time>
      </trkpt>
      <trkpt lat="62.8338049818" lon="14.4155619387">
        <ele>363</ele>
        <time>2011-11-05T14:45:30Z</time>
      </trkpt>
      <trkpt lat="62.833797941" lon="14.415565962">
        <ele>361</ele>
        <time>2011-11-05T14:45:31Z</time>
      </trkpt>
      <trkpt lat="62.833797941" lon="14.415565962">
        <ele>361</ele>
        <time>2011-11-05T14:45:32Z</time>
      </trkpt>
      <trkpt lat="62.833797941" lon="14.415565962">
        <ele>360</ele>
        <time>2011-11-05T14:45:33Z</time>
      </trkpt>
      <trkpt lat="62.8337929957" lon="14.4155689795">
        <ele>360</ele>
        <time>2011-11-05T14:45:34Z</time>
      </trkpt>
      <trkpt lat="62.8337689396" lon="14.4155709911">
        <ele>360</ele>
        <time>2011-11-05T14:45:35Z</time>
      </trkpt>
      <trkpt lat="62.833753936" lon="14.4155679736">
        <ele>360</ele>
        <time>2011-11-05T14:45:36Z</time>
      </trkpt>
      <trkpt lat="62.8337429557" lon="14.4155649561">
        <ele>361</ele>
        <time>2011-11-05T14:45:37Z</time>
      </trkpt>
      <trkpt lat="62.8337309696" lon="14.4155779481">
        <ele>359</ele>
        <time>2011-11-05T14:45:38Z</time>
      </trkpt>
      <trkpt lat="62.8337199893" lon="14.4155879226">
        <ele>357</ele>
        <time>2011-11-05T14:45:39Z</time>
      </trkpt>
      <trkpt lat="62.833709931" lon="14.4155939575">
        <ele>358</ele>
        <time>2011-11-05T14:45:40Z</time>
      </trkpt>
      <trkpt lat="62.8336909879" lon="14.4156029262">
        <ele>355</ele>
        <time>2011-11-05T14:45:41Z</time>
      </trkpt>
      <trkpt lat="62.8336779959" lon="14.415609967">
        <ele>358</ele>
        <time>2011-11-05T14:45:42Z</time>
      </trkpt>
      <trkpt lat="62.833671961" lon="14.4156119786">
        <ele>356</ele>
        <time>2011-11-05T14:45:43Z</time>
      </trkpt>
      <trkpt lat="62.8336559515" lon="14.4156189356">
        <ele>354</ele>
        <time>2011-11-05T14:45:44Z</time>
      </trkpt>
      <trkpt lat="62.8336499166" lon="14.4156209473">
        <ele>355</ele>
        <time>2011-11-05T14:45:45Z</time>
      </trkpt>
      <trkpt lat="62.8336369246" lon="14.4156219531">
        <ele>353</ele>
        <time>2011-11-05T14:45:46Z</time>
      </trkpt>
      <trkpt lat="62.8336299676" lon="14.4156339392">
        <ele>353</ele>
        <time>2011-11-05T14:45:47Z</time>
      </trkpt>
      <trkpt lat="62.833621921" lon="14.4156339392">
        <ele>350</ele>
        <time>2011-11-05T14:45:48Z</time>
      </trkpt>
      <trkpt lat="62.8336089291" lon="14.4156389683">
        <ele>350</ele>
        <time>2011-11-05T14:45:49Z</time>
      </trkpt>
      <trkpt lat="62.8335989546" lon="14.4156469312">
        <ele>348</ele>
        <time>2011-11-05T14:45:50Z</time>
      </trkpt>
      <trkpt lat="62.833583951" lon="14.4156449195">
        <ele>347</ele>
        <time>2011-11-05T14:45:51Z</time>
      </trkpt>
      <trkpt lat="62.8335739765" lon="14.4156399742">
        <ele>352</ele>
        <time>2011-11-05T14:45:52Z</time>
      </trkpt>
      <trkpt lat="62.8335659299" lon="14.4156339392">
        <ele>354</ele>
        <time>2011-11-05T14:45:53Z</time>
      </trkpt>
      <trkpt lat="62.8335619904" lon="14.4156399742">
        <ele>353</ele>
        <time>2011-11-05T14:45:54Z</time>
      </trkpt>
      <trkpt lat="62.8335559554" lon="14.4156569894">
        <ele>354</ele>
        <time>2011-11-05T14:45:55Z</time>
      </trkpt>
      <trkpt lat="62.833545981" lon="14.4156659581">
        <ele>354</ele>
        <time>2011-11-05T14:45:56Z</time>
      </trkpt>
      <trkpt lat="62.8335299715" lon="14.4156689756">
        <ele>353</ele>
        <time>2011-11-05T14:45:57Z</time>
      </trkpt>
      <trkpt lat="62.8335139621" lon="14.4156679697">
        <ele>356</ele>
        <time>2011-11-05T14:45:58Z</time>
      </trkpt>
      <trkpt lat="62.833495941" lon="14.4156739209">
        <ele>357</ele>
        <time>2011-11-05T14:45:59Z</time>
      </trkpt>
      <trkpt lat="62.8334759921" lon="14.4156769384">
        <ele>357</ele>
        <time>2011-11-05T14:46:00Z</time>
      </trkpt>
      <trkpt lat="62.8334609885" lon="14.4156809617">
        <ele>353</ele>
        <time>2011-11-05T14:46:01Z</time>
      </trkpt>
      <trkpt lat="62.8334549535" lon="14.4156969711">
        <ele>353</ele>
        <time>2011-11-05T14:46:02Z</time>
      </trkpt>
      <trkpt lat="62.8334459849" lon="14.4157059398">
        <ele>353</ele>
        <time>2011-11-05T14:46:03Z</time>
      </trkpt>
      <trkpt lat="62.8334399499" lon="14.4157119747">
        <ele>356</ele>
        <time>2011-11-05T14:46:04Z</time>
      </trkpt>
      <trkpt lat="62.8334239405" lon="14.4157149922">
        <ele>355</ele>
        <time>2011-11-05T14:46:05Z</time>
      </trkpt>
      <trkpt lat="62.833413966" lon="14.4157239608">
        <ele>354</ele>
        <time>2011-11-05T14:46:06Z</time>
      </trkpt>
      <trkpt lat="62.8333969507" lon="14.4157309178">
        <ele>350</ele>
        <time>2011-11-05T14:46:07Z</time>
      </trkpt>
      <trkpt lat="62.8333929274" lon="14.4157479331">
        <ele>354</ele>
        <time>2011-11-05T14:46:08Z</time>
      </trkpt>
      <trkpt lat="62.8333839588" lon="14.4157589972">
        <ele>356</ele>
        <time>2011-11-05T14:46:09Z</time>
      </trkpt>
      <trkpt lat="62.8333789296" lon="14.415773917">
        <ele>356</ele>
        <time>2011-11-05T14:46:10Z</time>
      </trkpt>
      <trkpt lat="62.8333659377" lon="14.4157949556">
        <ele>355</ele>
        <time>2011-11-05T14:46:11Z</time>
      </trkpt>
      <trkpt lat="62.8333589807" lon="14.4157969672">
        <ele>355</ele>
        <time>2011-11-05T14:46:12Z</time>
      </trkpt>
      <trkpt lat="62.8333479166" lon="14.4157969672">
        <ele>356</ele>
        <time>2011-11-05T14:46:13Z</time>
      </trkpt>
      <trkpt lat="62.8333399538" lon="14.4157959614">
        <ele>355</ele>
        <time>2011-11-05T14:46:14Z</time>
      </trkpt>
      <trkpt lat="62.8333309852" lon="14.4158089533">
        <ele>356</ele>
        <time>2011-11-05T14:46:15Z</time>
      </trkpt>
      <trkpt lat="62.8333249502" lon="14.4158129767">
        <ele>356</ele>
        <time>2011-11-05T14:46:16Z</time>
      </trkpt>
      <trkpt lat="62.8333159816" lon="14.4158159941">
        <ele>356</ele>
        <time>2011-11-05T14:46:17Z</time>
      </trkpt>
      <trkpt lat="62.8333059233" lon="14.4158159941">
        <ele>355</ele>
        <time>2011-11-05T14:46:18Z</time>
      </trkpt>
      <trkpt lat="62.8333029896" lon="14.4158129767">
        <ele>356</ele>
        <time>2011-11-05T14:46:19Z</time>
      </trkpt>
      <trkpt lat="62.8333029896" lon="14.4158129767">
        <ele>355</ele>
        <time>2011-11-05T14:46:20Z</time>
      </trkpt>
      <trkpt lat="62.8332939371" lon="14.4158149883">
        <ele>356</ele>
        <time>2011-11-05T14:46:21Z</time>
      </trkpt>
      <trkpt lat="62.8332889918" lon="14.415817922">
        <ele>356</ele>
        <time>2011-11-05T14:46:22Z</time>
      </trkpt>
      <trkpt lat="62.833274994" lon="14.4158329256">
        <ele>360</ele>
        <time>2011-11-05T14:46:23Z</time>
      </trkpt>
      <trkpt lat="62.8332619183" lon="14.4158389606">
        <ele>361</ele>
        <time>2011-11-05T14:46:24Z</time>
      </trkpt>
      <trkpt lat="62.8332529496" lon="14.4158289861">
        <ele>361</ele>
        <time>2011-11-05T14:46:25Z</time>
      </trkpt>
      <trkpt lat="62.8332489263" lon="14.4158129767">
        <ele>357</ele>
        <time>2011-11-05T14:46:26Z</time>
      </trkpt>
      <trkpt lat="62.8332399577" lon="14.4157969672">
        <ele>357</ele>
        <time>2011-11-05T14:46:27Z</time>
      </trkpt>
      <trkpt lat="62.8332309891" lon="14.4157939497">
        <ele>358</ele>
        <time>2011-11-05T14:46:28Z</time>
      </trkpt>
      <trkpt lat="62.8332199249" lon="14.4157979731">
        <ele>356</ele>
        <time>2011-11-05T14:46:29Z</time>
      </trkpt>
      <trkpt lat="62.8332009818" lon="14.4158019964">
        <ele>360</ele>
        <time>2011-11-05T14:46:30Z</time>
      </trkpt>
      <trkpt lat="62.8331899177" lon="14.4158029184">
        <ele>359</ele>
        <time>2011-11-05T14:46:31Z</time>
      </trkpt>
      <trkpt lat="62.8331779316" lon="14.4157949556">
        <ele>360</ele>
        <time>2011-11-05T14:46:32Z</time>
      </trkpt>
      <trkpt lat="62.8331679571" lon="14.4157969672">
        <ele>360</ele>
        <time>2011-11-05T14:46:33Z</time>
      </trkpt>
      <trkpt lat="62.8331599943" lon="14.4157949556">
        <ele>361</ele>
        <time>2011-11-05T14:46:34Z</time>
      </trkpt>
      <trkpt lat="62.8331509419" lon="14.4157899264">
        <ele>361</ele>
        <time>2011-11-05T14:46:35Z</time>
      </trkpt>
      <trkpt lat="62.8331379499" lon="14.4157759286">
        <ele>362</ele>
        <time>2011-11-05T14:46:36Z</time>
      </trkpt>
      <trkpt lat="62.8331209347" lon="14.4157809578">
        <ele>363</ele>
        <time>2011-11-05T14:46:37Z</time>
      </trkpt>
      <trkpt lat="62.8331139777" lon="14.4157809578">
        <ele>363</ele>
        <time>2011-11-05T14:46:38Z</time>
      </trkpt>
      <trkpt lat="62.8331079427" lon="14.4157859869">
        <ele>362</ele>
        <time>2011-11-05T14:46:39Z</time>
      </trkpt>
      <trkpt lat="62.8331049252" lon="14.4157879986">
        <ele>366</ele>
        <time>2011-11-05T14:46:40Z</time>
      </trkpt>
      <trkpt lat="62.8331009857" lon="14.4157829694">
        <ele>369</ele>
        <time>2011-11-05T14:46:41Z</time>
      </trkpt>
      <trkpt lat="62.8330979683" lon="14.4157819636">
        <ele>369</ele>
        <time>2011-11-05T14:46:42Z</time>
      </trkpt>
      <trkpt lat="62.8330949508" lon="14.4157859869">
        <ele>368</ele>
        <time>2011-11-05T14:46:43Z</time>
      </trkpt>
      <trkpt lat="62.8330909275" lon="14.4157849811">
        <ele>367</ele>
        <time>2011-11-05T14:46:44Z</time>
      </trkpt>
      <trkpt lat="62.8330889996" lon="14.4157849811">
        <ele>368</ele>
        <time>2011-11-05T14:46:45Z</time>
      </trkpt>
      <trkpt lat="62.8330779355" lon="14.4157859869">
        <ele>365</ele>
        <time>2011-11-05T14:46:46Z</time>
      </trkpt>
      <trkpt lat="62.8330649436" lon="14.4157879986">
        <ele>370</ele>
        <time>2011-11-05T14:46:47Z</time>
      </trkpt>
      <trkpt lat="62.8330489341" lon="14.4157899264">
        <ele>370</ele>
        <time>2011-11-05T14:46:48Z</time>
      </trkpt>
      <trkpt lat="62.8330399655" lon="14.4157939497">
        <ele>371</ele>
        <time>2011-11-05T14:46:49Z</time>
      </trkpt>
      <trkpt lat="62.8330199327" lon="14.4157959614">
        <ele>368</ele>
        <time>2011-11-05T14:46:50Z</time>
      </trkpt>
      <trkpt lat="62.8330069408" lon="14.4157969672">
        <ele>373</ele>
        <time>2011-11-05T14:46:51Z</time>
      </trkpt>
      <trkpt lat="62.8329999838" lon="14.4157869928">
        <ele>372</ele>
        <time>2011-11-05T14:46:52Z</time>
      </trkpt>
      <trkpt lat="62.8329899255" lon="14.415779952">
        <ele>373</ele>
        <time>2011-11-05T14:46:53Z</time>
      </trkpt>
      <trkpt lat="62.8329809569" lon="14.4157749228">
        <ele>376</ele>
        <time>2011-11-05T14:46:54Z</time>
      </trkpt>
      <trkpt lat="62.8329709824" lon="14.4157649484">
        <ele>376</ele>
        <time>2011-11-05T14:46:55Z</time>
      </trkpt>
      <trkpt lat="62.83296193" lon="14.4157539681">
        <ele>376</ele>
        <time>2011-11-05T14:46:56Z</time>
      </trkpt>
      <trkpt lat="62.8329559788" lon="14.4157389645">
        <ele>375</ele>
        <time>2011-11-05T14:46:57Z</time>
      </trkpt>
      <trkpt lat="62.8329459205" lon="14.4157319237">
        <ele>373</ele>
        <time>2011-11-05T14:46:58Z</time>
      </trkpt>
      <trkpt lat="62.8329339344" lon="14.4157239608">
        <ele>370</ele>
        <time>2011-11-05T14:46:59Z</time>
      </trkpt>
      <trkpt lat="62.8329259716" lon="14.4157079514">
        <ele>370</ele>
        <time>2011-11-05T14:47:00Z</time>
      </trkpt>
      <trkpt lat="62.8329089563" lon="14.4156969711">
        <ele>370</ele>
        <time>2011-11-05T14:47:01Z</time>
      </trkpt>
      <trkpt lat="62.832897976" lon="14.4156879187">
        <ele>366</ele>
        <time>2011-11-05T14:47:02Z</time>
      </trkpt>
      <trkpt lat="62.8328889236" lon="14.4156879187">
        <ele>363</ele>
        <time>2011-11-05T14:47:03Z</time>
      </trkpt>
      <trkpt lat="62.8328799549" lon="14.4156899303">
        <ele>364</ele>
        <time>2011-11-05T14:47:04Z</time>
      </trkpt>
      <trkpt lat="62.83287392" lon="14.4156929478">
        <ele>367</ele>
        <time>2011-11-05T14:47:05Z</time>
      </trkpt>
      <trkpt lat="62.832866963" lon="14.4156929478">
        <ele>360</ele>
        <time>2011-11-05T14:47:06Z</time>
      </trkpt>
      <trkpt lat="62.8328599222" lon="14.4156859908">
        <ele>361</ele>
        <time>2011-11-05T14:47:07Z</time>
      </trkpt>
      <trkpt lat="62.8328519594" lon="14.4156759325">
        <ele>359</ele>
        <time>2011-11-05T14:47:08Z</time>
      </trkpt>
      <trkpt lat="62.8328439966" lon="14.4156689756">
        <ele>358</ele>
        <time>2011-11-05T14:47:09Z</time>
      </trkpt>
      <trkpt lat="62.8328389674" lon="14.4156639464">
        <ele>359</ele>
        <time>2011-11-05T14:47:10Z</time>
      </trkpt>
      <trkpt lat="62.8328329325" lon="14.4156599231">
        <ele>360</ele>
        <time>2011-11-05T14:47:11Z</time>
      </trkpt>
      <trkpt lat="62.832828993" lon="14.4156489428">
        <ele>360</ele>
        <time>2011-11-05T14:47:12Z</time>
      </trkpt>
      <trkpt lat="62.832822958" lon="14.4156419858">
        <ele>359</ele>
        <time>2011-11-05T14:47:13Z</time>
      </trkpt>
      <trkpt lat="62.8328199405" lon="14.4156399742">
        <ele>361</ele>
        <time>2011-11-05T14:47:14Z</time>
      </trkpt>
      <trkpt lat="62.832816923" lon="14.4156369567">
        <ele>362</ele>
        <time>2011-11-05T14:47:15Z</time>
      </trkpt>
      <trkpt lat="62.8328109719" lon="14.4156329334">
        <ele>359</ele>
        <time>2011-11-05T14:47:16Z</time>
      </trkpt>
      <trkpt lat="62.8328019194" lon="14.4156389683">
        <ele>355</ele>
        <time>2011-11-05T14:47:17Z</time>
      </trkpt>
      <trkpt lat="62.8327959683" lon="14.4156319275">
        <ele>356</ele>
        <time>2011-11-05T14:47:18Z</time>
      </trkpt>
      <trkpt lat="62.8327839822" lon="14.415634945">
        <ele>354</ele>
        <time>2011-11-05T14:47:19Z</time>
      </trkpt>
      <trkpt lat="62.8327769414" lon="14.4156339392">
        <ele>356</ele>
        <time>2011-11-05T14:47:20Z</time>
      </trkpt>
      <trkpt lat="62.832772918" lon="14.4156229589">
        <ele>356</ele>
        <time>2011-11-05T14:47:21Z</time>
      </trkpt>
      <trkpt lat="62.832772918" lon="14.4156129844">
        <ele>355</ele>
        <time>2011-11-05T14:47:22Z</time>
      </trkpt>
      <trkpt lat="62.8327639494" lon="14.4156049378">
        <ele>354</ele>
        <time>2011-11-05T14:47:23Z</time>
      </trkpt>
      <trkpt lat="62.8327599261" lon="14.4155899342">
        <ele>355</ele>
        <time>2011-11-05T14:47:24Z</time>
      </trkpt>
      <trkpt lat="62.8327539749" lon="14.4155779481">
        <ele>354</ele>
        <time>2011-11-05T14:47:25Z</time>
      </trkpt>
      <trkpt lat="62.8327499516" lon="14.4155669678">
        <ele>352</ele>
        <time>2011-11-05T14:47:26Z</time>
      </trkpt>
      <trkpt lat="62.8327459283" lon="14.4155499525">
        <ele>350</ele>
        <time>2011-11-05T14:47:27Z</time>
      </trkpt>
      <trkpt lat="62.8327359539" lon="14.4155299198">
        <ele>351</ele>
        <time>2011-11-05T14:47:28Z</time>
      </trkpt>
      <trkpt lat="62.8327269852" lon="14.4155119825">
        <ele>351</ele>
        <time>2011-11-05T14:47:29Z</time>
      </trkpt>
      <trkpt lat="62.8327209502" lon="14.4154959731">
        <ele>351</ele>
        <time>2011-11-05T14:47:30Z</time>
      </trkpt>
      <trkpt lat="62.8327169269" lon="14.415477952">
        <ele>351</ele>
        <time>2011-11-05T14:47:31Z</time>
      </trkpt>
      <trkpt lat="62.8327109758" lon="14.4154639542">
        <ele>351</ele>
        <time>2011-11-05T14:47:32Z</time>
      </trkpt>
      <trkpt lat="62.8327069525" lon="14.4154509623">
        <ele>349</ele>
        <time>2011-11-05T14:47:33Z</time>
      </trkpt>
      <trkpt lat="62.8327029292" lon="14.4154379703">
        <ele>348</ele>
        <time>2011-11-05T14:47:34Z</time>
      </trkpt>
      <trkpt lat="62.8327019233" lon="14.4154249784">
        <ele>349</ele>
        <time>2011-11-05T14:47:35Z</time>
      </trkpt>
      <trkpt lat="62.8326949663" lon="14.4154109806">
        <ele>348</ele>
        <time>2011-11-05T14:47:36Z</time>
      </trkpt>
      <trkpt lat="62.8326879255" lon="14.4153979886">
        <ele>348</ele>
        <time>2011-11-05T14:47:37Z</time>
      </trkpt>
      <trkpt lat="62.8326819744" lon="14.4153799675">
        <ele>349</ele>
        <time>2011-11-05T14:47:38Z</time>
      </trkpt>
      <trkpt lat="62.8326759394" lon="14.4153649639">
        <ele>349</ele>
        <time>2011-11-05T14:47:39Z</time>
      </trkpt>
      <trkpt lat="62.8326699883" lon="14.4153559953">
        <ele>349</ele>
        <time>2011-11-05T14:47:40Z</time>
      </trkpt>
      <trkpt lat="62.8326649591" lon="14.4153429195">
        <ele>348</ele>
        <time>2011-11-05T14:47:41Z</time>
      </trkpt>
      <trkpt lat="62.8326569963" lon="14.4153349567">
        <ele>347</ele>
        <time>2011-11-05T14:47:42Z</time>
      </trkpt>
      <trkpt lat="62.8326479439" lon="14.4153249823">
        <ele>347</ele>
        <time>2011-11-05T14:47:43Z</time>
      </trkpt>
      <trkpt lat="62.8326389752" lon="14.4153199531">
        <ele>346</ele>
        <time>2011-11-05T14:47:44Z</time>
      </trkpt>
      <trkpt lat="62.8326289169" lon="14.4153069612">
        <ele>347</ele>
        <time>2011-11-05T14:47:45Z</time>
      </trkpt>
      <trkpt lat="62.83262196" lon="14.4152969867">
        <ele>348</ele>
        <time>2011-11-05T14:47:46Z</time>
      </trkpt>
      <trkpt lat="62.8326169308" lon="14.4152849168">
        <ele>346</ele>
        <time>2011-11-05T14:47:47Z</time>
      </trkpt>
      <trkpt lat="62.8326139972" lon="14.415270919">
        <ele>346</ele>
        <time>2011-11-05T14:47:48Z</time>
      </trkpt>
      <trkpt lat="62.8326119855" lon="14.4152569212">
        <ele>344</ele>
        <time>2011-11-05T14:47:49Z</time>
      </trkpt>
      <trkpt lat="62.8326109797" lon="14.4152439293">
        <ele>345</ele>
        <time>2011-11-05T14:47:50Z</time>
      </trkpt>
      <trkpt lat="62.832608968" lon="14.4152319431">
        <ele>346</ele>
        <time>2011-11-05T14:47:51Z</time>
      </trkpt>
      <trkpt lat="62.8326079622" lon="14.4152149279">
        <ele>348</ele>
        <time>2011-11-05T14:47:52Z</time>
      </trkpt>
      <trkpt lat="62.8326039389" lon="14.4151989184">
        <ele>349</ele>
        <time>2011-11-05T14:47:53Z</time>
      </trkpt>
      <trkpt lat="62.8326009214" lon="14.4151859265">
        <ele>350</ele>
        <time>2011-11-05T14:47:54Z</time>
      </trkpt>
      <trkpt lat="62.8325969819" lon="14.4151729345">
        <ele>349</ele>
        <time>2011-11-05T14:47:55Z</time>
      </trkpt>
      <trkpt lat="62.8325909469" lon="14.4151519798">
        <ele>352</ele>
        <time>2011-11-05T14:47:56Z</time>
      </trkpt>
      <trkpt lat="62.8325809725" lon="14.4151149318">
        <ele>352</ele>
        <time>2011-11-05T14:47:57Z</time>
      </trkpt>
      <trkpt lat="62.8325679805" lon="14.4150709268">
        <ele>351</ele>
        <time>2011-11-05T14:47:58Z</time>
      </trkpt>
      <trkpt lat="62.8325599339" lon="14.4150469545">
        <ele>350</ele>
        <time>2011-11-05T14:47:59Z</time>
      </trkpt>
      <trkpt lat="62.8325549886" lon="14.4150329567">
        <ele>349</ele>
        <time>2011-11-05T14:48:00Z</time>
      </trkpt>
      <trkpt lat="62.8325499594" lon="14.4150209706">
        <ele>350</ele>
        <time>2011-11-05T14:48:01Z</time>
      </trkpt>
      <trkpt lat="62.8325479478" lon="14.415012924">
        <ele>350</ele>
        <time>2011-11-05T14:48:02Z</time>
      </trkpt>
      <trkpt lat="62.8325429186" lon="14.4150109962">
        <ele>349</ele>
        <time>2011-11-05T14:48:03Z</time>
      </trkpt>
      <trkpt lat="62.8325299267" lon="14.4150069728">
        <ele>348</ele>
        <time>2011-11-05T14:48:04Z</time>
      </trkpt>
      <trkpt lat="62.8325149231" lon="14.4150109962">
        <ele>347</ele>
        <time>2011-11-05T14:48:05Z</time>
      </trkpt>
      <trkpt lat="62.8325059544" lon="14.4150119182">
        <ele>343</ele>
        <time>2011-11-05T14:48:06Z</time>
      </trkpt>
      <trkpt lat="62.8325009253" lon="14.4150109962">
        <ele>343</ele>
        <time>2011-11-05T14:48:07Z</time>
      </trkpt>
      <trkpt lat="62.8324949741" lon="14.415005967">
        <ele>343</ele>
        <time>2011-11-05T14:48:08Z</time>
      </trkpt>
      <trkpt lat="62.8324869275" lon="14.4150159415">
        <ele>343</ele>
        <time>2011-11-05T14:48:09Z</time>
      </trkpt>
      <trkpt lat="62.832476953" lon="14.4150259998">
        <ele>341</ele>
        <time>2011-11-05T14:48:10Z</time>
      </trkpt>
      <trkpt lat="62.8324709181" lon="14.4150319509">
        <ele>341</ele>
        <time>2011-11-05T14:48:11Z</time>
      </trkpt>
      <trkpt lat="62.8324619494" lon="14.4150429312">
        <ele>337</ele>
        <time>2011-11-05T14:48:12Z</time>
      </trkpt>
      <trkpt lat="62.8324559983" lon="14.4150429312">
        <ele>337</ele>
        <time>2011-11-05T14:48:13Z</time>
      </trkpt>
      <trkpt lat="62.8324439283" lon="14.4150459487">
        <ele>339</ele>
        <time>2011-11-05T14:48:14Z</time>
      </trkpt>
      <trkpt lat="62.8324349597" lon="14.4150509778">
        <ele>339</ele>
        <time>2011-11-05T14:48:15Z</time>
      </trkpt>
      <trkpt lat="62.8324249852" lon="14.4150549173">
        <ele>338</ele>
        <time>2011-11-05T14:48:16Z</time>
      </trkpt>
      <trkpt lat="62.8324189503" lon="14.4150559232">
        <ele>342</ele>
        <time>2011-11-05T14:48:17Z</time>
      </trkpt>
      <trkpt lat="62.8324089758" lon="14.4150599465">
        <ele>345</ele>
        <time>2011-11-05T14:48:18Z</time>
      </trkpt>
      <trkpt lat="62.832394978" lon="14.4150609523">
        <ele>342</ele>
        <time>2011-11-05T14:48:19Z</time>
      </trkpt>
      <trkpt lat="62.8323869314" lon="14.4150589406">
        <ele>340</ele>
        <time>2011-11-05T14:48:20Z</time>
      </trkpt>
      <trkpt lat="62.8323769569" lon="14.4150649756">
        <ele>339</ele>
        <time>2011-11-05T14:48:21Z</time>
      </trkpt>
      <trkpt lat="62.8323649708" lon="14.4150649756">
        <ele>339</ele>
        <time>2011-11-05T14:48:22Z</time>
      </trkpt>
      <trkpt lat="62.8323529847" lon="14.4150659814">
        <ele>340</ele>
        <time>2011-11-05T14:48:23Z</time>
      </trkpt>
      <trkpt lat="62.8323399927" lon="14.4150709268">
        <ele>339</ele>
        <time>2011-11-05T14:48:24Z</time>
      </trkpt>
      <trkpt lat="62.8323309403" lon="14.4150739443">
        <ele>341</ele>
        <time>2011-11-05T14:48:25Z</time>
      </trkpt>
      <trkpt lat="62.8323229775" lon="14.4150759559">
        <ele>340</ele>
        <time>2011-11-05T14:48:26Z</time>
      </trkpt>
      <trkpt lat="62.8323159367" lon="14.4150789734">
        <ele>339</ele>
        <time>2011-11-05T14:48:27Z</time>
      </trkpt>
      <trkpt lat="62.8323119972" lon="14.4150849245">
        <ele>335</ele>
        <time>2011-11-05T14:48:28Z</time>
      </trkpt>
      <trkpt lat="62.8323049564" lon="14.4150929712">
        <ele>334</ele>
        <time>2011-11-05T14:48:29Z</time>
      </trkpt>
      <trkpt lat="62.8322969936" lon="14.4150999282">
        <ele>333</ele>
        <time>2011-11-05T14:48:30Z</time>
      </trkpt>
      <trkpt lat="62.8322899528" lon="14.4151089806">
        <ele>334</ele>
        <time>2011-11-05T14:48:31Z</time>
      </trkpt>
      <trkpt lat="62.8322839178" lon="14.4151219726">
        <ele>334</ele>
        <time>2011-11-05T14:48:32Z</time>
      </trkpt>
      <trkpt lat="62.8322769608" lon="14.415131947">
        <ele>336</ele>
        <time>2011-11-05T14:48:33Z</time>
      </trkpt>
      <trkpt lat="62.832268998" lon="14.4151419215">
        <ele>337</ele>
        <time>2011-11-05T14:48:34Z</time>
      </trkpt>
      <trkpt lat="62.8322639689" lon="14.4151539914">
        <ele>339</ele>
        <time>2011-11-05T14:48:35Z</time>
      </trkpt>
      <trkpt lat="62.8322569281" lon="14.4151659776">
        <ele>340</ele>
        <time>2011-11-05T14:48:36Z</time>
      </trkpt>
      <trkpt lat="62.8322499711" lon="14.4151779637">
        <ele>340</ele>
        <time>2011-11-05T14:48:37Z</time>
      </trkpt>
      <trkpt lat="62.8322399966" lon="14.415188944">
        <ele>341</ele>
        <time>2011-11-05T14:48:38Z</time>
      </trkpt>
      <trkpt lat="62.8322309442" lon="14.4151919615">
        <ele>343</ele>
        <time>2011-11-05T14:48:39Z</time>
      </trkpt>
      <trkpt lat="62.8322159406" lon="14.4151959848">
        <ele>343</ele>
        <time>2011-11-05T14:48:40Z</time>
      </trkpt>
      <trkpt lat="62.8322049603" lon="14.4151989184">
        <ele>343</ele>
        <time>2011-11-05T14:48:41Z</time>
      </trkpt>
      <trkpt lat="62.8321959917" lon="14.4152059592">
        <ele>342</ele>
        <time>2011-11-05T14:48:42Z</time>
      </trkpt>
      <trkpt lat="62.8321909625" lon="14.4152059592">
        <ele>340</ele>
        <time>2011-11-05T14:48:43Z</time>
      </trkpt>
      <trkpt lat="62.8321759589" lon="14.4152119942">
        <ele>339</ele>
        <time>2011-11-05T14:48:44Z</time>
      </trkpt>
      <trkpt lat="62.8321649786" lon="14.4152109884">
        <ele>340</ele>
        <time>2011-11-05T14:48:45Z</time>
      </trkpt>
      <trkpt lat="62.8321539983" lon="14.4152149279">
        <ele>340</ele>
        <time>2011-11-05T14:48:46Z</time>
      </trkpt>
      <trkpt lat="62.8321469575" lon="14.4152159337">
        <ele>341</ele>
        <time>2011-11-05T14:48:47Z</time>
      </trkpt>
      <trkpt lat="62.8321399167" lon="14.4152209628">
        <ele>341</ele>
        <time>2011-11-05T14:48:48Z</time>
      </trkpt>
      <trkpt lat="62.8321369831" lon="14.4152249862">
        <ele>344</ele>
        <time>2011-11-05T14:48:49Z</time>
      </trkpt>
      <trkpt lat="62.8321299423" lon="14.4152279198">
        <ele>345</ele>
        <time>2011-11-05T14:48:50Z</time>
      </trkpt>
      <trkpt lat="62.8321219794" lon="14.4152279198">
        <ele>345</ele>
        <time>2011-11-05T14:48:51Z</time>
      </trkpt>
      <trkpt lat="62.8321109992" lon="14.4152289256">
        <ele>343</ele>
        <time>2011-11-05T14:48:52Z</time>
      </trkpt>
      <trkpt lat="62.8321029525" lon="14.4152269978">
        <ele>345</ele>
        <time>2011-11-05T14:48:53Z</time>
      </trkpt>
      <trkpt lat="62.8320919722" lon="14.4152279198">
        <ele>345</ele>
        <time>2011-11-05T14:48:54Z</time>
      </trkpt>
      <trkpt lat="62.8320789803" lon="14.4152339548">
        <ele>343</ele>
        <time>2011-11-05T14:48:55Z</time>
      </trkpt>
      <trkpt lat="62.8320649825" lon="14.4152499642">
        <ele>342</ele>
        <time>2011-11-05T14:48:56Z</time>
      </trkpt>
      <trkpt lat="62.83205593" lon="14.4152619503">
        <ele>341</ele>
        <time>2011-11-05T14:48:57Z</time>
      </trkpt>
      <trkpt lat="62.8320489731" lon="14.4152739365">
        <ele>342</ele>
        <time>2011-11-05T14:48:58Z</time>
      </trkpt>
      <trkpt lat="62.8320379928" lon="14.4152839947">
        <ele>344</ele>
        <time>2011-11-05T14:48:59Z</time>
      </trkpt>
      <trkpt lat="62.8320289403" lon="14.4152919576">
        <ele>344</ele>
        <time>2011-11-05T14:49:00Z</time>
      </trkpt>
      <trkpt lat="62.8320199717" lon="14.4152909517">
        <ele>347</ele>
        <time>2011-11-05T14:49:01Z</time>
      </trkpt>
      <trkpt lat="62.8320069797" lon="14.4152979925">
        <ele>342</ele>
        <time>2011-11-05T14:49:02Z</time>
      </trkpt>
      <trkpt lat="62.8319969214" lon="14.4153009262">
        <ele>340</ele>
        <time>2011-11-05T14:49:03Z</time>
      </trkpt>
      <trkpt lat="62.831986947" lon="14.4153069612">
        <ele>337</ele>
        <time>2011-11-05T14:49:04Z</time>
      </trkpt>
      <trkpt lat="62.8319789842" lon="14.4153109845">
        <ele>340</ele>
        <time>2011-11-05T14:49:05Z</time>
      </trkpt>
      <trkpt lat="62.8319709376" lon="14.415314924">
        <ele>339</ele>
        <time>2011-11-05T14:49:06Z</time>
      </trkpt>
      <trkpt lat="62.8319639806" lon="14.4153199531">
        <ele>338</ele>
        <time>2011-11-05T14:49:07Z</time>
      </trkpt>
      <trkpt lat="62.8319569398" lon="14.4153219648">
        <ele>337</ele>
        <time>2011-11-05T14:49:08Z</time>
      </trkpt>
      <trkpt lat="62.8319449537" lon="14.4153319392">
        <ele>342</ele>
        <time>2011-11-05T14:49:09Z</time>
      </trkpt>
      <trkpt lat="62.8319349792" lon="14.4153409917">
        <ele>344</ele>
        <time>2011-11-05T14:49:10Z</time>
      </trkpt>
      <trkpt lat="62.8319249209" lon="14.4153479487">
        <ele>345</ele>
        <time>2011-11-05T14:49:11Z</time>
      </trkpt>
      <trkpt lat="62.8319159523" lon="14.4153529778">
        <ele>347</ele>
        <time>2011-11-05T14:49:12Z</time>
      </trkpt>
      <trkpt lat="62.8319079895" lon="14.4153549895">
        <ele>346</ele>
        <time>2011-11-05T14:49:13Z</time>
      </trkpt>
      <trkpt lat="62.831898937" lon="14.4153619464">
        <ele>345</ele>
        <time>2011-11-05T14:49:14Z</time>
      </trkpt>
      <trkpt lat="62.8318909742" lon="14.4153679814">
        <ele>344</ele>
        <time>2011-11-05T14:49:15Z</time>
      </trkpt>
      <trkpt lat="62.8318779822" lon="14.4153809734">
        <ele>345</ele>
        <time>2011-11-05T14:49:16Z</time>
      </trkpt>
      <trkpt lat="62.8318659961" lon="14.4153919537">
        <ele>344</ele>
        <time>2011-11-05T14:49:17Z</time>
      </trkpt>
      <trkpt lat="62.831854932" lon="14.415402934">
        <ele>344</ele>
        <time>2011-11-05T14:49:18Z</time>
      </trkpt>
      <trkpt lat="62.8318409342" lon="14.4154169317">
        <ele>346</ele>
        <time>2011-11-05T14:49:19Z</time>
      </trkpt>
      <trkpt lat="62.8318279423" lon="14.4154249784">
        <ele>347</ele>
        <time>2011-11-05T14:49:20Z</time>
      </trkpt>
      <trkpt lat="62.8318149503" lon="14.4154319353">
        <ele>344</ele>
        <time>2011-11-05T14:49:21Z</time>
      </trkpt>
      <trkpt lat="62.8318029642" lon="14.4154429995">
        <ele>341</ele>
        <time>2011-11-05T14:49:22Z</time>
      </trkpt>
      <trkpt lat="62.8317899723" lon="14.4154519681">
        <ele>335</ele>
        <time>2011-11-05T14:49:23Z</time>
      </trkpt>
      <trkpt lat="62.8317809198" lon="14.4154559914">
        <ele>342</ele>
        <time>2011-11-05T14:49:24Z</time>
      </trkpt>
      <trkpt lat="62.8317749687" lon="14.4154579192">
        <ele>342</ele>
        <time>2011-11-05T14:49:25Z</time>
      </trkpt>
      <trkpt lat="62.8317629825" lon="14.415471917">
        <ele>338</ele>
        <time>2011-11-05T14:49:26Z</time>
      </trkpt>
      <trkpt lat="62.8317519184" lon="14.4154859986">
        <ele>336</ele>
        <time>2011-11-05T14:49:27Z</time>
      </trkpt>
      <trkpt lat="62.8317439556" lon="14.4154999964">
        <ele>338</ele>
        <time>2011-11-05T14:49:28Z</time>
      </trkpt>
      <trkpt lat="62.8317389265" lon="14.4154999964">
        <ele>336</ele>
        <time>2011-11-05T14:49:29Z</time>
      </trkpt>
      <trkpt lat="62.8317259345" lon="14.4155119825">
        <ele>338</ele>
        <time>2011-11-05T14:49:30Z</time>
      </trkpt>
      <trkpt lat="62.8317159601" lon="14.4155249745">
        <ele>338</ele>
        <time>2011-11-05T14:49:31Z</time>
      </trkpt>
      <trkpt lat="62.8317069914" lon="14.4155319314">
        <ele>337</ele>
        <time>2011-11-05T14:49:32Z</time>
      </trkpt>
      <trkpt lat="62.8316959273" lon="14.4155389722">
        <ele>339</ele>
        <time>2011-11-05T14:49:33Z</time>
      </trkpt>
      <trkpt lat="62.8316829354" lon="14.4155539759">
        <ele>337</ele>
        <time>2011-11-05T14:49:34Z</time>
      </trkpt>
      <trkpt lat="62.8316739667" lon="14.4155579992">
        <ele>336</ele>
        <time>2011-11-05T14:49:35Z</time>
      </trkpt>
      <trkpt lat="62.8316659201" lon="14.4155679736">
        <ele>336</ele>
        <time>2011-11-05T14:49:36Z</time>
      </trkpt>
      <trkpt lat="62.8316559456" lon="14.4155749306">
        <ele>337</ele>
        <time>2011-11-05T14:49:37Z</time>
      </trkpt>
      <trkpt lat="62.8316479828" lon="14.4155739248">
        <ele>339</ele>
        <time>2011-11-05T14:49:38Z</time>
      </trkpt>
      <trkpt lat="62.8316389304" lon="14.4155699853">
        <ele>339</ele>
        <time>2011-11-05T14:49:39Z</time>
      </trkpt>
      <trkpt lat="62.8316279501" lon="14.4155789539">
        <ele>346</ele>
        <time>2011-11-05T14:49:40Z</time>
      </trkpt>
      <trkpt lat="62.8316179756" lon="14.4155809656">
        <ele>343</ele>
        <time>2011-11-05T14:49:41Z</time>
      </trkpt>
      <trkpt lat="62.8316119406" lon="14.4155799598">
        <ele>346</ele>
        <time>2011-11-05T14:49:42Z</time>
      </trkpt>
      <trkpt lat="62.8316009603" lon="14.4155869167">
        <ele>346</ele>
        <time>2011-11-05T14:49:43Z</time>
      </trkpt>
      <trkpt lat="62.8315869626" lon="14.4155939575">
        <ele>342</ele>
        <time>2011-11-05T14:49:44Z</time>
      </trkpt>
      <trkpt lat="62.8315749764" lon="14.415596975">
        <ele>345</ele>
        <time>2011-11-05T14:49:45Z</time>
      </trkpt>
      <trkpt lat="62.8315619845" lon="14.4156109728">
        <ele>342</ele>
        <time>2011-11-05T14:49:46Z</time>
      </trkpt>
      <trkpt lat="62.831552932" lon="14.4156199414">
        <ele>339</ele>
        <time>2011-11-05T14:49:47Z</time>
      </trkpt>
      <trkpt lat="62.8315439634" lon="14.4156279881">
        <ele>340</ele>
        <time>2011-11-05T14:49:48Z</time>
      </trkpt>
      <trkpt lat="62.8315379284" lon="14.415634945">
        <ele>339</ele>
        <time>2011-11-05T14:49:49Z</time>
      </trkpt>
      <trkpt lat="62.8315299656" lon="14.4156399742">
        <ele>339</ele>
        <time>2011-11-05T14:49:50Z</time>
      </trkpt>
      <trkpt lat="62.8315139562" lon="14.4156469312">
        <ele>338</ele>
        <time>2011-11-05T14:49:51Z</time>
      </trkpt>
      <trkpt lat="62.8315039817" lon="14.4156499486">
        <ele>340</ele>
        <time>2011-11-05T14:49:52Z</time>
      </trkpt>
      <trkpt lat="62.8314999584" lon="14.4156429917">
        <ele>344</ele>
        <time>2011-11-05T14:49:53Z</time>
      </trkpt>
      <trkpt lat="62.8314939234" lon="14.415653972">
        <ele>341</ele>
        <time>2011-11-05T14:49:54Z</time>
      </trkpt>
      <trkpt lat="62.8314889781" lon="14.4156559836">
        <ele>342</ele>
        <time>2011-11-05T14:49:55Z</time>
      </trkpt>
      <trkpt lat="62.8314779978" lon="14.4156579953">
        <ele>346</ele>
        <time>2011-11-05T14:49:56Z</time>
      </trkpt>
      <trkpt lat="62.8314689454" lon="14.4156549778">
        <ele>341</ele>
        <time>2011-11-05T14:49:57Z</time>
      </trkpt>
      <trkpt lat="62.8314599767" lon="14.4156489428">
        <ele>344</ele>
        <time>2011-11-05T14:49:58Z</time>
      </trkpt>
      <trkpt lat="62.8314469848" lon="14.4156499486">
        <ele>339</ele>
        <time>2011-11-05T14:49:59Z</time>
      </trkpt>
      <trkpt lat="62.8314369265" lon="14.4156529661">
        <ele>343</ele>
        <time>2011-11-05T14:50:00Z</time>
      </trkpt>
      <trkpt lat="62.8314199951" lon="14.4156559836">
        <ele>347</ele>
        <time>2011-11-05T14:50:01Z</time>
      </trkpt>
      <trkpt lat="62.8314069193" lon="14.4156589173">
        <ele>341</ele>
        <time>2011-11-05T14:50:02Z</time>
      </trkpt>
      <trkpt lat="62.8313979506" lon="14.4156589173">
        <ele>341</ele>
        <time>2011-11-05T14:50:03Z</time>
      </trkpt>
      <trkpt lat="62.8313909937" lon="14.4156569894">
        <ele>341</ele>
        <time>2011-11-05T14:50:04Z</time>
      </trkpt>
      <trkpt lat="62.8313869704" lon="14.4156439975">
        <ele>345</ele>
        <time>2011-11-05T14:50:05Z</time>
      </trkpt>
      <trkpt lat="62.831382947" lon="14.4156429917">
        <ele>342</ele>
        <time>2011-11-05T14:50:06Z</time>
      </trkpt>
      <trkpt lat="62.8313749842" lon="14.415634945">
        <ele>340</ele>
        <time>2011-11-05T14:50:07Z</time>
      </trkpt>
      <trkpt lat="62.8313619923" lon="14.4156249706">
        <ele>339</ele>
        <time>2011-11-05T14:50:08Z</time>
      </trkpt>
      <trkpt lat="62.8313549515" lon="14.4156279881">
        <ele>338</ele>
        <time>2011-11-05T14:50:09Z</time>
      </trkpt>
      <trkpt lat="62.8313469887" lon="14.4156209473">
        <ele>335</ele>
        <time>2011-11-05T14:50:10Z</time>
      </trkpt>
      <trkpt lat="62.8313339967" lon="14.4156269822">
        <ele>335</ele>
        <time>2011-11-05T14:50:11Z</time>
      </trkpt>
      <trkpt lat="62.8313219268" lon="14.4156339392">
        <ele>334</ele>
        <time>2011-11-05T14:50:12Z</time>
      </trkpt>
      <trkpt lat="62.831313964" lon="14.4156339392">
        <ele>333</ele>
        <time>2011-11-05T14:50:13Z</time>
      </trkpt>
      <trkpt lat="62.8313089348" lon="14.4156429917">
        <ele>337</ele>
        <time>2011-11-05T14:50:14Z</time>
      </trkpt>
      <trkpt lat="62.8313089348" lon="14.4156499486">
        <ele>338</ele>
        <time>2011-11-05T14:50:15Z</time>
      </trkpt>
      <trkpt lat="62.8313109465" lon="14.415653972">
        <ele>337</ele>
        <time>2011-11-05T14:50:16Z</time>
      </trkpt>
      <trkpt lat="62.831313964" lon="14.4156519603">
        <ele>335</ele>
        <time>2011-11-05T14:50:17Z</time>
      </trkpt>
      <trkpt lat="62.831313964" lon="14.4156519603">
        <ele>336</ele>
        <time>2011-11-05T14:50:18Z</time>
      </trkpt>
      <trkpt lat="62.831313964" lon="14.4156519603">
        <ele>337</ele>
        <time>2011-11-05T14:50:19Z</time>
      </trkpt>
      <trkpt lat="62.8313189931" lon="14.4156449195">
        <ele>340</ele>
        <time>2011-11-05T14:50:20Z</time>
      </trkpt>
      <trkpt lat="62.8313159756" lon="14.4156489428">
        <ele>341</ele>
        <time>2011-11-05T14:50:21Z</time>
      </trkpt>
      <trkpt lat="62.8313099407" lon="14.4156449195">
        <ele>342</ele>
        <time>2011-11-05T14:50:22Z</time>
      </trkpt>
      <trkpt lat="62.831300972" lon="14.4156319275">
        <ele>343</ele>
        <time>2011-11-05T14:50:23Z</time>
      </trkpt>
      <trkpt lat="62.8312949371" lon="14.4156219531">
        <ele>341</ele>
        <time>2011-11-05T14:50:24Z</time>
      </trkpt>
      <trkpt lat="62.8312909976" lon="14.415609967">
        <ele>339</ele>
        <time>2011-11-05T14:50:25Z</time>
      </trkpt>
      <trkpt lat="62.8312839568" lon="14.415596975">
        <ele>338</ele>
        <time>2011-11-05T14:50:26Z</time>
      </trkpt>
      <trkpt lat="62.831275994" lon="14.4155789539">
        <ele>337</ele>
        <time>2011-11-05T14:50:27Z</time>
      </trkpt>
      <trkpt lat="62.8312649298" lon="14.4155739248">
        <ele>337</ele>
        <time>2011-11-05T14:50:28Z</time>
      </trkpt>
      <trkpt lat="62.831256967" lon="14.415565962">
        <ele>336</ele>
        <time>2011-11-05T14:50:29Z</time>
      </trkpt>
      <trkpt lat="62.8312409576" lon="14.41555297">
        <ele>333</ele>
        <time>2011-11-05T14:50:30Z</time>
      </trkpt>
    </trkseg>
  </trk>
</gpx>